<?xml version='1.0' encoding='UTF-8'?><gpx version="1.1" creator="JPX - https://github.com/jenetics/jpx" xmlns="http://www.topografix.com/GPX/1/1"><trk><trkseg><trkpt lat="44.94959743579865" lon="12.131791605505057"><ele>-3.0</ele><time>2026-04-05T15:36:02.05Z</time></trkpt><trkpt lat="44.94958615427845" lon="12.13190150502514"><ele>-3.0</ele><time>2026-04-05T15:36:04.051Z</time></trkpt><trkpt lat="44.94948651299251" lon="12.131992377923696"><ele>-3.0</ele><time>2026-04-05T15:36:06.051Z</time></trkpt><trkpt lat="44.94940509878886" lon="12.132019470829773"><ele>-3.0</ele><time>2026-04-05T15:36:07.051Z</time></trkpt><trkpt lat="44.949321010259375" lon="12.132053038891026"><ele>-3.0</ele><time>2026-04-05T15:36:08.051Z</time></trkpt><trkpt lat="44.94923533837063" lon="12.13209012132681"><ele>-2.8333333333333335</ele><time>2026-04-05T15:36:09.051Z</time></trkpt><trkpt lat="44.94914833588801" lon="12.132126772485348"><ele>-2.6666666666666665</ele><time>2026-04-05T15:36:10.051Z</time></trkpt><trkpt lat="44.94906657831721" lon="12.132155865670157"><ele>-2.5</ele><time>2026-04-05T15:36:11.051Z</time></trkpt><trkpt lat="44.94897732753899" lon="12.132187326682223"><ele>-2.333333333333333</ele><time>2026-04-05T15:36:12.051Z</time></trkpt><trkpt lat="44.948888222859416" lon="12.132217423916677"><ele>-2.1666666666666665</ele><time>2026-04-05T15:36:13.051Z</time></trkpt><trkpt lat="44.948799420365795" lon="12.132242789410048"><ele>-2.0</ele><time>2026-04-05T15:36:14.051Z</time></trkpt><trkpt lat="44.94872757813963" lon="12.132253048774109"><ele>-1.9999999999999998</ele><time>2026-04-05T15:36:15.051Z</time></trkpt><trkpt lat="44.94866078060412" lon="12.132243484073754"><ele>-2.0</ele><time>2026-04-05T15:36:16.051Z</time></trkpt><trkpt lat="44.94858618008757" lon="12.132205275664578"><ele>-2.0</ele><time>2026-04-05T15:36:17.051Z</time></trkpt><trkpt lat="44.94850173280588" lon="12.132157879044032"><ele>-2.0</ele><time>2026-04-05T15:36:18.051Z</time></trkpt><trkpt lat="44.94843004040412" lon="12.132087230771296"><ele>-1.9999999999999998</ele><time>2026-04-05T15:36:19.051Z</time></trkpt><trkpt lat="44.94837079331927" lon="12.131986382274121"><ele>-2.0</ele><time>2026-04-05T15:36:20.051Z</time></trkpt><trkpt lat="44.948326692632584" lon="12.131862464377209"><ele>-1.6</ele><time>2026-04-05T15:36:21.051Z</time></trkpt><trkpt lat="44.948282713475656" lon="12.131743169126361"><ele>-1.2000000000000002</ele><time>2026-04-05T15:36:22.051Z</time></trkpt><trkpt lat="44.94824672939887" lon="12.131626320910563"><ele>-0.8</ele><time>2026-04-05T15:36:23.051Z</time></trkpt><trkpt lat="44.94821114568006" lon="12.131508855742107"><ele>-0.4</ele><time>2026-04-05T15:36:24.051Z</time></trkpt><trkpt lat="44.94817725133159" lon="12.131396832776273"><ele>0.0</ele><time>2026-04-05T15:36:25.051Z</time></trkpt><trkpt lat="44.948146302748064" lon="12.131275629768858"><ele>0.0</ele><time>2026-04-05T15:36:26.051Z</time></trkpt><trkpt lat="44.94811631934189" lon="12.131148075829847"><ele>0.0</ele><time>2026-04-05T15:36:27.051Z</time></trkpt><trkpt lat="44.948081841351204" lon="12.131010692380439"><ele>0.0</ele><time>2026-04-05T15:36:28.051Z</time></trkpt><trkpt lat="44.94804702232793" lon="12.130863269809167"><ele>0.0</ele><time>2026-04-05T15:36:29.051Z</time></trkpt><trkpt lat="44.94800526615219" lon="12.130723105836193"><ele>0.0</ele><time>2026-04-05T15:36:30.051Z</time></trkpt><trkpt lat="44.947969172593524" lon="12.130579260611954"><ele>-0.2</ele><time>2026-04-05T15:36:31.051Z</time></trkpt><trkpt lat="44.947931001349374" lon="12.130435331595846"><ele>-0.4</ele><time>2026-04-05T15:36:32.051Z</time></trkpt><trkpt lat="44.94789162263049" lon="12.1302912822009"><ele>-0.6000000000000001</ele><time>2026-04-05T15:36:33.051Z</time></trkpt><trkpt lat="44.94785506516622" lon="12.130150433509003"><ele>-0.8</ele><time>2026-04-05T15:36:34.051Z</time></trkpt><trkpt lat="44.94781243820165" lon="12.130006005161349"><ele>-1.0</ele><time>2026-04-05T15:36:35.051Z</time></trkpt><trkpt lat="44.9477645152646" lon="12.12985515641648"><ele>-0.5</ele><time>2026-04-05T15:36:36.051Z</time></trkpt><trkpt lat="44.94771700600154" lon="12.129690266552624"><ele>0.0</ele><time>2026-04-05T15:36:37.051Z</time></trkpt><trkpt lat="44.94766537536757" lon="12.129508310138592"><ele>0.5</ele><time>2026-04-05T15:36:38.051Z</time></trkpt><trkpt lat="44.947611360742094" lon="12.129309525237574"><ele>1.0</ele><time>2026-04-05T15:36:39.051Z</time></trkpt><trkpt lat="44.947559003542615" lon="12.129109580494191"><ele>1.0</ele><time>2026-04-05T15:36:40.051Z</time></trkpt><trkpt lat="44.94751048877794" lon="12.128914189938405"><ele>1.0</ele><time>2026-04-05T15:36:41.051Z</time></trkpt><trkpt lat="44.9474636096797" lon="12.128714013084954"><ele>1.0</ele><time>2026-04-05T15:36:42.051Z</time></trkpt><trkpt lat="44.94741482573615" lon="12.128519318639803"><ele>1.0</ele><time>2026-04-05T15:36:43.051Z</time></trkpt><trkpt lat="44.947367196266676" lon="12.128332184867514"><ele>1.0</ele><time>2026-04-05T15:36:44.052Z</time></trkpt><trkpt lat="44.94732069073261" lon="12.128148881449986"><ele>1.0</ele><time>2026-04-05T15:36:45.052Z</time></trkpt><trkpt lat="44.9472787786819" lon="12.127977413488795"><ele>1.0</ele><time>2026-04-05T15:36:46.052Z</time></trkpt><trkpt lat="44.947235897099546" lon="12.127822641334564"><ele>1.0</ele><time>2026-04-05T15:36:47.052Z</time></trkpt><trkpt lat="44.94718885726664" lon="12.12768379392385"><ele>1.0</ele><time>2026-04-05T15:36:48.052Z</time></trkpt><trkpt lat="44.94714826297459" lon="12.127559936585502"><ele>1.0</ele><time>2026-04-05T15:36:49.052Z</time></trkpt><trkpt lat="44.94710413135681" lon="12.127436535447199"><ele>1.0</ele><time>2026-04-05T15:36:50.052Z</time></trkpt><trkpt lat="44.94707258178221" lon="12.127322908365452"><ele>1.0</ele><time>2026-04-05T15:36:51.052Z</time></trkpt><trkpt lat="44.94704108778873" lon="12.127204943828596"><ele>1.0</ele><time>2026-04-05T15:36:52.052Z</time></trkpt><trkpt lat="44.9470245127059" lon="12.127083694323575"><ele>0.9999999999999999</ele><time>2026-04-05T15:36:53.052Z</time></trkpt><trkpt lat="44.94699310013703" lon="12.126971223839504"><ele>1.0</ele><time>2026-04-05T15:36:54.052Z</time></trkpt><trkpt lat="44.946958713187215" lon="12.126856841468188"><ele>1.0</ele><time>2026-04-05T15:36:55.052Z</time></trkpt><trkpt lat="44.946926861987016" lon="12.126753599849978"><ele>1.0</ele><time>2026-04-05T15:36:56.052Z</time></trkpt><trkpt lat="44.94689358879127" lon="12.126645748969255"><ele>0.9999999999999999</ele><time>2026-04-05T15:36:57.052Z</time></trkpt><trkpt lat="44.94685783399862" lon="12.126530207397204"><ele>1.0</ele><time>2026-04-05T15:36:58.052Z</time></trkpt><trkpt lat="44.94682260193741" lon="12.126416426173723"><ele>1.0</ele><time>2026-04-05T15:36:59.052Z</time></trkpt><trkpt lat="44.94678691898866" lon="12.126301094253064"><ele>1.0</ele><time>2026-04-05T15:37:00.052Z</time></trkpt><trkpt lat="44.94675102515013" lon="12.126185076503235"><ele>1.0</ele><time>2026-04-05T15:37:01.052Z</time></trkpt><trkpt lat="44.946714394603106" lon="12.126066677389188"><ele>1.0</ele><time>2026-04-05T15:37:02.052Z</time></trkpt><trkpt lat="44.946677267239416" lon="12.125946672525448"><ele>1.0</ele><time>2026-04-05T15:37:03.052Z</time></trkpt><trkpt lat="44.94663959466345" lon="12.125824905423249"><ele>1.2000000000000002</ele><time>2026-04-05T15:37:04.052Z</time></trkpt><trkpt lat="44.94659997627486" lon="12.125696849017817"><ele>1.4000000000000001</ele><time>2026-04-05T15:37:05.052Z</time></trkpt><trkpt lat="44.946558309825875" lon="12.125562172728774"><ele>1.6</ele><time>2026-04-05T15:37:06.051Z</time></trkpt><trkpt lat="44.94651793911772" lon="12.125431684595709"><ele>1.8</ele><time>2026-04-05T15:37:07.05Z</time></trkpt><trkpt lat="44.94647689490588" lon="12.125299019466144"><ele>2.0</ele><time>2026-04-05T15:37:08.049Z</time></trkpt><trkpt lat="44.94643645089357" lon="12.125168296835952"><ele>2.0</ele><time>2026-04-05T15:37:09.048Z</time></trkpt><trkpt lat="44.946395684413254" lon="12.125038243718684"><ele>2.0</ele><time>2026-04-05T15:37:10.047Z</time></trkpt><trkpt lat="44.94635277560974" lon="12.12490082601181"><ele>2.0</ele><time>2026-04-05T15:37:11.046Z</time></trkpt><trkpt lat="44.94630836845595" lon="12.124758609821164"><ele>2.0</ele><time>2026-04-05T15:37:12.045Z</time></trkpt><trkpt lat="44.94626508424203" lon="12.124619989862301"><ele>2.0</ele><time>2026-04-05T15:37:13.044Z</time></trkpt><trkpt lat="44.94622286637226" lon="12.1244876242674"><ele>1.8333333333333333</ele><time>2026-04-05T15:37:14.043Z</time></trkpt><trkpt lat="44.94618540229121" lon="12.124370584073956"><ele>1.6666666666666665</ele><time>2026-04-05T15:37:15.043Z</time></trkpt><trkpt lat="44.94614809035729" lon="12.124254020930142"><ele>1.5</ele><time>2026-04-05T15:37:16.042Z</time></trkpt><trkpt lat="44.9461099211918" lon="12.12413468663015"><ele>1.3333333333333333</ele><time>2026-04-05T15:37:17.041Z</time></trkpt><trkpt lat="44.94607684455852" lon="12.12403130654817"><ele>1.1666666666666665</ele><time>2026-04-05T15:37:18.041Z</time></trkpt><trkpt lat="44.94604801586125" lon="12.123941203244078"><ele>1.0</ele><time>2026-04-05T15:37:19.04Z</time></trkpt><trkpt lat="44.94602077148218" lon="12.123856051631032"><ele>0.9999999999999999</ele><time>2026-04-05T15:37:20.04Z</time></trkpt><trkpt lat="44.94603285207523" lon="12.123757231552505"><ele>1.0</ele><time>2026-04-05T15:37:21.039Z</time></trkpt><trkpt lat="44.94596385411978" lon="12.123679922833077"><ele>1.0</ele><time>2026-04-05T15:37:22.039Z</time></trkpt><trkpt lat="44.94592918912684" lon="12.123579406562104"><ele>1.0</ele><time>2026-04-05T15:37:23.038Z</time></trkpt><trkpt lat="44.94589252524742" lon="12.123481090995082"><ele>0.9999999999999999</ele><time>2026-04-05T15:37:24.038Z</time></trkpt><trkpt lat="44.94586780770537" lon="12.123382384171816"><ele>1.0</ele><time>2026-04-05T15:37:25.038Z</time></trkpt><trkpt lat="44.94583740798699" lon="12.123285598685321"><ele>0.9999999999999999</ele><time>2026-04-05T15:37:26.037Z</time></trkpt><trkpt lat="44.94580159050829" lon="12.123186163321133"><ele>1.0</ele><time>2026-04-05T15:37:27.037Z</time></trkpt><trkpt lat="44.94577087028539" lon="12.123099060557925"><ele>1.0</ele><time>2026-04-05T15:37:28.037Z</time></trkpt><trkpt lat="44.94574406930587" lon="12.122997977836727"><ele>1.0</ele><time>2026-04-05T15:37:29.037Z</time></trkpt><trkpt lat="44.94571833733121" lon="12.122907527354288"><ele>0.9999999999999999</ele><time>2026-04-05T15:37:30.036Z</time></trkpt><trkpt lat="44.94569370970686" lon="12.122745483737825"><ele>1.0</ele><time>2026-04-05T15:37:32.036Z</time></trkpt><trkpt lat="44.945693949370245" lon="12.122576700618321"><ele>1.0</ele><time>2026-04-05T15:37:34.035Z</time></trkpt><trkpt lat="44.94566381678073" lon="12.12248321261029"><ele>0.9999999999999999</ele><time>2026-04-05T15:37:35.035Z</time></trkpt><trkpt lat="44.945641575239236" lon="12.122395769104937"><ele>1.0</ele><time>2026-04-05T15:37:36.035Z</time></trkpt><trkpt lat="44.945620384350484" lon="12.12230261615418"><ele>1.0</ele><time>2026-04-05T15:37:37.035Z</time></trkpt><trkpt lat="44.94561023194637" lon="12.122209085497909"><ele>0.9999999999999999</ele><time>2026-04-05T15:37:38.035Z</time></trkpt><trkpt lat="44.94559875435774" lon="12.122106408656458"><ele>1.0</ele><time>2026-04-05T15:37:39.035Z</time></trkpt><trkpt lat="44.94557493550394" lon="12.121996898067884"><ele>1.0</ele><time>2026-04-05T15:37:40.034Z</time></trkpt><trkpt lat="44.94554587106489" lon="12.121900877172466"><ele>0.9999999999999999</ele><time>2026-04-05T15:37:41.034Z</time></trkpt><trkpt lat="44.945517567204554" lon="12.12180756803419"><ele>1.0</ele><time>2026-04-05T15:37:42.034Z</time></trkpt><trkpt lat="44.94547864357102" lon="12.121721350739934"><ele>1.0</ele><time>2026-04-05T15:37:43.034Z</time></trkpt><trkpt lat="44.945472433417955" lon="12.121623422284019"><ele>1.0</ele><time>2026-04-05T15:37:44.034Z</time></trkpt><trkpt lat="44.94543668189084" lon="12.121454042893033"><ele>0.9999999999999999</ele><time>2026-04-05T15:37:46.034Z</time></trkpt><trkpt lat="44.945398140960116" lon="12.1213092427977"><ele>1.0</ele><time>2026-04-05T15:37:48.034Z</time></trkpt><trkpt lat="44.94533753065481" lon="12.1211825274787"><ele>1.2000000000000002</ele><time>2026-04-05T15:37:50.034Z</time></trkpt><trkpt lat="44.945295166131174" lon="12.121065998578946"><ele>1.4000000000000001</ele><time>2026-04-05T15:37:52.033Z</time></trkpt><trkpt lat="44.94525054246777" lon="12.120982483949975"><ele>1.6</ele><time>2026-04-05T15:37:54.033Z</time></trkpt><trkpt lat="44.94519308810637" lon="12.120899424290087"><ele>1.8</ele><time>2026-04-05T15:37:57.033Z</time></trkpt><trkpt lat="44.945130819405954" lon="12.12081718001479"><ele>2.0</ele><time>2026-04-05T15:37:59.033Z</time></trkpt><trkpt lat="44.945044707798104" lon="12.120708179267789"><ele>2.0</ele><time>2026-04-05T15:38:01.032Z</time></trkpt><trkpt lat="44.94496108877585" lon="12.120596181163839"><ele>2.0</ele><time>2026-04-05T15:38:03.033Z</time></trkpt><trkpt lat="44.94490417616572" lon="12.120519953054336"><ele>2.0</ele><time>2026-04-05T15:38:05.033Z</time></trkpt><trkpt lat="44.94496437556667" lon="12.120383276103345"><ele>2.0</ele><time>2026-04-05T15:38:07.033Z</time></trkpt><trkpt lat="44.944998987046006" lon="12.120298498364884"><ele>2.0</ele><time>2026-04-05T15:38:08.033Z</time></trkpt><trkpt lat="44.94507862411302" lon="12.12024417497126"><ele>1.9999999999999998</ele><time>2026-04-05T15:38:09.033Z</time></trkpt><trkpt lat="44.945140759379996" lon="12.120168445741882"><ele>2.0</ele><time>2026-04-05T15:38:10.033Z</time></trkpt><trkpt lat="44.94518547703919" lon="12.120091395741012"><ele>2.0</ele><time>2026-04-05T15:38:11.033Z</time></trkpt><trkpt lat="44.94521884975378" lon="12.119956663584531"><ele>2.0</ele><time>2026-04-05T15:38:13.033Z</time></trkpt><trkpt lat="44.9451623029827" lon="12.119886701047578"><ele>1.9999999999999998</ele><time>2026-04-05T15:38:19.033Z</time></trkpt><trkpt lat="44.945057691168834" lon="12.119927916606784"><ele>2.0</ele><time>2026-04-05T15:38:21.033Z</time></trkpt><trkpt lat="44.944992921141235" lon="12.120010236670563"><ele>2.25</ele><time>2026-04-05T15:38:22.033Z</time></trkpt><trkpt lat="44.944908584976055" lon="12.120123350047855"><ele>2.5</ele><time>2026-04-05T15:38:23.033Z</time></trkpt><trkpt lat="44.94481566027461" lon="12.120257296148317"><ele>2.75</ele><time>2026-04-05T15:38:24.033Z</time></trkpt><trkpt lat="44.94471780308258" lon="12.120400785437168"><ele>3.0</ele><time>2026-04-05T15:38:25.033Z</time></trkpt><trkpt lat="44.94460764232872" lon="12.120566304033138"><ele>2.6666666666666665</ele><time>2026-04-05T15:38:26.033Z</time></trkpt><trkpt lat="44.9444999621907" lon="12.120739668697636"><ele>2.333333333333333</ele><time>2026-04-05T15:38:27.033Z</time></trkpt><trkpt lat="44.94439342105909" lon="12.120915634044195"><ele>2.0</ele><time>2026-04-05T15:38:28.033Z</time></trkpt><trkpt lat="44.94430445725394" lon="12.121099990866274"><ele>2.0</ele><time>2026-04-05T15:38:29.033Z</time></trkpt><trkpt lat="44.944218056667985" lon="12.12130366263798"><ele>2.0</ele><time>2026-04-05T15:38:30.033Z</time></trkpt><trkpt lat="44.94414133051382" lon="12.121517423807964"><ele>2.0</ele><time>2026-04-05T15:38:31.033Z</time></trkpt><trkpt lat="44.94406956289619" lon="12.121732660851796"><ele>2.25</ele><time>2026-04-05T15:38:32.033Z</time></trkpt><trkpt lat="44.94400566310213" lon="12.121933693709277"><ele>2.5</ele><time>2026-04-05T15:38:33.033Z</time></trkpt><trkpt lat="44.94394544123103" lon="12.122105513967822"><ele>2.75</ele><time>2026-04-05T15:38:34.033Z</time></trkpt><trkpt lat="44.943891418282135" lon="12.122258826636248"><ele>3.0</ele><time>2026-04-05T15:38:35.033Z</time></trkpt><trkpt lat="44.9438464839075" lon="12.122394416170563"><ele>2.8</ele><time>2026-04-05T15:38:36.033Z</time></trkpt><trkpt lat="44.943807698384" lon="12.122511785737522"><ele>2.5999999999999996</ele><time>2026-04-05T15:38:37.033Z</time></trkpt><trkpt lat="44.943771083489736" lon="12.122615251599074"><ele>2.4000000000000004</ele><time>2026-04-05T15:38:38.033Z</time></trkpt><trkpt lat="44.94370896601175" lon="12.122751343898434"><ele>2.2</ele><time>2026-04-05T15:38:40.033Z</time></trkpt><trkpt lat="44.943563871484734" lon="12.122709811932467"><ele>2.0</ele><time>2026-04-05T15:38:43.033Z</time></trkpt><trkpt lat="44.943517736040654" lon="12.12264812951721"><ele>1.9999999999999998</ele><time>2026-04-05T15:38:44.033Z</time></trkpt><trkpt lat="44.94346368047176" lon="12.122592428893979"><ele>2.0</ele><time>2026-04-05T15:38:45.033Z</time></trkpt><trkpt lat="44.943401576314365" lon="12.122535932291433"><ele>2.0</ele><time>2026-04-05T15:38:46.033Z</time></trkpt><trkpt lat="44.943339420597844" lon="12.122472810647634"><ele>2.0</ele><time>2026-04-05T15:38:47.033Z</time></trkpt><trkpt lat="44.943269737188" lon="12.122407546347722"><ele>1.9999999999999998</ele><time>2026-04-05T15:38:48.033Z</time></trkpt><trkpt lat="44.94319409257864" lon="12.122334640675922"><ele>2.0</ele><time>2026-04-05T15:38:49.033Z</time></trkpt><trkpt lat="44.94311783623353" lon="12.1222661090847"><ele>1.9999999999999998</ele><time>2026-04-05T15:38:50.033Z</time></trkpt><trkpt lat="44.9430431827312" lon="12.122199970425655"><ele>2.0</ele><time>2026-04-05T15:38:51.033Z</time></trkpt><trkpt lat="44.942970778604334" lon="12.122136339327986"><ele>2.0</ele><time>2026-04-05T15:38:52.033Z</time></trkpt><trkpt lat="44.94290026627349" lon="12.12207496697254"><ele>2.0</ele><time>2026-04-05T15:38:53.033Z</time></trkpt><trkpt lat="44.942831463415914" lon="12.122019398935443"><ele>1.9999999999999998</ele><time>2026-04-05T15:38:54.033Z</time></trkpt><trkpt lat="44.942775612698384" lon="12.1219625041898"><ele>2.0</ele><time>2026-04-05T15:38:55.033Z</time></trkpt><trkpt lat="44.94268642765261" lon="12.121867176616032"><ele>2.0</ele><time>2026-04-05T15:38:57.033Z</time></trkpt><trkpt lat="44.94262467793446" lon="12.121790778656555"><ele>2.0</ele><time>2026-04-05T15:38:59.033Z</time></trkpt><trkpt lat="44.94253825285722" lon="12.121852750957546"><ele>2.0</ele><time>2026-04-05T15:39:00.033Z</time></trkpt><trkpt lat="44.942461970630795" lon="12.121997030345042"><ele>2.0</ele><time>2026-04-05T15:39:02.033Z</time></trkpt><trkpt lat="44.9424021510933" lon="12.122076056293166"><ele>2.0</ele><time>2026-04-05T15:39:03.033Z</time></trkpt><trkpt lat="44.9423364179746" lon="12.122170487643247"><ele>2.0</ele><time>2026-04-05T15:39:04.033Z</time></trkpt><trkpt lat="44.94226183057522" lon="12.122263543422946"><ele>2.0</ele><time>2026-04-05T15:39:05.033Z</time></trkpt><trkpt lat="44.94216862101401" lon="12.122358506366037"><ele>2.0</ele><time>2026-04-05T15:39:06.033Z</time></trkpt><trkpt lat="44.94206512201349" lon="12.122451135505866"><ele>2.0</ele><time>2026-04-05T15:39:07.033Z</time></trkpt><trkpt lat="44.94195970769234" lon="12.122543822354851"><ele>1.75</ele><time>2026-04-05T15:39:08.033Z</time></trkpt><trkpt lat="44.941849911574536" lon="12.122635667384321"><ele>1.5</ele><time>2026-04-05T15:39:09.033Z</time></trkpt><trkpt lat="44.941735277761005" lon="12.12272579620435"><ele>1.25</ele><time>2026-04-05T15:39:10.033Z</time></trkpt><trkpt lat="44.94161815660916" lon="12.122818848591265"><ele>1.0</ele><time>2026-04-05T15:39:11.033Z</time></trkpt><trkpt lat="44.941500882403346" lon="12.12291666283346"><ele>1.25</ele><time>2026-04-05T15:39:12.033Z</time></trkpt><trkpt lat="44.94138323981635" lon="12.12301132276039"><ele>1.5</ele><time>2026-04-05T15:39:13.033Z</time></trkpt><trkpt lat="44.941267950173874" lon="12.123111018945417"><ele>1.75</ele><time>2026-04-05T15:39:14.033Z</time></trkpt><trkpt lat="44.94115667322438" lon="12.123205796826502"><ele>2.0</ele><time>2026-04-05T15:39:15.033Z</time></trkpt><trkpt lat="44.94104597710508" lon="12.123296605711735"><ele>2.0</ele><time>2026-04-05T15:39:16.033Z</time></trkpt><trkpt lat="44.94093562253048" lon="12.123380226401848"><ele>2.0</ele><time>2026-04-05T15:39:17.033Z</time></trkpt><trkpt lat="44.940830095894" lon="12.123464301110575"><ele>2.0</ele><time>2026-04-05T15:39:18.033Z</time></trkpt><trkpt lat="44.94072733556488" lon="12.123551815682976"><ele>2.0</ele><time>2026-04-05T15:39:19.033Z</time></trkpt><trkpt lat="44.940628389650946" lon="12.12363109213539"><ele>1.8</ele><time>2026-04-05T15:39:20.033Z</time></trkpt><trkpt lat="44.940544544300046" lon="12.123707179621002"><ele>1.6</ele><time>2026-04-05T15:39:21.033Z</time></trkpt><trkpt lat="44.940462616135214" lon="12.123775202134414"><ele>1.4000000000000001</ele><time>2026-04-05T15:39:22.033Z</time></trkpt><trkpt lat="44.940368627375776" lon="12.123814863720845"><ele>1.2000000000000002</ele><time>2026-04-05T15:39:23.033Z</time></trkpt><trkpt lat="44.94026976551984" lon="12.123817056479"><ele>1.0</ele><time>2026-04-05T15:39:24.033Z</time></trkpt><trkpt lat="44.94016731495337" lon="12.123796912571528"><ele>1.0</ele><time>2026-04-05T15:39:25.033Z</time></trkpt><trkpt lat="44.940059486323804" lon="12.123742140753206"><ele>1.0</ele><time>2026-04-05T15:39:26.033Z</time></trkpt><trkpt lat="44.93999023384947" lon="12.123526537316142"><ele>1.0</ele><time>2026-04-05T15:39:27.033Z</time></trkpt><trkpt lat="44.93991906906016" lon="12.12335781776707"><ele>1.0</ele><time>2026-04-05T15:39:28.033Z</time></trkpt><trkpt lat="44.9398465194158" lon="12.123197080430458"><ele>1.0</ele><time>2026-04-05T15:39:29.033Z</time></trkpt><trkpt lat="44.939761550851834" lon="12.123036353413333"><ele>1.0</ele><time>2026-04-05T15:39:30.033Z</time></trkpt><trkpt lat="44.939671254296066" lon="12.122859145235575"><ele>1.0</ele><time>2026-04-05T15:39:31.033Z</time></trkpt><trkpt lat="44.93957995461553" lon="12.122678227099648"><ele>1.0</ele><time>2026-04-05T15:39:32.033Z</time></trkpt><trkpt lat="44.93948784885393" lon="12.122499901528812"><ele>1.0</ele><time>2026-04-05T15:39:33.033Z</time></trkpt><trkpt lat="44.939397870198974" lon="12.122322292900781"><ele>1.0</ele><time>2026-04-05T15:39:34.033Z</time></trkpt><trkpt lat="44.939310875491906" lon="12.122151318296256"><ele>0.5</ele><time>2026-04-05T15:39:35.033Z</time></trkpt><trkpt lat="44.93922617144007" lon="12.12198951561798"><ele>0.0</ele><time>2026-04-05T15:39:36.033Z</time></trkpt><trkpt lat="44.93914272617682" lon="12.121835834349413"><ele>-0.5</ele><time>2026-04-05T15:39:37.033Z</time></trkpt><trkpt lat="44.939061318001094" lon="12.121690006338673"><ele>-1.0</ele><time>2026-04-05T15:39:38.033Z</time></trkpt><trkpt lat="44.9389709284476" lon="12.121560655299353"><ele>-1.25</ele><time>2026-04-05T15:39:39.033Z</time></trkpt><trkpt lat="44.93887108600498" lon="12.121446141633447"><ele>-1.5</ele><time>2026-04-05T15:39:40.033Z</time></trkpt><trkpt lat="44.93876854913407" lon="12.121341059052472"><ele>-1.75</ele><time>2026-04-05T15:39:41.033Z</time></trkpt><trkpt lat="44.938662539615365" lon="12.121244183192832"><ele>-2.0</ele><time>2026-04-05T15:39:42.033Z</time></trkpt><trkpt lat="44.938551623692966" lon="12.12116520012904"><ele>-2.0</ele><time>2026-04-05T15:39:43.033Z</time></trkpt><trkpt lat="44.938441199619085" lon="12.121108276920415"><ele>-2.0</ele><time>2026-04-05T15:39:44.033Z</time></trkpt><trkpt lat="44.938338760918825" lon="12.121063559834235"><ele>-2.0</ele><time>2026-04-05T15:39:45.033Z</time></trkpt><trkpt lat="44.93824856594364" lon="12.12102765776814"><ele>-2.0</ele><time>2026-04-05T15:39:46.033Z</time></trkpt><trkpt lat="44.938167358113375" lon="12.121001684205352"><ele>-2.0</ele><time>2026-04-05T15:39:47.033Z</time></trkpt><trkpt lat="44.93810054262018" lon="12.12099358607075"><ele>-2.0</ele><time>2026-04-05T15:39:48.033Z</time></trkpt><trkpt lat="44.93803088077881" lon="12.120981365262272"><ele>-2.0</ele><time>2026-04-05T15:39:50.033Z</time></trkpt><trkpt lat="44.938112823035986" lon="12.121021791021086"><ele>-2.0</ele><time>2026-04-05T15:39:56.034Z</time></trkpt><trkpt lat="44.93822860710309" lon="12.12107251094942"><ele>-2.0</ele><time>2026-04-05T15:39:57.034Z</time></trkpt><trkpt lat="44.938326636358205" lon="12.121105290740077"><ele>-2.0</ele><time>2026-04-05T15:39:58.034Z</time></trkpt><trkpt lat="44.93842889264542" lon="12.12115689741068"><ele>-2.0</ele><time>2026-04-05T15:39:59.034Z</time></trkpt><trkpt lat="44.93853533092052" lon="12.121216378067134"><ele>-2.0</ele><time>2026-04-05T15:40:00.034Z</time></trkpt><trkpt lat="44.938649028359826" lon="12.121292733505486"><ele>-2.0</ele><time>2026-04-05T15:40:01.034Z</time></trkpt><trkpt lat="44.938759645830636" lon="12.121409158474801"><ele>-2.0</ele><time>2026-04-05T15:40:02.033Z</time></trkpt><trkpt lat="44.93887928096043" lon="12.121507026828208"><ele>-1.75</ele><time>2026-04-05T15:40:03.033Z</time></trkpt><trkpt lat="44.93896777307622" lon="12.121640590806898"><ele>-1.5</ele><time>2026-04-05T15:40:04.033Z</time></trkpt><trkpt lat="44.93905809073032" lon="12.121772958390013"><ele>-1.25</ele><time>2026-04-05T15:40:05.033Z</time></trkpt><trkpt lat="44.93913262976591" lon="12.121905664772804"><ele>-1.0</ele><time>2026-04-05T15:40:06.033Z</time></trkpt><trkpt lat="44.939195341530194" lon="12.122023826880385"><ele>-1.1666666666666665</ele><time>2026-04-05T15:40:07.033Z</time></trkpt><trkpt lat="44.93926290314614" lon="12.122116466095816"><ele>-1.3333333333333333</ele><time>2026-04-05T15:40:08.034Z</time></trkpt><trkpt lat="44.939312511165824" lon="12.122216555759213"><ele>-1.5</ele><time>2026-04-05T15:40:09.033Z</time></trkpt><trkpt lat="44.93934401872716" lon="12.12231960761096"><ele>-1.6666666666666665</ele><time>2026-04-05T15:40:10.033Z</time></trkpt><trkpt lat="44.93938600699167" lon="12.122403047790902"><ele>-1.8333333333333333</ele><time>2026-04-05T15:40:11.034Z</time></trkpt><trkpt lat="44.93942966619761" lon="12.12248950065345"><ele>-2.0</ele><time>2026-04-05T15:40:13.034Z</time></trkpt><trkpt lat="44.939329067424" lon="12.122556537919298"><ele>-1.4000000000000001</ele><time>2026-04-05T15:40:17.033Z</time></trkpt><trkpt lat="44.939262178125645" lon="12.12253405857211"><ele>-0.8000000000000002</ele><time>2026-04-05T15:40:19.033Z</time></trkpt><trkpt lat="44.93917224544248" lon="12.122523092285487"><ele>-0.19999999999999996</ele><time>2026-04-05T15:40:22.033Z</time></trkpt><trkpt lat="44.93909189837622" lon="12.122548357869142"><ele>0.4</ele><time>2026-04-05T15:40:24.033Z</time></trkpt><trkpt lat="44.93896158438946" lon="12.122508775337844"><ele>1.0</ele><time>2026-04-05T15:40:26.033Z</time></trkpt><trkpt lat="44.93887573414083" lon="12.122497192231776"><ele>1.2000000000000002</ele><time>2026-04-05T15:40:27.033Z</time></trkpt><trkpt lat="44.93877868289343" lon="12.122484578124084"><ele>1.4000000000000001</ele><time>2026-04-05T15:40:28.033Z</time></trkpt><trkpt lat="44.938674837737324" lon="12.12247144435818"><ele>1.6</ele><time>2026-04-05T15:40:29.033Z</time></trkpt><trkpt lat="44.93857377861167" lon="12.122477896934273"><ele>1.8</ele><time>2026-04-05T15:40:30.033Z</time></trkpt><trkpt lat="44.93847803522605" lon="12.122462924549929"><ele>2.0</ele><time>2026-04-05T15:40:31.033Z</time></trkpt><trkpt lat="44.93838239431554" lon="12.122452840843296"><ele>1.2000000000000002</ele><time>2026-04-05T15:40:32.033Z</time></trkpt><trkpt lat="44.93828724992687" lon="12.122438679921121"><ele>0.40000000000000013</ele><time>2026-04-05T15:40:33.033Z</time></trkpt><trkpt lat="44.93819151319482" lon="12.122426674268077"><ele>-0.40000000000000013</ele><time>2026-04-05T15:40:34.033Z</time></trkpt><trkpt lat="44.93809744805533" lon="12.12241663926886"><ele>-1.2000000000000002</ele><time>2026-04-05T15:40:35.033Z</time></trkpt><trkpt lat="44.93800079107914" lon="12.122409958203699"><ele>-2.0</ele><time>2026-04-05T15:40:36.033Z</time></trkpt><trkpt lat="44.9379054221164" lon="12.12237669185555"><ele>-2.2</ele><time>2026-04-05T15:40:37.033Z</time></trkpt><trkpt lat="44.93781193816955" lon="12.122365518651545"><ele>-2.4000000000000004</ele><time>2026-04-05T15:40:38.033Z</time></trkpt><trkpt lat="44.93771395500269" lon="12.12235380770511"><ele>-2.5999999999999996</ele><time>2026-04-05T15:40:39.033Z</time></trkpt><trkpt lat="44.937612484173805" lon="12.122340296322884"><ele>-2.8</ele><time>2026-04-05T15:40:40.033Z</time></trkpt><trkpt lat="44.93750154681355" lon="12.12233229115922"><ele>-3.0</ele><time>2026-04-05T15:40:41.033Z</time></trkpt><trkpt lat="44.93738748568606" lon="12.122331097449983"><ele>-3.25</ele><time>2026-04-05T15:40:42.033Z</time></trkpt><trkpt lat="44.93727103227763" lon="12.12233259452506"><ele>-3.5</ele><time>2026-04-05T15:40:43.033Z</time></trkpt><trkpt lat="44.93716626571154" lon="12.122334197458624"><ele>-3.75</ele><time>2026-04-05T15:40:44.033Z</time></trkpt><trkpt lat="44.93704654178654" lon="12.122339242557855"><ele>-4.0</ele><time>2026-04-05T15:40:45.033Z</time></trkpt><trkpt lat="44.936935392560216" lon="12.122373789479129"><ele>-4.0</ele><time>2026-04-05T15:40:46.033Z</time></trkpt><trkpt lat="44.93681994670465" lon="12.122367589809558"><ele>-4.0</ele><time>2026-04-05T15:40:47.033Z</time></trkpt><trkpt lat="44.93669796539097" lon="12.122365762523149"><ele>-4.0</ele><time>2026-04-05T15:40:48.034Z</time></trkpt><trkpt lat="44.936571519143364" lon="12.122373008756574"><ele>-4.0</ele><time>2026-04-05T15:40:49.034Z</time></trkpt><trkpt lat="44.93644699643467" lon="12.122386189803233"><ele>-3.5</ele><time>2026-04-05T15:40:50.034Z</time></trkpt><trkpt lat="44.936327966071126" lon="12.122406156781594"><ele>-3.0</ele><time>2026-04-05T15:40:51.034Z</time></trkpt><trkpt lat="44.936208335017774" lon="12.122421934297511"><ele>-2.5</ele><time>2026-04-05T15:40:52.034Z</time></trkpt><trkpt lat="44.93609029460548" lon="12.122434042501029"><ele>-2.0</ele><time>2026-04-05T15:40:53.034Z</time></trkpt><trkpt lat="44.93597078065747" lon="12.122448868300504"><ele>-2.0</ele><time>2026-04-05T15:40:54.034Z</time></trkpt><trkpt lat="44.93584822284171" lon="12.122466004304783"><ele>-2.0</ele><time>2026-04-05T15:40:55.034Z</time></trkpt><trkpt lat="44.935725611817766" lon="12.122476532349914"><ele>-2.0</ele><time>2026-04-05T15:40:56.034Z</time></trkpt><trkpt lat="44.93560368134975" lon="12.1224849879264"><ele>-2.0</ele><time>2026-04-05T15:40:57.034Z</time></trkpt><trkpt lat="44.93548262456176" lon="12.12249478891809"><ele>-2.0</ele><time>2026-04-05T15:40:58.034Z</time></trkpt><trkpt lat="44.93536210793901" lon="12.122503676386815"><ele>-2.0</ele><time>2026-04-05T15:40:59.034Z</time></trkpt><trkpt lat="44.93524256398588" lon="12.12251108715993"><ele>-2.0</ele><time>2026-04-05T15:41:00.034Z</time></trkpt><trkpt lat="44.93512130423081" lon="12.122515187908638"><ele>-2.0</ele><time>2026-04-05T15:41:01.034Z</time></trkpt><trkpt lat="44.93500294343522" lon="12.12251990513662"><ele>-2.0</ele><time>2026-04-05T15:41:02.034Z</time></trkpt><trkpt lat="44.93488111904117" lon="12.122518807973432"><ele>-2.0</ele><time>2026-04-05T15:41:03.034Z</time></trkpt><trkpt lat="44.93476153776765" lon="12.122517594757241"><ele>-2.0</ele><time>2026-04-05T15:41:04.034Z</time></trkpt><trkpt lat="44.93464121453688" lon="12.122527123101431"><ele>-2.0</ele><time>2026-04-05T15:41:05.034Z</time></trkpt><trkpt lat="44.93451488207259" lon="12.12255108043914"><ele>-2.0</ele><time>2026-04-05T15:41:06.034Z</time></trkpt><trkpt lat="44.93439301701674" lon="12.122563793041717"><ele>-2.0</ele><time>2026-04-05T15:41:07.034Z</time></trkpt><trkpt lat="44.93427288725759" lon="12.122602623163644"><ele>-2.0</ele><time>2026-04-05T15:41:08.034Z</time></trkpt><trkpt lat="44.934156051134075" lon="12.122667952153227"><ele>-2.0</ele><time>2026-04-05T15:41:09.034Z</time></trkpt><trkpt lat="44.934038869120194" lon="12.122753258739872"><ele>-2.5</ele><time>2026-04-05T15:41:10.034Z</time></trkpt><trkpt lat="44.93392970949579" lon="12.122848708901955"><ele>-3.0</ele><time>2026-04-05T15:41:11.034Z</time></trkpt><trkpt lat="44.93381164450912" lon="12.122925183055683"><ele>-3.5</ele><time>2026-04-05T15:41:12.034Z</time></trkpt><trkpt lat="44.933695093868174" lon="12.123012386906463"><ele>-4.0</ele><time>2026-04-05T15:41:13.034Z</time></trkpt><trkpt lat="44.93358970913297" lon="12.12312249485272"><ele>-4.0</ele><time>2026-04-05T15:41:14.034Z</time></trkpt><trkpt lat="44.93347801800509" lon="12.123201562040201"><ele>-4.0</ele><time>2026-04-05T15:41:15.034Z</time></trkpt><trkpt lat="44.93336588819103" lon="12.123292638613139"><ele>-4.0</ele><time>2026-04-05T15:41:16.034Z</time></trkpt><trkpt lat="44.93324935552654" lon="12.123373765514007"><ele>-4.0</ele><time>2026-04-05T15:41:17.034Z</time></trkpt><trkpt lat="44.933137777049076" lon="12.123456018800985"><ele>-3.75</ele><time>2026-04-05T15:41:18.034Z</time></trkpt><trkpt lat="44.933018443277845" lon="12.1235452049329"><ele>-3.5</ele><time>2026-04-05T15:41:19.034Z</time></trkpt><trkpt lat="44.932894793228485" lon="12.123646701255195"><ele>-3.25</ele><time>2026-04-05T15:41:20.034Z</time></trkpt><trkpt lat="44.93277101032263" lon="12.123742930998741"><ele>-3.0</ele><time>2026-04-05T15:41:21.034Z</time></trkpt><trkpt lat="44.93265417570829" lon="12.123828585820137"><ele>-3.25</ele><time>2026-04-05T15:41:22.034Z</time></trkpt><trkpt lat="44.93252652251773" lon="12.12390360198455"><ele>-3.5</ele><time>2026-04-05T15:41:23.034Z</time></trkpt><trkpt lat="44.93242484366644" lon="12.12399304442365"><ele>-3.75</ele><time>2026-04-05T15:41:24.034Z</time></trkpt><trkpt lat="44.93232493374697" lon="12.124080612532081"><ele>-4.0</ele><time>2026-04-05T15:41:25.034Z</time></trkpt><trkpt lat="44.93223962327533" lon="12.12415369349649"><ele>-4.0</ele><time>2026-04-05T15:41:26.034Z</time></trkpt><trkpt lat="44.93216979798085" lon="12.124256201437616"><ele>-4.0</ele><time>2026-04-05T15:41:27.034Z</time></trkpt><trkpt lat="44.93209155233869" lon="12.12437153842441"><ele>-4.0</ele><time>2026-04-05T15:41:28.034Z</time></trkpt><trkpt lat="44.932035339167925" lon="12.124477251820853"><ele>-4.0</ele><time>2026-04-05T15:41:29.034Z</time></trkpt><trkpt lat="44.931961338017324" lon="12.124617255080032"><ele>-4.0</ele><time>2026-04-05T15:41:30.034Z</time></trkpt><trkpt lat="44.93186263134704" lon="12.12470189819893"><ele>-4.0</ele><time>2026-04-05T15:41:31.034Z</time></trkpt><trkpt lat="44.93177410655618" lon="12.124783734480184"><ele>-4.0</ele><time>2026-04-05T15:41:32.034Z</time></trkpt><trkpt lat="44.93167681406899" lon="12.124840849428027"><ele>-4.0</ele><time>2026-04-05T15:41:33.034Z</time></trkpt><trkpt lat="44.93164068162084" lon="12.12506226522914"><ele>-4.0</ele><time>2026-04-05T15:41:34.034Z</time></trkpt><trkpt lat="44.931571248585804" lon="12.125202543896792"><ele>-4.0</ele><time>2026-04-05T15:41:35.034Z</time></trkpt><trkpt lat="44.93150024860057" lon="12.125335358184094"><ele>-4.0</ele><time>2026-04-05T15:41:36.034Z</time></trkpt><trkpt lat="44.93142914488424" lon="12.125461206465713"><ele>-4.0</ele><time>2026-04-05T15:41:37.034Z</time></trkpt><trkpt lat="44.931365529786625" lon="12.125587529382978"><ele>-4.0</ele><time>2026-04-05T15:41:38.034Z</time></trkpt><trkpt lat="44.93130377049922" lon="12.125714161629414"><ele>-3.8000000000000003</ele><time>2026-04-05T15:41:39.034Z</time></trkpt><trkpt lat="44.931235887923386" lon="12.125844894146546"><ele>-3.6000000000000005</ele><time>2026-04-05T15:41:40.034Z</time></trkpt><trkpt lat="44.931173251159656" lon="12.125975783078301"><ele>-3.4</ele><time>2026-04-05T15:41:41.034Z</time></trkpt><trkpt lat="44.93111703670324" lon="12.126108124847917"><ele>-3.2</ele><time>2026-04-05T15:41:42.034Z</time></trkpt><trkpt lat="44.93106822508316" lon="12.12623516245214"><ele>-3.0</ele><time>2026-04-05T15:41:43.034Z</time></trkpt><trkpt lat="44.93102400897221" lon="12.1263522648567"><ele>-3.0</ele><time>2026-04-05T15:41:44.034Z</time></trkpt><trkpt lat="44.93098256088371" lon="12.126472742972465"><ele>-3.0</ele><time>2026-04-05T15:41:45.034Z</time></trkpt><trkpt lat="44.930942935683525" lon="12.126594964508243"><ele>-3.0</ele><time>2026-04-05T15:41:46.034Z</time></trkpt><trkpt lat="44.93090925224629" lon="12.126696610428203"><ele>-3.0</ele><time>2026-04-05T15:41:47.034Z</time></trkpt><trkpt lat="44.930879141533346" lon="12.126804444048899"><ele>-3.0</ele><time>2026-04-05T15:41:48.034Z</time></trkpt><trkpt lat="44.930850778778535" lon="12.126895837579271"><ele>-3.0</ele><time>2026-04-05T15:41:49.034Z</time></trkpt><trkpt lat="44.930819963465815" lon="12.126989525523427"><ele>-2.8333333333333335</ele><time>2026-04-05T15:41:50.034Z</time></trkpt><trkpt lat="44.930791803794094" lon="12.127080774920008"><ele>-2.6666666666666665</ele><time>2026-04-05T15:41:51.034Z</time></trkpt><trkpt lat="44.93077020591308" lon="12.127168200487818"><ele>-2.5</ele><time>2026-04-05T15:41:52.034Z</time></trkpt><trkpt lat="44.93073403812744" lon="12.127336039611771"><ele>-2.333333333333333</ele><time>2026-04-05T15:41:54.034Z</time></trkpt><trkpt lat="44.93069598717785" lon="12.127463796486895"><ele>-2.1666666666666665</ele><time>2026-04-05T15:41:56.034Z</time></trkpt><trkpt lat="44.93064024767948" lon="12.12754501421293"><ele>-2.0</ele><time>2026-04-05T15:41:58.034Z</time></trkpt><trkpt lat="44.930546665217385" lon="12.12753201684997"><ele>-1.8333333333333333</ele><time>2026-04-05T15:42:00.034Z</time></trkpt><trkpt lat="44.9304844847482" lon="12.127512481327726"><ele>-1.6666666666666665</ele><time>2026-04-05T15:42:01.034Z</time></trkpt><trkpt lat="44.930351455258744" lon="12.127488027894369"><ele>-1.5</ele><time>2026-04-05T15:42:03.034Z</time></trkpt><trkpt lat="44.930274351897864" lon="12.12748205898953"><ele>-1.3333333333333333</ele><time>2026-04-05T15:42:04.034Z</time></trkpt><trkpt lat="44.93020086657969" lon="12.127479164452106"><ele>-1.1666666666666665</ele><time>2026-04-05T15:42:05.034Z</time></trkpt><trkpt lat="44.930114146326964" lon="12.127467880387908"><ele>-1.0</ele><time>2026-04-05T15:42:06.034Z</time></trkpt><trkpt lat="44.93001922928252" lon="12.12744640219856"><ele>-1.2000000000000002</ele><time>2026-04-05T15:42:07.034Z</time></trkpt><trkpt lat="44.92992530402007" lon="12.12742232944601"><ele>-1.4000000000000001</ele><time>2026-04-05T15:42:08.034Z</time></trkpt><trkpt lat="44.92982681530791" lon="12.127402220736016"><ele>-1.6</ele><time>2026-04-05T15:42:09.035Z</time></trkpt><trkpt lat="44.92972520900751" lon="12.127382626250686"><ele>-1.8</ele><time>2026-04-05T15:42:10.035Z</time></trkpt><trkpt lat="44.92961321463147" lon="12.127362805864555"><ele>-2.0</ele><time>2026-04-05T15:42:11.035Z</time></trkpt><trkpt lat="44.92949639392832" lon="12.127338660300913"><ele>-2.0</ele><time>2026-04-05T15:42:12.035Z</time></trkpt><trkpt lat="44.92937902754339" lon="12.12731676042047"><ele>-2.0</ele><time>2026-04-05T15:42:13.035Z</time></trkpt><trkpt lat="44.92925848405385" lon="12.127294644688579"><ele>-2.0</ele><time>2026-04-05T15:42:14.035Z</time></trkpt><trkpt lat="44.929134124773434" lon="12.127266479262746"><ele>-2.0</ele><time>2026-04-05T15:42:15.035Z</time></trkpt><trkpt lat="44.929009216177036" lon="12.127241984466554"><ele>-2.75</ele><time>2026-04-05T15:42:16.035Z</time></trkpt><trkpt lat="44.92887807240646" lon="12.127221477256537"><ele>-3.5</ele><time>2026-04-05T15:42:17.035Z</time></trkpt><trkpt lat="44.92873673069999" lon="12.127196619903623"><ele>-4.25</ele><time>2026-04-05T15:42:18.035Z</time></trkpt><trkpt lat="44.92859388155823" lon="12.127178346517061"><ele>-5.0</ele><time>2026-04-05T15:42:19.035Z</time></trkpt><trkpt lat="44.92843947757677" lon="12.127159676768365"><ele>-5.0</ele><time>2026-04-05T15:42:20.035Z</time></trkpt><trkpt lat="44.92826686834673" lon="12.127139164827422"><ele>-5.0</ele><time>2026-04-05T15:42:21.035Z</time></trkpt><trkpt lat="44.92809755493938" lon="12.12712547639602"><ele>-5.0</ele><time>2026-04-05T15:42:22.035Z</time></trkpt><trkpt lat="44.92793285448063" lon="12.127104622441719"><ele>-5.0</ele><time>2026-04-05T15:42:23.035Z</time></trkpt><trkpt lat="44.92808134869384" lon="12.127064476883097"><ele>-5.0</ele><time>2026-04-05T15:42:24.035Z</time></trkpt><trkpt lat="44.92795697273919" lon="12.127038424348143"><ele>-5.0</ele><time>2026-04-05T15:42:25.035Z</time></trkpt><trkpt lat="44.92782960975504" lon="12.127012191745957"><ele>-5.0</ele><time>2026-04-05T15:42:26.035Z</time></trkpt><trkpt lat="44.92770670830031" lon="12.126984113360187"><ele>-5.0</ele><time>2026-04-05T15:42:27.035Z</time></trkpt><trkpt lat="44.92758615636076" lon="12.126957448650142"><ele>-5.0</ele><time>2026-04-05T15:42:28.035Z</time></trkpt><trkpt lat="44.927467616548924" lon="12.126935970661346"><ele>-5.0</ele><time>2026-04-05T15:42:29.035Z</time></trkpt><trkpt lat="44.92735183752298" lon="12.126913832024027"><ele>-5.0</ele><time>2026-04-05T15:42:30.035Z</time></trkpt><trkpt lat="44.92723650728633" lon="12.126889252394243"><ele>-5.25</ele><time>2026-04-05T15:42:31.035Z</time></trkpt><trkpt lat="44.927118225298706" lon="12.126865287998186"><ele>-5.5</ele><time>2026-04-05T15:42:32.036Z</time></trkpt><trkpt lat="44.92700168120556" lon="12.12683643713709"><ele>-5.75</ele><time>2026-04-05T15:42:33.036Z</time></trkpt><trkpt lat="44.926879787288954" lon="12.126809436730056"><ele>-6.0</ele><time>2026-04-05T15:42:34.036Z</time></trkpt><trkpt lat="44.92675723633134" lon="12.126783506810263"><ele>-6.0</ele><time>2026-04-05T15:42:35.036Z</time></trkpt><trkpt lat="44.92663615250944" lon="12.126759016238971"><ele>-6.0</ele><time>2026-04-05T15:42:36.036Z</time></trkpt><trkpt lat="44.926518251004126" lon="12.126731410405627"><ele>-6.0</ele><time>2026-04-05T15:42:37.036Z</time></trkpt><trkpt lat="44.92639670522458" lon="12.126707383229688"><ele>-6.0</ele><time>2026-04-05T15:42:38.036Z</time></trkpt><trkpt lat="44.926285642788976" lon="12.126687949366302"><ele>-6.0</ele><time>2026-04-05T15:42:39.036Z</time></trkpt><trkpt lat="44.926168698610205" lon="12.126665305476928"><ele>-6.0</ele><time>2026-04-05T15:42:40.036Z</time></trkpt><trkpt lat="44.92604824264508" lon="12.126638610731833"><ele>-6.0</ele><time>2026-04-05T15:42:41.036Z</time></trkpt><trkpt lat="44.92591873004512" lon="12.126609459865845"><ele>-6.0</ele><time>2026-04-05T15:42:42.036Z</time></trkpt><trkpt lat="44.9257914693529" lon="12.126582096022533"><ele>-6.25</ele><time>2026-04-05T15:42:43.036Z</time></trkpt><trkpt lat="44.925659720059194" lon="12.126555696335668"><ele>-6.5</ele><time>2026-04-05T15:42:44.036Z</time></trkpt><trkpt lat="44.92553086273118" lon="12.126525918745145"><ele>-6.75</ele><time>2026-04-05T15:42:45.036Z</time></trkpt><trkpt lat="44.9254055243171" lon="12.12650316699686"><ele>-7.0</ele><time>2026-04-05T15:42:46.036Z</time></trkpt><trkpt lat="44.925280793642514" lon="12.126476165628237"><ele>-7.0</ele><time>2026-04-05T15:42:47.036Z</time></trkpt><trkpt lat="44.925161300333905" lon="12.126455841718341"><ele>-7.0</ele><time>2026-04-05T15:42:48.036Z</time></trkpt><trkpt lat="44.92503730768071" lon="12.126428414535143"><ele>-7.0</ele><time>2026-04-05T15:42:49.036Z</time></trkpt><trkpt lat="44.924918602270765" lon="12.12640693423059"><ele>-7.0</ele><time>2026-04-05T15:42:50.036Z</time></trkpt><trkpt lat="44.924794987637036" lon="12.126376822224675"><ele>-6.25</ele><time>2026-04-05T15:42:51.036Z</time></trkpt><trkpt lat="44.924669033528545" lon="12.126351225241022"><ele>-5.5</ele><time>2026-04-05T15:42:52.036Z</time></trkpt><trkpt lat="44.92454255395891" lon="12.12632404547793"><ele>-4.75</ele><time>2026-04-05T15:42:53.036Z</time></trkpt><trkpt lat="44.92441796161549" lon="12.126300349834114"><ele>-4.0</ele><time>2026-04-05T15:42:54.036Z</time></trkpt><trkpt lat="44.92429417609051" lon="12.126274967160152"><ele>-4.0</ele><time>2026-04-05T15:42:55.036Z</time></trkpt><trkpt lat="44.924168227707916" lon="12.126245101609232"><ele>-4.0</ele><time>2026-04-05T15:42:56.036Z</time></trkpt><trkpt lat="44.92404841020395" lon="12.126216388101948"><ele>-4.0</ele><time>2026-04-05T15:42:57.036Z</time></trkpt><trkpt lat="44.92392581933481" lon="12.126198272416895"><ele>-4.0</ele><time>2026-04-05T15:42:58.036Z</time></trkpt><trkpt lat="44.923800107269045" lon="12.12616948064963"><ele>-4.0</ele><time>2026-04-05T15:42:59.036Z</time></trkpt><trkpt lat="44.923701852708106" lon="12.126143696013063"><ele>-4.0</ele><time>2026-04-05T15:43:00.036Z</time></trkpt><trkpt lat="44.92361453103074" lon="12.126124439456731"><ele>-4.0</ele><time>2026-04-05T15:43:01.036Z</time></trkpt><trkpt lat="44.92353416081686" lon="12.126127686754224"><ele>-4.0</ele><time>2026-04-05T15:43:02.036Z</time></trkpt><trkpt lat="44.923419857197004" lon="12.126099380152704"><ele>-4.0</ele><time>2026-04-05T15:43:03.036Z</time></trkpt><trkpt lat="44.923290152533276" lon="12.126071136648132"><ele>-4.0</ele><time>2026-04-05T15:43:04.036Z</time></trkpt><trkpt lat="44.923164949290936" lon="12.126045886966239"><ele>-4.0</ele><time>2026-04-05T15:43:05.036Z</time></trkpt><trkpt lat="44.92304030053433" lon="12.126014576388478"><ele>-4.0</ele><time>2026-04-05T15:43:06.036Z</time></trkpt><trkpt lat="44.9229225723281" lon="12.125989755946302"><ele>-4.0</ele><time>2026-04-05T15:43:07.036Z</time></trkpt><trkpt lat="44.92280572390688" lon="12.125970558435743"><ele>-3.9999999999999996</ele><time>2026-04-05T15:43:08.036Z</time></trkpt><trkpt lat="44.92269354452718" lon="12.125945033946682"><ele>-4.0</ele><time>2026-04-05T15:43:09.036Z</time></trkpt><trkpt lat="44.92259329426977" lon="12.125926126851784"><ele>-4.0</ele><time>2026-04-05T15:43:10.036Z</time></trkpt><trkpt lat="44.92251079229085" lon="12.125920548000394"><ele>-4.0</ele><time>2026-04-05T15:43:11.036Z</time></trkpt><trkpt lat="44.92243699654623" lon="12.125933572231503"><ele>-3.9999999999999996</ele><time>2026-04-05T15:43:12.036Z</time></trkpt><trkpt lat="44.92237999229893" lon="12.125987465152795"><ele>-4.0</ele><time>2026-04-05T15:43:13.036Z</time></trkpt><trkpt lat="44.92231516113047" lon="12.126065996820595"><ele>-4.0</ele><time>2026-04-05T15:43:14.036Z</time></trkpt><trkpt lat="44.922244726661575" lon="12.126152093025127"><ele>-4.0</ele><time>2026-04-05T15:43:15.036Z</time></trkpt><trkpt lat="44.922169153969335" lon="12.126213389195183"><ele>-4.0</ele><time>2026-04-05T15:43:16.036Z</time></trkpt><trkpt lat="44.92206397510189" lon="12.12627146082656"><ele>-4.0</ele><time>2026-04-05T15:43:18.036Z</time></trkpt><trkpt lat="44.92199244351306" lon="12.126262915130452"><ele>-4.0</ele><time>2026-04-05T15:43:20.036Z</time></trkpt><trkpt lat="44.92192612408442" lon="12.126161732773266"><ele>-4.0</ele><time>2026-04-05T15:43:22.036Z</time></trkpt><trkpt lat="44.92184662724172" lon="12.126047172546064"><ele>-4.0</ele><time>2026-04-05T15:43:24.036Z</time></trkpt><trkpt lat="44.92177695376444" lon="12.125987791623706"><ele>-4.0</ele><time>2026-04-05T15:43:26.036Z</time></trkpt><trkpt lat="44.92169269011107" lon="12.125998610732509"><ele>-4.0</ele><time>2026-04-05T15:43:29.036Z</time></trkpt><trkpt lat="44.921639383631536" lon="12.126116717458821"><ele>-4.0</ele><time>2026-04-05T15:43:31.036Z</time></trkpt><trkpt lat="44.92160743198639" lon="12.126209929166002"><ele>-3.6</ele><time>2026-04-05T15:43:32.036Z</time></trkpt><trkpt lat="44.92156493210602" lon="12.12632992724902"><ele>-3.2</ele><time>2026-04-05T15:43:33.036Z</time></trkpt><trkpt lat="44.92151375008191" lon="12.126455594739907"><ele>-2.8000000000000003</ele><time>2026-04-05T15:43:34.036Z</time></trkpt><trkpt lat="44.92146524325862" lon="12.126563129629208"><ele>-2.4000000000000004</ele><time>2026-04-05T15:43:35.036Z</time></trkpt><trkpt lat="44.921407068159745" lon="12.126679968495994"><ele>-2.0</ele><time>2026-04-05T15:43:36.036Z</time></trkpt><trkpt lat="44.92135297213916" lon="12.126806985289583"><ele>-2.0</ele><time>2026-04-05T15:43:37.036Z</time></trkpt><trkpt lat="44.92129301004661" lon="12.126946482205287"><ele>-2.0</ele><time>2026-04-05T15:43:38.036Z</time></trkpt><trkpt lat="44.921234346835185" lon="12.127097197123117"><ele>-2.0</ele><time>2026-04-05T15:43:39.036Z</time></trkpt><trkpt lat="44.92117725054884" lon="12.127236918960502"><ele>-2.0</ele><time>2026-04-05T15:43:40.036Z</time></trkpt><trkpt lat="44.921117042183724" lon="12.127387178381488"><ele>-2.25</ele><time>2026-04-05T15:43:41.036Z</time></trkpt><trkpt lat="44.92105420244559" lon="12.127532177671608"><ele>-2.5</ele><time>2026-04-05T15:43:42.036Z</time></trkpt><trkpt lat="44.92099232722328" lon="12.127680495057161"><ele>-2.75</ele><time>2026-04-05T15:43:43.036Z</time></trkpt><trkpt lat="44.920932066022665" lon="12.12782953340522"><ele>-3.0</ele><time>2026-04-05T15:43:44.036Z</time></trkpt><trkpt lat="44.920874536248064" lon="12.12797972198391"><ele>-3.0</ele><time>2026-04-05T15:43:45.036Z</time></trkpt><trkpt lat="44.92080793981455" lon="12.128114226399523"><ele>-3.0</ele><time>2026-04-05T15:43:46.036Z</time></trkpt><trkpt lat="44.92077103495144" lon="12.128255885417964"><ele>-3.0</ele><time>2026-04-05T15:43:47.036Z</time></trkpt><trkpt lat="44.92071546489038" lon="12.12839712702703"><ele>-3.0</ele><time>2026-04-05T15:43:48.036Z</time></trkpt><trkpt lat="44.920664303144825" lon="12.128539334676862"><ele>-3.0</ele><time>2026-04-05T15:43:49.036Z</time></trkpt><trkpt lat="44.92061818652722" lon="12.128683955695353"><ele>-3.0</ele><time>2026-04-05T15:43:50.036Z</time></trkpt><trkpt lat="44.9205698763148" lon="12.128828198673567"><ele>-3.0</ele><time>2026-04-05T15:43:51.036Z</time></trkpt><trkpt lat="44.92053033045169" lon="12.128967812527375"><ele>-3.0</ele><time>2026-04-05T15:43:52.036Z</time></trkpt><trkpt lat="44.92049525617127" lon="12.129102554870652"><ele>-3.0</ele><time>2026-04-05T15:43:53.036Z</time></trkpt><trkpt lat="44.920466258058184" lon="12.129226910561087"><ele>-3.0</ele><time>2026-04-05T15:43:54.036Z</time></trkpt><trkpt lat="44.920426447141004" lon="12.12934370754582"><ele>-3.0</ele><time>2026-04-05T15:43:55.036Z</time></trkpt><trkpt lat="44.92041815185535" lon="12.129459846786116"><ele>-3.0</ele><time>2026-04-05T15:43:56.036Z</time></trkpt><trkpt lat="44.92039403388111" lon="12.129544817522232"><ele>-3.0</ele><time>2026-04-05T15:43:57.036Z</time></trkpt><trkpt lat="44.92036308335444" lon="12.129683220915826"><ele>-3.0</ele><time>2026-04-05T15:43:59.036Z</time></trkpt><trkpt lat="44.9203334701511" lon="12.129805967064552"><ele>-3.0</ele><time>2026-04-05T15:44:01.036Z</time></trkpt><trkpt lat="44.92026343050969" lon="12.129885591134586"><ele>-3.0</ele><time>2026-04-05T15:44:03.036Z</time></trkpt><trkpt lat="44.9201488235732" lon="12.129919987603808"><ele>-3.0</ele><time>2026-04-05T15:44:05.036Z</time></trkpt><trkpt lat="44.92006428986709" lon="12.129918368208578"><ele>-3.0</ele><time>2026-04-05T15:44:06.037Z</time></trkpt><trkpt lat="44.91997467472342" lon="12.12993169437705"><ele>-3.0</ele><time>2026-04-05T15:44:07.037Z</time></trkpt><trkpt lat="44.91988183528892" lon="12.12993001207796"><ele>-3.0</ele><time>2026-04-05T15:44:08.037Z</time></trkpt><trkpt lat="44.91979606298032" lon="12.129930639241348"><ele>-3.2</ele><time>2026-04-05T15:44:09.037Z</time></trkpt><trkpt lat="44.91970203630899" lon="12.129930439853302"><ele>-3.4</ele><time>2026-04-05T15:44:10.037Z</time></trkpt><trkpt lat="44.91960354050794" lon="12.129934372652068"><ele>-3.6000000000000005</ele><time>2026-04-05T15:44:11.037Z</time></trkpt><trkpt lat="44.919488299020756" lon="12.129936837788723"><ele>-3.8000000000000003</ele><time>2026-04-05T15:44:12.037Z</time></trkpt><trkpt lat="44.91936345843706" lon="12.129938409953295"><ele>-4.0</ele><time>2026-04-05T15:44:13.037Z</time></trkpt><trkpt lat="44.91923511220402" lon="12.129946123775776"><ele>-4.5</ele><time>2026-04-05T15:44:14.036Z</time></trkpt><trkpt lat="44.91911146616402" lon="12.12994316887265"><ele>-5.0</ele><time>2026-04-05T15:44:15.036Z</time></trkpt><trkpt lat="44.91898970528144" lon="12.129947071401018"><ele>-5.5</ele><time>2026-04-05T15:44:16.036Z</time></trkpt><trkpt lat="44.918867050280696" lon="12.129954827435915"><ele>-6.0</ele><time>2026-04-05T15:44:17.036Z</time></trkpt><trkpt lat="44.91874467854057" lon="12.12995999138053"><ele>-6.0</ele><time>2026-04-05T15:44:18.036Z</time></trkpt><trkpt lat="44.91862086829805" lon="12.129940843216044"><ele>-6.0</ele><time>2026-04-05T15:44:19.036Z</time></trkpt><trkpt lat="44.918500187253535" lon="12.129964095612204"><ele>-6.0</ele><time>2026-04-05T15:44:20.036Z</time></trkpt><trkpt lat="44.918376512567505" lon="12.129964025848993"><ele>-6.0</ele><time>2026-04-05T15:44:21.036Z</time></trkpt><trkpt lat="44.918252578331106" lon="12.12994143609348"><ele>-5.75</ele><time>2026-04-05T15:44:22.036Z</time></trkpt><trkpt lat="44.918126676824684" lon="12.129964209049085"><ele>-5.5</ele><time>2026-04-05T15:44:23.037Z</time></trkpt><trkpt lat="44.91800137662781" lon="12.129956974253327"><ele>-5.25</ele><time>2026-04-05T15:44:24.036Z</time></trkpt><trkpt lat="44.917883143705126" lon="12.12995698619337"><ele>-5.0</ele><time>2026-04-05T15:44:25.036Z</time></trkpt><trkpt lat="44.91776580948236" lon="12.129957245465702"><ele>-5.0</ele><time>2026-04-05T15:44:26.036Z</time></trkpt><trkpt lat="44.91764498626004" lon="12.129957422765058"><ele>-5.0</ele><time>2026-04-05T15:44:27.036Z</time></trkpt><trkpt lat="44.917528268773744" lon="12.129963145525394"><ele>-5.0</ele><time>2026-04-05T15:44:28.036Z</time></trkpt><trkpt lat="44.91741235960809" lon="12.12995938988682"><ele>-5.0</ele><time>2026-04-05T15:44:29.036Z</time></trkpt><trkpt lat="44.91730591233909" lon="12.129954332273826"><ele>-5.25</ele><time>2026-04-05T15:44:30.036Z</time></trkpt><trkpt lat="44.91720328059989" lon="12.12990335110317"><ele>-5.5</ele><time>2026-04-05T15:44:31.036Z</time></trkpt><trkpt lat="44.91709889629301" lon="12.129837310977617"><ele>-5.75</ele><time>2026-04-05T15:44:32.036Z</time></trkpt><trkpt lat="44.917022136458534" lon="12.129739009044933"><ele>-6.0</ele><time>2026-04-05T15:44:33.036Z</time></trkpt><trkpt lat="44.91681407549153" lon="12.129477899623724"><ele>-5.75</ele><time>2026-04-05T15:44:34.036Z</time></trkpt><trkpt lat="44.91670696696413" lon="12.12948980940011"><ele>-5.5</ele><time>2026-04-05T15:44:35.036Z</time></trkpt><trkpt lat="44.916602956955636" lon="12.129501374642018"><ele>-5.25</ele><time>2026-04-05T15:44:36.036Z</time></trkpt><trkpt lat="44.91649266867702" lon="12.129513637986566"><ele>-5.0</ele><time>2026-04-05T15:44:37.036Z</time></trkpt><trkpt lat="44.91640598292028" lon="12.129961888817219"><ele>-4.75</ele><time>2026-04-05T15:44:38.036Z</time></trkpt><trkpt lat="44.91628696259684" lon="12.129966433252452"><ele>-4.5</ele><time>2026-04-05T15:44:39.036Z</time></trkpt><trkpt lat="44.91617028589537" lon="12.129965969489895"><ele>-4.25</ele><time>2026-04-05T15:44:40.036Z</time></trkpt><trkpt lat="44.91605753200982" lon="12.129967453584326"><ele>-4.0</ele><time>2026-04-05T15:44:41.036Z</time></trkpt><trkpt lat="44.91593923993739" lon="12.129962913826017"><ele>-4.5</ele><time>2026-04-05T15:44:42.036Z</time></trkpt><trkpt lat="44.91582063167134" lon="12.129964736827905"><ele>-5.0</ele><time>2026-04-05T15:44:43.036Z</time></trkpt><trkpt lat="44.91570049571657" lon="12.129966862413095"><ele>-5.5</ele><time>2026-04-05T15:44:44.036Z</time></trkpt><trkpt lat="44.91557802410004" lon="12.129968315494384"><ele>-6.0</ele><time>2026-04-05T15:44:45.036Z</time></trkpt><trkpt lat="44.915454300653785" lon="12.129970643150271"><ele>-6.0</ele><time>2026-04-05T15:44:46.036Z</time></trkpt><trkpt lat="44.915327271574405" lon="12.12997862185924"><ele>-6.0</ele><time>2026-04-05T15:44:47.036Z</time></trkpt><trkpt lat="44.915198000679304" lon="12.129975118556706"><ele>-6.0</ele><time>2026-04-05T15:44:48.036Z</time></trkpt><trkpt lat="44.91507400241898" lon="12.129980457201658"><ele>-6.0</ele><time>2026-04-05T15:44:49.036Z</time></trkpt><trkpt lat="44.914945128320014" lon="12.129977621637396"><ele>-5.5</ele><time>2026-04-05T15:44:50.036Z</time></trkpt><trkpt lat="44.91482080142648" lon="12.129979225659596"><ele>-5.0</ele><time>2026-04-05T15:44:51.036Z</time></trkpt><trkpt lat="44.91469436421606" lon="12.129981688317395"><ele>-4.5</ele><time>2026-04-05T15:44:52.036Z</time></trkpt><trkpt lat="44.91457661582083" lon="12.129982690079814"><ele>-4.0</ele><time>2026-04-05T15:44:53.036Z</time></trkpt><trkpt lat="44.91445250245963" lon="12.12998302470197"><ele>-4.0</ele><time>2026-04-05T15:44:54.036Z</time></trkpt><trkpt lat="44.91432654447798" lon="12.129982871728664"><ele>-4.0</ele><time>2026-04-05T15:44:55.036Z</time></trkpt><trkpt lat="44.914202310081926" lon="12.129979854639808"><ele>-4.0</ele><time>2026-04-05T15:44:56.036Z</time></trkpt><trkpt lat="44.914074296053386" lon="12.129980839073578"><ele>-4.0</ele><time>2026-04-05T15:44:57.036Z</time></trkpt><trkpt lat="44.913953373950406" lon="12.129981453062223"><ele>-4.0</ele><time>2026-04-05T15:44:58.036Z</time></trkpt><trkpt lat="44.91383615477173" lon="12.129983040848169"><ele>-4.0</ele><time>2026-04-05T15:44:59.036Z</time></trkpt><trkpt lat="44.913718083028236" lon="12.12998012557579"><ele>-4.0</ele><time>2026-04-05T15:45:00.036Z</time></trkpt><trkpt lat="44.91359784170926" lon="12.129979212124876"><ele>-4.0</ele><time>2026-04-05T15:45:01.036Z</time></trkpt><trkpt lat="44.91347006792129" lon="12.129979001384802"><ele>-4.5</ele><time>2026-04-05T15:45:02.036Z</time></trkpt><trkpt lat="44.9133336415478" lon="12.12997924449968"><ele>-5.0</ele><time>2026-04-05T15:45:03.036Z</time></trkpt><trkpt lat="44.91319815963251" lon="12.129978975329584"><ele>-5.5</ele><time>2026-04-05T15:45:04.036Z</time></trkpt><trkpt lat="44.91306325505857" lon="12.129979351055228"><ele>-6.0</ele><time>2026-04-05T15:45:05.036Z</time></trkpt><trkpt lat="44.912930857722074" lon="12.12997925447676"><ele>-6.0</ele><time>2026-04-05T15:45:06.036Z</time></trkpt><trkpt lat="44.91279895063276" lon="12.129973829756613"><ele>-6.0</ele><time>2026-04-05T15:45:07.036Z</time></trkpt><trkpt lat="44.912665800626975" lon="12.129976259419694"><ele>-6.0</ele><time>2026-04-05T15:45:08.036Z</time></trkpt><trkpt lat="44.91253070274064" lon="12.129976444892005"><ele>-6.0</ele><time>2026-04-05T15:45:09.036Z</time></trkpt><trkpt lat="44.91239278038169" lon="12.129980053585575"><ele>-6.0</ele><time>2026-04-05T15:45:10.036Z</time></trkpt><trkpt lat="44.91225488235311" lon="12.129987457119116"><ele>-6.0</ele><time>2026-04-05T15:45:11.036Z</time></trkpt><trkpt lat="44.912119171699274" lon="12.129984295510468"><ele>-6.0</ele><time>2026-04-05T15:45:12.036Z</time></trkpt><trkpt lat="44.911988317160265" lon="12.129980111668248"><ele>-6.0</ele><time>2026-04-05T15:45:13.036Z</time></trkpt><trkpt lat="44.91186417436975" lon="12.12997818830996"><ele>-5.5</ele><time>2026-04-05T15:45:14.036Z</time></trkpt><trkpt lat="44.91173126331265" lon="12.129977339651218"><ele>-5.0</ele><time>2026-04-05T15:45:15.036Z</time></trkpt><trkpt lat="44.91158793670924" lon="12.129979492928463"><ele>-4.5</ele><time>2026-04-05T15:45:16.036Z</time></trkpt><trkpt lat="44.91143746096041" lon="12.129984463701714"><ele>-4.0</ele><time>2026-04-05T15:45:17.036Z</time></trkpt><trkpt lat="44.91128641468524" lon="12.129985415156689"><ele>-4.0</ele><time>2026-04-05T15:45:18.036Z</time></trkpt><trkpt lat="44.91114591093183" lon="12.129975921962096"><ele>-4.0</ele><time>2026-04-05T15:45:19.036Z</time></trkpt><trkpt lat="44.91100814948107" lon="12.129974771018324"><ele>-4.0</ele><time>2026-04-05T15:45:20.036Z</time></trkpt><trkpt lat="44.91086404347269" lon="12.129986077067183"><ele>-4.0</ele><time>2026-04-05T15:45:21.036Z</time></trkpt><trkpt lat="44.91072433411238" lon="12.129996792265104"><ele>-4.25</ele><time>2026-04-05T15:45:22.036Z</time></trkpt><trkpt lat="44.91058581076015" lon="12.130005188839435"><ele>-4.5</ele><time>2026-04-05T15:45:23.036Z</time></trkpt><trkpt lat="44.910450986513766" lon="12.130009312508143"><ele>-4.75</ele><time>2026-04-05T15:45:24.036Z</time></trkpt><trkpt lat="44.91032696235029" lon="12.130018068400314"><ele>-5.0</ele><time>2026-04-05T15:45:25.036Z</time></trkpt><trkpt lat="44.910210559982794" lon="12.130025829738168"><ele>-5.0</ele><time>2026-04-05T15:45:26.036Z</time></trkpt><trkpt lat="44.91010986439013" lon="12.130029228408613"><ele>-5.0</ele><time>2026-04-05T15:45:27.036Z</time></trkpt><trkpt lat="44.91003097114513" lon="12.130042085204527"><ele>-5.0</ele><time>2026-04-05T15:45:28.036Z</time></trkpt><trkpt lat="44.90996912100197" lon="12.13005880500776"><ele>-5.0</ele><time>2026-04-05T15:45:29.036Z</time></trkpt><trkpt lat="44.90988768566776" lon="12.130088954119808"><ele>-5.0</ele><time>2026-04-05T15:45:31.037Z</time></trkpt><trkpt lat="44.90979319901909" lon="12.130110014584973"><ele>-5.0</ele><time>2026-04-05T15:45:33.037Z</time></trkpt><trkpt lat="44.90970322985309" lon="12.130085888096383"><ele>-4.833333333333334</ele><time>2026-04-05T15:45:34.037Z</time></trkpt><trkpt lat="44.90962146067045" lon="12.130080418451175"><ele>-4.666666666666667</ele><time>2026-04-05T15:45:35.037Z</time></trkpt><trkpt lat="44.90954195360837" lon="12.13006778406176"><ele>-4.5</ele><time>2026-04-05T15:45:36.037Z</time></trkpt><trkpt lat="44.90947748836936" lon="12.130062842905177"><ele>-4.333333333333333</ele><time>2026-04-05T15:45:37.037Z</time></trkpt><trkpt lat="44.909383879779014" lon="12.130058170915646"><ele>-4.166666666666666</ele><time>2026-04-05T15:45:39.037Z</time></trkpt><trkpt lat="44.909323496103305" lon="12.130005118096106"><ele>-4.0</ele><time>2026-04-05T15:45:41.037Z</time></trkpt><trkpt lat="44.909302284424626" lon="12.129870070241415"><ele>-3.9999999999999996</ele><time>2026-04-05T15:45:43.037Z</time></trkpt><trkpt lat="44.90923833219005" lon="12.129766708888274"><ele>-4.0</ele><time>2026-04-05T15:45:45.037Z</time></trkpt><trkpt lat="44.909154163488665" lon="12.129782223268727"><ele>-4.0</ele><time>2026-04-05T15:45:47.037Z</time></trkpt><trkpt lat="44.90911475244894" lon="12.129871735792685"><ele>-4.0</ele><time>2026-04-05T15:45:49.037Z</time></trkpt><trkpt lat="44.90912966878112" lon="12.129992824504333"><ele>-3.9999999999999996</ele><time>2026-04-05T15:45:51.037Z</time></trkpt><trkpt lat="44.90908353631042" lon="12.130060510743228"><ele>-4.0</ele><time>2026-04-05T15:45:53.037Z</time></trkpt><trkpt lat="44.908957542760355" lon="12.130060382313205"><ele>-4.2</ele><time>2026-04-05T15:45:55.037Z</time></trkpt><trkpt lat="44.908846666422896" lon="12.130040080222157"><ele>-4.4</ele><time>2026-04-05T15:45:56.037Z</time></trkpt><trkpt lat="44.90873995140777" lon="12.130042198355284"><ele>-4.6</ele><time>2026-04-05T15:45:57.037Z</time></trkpt><trkpt lat="44.90863437772883" lon="12.130044441671895"><ele>-4.8</ele><time>2026-04-05T15:45:58.037Z</time></trkpt><trkpt lat="44.9085236342732" lon="12.130047246482736"><ele>-5.0</ele><time>2026-04-05T15:45:59.037Z</time></trkpt><trkpt lat="44.90841887489527" lon="12.130052080142818"><ele>-5.0</ele><time>2026-04-05T15:46:00.037Z</time></trkpt><trkpt lat="44.90830318215657" lon="12.130053354494306"><ele>-5.0</ele><time>2026-04-05T15:46:01.037Z</time></trkpt><trkpt lat="44.90817626406327" lon="12.130058310186273"><ele>-5.0</ele><time>2026-04-05T15:46:02.037Z</time></trkpt><trkpt lat="44.908035332488026" lon="12.13007148483122"><ele>-5.0</ele><time>2026-04-05T15:46:03.037Z</time></trkpt><trkpt lat="44.907860325069976" lon="12.130082717518244"><ele>-5.0</ele><time>2026-04-05T15:46:04.037Z</time></trkpt><trkpt lat="44.90767983313667" lon="12.130091048475073"><ele>-5.0</ele><time>2026-04-05T15:46:05.037Z</time></trkpt><trkpt lat="44.90750447373013" lon="12.130091462505888"><ele>-5.0</ele><time>2026-04-05T15:46:06.037Z</time></trkpt><trkpt lat="44.90732679306116" lon="12.130081795266156"><ele>-4.75</ele><time>2026-04-05T15:46:07.037Z</time></trkpt><trkpt lat="44.9074870196479" lon="12.130043326289318"><ele>-4.5</ele><time>2026-04-05T15:46:08.037Z</time></trkpt><trkpt lat="44.90735184107573" lon="12.130045265851026"><ele>-4.25</ele><time>2026-04-05T15:46:09.037Z</time></trkpt><trkpt lat="44.90721643296396" lon="12.130046497216599"><ele>-4.0</ele><time>2026-04-05T15:46:10.037Z</time></trkpt><trkpt lat="44.90707967775967" lon="12.130047017569094"><ele>-4.0</ele><time>2026-04-05T15:46:11.037Z</time></trkpt><trkpt lat="44.90694178163728" lon="12.130047147529185"><ele>-4.0</ele><time>2026-04-05T15:46:12.037Z</time></trkpt><trkpt lat="44.90680520715419" lon="12.130048947782551"><ele>-4.0</ele><time>2026-04-05T15:46:13.037Z</time></trkpt><trkpt lat="44.906666315058914" lon="12.130050712093894"><ele>-4.0</ele><time>2026-04-05T15:46:14.037Z</time></trkpt><trkpt lat="44.90652833445656" lon="12.130050313055943"><ele>-4.0</ele><time>2026-04-05T15:46:15.037Z</time></trkpt><trkpt lat="44.90639019235302" lon="12.130054920460063"><ele>-4.0</ele><time>2026-04-05T15:46:16.037Z</time></trkpt><trkpt lat="44.90625430738478" lon="12.130060311800205"><ele>-4.0</ele><time>2026-04-05T15:46:17.037Z</time></trkpt><trkpt lat="44.906126699888006" lon="12.130064034401993"><ele>-4.0</ele><time>2026-04-05T15:46:18.037Z</time></trkpt><trkpt lat="44.906003899729086" lon="12.130066873270087"><ele>-4.25</ele><time>2026-04-05T15:46:19.037Z</time></trkpt><trkpt lat="44.905880048606946" lon="12.130071960578787"><ele>-4.5</ele><time>2026-04-05T15:46:20.038Z</time></trkpt><trkpt lat="44.90574652762956" lon="12.130074505590612"><ele>-4.75</ele><time>2026-04-05T15:46:21.038Z</time></trkpt><trkpt lat="44.90560896112134" lon="12.13007593563945"><ele>-5.0</ele><time>2026-04-05T15:46:22.038Z</time></trkpt><trkpt lat="44.90546913125918" lon="12.1300801143012"><ele>-5.0</ele><time>2026-04-05T15:46:23.038Z</time></trkpt><trkpt lat="44.90532984513428" lon="12.130081338787777"><ele>-5.0</ele><time>2026-04-05T15:46:24.038Z</time></trkpt><trkpt lat="44.9051879561526" lon="12.1300838395254"><ele>-5.0</ele><time>2026-04-05T15:46:25.038Z</time></trkpt><trkpt lat="44.90504446171657" lon="12.130084025119293"><ele>-5.0</ele><time>2026-04-05T15:46:26.038Z</time></trkpt><trkpt lat="44.9048993745934" lon="12.130086166534403"><ele>-5.0</ele><time>2026-04-05T15:46:27.037Z</time></trkpt><trkpt lat="44.90475940543095" lon="12.130088332103957"><ele>-5.0</ele><time>2026-04-05T15:46:28.037Z</time></trkpt><trkpt lat="44.90461380495653" lon="12.130083326617026"><ele>-5.0</ele><time>2026-04-05T15:46:29.038Z</time></trkpt><trkpt lat="44.90446589012218" lon="12.130083457530706"><ele>-5.0</ele><time>2026-04-05T15:46:30.037Z</time></trkpt><trkpt lat="44.90431432621347" lon="12.130089843906983"><ele>-5.25</ele><time>2026-04-05T15:46:31.037Z</time></trkpt><trkpt lat="44.90416813707767" lon="12.130091279601313"><ele>-5.5</ele><time>2026-04-05T15:46:32.038Z</time></trkpt><trkpt lat="44.904056294238345" lon="12.130092526656762"><ele>-5.75</ele><time>2026-04-05T15:46:33.037Z</time></trkpt><trkpt lat="44.903949916514286" lon="12.130093158019344"><ele>-6.0</ele><time>2026-04-05T15:46:34.037Z</time></trkpt><trkpt lat="44.903855887253535" lon="12.130089152332332"><ele>-6.0</ele><time>2026-04-05T15:46:35.037Z</time></trkpt><trkpt lat="44.903766690742714" lon="12.130085351981387"><ele>-6.0</ele><time>2026-04-05T15:46:36.037Z</time></trkpt><trkpt lat="44.903673015124994" lon="12.130090945545412"><ele>-6.0</ele><time>2026-04-05T15:46:37.037Z</time></trkpt><trkpt lat="44.903580954432734" lon="12.13009024963521"><ele>-6.0</ele><time>2026-04-05T15:46:38.037Z</time></trkpt><trkpt lat="44.903486182458934" lon="12.130087554157294"><ele>-6.0</ele><time>2026-04-05T15:46:39.037Z</time></trkpt><trkpt lat="44.903398966417626" lon="12.130080593498308"><ele>-5.5</ele><time>2026-04-05T15:46:40.037Z</time></trkpt><trkpt lat="44.90328769627155" lon="12.1300819099624"><ele>-5.0</ele><time>2026-04-05T15:46:41.037Z</time></trkpt><trkpt lat="44.903156166822605" lon="12.130089329646532"><ele>-4.5</ele><time>2026-04-05T15:46:42.037Z</time></trkpt><trkpt lat="44.903018545971655" lon="12.130095576910232"><ele>-4.0</ele><time>2026-04-05T15:46:43.037Z</time></trkpt><trkpt lat="44.90289053230484" lon="12.130099462206015"><ele>-4.0</ele><time>2026-04-05T15:46:44.037Z</time></trkpt><trkpt lat="44.90276750117441" lon="12.130099882128958"><ele>-4.0</ele><time>2026-04-05T15:46:45.037Z</time></trkpt><trkpt lat="44.90264691168858" lon="12.130098007976276"><ele>-4.0</ele><time>2026-04-05T15:46:46.037Z</time></trkpt><trkpt lat="44.90252559757659" lon="12.130092595399066"><ele>-4.0</ele><time>2026-04-05T15:46:47.037Z</time></trkpt><trkpt lat="44.90240456005216" lon="12.130091444492692"><ele>-4.25</ele><time>2026-04-05T15:46:48.037Z</time></trkpt><trkpt lat="44.90227361722099" lon="12.130099020457983"><ele>-4.5</ele><time>2026-04-05T15:46:49.037Z</time></trkpt><trkpt lat="44.90212794095389" lon="12.130104527918046"><ele>-4.75</ele><time>2026-04-05T15:46:50.037Z</time></trkpt><trkpt lat="44.90197851710359" lon="12.13009895834488"><ele>-5.0</ele><time>2026-04-05T15:46:51.037Z</time></trkpt><trkpt lat="44.901824661121985" lon="12.130101496415106"><ele>-5.0</ele><time>2026-04-05T15:46:52.038Z</time></trkpt><trkpt lat="44.90167272332779" lon="12.130106514435553"><ele>-5.0</ele><time>2026-04-05T15:46:53.038Z</time></trkpt><trkpt lat="44.9015175421487" lon="12.130107393248862"><ele>-5.0</ele><time>2026-04-05T15:46:54.038Z</time></trkpt><trkpt lat="44.90135990418373" lon="12.130112528282211"><ele>-5.0</ele><time>2026-04-05T15:46:55.038Z</time></trkpt><trkpt lat="44.90120605452076" lon="12.130113935516535"><ele>-5.0</ele><time>2026-04-05T15:46:56.038Z</time></trkpt><trkpt lat="44.90105109611094" lon="12.130114538535182"><ele>-5.0</ele><time>2026-04-05T15:46:57.038Z</time></trkpt><trkpt lat="44.900890478793436" lon="12.130115054812496"><ele>-4.666666666666667</ele><time>2026-04-05T15:46:58.038Z</time></trkpt><trkpt lat="44.90072883325494" lon="12.130117459586241"><ele>-4.333333333333333</ele><time>2026-04-05T15:46:59.038Z</time></trkpt><trkpt lat="44.90056312975689" lon="12.130121017944443"><ele>-4.0</ele><time>2026-04-05T15:47:00.038Z</time></trkpt><trkpt lat="44.900397789742634" lon="12.130125018344323"><ele>-4.0</ele><time>2026-04-05T15:47:01.038Z</time></trkpt><trkpt lat="44.90023666130338" lon="12.130122558678345"><ele>-4.0</ele><time>2026-04-05T15:47:02.038Z</time></trkpt><trkpt lat="44.90007460045984" lon="12.130126774166165"><ele>-4.0</ele><time>2026-04-05T15:47:03.038Z</time></trkpt><trkpt lat="44.89992005892416" lon="12.130136228900325"><ele>-5.333333333333333</ele><time>2026-04-05T15:47:04.038Z</time></trkpt><trkpt lat="44.89977321068782" lon="12.130146019152473"><ele>-6.666666666666666</ele><time>2026-04-05T15:47:05.038Z</time></trkpt><trkpt lat="44.899624549919665" lon="12.130144183353382"><ele>-8.0</ele><time>2026-04-05T15:47:06.038Z</time></trkpt><trkpt lat="44.899466819096205" lon="12.130140557704252"><ele>-8.0</ele><time>2026-04-05T15:47:07.038Z</time></trkpt><trkpt lat="44.89931124648031" lon="12.130145863239836"><ele>-8.0</ele><time>2026-04-05T15:47:08.038Z</time></trkpt><trkpt lat="44.899160078493004" lon="12.130150705633529"><ele>-8.0</ele><time>2026-04-05T15:47:09.038Z</time></trkpt><trkpt lat="44.8990160321407" lon="12.130151420545507"><ele>-7.5</ele><time>2026-04-05T15:47:10.038Z</time></trkpt><trkpt lat="44.89888105234322" lon="12.130158518664551"><ele>-7.0</ele><time>2026-04-05T15:47:11.038Z</time></trkpt><trkpt lat="44.89875115969056" lon="12.130152335805846"><ele>-6.5</ele><time>2026-04-05T15:47:12.038Z</time></trkpt><trkpt lat="44.89861404346842" lon="12.130142539923991"><ele>-6.0</ele><time>2026-04-05T15:47:13.038Z</time></trkpt><trkpt lat="44.89846256361282" lon="12.130134185068664"><ele>-5.666666666666667</ele><time>2026-04-05T15:47:14.038Z</time></trkpt><trkpt lat="44.89830898505142" lon="12.130143335127311"><ele>-5.333333333333334</ele><time>2026-04-05T15:47:15.038Z</time></trkpt><trkpt lat="44.89814532710568" lon="12.130149638709492"><ele>-5.0</ele><time>2026-04-05T15:47:16.038Z</time></trkpt><trkpt lat="44.89797986791111" lon="12.130149053428958"><ele>-5.0</ele><time>2026-04-05T15:47:17.038Z</time></trkpt><trkpt lat="44.89781673197462" lon="12.130151284967825"><ele>-5.0</ele><time>2026-04-05T15:47:18.038Z</time></trkpt><trkpt lat="44.897656563271276" lon="12.130153711903999"><ele>-5.0</ele><time>2026-04-05T15:47:19.038Z</time></trkpt><trkpt lat="44.897504175647335" lon="12.130156840106466"><ele>-5.333333333333334</ele><time>2026-04-05T15:47:20.038Z</time></trkpt><trkpt lat="44.89734100473004" lon="12.130158761990575"><ele>-5.666666666666667</ele><time>2026-04-05T15:47:21.038Z</time></trkpt><trkpt lat="44.897180284539196" lon="12.13016020330131"><ele>-6.0</ele><time>2026-04-05T15:47:22.038Z</time></trkpt><trkpt lat="44.897029272309915" lon="12.130166580470858"><ele>-6.0</ele><time>2026-04-05T15:47:23.038Z</time></trkpt><trkpt lat="44.896871568467475" lon="12.130168649135044"><ele>-6.0</ele><time>2026-04-05T15:47:24.038Z</time></trkpt><trkpt lat="44.8967120139849" lon="12.130172063084363"><ele>-6.0</ele><time>2026-04-05T15:47:25.038Z</time></trkpt><trkpt lat="44.89656522509129" lon="12.130169535375794"><ele>-5.75</ele><time>2026-04-05T15:47:26.038Z</time></trkpt><trkpt lat="44.89643326969279" lon="12.130170824397553"><ele>-5.5</ele><time>2026-04-05T15:47:27.038Z</time></trkpt><trkpt lat="44.89630797554476" lon="12.13017217450533"><ele>-5.25</ele><time>2026-04-05T15:47:28.038Z</time></trkpt><trkpt lat="44.896189566423196" lon="12.130180872616467"><ele>-5.0</ele><time>2026-04-05T15:47:29.038Z</time></trkpt><trkpt lat="44.89607318628118" lon="12.130174034148302"><ele>-5.0</ele><time>2026-04-05T15:47:30.038Z</time></trkpt><trkpt lat="44.895975657313755" lon="12.130176911593768"><ele>-5.0</ele><time>2026-04-05T15:47:31.038Z</time></trkpt><trkpt lat="44.89585952642382" lon="12.130176745519174"><ele>-5.0</ele><time>2026-04-05T15:47:32.038Z</time></trkpt><trkpt lat="44.89572913373006" lon="12.130175517339811"><ele>-5.0</ele><time>2026-04-05T15:47:33.038Z</time></trkpt><trkpt lat="44.89559072309493" lon="12.130178230925166"><ele>-5.0</ele><time>2026-04-05T15:47:34.038Z</time></trkpt><trkpt lat="44.89545383803239" lon="12.130178110948828"><ele>-5.0</ele><time>2026-04-05T15:47:35.038Z</time></trkpt><trkpt lat="44.89531443277268" lon="12.130176725197057"><ele>-5.0</ele><time>2026-04-05T15:47:36.038Z</time></trkpt><trkpt lat="44.89517961312288" lon="12.130179245965046"><ele>-5.0</ele><time>2026-04-05T15:47:37.038Z</time></trkpt><trkpt lat="44.895044774487445" lon="12.130181419864094"><ele>-5.0</ele><time>2026-04-05T15:47:38.038Z</time></trkpt><trkpt lat="44.89491955610712" lon="12.130183959208251"><ele>-5.0</ele><time>2026-04-05T15:47:39.038Z</time></trkpt><trkpt lat="44.894797342711385" lon="12.130183227786183"><ele>-5.0</ele><time>2026-04-05T15:47:40.038Z</time></trkpt><trkpt lat="44.89467397525" lon="12.130184712214835"><ele>-5.0</ele><time>2026-04-05T15:47:41.038Z</time></trkpt><trkpt lat="44.89454445813441" lon="12.130188719709183"><ele>-5.0</ele><time>2026-04-05T15:47:42.038Z</time></trkpt><trkpt lat="44.894407628782574" lon="12.130190839989815"><ele>-5.0</ele><time>2026-04-05T15:47:43.038Z</time></trkpt><trkpt lat="44.894269397886355" lon="12.130191099200303"><ele>-5.0</ele><time>2026-04-05T15:47:44.038Z</time></trkpt><trkpt lat="44.89413007855" lon="12.130192227759355"><ele>-5.0</ele><time>2026-04-05T15:47:45.038Z</time></trkpt><trkpt lat="44.89398866808206" lon="12.130192689503875"><ele>-5.0</ele><time>2026-04-05T15:47:46.038Z</time></trkpt><trkpt lat="44.8938497190095" lon="12.130193430247184"><ele>-5.0</ele><time>2026-04-05T15:47:47.038Z</time></trkpt><trkpt lat="44.893712366836354" lon="12.130193765978987"><ele>-5.0</ele><time>2026-04-05T15:47:48.038Z</time></trkpt><trkpt lat="44.893573931671725" lon="12.13019368959469"><ele>-5.0</ele><time>2026-04-05T15:47:49.038Z</time></trkpt><trkpt lat="44.89343692436754" lon="12.130193955764165"><ele>-5.25</ele><time>2026-04-05T15:47:50.038Z</time></trkpt><trkpt lat="44.89330466104212" lon="12.130200499056096"><ele>-5.5</ele><time>2026-04-05T15:47:51.038Z</time></trkpt><trkpt lat="44.893163330272166" lon="12.13020485508437"><ele>-5.75</ele><time>2026-04-05T15:47:52.038Z</time></trkpt><trkpt lat="44.89301731936965" lon="12.130206232442216"><ele>-6.0</ele><time>2026-04-05T15:47:53.038Z</time></trkpt><trkpt lat="44.892864547905134" lon="12.130208473796102"><ele>-6.0</ele><time>2026-04-05T15:47:54.038Z</time></trkpt><trkpt lat="44.89271739518311" lon="12.130205790474797"><ele>-6.0</ele><time>2026-04-05T15:47:55.038Z</time></trkpt><trkpt lat="44.89257249085461" lon="12.13020608116335"><ele>-6.0</ele><time>2026-04-05T15:47:56.038Z</time></trkpt><trkpt lat="44.89243548275293" lon="12.130209653043634"><ele>-6.0</ele><time>2026-04-05T15:47:57.038Z</time></trkpt><trkpt lat="44.8923034628221" lon="12.130211538528368"><ele>-5.75</ele><time>2026-04-05T15:47:58.038Z</time></trkpt><trkpt lat="44.89217237459036" lon="12.13021179798085"><ele>-5.5</ele><time>2026-04-05T15:47:59.038Z</time></trkpt><trkpt lat="44.89204273633848" lon="12.130213516171652"><ele>-5.25</ele><time>2026-04-05T15:48:00.038Z</time></trkpt><trkpt lat="44.89191588994627" lon="12.130213078393574"><ele>-5.0</ele><time>2026-04-05T15:48:01.038Z</time></trkpt><trkpt lat="44.891792914443386" lon="12.13020962041003"><ele>-4.8</ele><time>2026-04-05T15:48:02.038Z</time></trkpt><trkpt lat="44.89167501783229" lon="12.130210927980764"><ele>-4.6</ele><time>2026-04-05T15:48:03.038Z</time></trkpt><trkpt lat="44.89157137786346" lon="12.130220180274211"><ele>-4.4</ele><time>2026-04-05T15:48:04.038Z</time></trkpt><trkpt lat="44.89147882871146" lon="12.130223111171693"><ele>-4.2</ele><time>2026-04-05T15:48:05.038Z</time></trkpt><trkpt lat="44.891392060948675" lon="12.130223528981864"><ele>-4.0</ele><time>2026-04-05T15:48:06.038Z</time></trkpt><trkpt lat="44.8913007877337" lon="12.130224151557416"><ele>-4.0</ele><time>2026-04-05T15:48:07.038Z</time></trkpt><trkpt lat="44.891217018702214" lon="12.130223499326503"><ele>-3.9999999999999996</ele><time>2026-04-05T15:48:08.038Z</time></trkpt><trkpt lat="44.89114290874804" lon="12.130225095969625"><ele>-4.0</ele><time>2026-04-05T15:48:09.038Z</time></trkpt><trkpt lat="44.891073904924276" lon="12.130226339084812"><ele>-4.0</ele><time>2026-04-05T15:48:10.038Z</time></trkpt><trkpt lat="44.89100224286923" lon="12.130227552235262"><ele>-3.9999999999999996</ele><time>2026-04-05T15:48:11.038Z</time></trkpt><trkpt lat="44.89093231629741" lon="12.130226795498332"><ele>-4.0</ele><time>2026-04-05T15:48:12.038Z</time></trkpt><trkpt lat="44.89085733165923" lon="12.130222471226437"><ele>-4.0</ele><time>2026-04-05T15:48:13.038Z</time></trkpt><trkpt lat="44.890781172148856" lon="12.130220852655048"><ele>-3.9999999999999996</ele><time>2026-04-05T15:48:14.038Z</time></trkpt><trkpt lat="44.890701550076635" lon="12.130222718528302"><ele>-4.0</ele><time>2026-04-05T15:48:15.038Z</time></trkpt><trkpt lat="44.89061945768864" lon="12.130225591070094"><ele>-4.0</ele><time>2026-04-05T15:48:16.038Z</time></trkpt><trkpt lat="44.89053919273409" lon="12.130229152376593"><ele>-4.0</ele><time>2026-04-05T15:48:17.038Z</time></trkpt><trkpt lat="44.890456783096155" lon="12.130221320487141"><ele>-3.9999999999999996</ele><time>2026-04-05T15:48:18.038Z</time></trkpt><trkpt lat="44.89036927032435" lon="12.130223211468746"><ele>-4.0</ele><time>2026-04-05T15:48:19.038Z</time></trkpt><trkpt lat="44.890287959368315" lon="12.130220811988275"><ele>-3.9999999999999996</ele><time>2026-04-05T15:48:20.038Z</time></trkpt><trkpt lat="44.890209561193615" lon="12.130221802060543"><ele>-4.0</ele><time>2026-04-05T15:48:21.038Z</time></trkpt><trkpt lat="44.890128612210766" lon="12.13022112421673"><ele>-4.0</ele><time>2026-04-05T15:48:22.038Z</time></trkpt><trkpt lat="44.89004633906271" lon="12.130220817146846"><ele>-4.0</ele><time>2026-04-05T15:48:23.038Z</time></trkpt><trkpt lat="44.889964783053244" lon="12.130222627865106"><ele>-3.9999999999999996</ele><time>2026-04-05T15:48:24.038Z</time></trkpt><trkpt lat="44.88988631794169" lon="12.130227203755002"><ele>-4.0</ele><time>2026-04-05T15:48:25.038Z</time></trkpt><trkpt lat="44.88980725926219" lon="12.13023164188212"><ele>-4.166666666666666</ele><time>2026-04-05T15:48:26.04Z</time></trkpt><trkpt lat="44.88973180310643" lon="12.130233469913868"><ele>-4.333333333333333</ele><time>2026-04-05T15:48:27.039Z</time></trkpt><trkpt lat="44.889660587027485" lon="12.130230835696384"><ele>-4.5</ele><time>2026-04-05T15:48:28.039Z</time></trkpt><trkpt lat="44.88959663647426" lon="12.13022922411578"><ele>-4.666666666666667</ele><time>2026-04-05T15:48:29.039Z</time></trkpt><trkpt lat="44.88948077148374" lon="12.130209358413184"><ele>-4.833333333333334</ele><time>2026-04-05T15:48:31.039Z</time></trkpt><trkpt lat="44.88939075684465" lon="12.130114108051929"><ele>-5.0</ele><time>2026-04-05T15:48:33.04Z</time></trkpt><trkpt lat="44.88934119203929" lon="12.129941956470505"><ele>-5.0</ele><time>2026-04-05T15:48:35.039Z</time></trkpt><trkpt lat="44.889313861347865" lon="12.129776481963916"><ele>-5.0</ele><time>2026-04-05T15:48:37.039Z</time></trkpt><trkpt lat="44.889292531886184" lon="12.129691363221955"><ele>-5.0</ele><time>2026-04-05T15:48:38.04Z</time></trkpt><trkpt lat="44.88926572157741" lon="12.129599595356497"><ele>-5.0</ele><time>2026-04-05T15:48:39.039Z</time></trkpt><trkpt lat="44.88923837701295" lon="12.129505998852103"><ele>-5.0</ele><time>2026-04-05T15:48:40.039Z</time></trkpt><trkpt lat="44.889212429032966" lon="12.129417182679532"><ele>-5.0</ele><time>2026-04-05T15:48:41.039Z</time></trkpt><trkpt lat="44.88916353150718" lon="12.129249812608657"><ele>-4.714285714285714</ele><time>2026-04-05T15:48:43.039Z</time></trkpt><trkpt lat="44.88913706191635" lon="12.129160418411377"><ele>-4.428571428571429</ele><time>2026-04-05T15:48:44.039Z</time></trkpt><trkpt lat="44.88911021194132" lon="12.12906928217379"><ele>-4.142857142857142</ele><time>2026-04-05T15:48:45.039Z</time></trkpt><trkpt lat="44.88908350571168" lon="12.128978633825012"><ele>-3.8571428571428568</ele><time>2026-04-05T15:48:46.039Z</time></trkpt><trkpt lat="44.88905695469197" lon="12.12888864382395"><ele>-3.571428571428571</ele><time>2026-04-05T15:48:47.039Z</time></trkpt><trkpt lat="44.889015683954256" lon="12.128808676113431"><ele>-3.2857142857142856</ele><time>2026-04-05T15:48:48.039Z</time></trkpt><trkpt lat="44.88899361886815" lon="12.128718199118397"><ele>-3.0</ele><time>2026-04-05T15:48:49.039Z</time></trkpt><trkpt lat="44.888974530400034" lon="12.128631717373333"><ele>-3.0</ele><time>2026-04-05T15:48:50.039Z</time></trkpt><trkpt lat="44.88896059643743" lon="12.128540447529474"><ele>-3.0</ele><time>2026-04-05T15:48:51.039Z</time></trkpt><trkpt lat="44.88895321859536" lon="12.1284486329398"><ele>-3.0</ele><time>2026-04-05T15:48:52.039Z</time></trkpt><trkpt lat="44.88895363102973" lon="12.12835074797201"><ele>-3.0</ele><time>2026-04-05T15:48:53.039Z</time></trkpt><trkpt lat="44.888950120008396" lon="12.12825559529475"><ele>-3.0</ele><time>2026-04-05T15:48:54.039Z</time></trkpt><trkpt lat="44.88891658917893" lon="12.12809887423316"><ele>-3.0</ele><time>2026-04-05T15:48:56.039Z</time></trkpt><trkpt lat="44.888838621235664" lon="12.128006630108858"><ele>-3.3333333333333335</ele><time>2026-04-05T15:48:58.039Z</time></trkpt><trkpt lat="44.88876277675729" lon="12.127986354077935"><ele>-3.666666666666667</ele><time>2026-04-05T15:49:00.039Z</time></trkpt><trkpt lat="44.88868107380434" lon="12.127970150933056"><ele>-4.0</ele><time>2026-04-05T15:49:02.039Z</time></trkpt><trkpt lat="44.888644730067696" lon="12.127847879630966"><ele>-4.333333333333334</ele><time>2026-04-05T15:49:04.039Z</time></trkpt><trkpt lat="44.88863322146952" lon="12.127727173912204"><ele>-4.666666666666667</ele><time>2026-04-05T15:49:05.039Z</time></trkpt><trkpt lat="44.88864947024187" lon="12.127591714788085"><ele>-5.0</ele><time>2026-04-05T15:49:06.039Z</time></trkpt><trkpt lat="44.888651362761635" lon="12.127447467529775"><ele>-5.25</ele><time>2026-04-05T15:49:07.039Z</time></trkpt><trkpt lat="44.888657714050936" lon="12.127286157495243"><ele>-5.5</ele><time>2026-04-05T15:49:08.039Z</time></trkpt><trkpt lat="44.88866445323328" lon="12.127118483198927"><ele>-5.75</ele><time>2026-04-05T15:49:09.039Z</time></trkpt><trkpt lat="44.88866846295958" lon="12.126946715003365"><ele>-6.0</ele><time>2026-04-05T15:49:10.039Z</time></trkpt><trkpt lat="44.88866712051621" lon="12.126773856130965"><ele>-6.0</ele><time>2026-04-05T15:49:11.039Z</time></trkpt><trkpt lat="44.88866220931801" lon="12.126601012214529"><ele>-6.0</ele><time>2026-04-05T15:49:12.039Z</time></trkpt><trkpt lat="44.88865614976959" lon="12.126424427721002"><ele>-6.0</ele><time>2026-04-05T15:49:13.039Z</time></trkpt><trkpt lat="44.88864868631474" lon="12.126243629050705"><ele>-6.0</ele><time>2026-04-05T15:49:14.039Z</time></trkpt><trkpt lat="44.88864100810774" lon="12.126057176054813"><ele>-5.75</ele><time>2026-04-05T15:49:15.039Z</time></trkpt><trkpt lat="44.8886366883999" lon="12.125863198006922"><ele>-5.5</ele><time>2026-04-05T15:49:16.039Z</time></trkpt><trkpt lat="44.88863434670198" lon="12.125662127465574"><ele>-5.25</ele><time>2026-04-05T15:49:17.039Z</time></trkpt><trkpt lat="44.88863029507252" lon="12.125463592084088"><ele>-5.0</ele><time>2026-04-05T15:49:18.039Z</time></trkpt><trkpt lat="44.8886278605438" lon="12.125266067615913"><ele>-5.0</ele><time>2026-04-05T15:49:19.039Z</time></trkpt><trkpt lat="44.888627707957426" lon="12.12507064555146"><ele>-5.0</ele><time>2026-04-05T15:49:20.039Z</time></trkpt><trkpt lat="44.888624668438766" lon="12.124878017963564"><ele>-5.0</ele><time>2026-04-05T15:49:21.039Z</time></trkpt><trkpt lat="44.88862291064206" lon="12.124687815205155"><ele>-5.0</ele><time>2026-04-05T15:49:22.039Z</time></trkpt><trkpt lat="44.888623988564056" lon="12.124504018400689"><ele>-5.25</ele><time>2026-04-05T15:49:23.039Z</time></trkpt><trkpt lat="44.88862747962032" lon="12.124327832266978"><ele>-5.5</ele><time>2026-04-05T15:49:24.039Z</time></trkpt><trkpt lat="44.88863115523985" lon="12.12415732976515"><ele>-5.75</ele><time>2026-04-05T15:49:25.039Z</time></trkpt><trkpt lat="44.888635661565615" lon="12.123998777170039"><ele>-6.0</ele><time>2026-04-05T15:49:26.039Z</time></trkpt><trkpt lat="44.88863387564382" lon="12.123846976085797"><ele>-6.0</ele><time>2026-04-05T15:49:27.039Z</time></trkpt><trkpt lat="44.888634525896485" lon="12.123705994653225"><ele>-6.0</ele><time>2026-04-05T15:49:28.039Z</time></trkpt><trkpt lat="44.88863270979758" lon="12.123582110994843"><ele>-6.0</ele><time>2026-04-05T15:49:29.039Z</time></trkpt><trkpt lat="44.8886261582408" lon="12.123471287360621"><ele>-6.0</ele><time>2026-04-05T15:49:30.039Z</time></trkpt><trkpt lat="44.88861716349607" lon="12.123322460331135"><ele>-6.0</ele><time>2026-04-05T15:49:32.039Z</time></trkpt><trkpt lat="44.88861059654942" lon="12.12323182657479"><ele>-6.0</ele><time>2026-04-05T15:49:39.039Z</time></trkpt><trkpt lat="44.888515416745435" lon="12.123193558816864"><ele>-5.8</ele><time>2026-04-05T15:49:43.039Z</time></trkpt><trkpt lat="44.88842204250175" lon="12.123174451138247"><ele>-5.6</ele><time>2026-04-05T15:49:45.039Z</time></trkpt><trkpt lat="44.88831358238233" lon="12.123175554954784"><ele>-5.4</ele><time>2026-04-05T15:49:47.039Z</time></trkpt><trkpt lat="44.888240731462474" lon="12.123179221831474"><ele>-5.2</ele><time>2026-04-05T15:49:48.039Z</time></trkpt><trkpt lat="44.88816311463191" lon="12.123209162913398"><ele>-5.0</ele><time>2026-04-05T15:49:49.039Z</time></trkpt><trkpt lat="44.88806908887056" lon="12.123188663685825"><ele>-5.0</ele><time>2026-04-05T15:49:50.039Z</time></trkpt><trkpt lat="44.88797217610125" lon="12.123187600787533"><ele>-5.0</ele><time>2026-04-05T15:49:51.039Z</time></trkpt><trkpt lat="44.88787281346171" lon="12.123186511019695"><ele>-5.0</ele><time>2026-04-05T15:49:52.039Z</time></trkpt><trkpt lat="44.887761017926415" lon="12.123185284894133"><ele>-5.0</ele><time>2026-04-05T15:49:53.039Z</time></trkpt><trkpt lat="44.88764513685133" lon="12.12318401396126"><ele>-5.0</ele><time>2026-04-05T15:49:54.04Z</time></trkpt><trkpt lat="44.887528936088465" lon="12.123182739522242"><ele>-5.0</ele><time>2026-04-05T15:49:55.04Z</time></trkpt><trkpt lat="44.88741398455299" lon="12.123181478785153"><ele>-5.0</ele><time>2026-04-05T15:49:56.04Z</time></trkpt><trkpt lat="44.88730130342553" lon="12.12318024294618"><ele>-5.0</ele><time>2026-04-05T15:49:57.04Z</time></trkpt><trkpt lat="44.88719227838374" lon="12.123179047209467"><ele>-5.0</ele><time>2026-04-05T15:49:58.04Z</time></trkpt><trkpt lat="44.8870894978713" lon="12.123177919957184"><ele>-5.0</ele><time>2026-04-05T15:49:59.04Z</time></trkpt><trkpt lat="44.88698736527102" lon="12.123176976803979"><ele>-5.0</ele><time>2026-04-05T15:50:00.04Z</time></trkpt><trkpt lat="44.88689624706695" lon="12.123176610357493"><ele>-5.0</ele><time>2026-04-05T15:50:01.04Z</time></trkpt><trkpt lat="44.88680322227934" lon="12.123193529715802"><ele>-5.0</ele><time>2026-04-05T15:50:02.04Z</time></trkpt><trkpt lat="44.88671729806304" lon="12.123185830726722"><ele>-5.0</ele><time>2026-04-05T15:50:03.04Z</time></trkpt><trkpt lat="44.886643164066996" lon="12.123182983488979"><ele>-5.0</ele><time>2026-04-05T15:50:04.04Z</time></trkpt><trkpt lat="44.88656989004475" lon="12.123185069146414"><ele>-5.0</ele><time>2026-04-05T15:50:05.04Z</time></trkpt><trkpt lat="44.88650559877966" lon="12.123186253546157"><ele>-5.0</ele><time>2026-04-05T15:50:06.04Z</time></trkpt><trkpt lat="44.886390718114" lon="12.123188118513813"><ele>-5.0</ele><time>2026-04-05T15:50:08.04Z</time></trkpt><trkpt lat="44.8862782719575" lon="12.123184954815866"><ele>-5.0</ele><time>2026-04-05T15:50:10.04Z</time></trkpt><trkpt lat="44.88618759981635" lon="12.123178778214339"><ele>-5.0</ele><time>2026-04-05T15:50:12.04Z</time></trkpt><trkpt lat="44.8862669501964" lon="12.123192127346089"><ele>-5.0</ele><time>2026-04-05T15:51:39.041Z</time></trkpt><trkpt lat="44.88639887987917" lon="12.123191373866465"><ele>-5.0</ele><time>2026-04-05T15:51:40.041Z</time></trkpt><trkpt lat="44.88652385743784" lon="12.12318502694355"><ele>-5.0</ele><time>2026-04-05T15:51:41.041Z</time></trkpt><trkpt lat="44.88665610419837" lon="12.123183669572473"><ele>-5.0</ele><time>2026-04-05T15:51:42.041Z</time></trkpt><trkpt lat="44.88680890202828" lon="12.123223093469358"><ele>-5.0</ele><time>2026-04-05T15:51:43.041Z</time></trkpt><trkpt lat="44.8869668701083" lon="12.123223728762568"><ele>-5.0</ele><time>2026-04-05T15:51:44.041Z</time></trkpt><trkpt lat="44.88711288061178" lon="12.123225013957077"><ele>-5.0</ele><time>2026-04-05T15:51:45.041Z</time></trkpt><trkpt lat="44.887253147680674" lon="12.123226552344242"><ele>-5.0</ele><time>2026-04-05T15:51:46.041Z</time></trkpt><trkpt lat="44.887398755818566" lon="12.123228149308954"><ele>-5.0</ele><time>2026-04-05T15:51:47.042Z</time></trkpt><trkpt lat="44.887541069231204" lon="12.123229710137721"><ele>-5.0</ele><time>2026-04-05T15:51:48.042Z</time></trkpt><trkpt lat="44.887669244600595" lon="12.12323111590758"><ele>-5.0</ele><time>2026-04-05T15:51:49.042Z</time></trkpt><trkpt lat="44.88778542738488" lon="12.123232390148791"><ele>-5.0</ele><time>2026-04-05T15:51:50.042Z</time></trkpt><trkpt lat="44.88789300553446" lon="12.123213337703397"><ele>-5.0</ele><time>2026-04-05T15:51:51.042Z</time></trkpt><trkpt lat="44.88798633574799" lon="12.123211946568002"><ele>-5.0</ele><time>2026-04-05T15:51:52.042Z</time></trkpt><trkpt lat="44.888071882154044" lon="12.12321537724947"><ele>-5.0</ele><time>2026-04-05T15:51:53.042Z</time></trkpt><trkpt lat="44.88815642313866" lon="12.123220652160892"><ele>-5.0</ele><time>2026-04-05T15:51:54.042Z</time></trkpt><trkpt lat="44.888236716861925" lon="12.123222031418845"><ele>-5.0</ele><time>2026-04-05T15:51:55.042Z</time></trkpt><trkpt lat="44.88831289489826" lon="12.123222783375331"><ele>-5.0</ele><time>2026-04-05T15:51:56.042Z</time></trkpt><trkpt lat="44.888387301385734" lon="12.123225598368762"><ele>-5.0</ele><time>2026-04-05T15:51:57.042Z</time></trkpt><trkpt lat="44.888494789592606" lon="12.123226193774846"><ele>-5.0</ele><time>2026-04-05T15:51:59.042Z</time></trkpt><trkpt lat="44.88858280321738" lon="12.123241135414048"><ele>-5.0</ele><time>2026-04-05T15:52:02.042Z</time></trkpt><trkpt lat="44.88865726009884" lon="12.123241952033556"><ele>-5.0</ele><time>2026-04-05T15:52:05.042Z</time></trkpt><trkpt lat="44.88864901953" lon="12.123004122901333"><ele>-5.0</ele><time>2026-04-05T15:52:06.042Z</time></trkpt><trkpt lat="44.88864899193946" lon="12.12283405146881"><ele>-5.0</ele><time>2026-04-05T15:52:07.042Z</time></trkpt><trkpt lat="44.888646928715566" lon="12.122659627122037"><ele>-5.0</ele><time>2026-04-05T15:52:08.042Z</time></trkpt><trkpt lat="44.888643117186" lon="12.122474039229166"><ele>-5.0</ele><time>2026-04-05T15:52:09.042Z</time></trkpt><trkpt lat="44.88863804495958" lon="12.122282870631333"><ele>-5.0</ele><time>2026-04-05T15:52:10.042Z</time></trkpt><trkpt lat="44.88863465723767" lon="12.122087275639727"><ele>-5.0</ele><time>2026-04-05T15:52:11.042Z</time></trkpt><trkpt lat="44.888632833991075" lon="12.121887230796883"><ele>-4.666666666666667</ele><time>2026-04-05T15:52:12.042Z</time></trkpt><trkpt lat="44.88862899783989" lon="12.121678070530528"><ele>-4.333333333333333</ele><time>2026-04-05T15:52:13.042Z</time></trkpt><trkpt lat="44.888627470333795" lon="12.12146265020346"><ele>-4.0</ele><time>2026-04-05T15:52:14.042Z</time></trkpt><trkpt lat="44.88862592382123" lon="12.121247802044612"><ele>-4.0</ele><time>2026-04-05T15:52:15.042Z</time></trkpt><trkpt lat="44.888622587660954" lon="12.121028792929433"><ele>-4.0</ele><time>2026-04-05T15:52:16.042Z</time></trkpt><trkpt lat="44.888619600907404" lon="12.120807050213513"><ele>-4.0</ele><time>2026-04-05T15:52:17.042Z</time></trkpt><trkpt lat="44.88861603294384" lon="12.12057629400671"><ele>-4.0</ele><time>2026-04-05T15:52:18.042Z</time></trkpt><trkpt lat="44.88861071415262" lon="12.120336775138773"><ele>-4.0</ele><time>2026-04-05T15:52:19.042Z</time></trkpt><trkpt lat="44.88860497621091" lon="12.120092686831818"><ele>-4.0</ele><time>2026-04-05T15:52:20.042Z</time></trkpt><trkpt lat="44.88860100763894" lon="12.119844220667085"><ele>-4.0</ele><time>2026-04-05T15:52:21.042Z</time></trkpt><trkpt lat="44.88859643062108" lon="12.119595160226632"><ele>-4.0</ele><time>2026-04-05T15:52:22.042Z</time></trkpt><trkpt lat="44.88859466970413" lon="12.11934265957342"><ele>-4.0</ele><time>2026-04-05T15:52:23.042Z</time></trkpt><trkpt lat="44.88859554846895" lon="12.11908706466032"><ele>-4.333333333333333</ele><time>2026-04-05T15:52:24.042Z</time></trkpt><trkpt lat="44.88859543475012" lon="12.118834888625008"><ele>-4.666666666666667</ele><time>2026-04-05T15:52:25.042Z</time></trkpt><trkpt lat="44.88859536735589" lon="12.118577311599061"><ele>-5.0</ele><time>2026-04-05T15:52:26.042Z</time></trkpt><trkpt lat="44.888593924803914" lon="12.118321870364674"><ele>-4.666666666666667</ele><time>2026-04-05T15:52:27.042Z</time></trkpt><trkpt lat="44.88859405761182" lon="12.118068624152258"><ele>-4.333333333333333</ele><time>2026-04-05T15:52:28.042Z</time></trkpt><trkpt lat="44.88859483250907" lon="12.117808250083622"><ele>-4.0</ele><time>2026-04-05T15:52:29.042Z</time></trkpt><trkpt lat="44.88859323091732" lon="12.117551140269082"><ele>-4.333333333333333</ele><time>2026-04-05T15:52:30.042Z</time></trkpt><trkpt lat="44.88859112376148" lon="12.117295532756957"><ele>-4.666666666666667</ele><time>2026-04-05T15:52:31.042Z</time></trkpt><trkpt lat="44.88858859695411" lon="12.117038963838494"><ele>-5.0</ele><time>2026-04-05T15:52:32.042Z</time></trkpt><trkpt lat="44.88858610218148" lon="12.116783740707474"><ele>-5.0</ele><time>2026-04-05T15:52:33.042Z</time></trkpt><trkpt lat="44.88858507311107" lon="12.116533044481423"><ele>-5.0</ele><time>2026-04-05T15:52:34.042Z</time></trkpt><trkpt lat="44.88858441035129" lon="12.116282530122195"><ele>-5.0</ele><time>2026-04-05T15:52:35.042Z</time></trkpt><trkpt lat="44.888585103059995" lon="12.116034967521104"><ele>-5.0</ele><time>2026-04-05T15:52:36.042Z</time></trkpt><trkpt lat="44.88858524462001" lon="12.115781130002302"><ele>-5.0</ele><time>2026-04-05T15:52:37.042Z</time></trkpt><trkpt lat="44.888583943337174" lon="12.115528521541252"><ele>-5.0</ele><time>2026-04-05T15:52:38.042Z</time></trkpt><trkpt lat="44.888582281966585" lon="12.11527151536491"><ele>-4.666666666666667</ele><time>2026-04-05T15:52:39.042Z</time></trkpt><trkpt lat="44.88857828417797" lon="12.115012055480062"><ele>-4.333333333333333</ele><time>2026-04-05T15:52:40.042Z</time></trkpt><trkpt lat="44.88857864991319" lon="12.114751731809628"><ele>-4.0</ele><time>2026-04-05T15:52:41.042Z</time></trkpt><trkpt lat="44.8885778386094" lon="12.114491768374902"><ele>-4.666666666666666</ele><time>2026-04-05T15:52:42.042Z</time></trkpt><trkpt lat="44.88857675784162" lon="12.114236118106524"><ele>-5.333333333333333</ele><time>2026-04-05T15:52:43.042Z</time></trkpt><trkpt lat="44.88857542871735" lon="12.113978645423762"><ele>-6.0</ele><time>2026-04-05T15:52:44.042Z</time></trkpt><trkpt lat="44.88857344875536" lon="12.113718502897193"><ele>-6.0</ele><time>2026-04-05T15:52:45.042Z</time></trkpt><trkpt lat="44.8885726480964" lon="12.113462635826492"><ele>-6.0</ele><time>2026-04-05T15:52:46.042Z</time></trkpt><trkpt lat="44.888573201536964" lon="12.113208409854298"><ele>-6.0</ele><time>2026-04-05T15:52:47.043Z</time></trkpt><trkpt lat="44.88857328833201" lon="12.112947726416865"><ele>-5.666666666666667</ele><time>2026-04-05T15:52:48.042Z</time></trkpt><trkpt lat="44.88856997119483" lon="12.1126858967842"><ele>-5.333333333333334</ele><time>2026-04-05T15:52:49.042Z</time></trkpt><trkpt lat="44.88856884494618" lon="12.112419252287426"><ele>-5.0</ele><time>2026-04-05T15:52:50.042Z</time></trkpt><trkpt lat="44.8885685051644" lon="12.112148641738688"><ele>-5.0</ele><time>2026-04-05T15:52:51.043Z</time></trkpt><trkpt lat="44.8885671553583" lon="12.11187941240974"><ele>-5.0</ele><time>2026-04-05T15:52:52.043Z</time></trkpt><trkpt lat="44.88856245142916" lon="12.111602819298875"><ele>-5.0</ele><time>2026-04-05T15:52:53.043Z</time></trkpt><trkpt lat="44.8885605473808" lon="12.1113261762401"><ele>-5.0</ele><time>2026-04-05T15:52:54.043Z</time></trkpt><trkpt lat="44.88855852768272" lon="12.111045065302521"><ele>-5.0</ele><time>2026-04-05T15:52:55.043Z</time></trkpt><trkpt lat="44.888556418397656" lon="12.11076285978087"><ele>-5.0</ele><time>2026-04-05T15:52:56.043Z</time></trkpt><trkpt lat="44.8885549874948" lon="12.11048263637059"><ele>-5.333333333333334</ele><time>2026-04-05T15:52:57.043Z</time></trkpt><trkpt lat="44.88855310589674" lon="12.110199053480784"><ele>-5.666666666666667</ele><time>2026-04-05T15:52:58.043Z</time></trkpt><trkpt lat="44.88855316023326" lon="12.109913133706925"><ele>-6.0</ele><time>2026-04-05T15:52:59.043Z</time></trkpt><trkpt lat="44.88855188997716" lon="12.109627704810238"><ele>-6.0</ele><time>2026-04-05T15:53:00.043Z</time></trkpt><trkpt lat="44.88855021454676" lon="12.109341900823063"><ele>-6.0</ele><time>2026-04-05T15:53:01.043Z</time></trkpt><trkpt lat="44.88854796691861" lon="12.109055122713311"><ele>-6.0</ele><time>2026-04-05T15:53:02.043Z</time></trkpt><trkpt lat="44.888544873926946" lon="12.108768706072867"><ele>-5.666666666666667</ele><time>2026-04-05T15:53:03.043Z</time></trkpt><trkpt lat="44.888542988100795" lon="12.108484137543867"><ele>-5.333333333333334</ele><time>2026-04-05T15:53:04.043Z</time></trkpt><trkpt lat="44.888542765193144" lon="12.108200496406218"><ele>-5.0</ele><time>2026-04-05T15:53:05.043Z</time></trkpt><trkpt lat="44.88854217134139" lon="12.107917862133483"><ele>-5.0</ele><time>2026-04-05T15:53:06.043Z</time></trkpt><trkpt lat="44.88854156334794" lon="12.10763491291808"><ele>-5.0</ele><time>2026-04-05T15:53:07.043Z</time></trkpt><trkpt lat="44.888540524703714" lon="12.10734928521338"><ele>-5.0</ele><time>2026-04-05T15:53:08.043Z</time></trkpt><trkpt lat="44.88853839238733" lon="12.107063637180625"><ele>-5.0</ele><time>2026-04-05T15:53:09.043Z</time></trkpt><trkpt lat="44.88853778928896" lon="12.106777063127314"><ele>-5.0</ele><time>2026-04-05T15:53:10.043Z</time></trkpt><trkpt lat="44.88853612480512" lon="12.106491305749266"><ele>-5.0</ele><time>2026-04-05T15:53:11.043Z</time></trkpt><trkpt lat="44.88853418463754" lon="12.106205947471738"><ele>-5.0</ele><time>2026-04-05T15:53:12.043Z</time></trkpt><trkpt lat="44.88853238008795" lon="12.10591973761926"><ele>-5.0</ele><time>2026-04-05T15:53:13.043Z</time></trkpt><trkpt lat="44.888528920261294" lon="12.105636281634006"><ele>-5.0</ele><time>2026-04-05T15:53:14.043Z</time></trkpt><trkpt lat="44.888526846880154" lon="12.105351359950038"><ele>-4.666666666666667</ele><time>2026-04-05T15:53:15.043Z</time></trkpt><trkpt lat="44.88852423296875" lon="12.105068241011562"><ele>-4.333333333333333</ele><time>2026-04-05T15:53:16.043Z</time></trkpt><trkpt lat="44.888522184938076" lon="12.104783286265148"><ele>-4.0</ele><time>2026-04-05T15:53:17.043Z</time></trkpt><trkpt lat="44.88851968280569" lon="12.104499968555155"><ele>-4.0</ele><time>2026-04-05T15:53:18.043Z</time></trkpt><trkpt lat="44.8885174518104" lon="12.104216895936597"><ele>-4.0</ele><time>2026-04-05T15:53:19.043Z</time></trkpt><trkpt lat="44.888515845343086" lon="12.103936446246765"><ele>-4.0</ele><time>2026-04-05T15:53:20.043Z</time></trkpt><trkpt lat="44.88851276645222" lon="12.103661710617047"><ele>-4.0</ele><time>2026-04-05T15:53:21.043Z</time></trkpt><trkpt lat="44.8885088563392" lon="12.103388938809116"><ele>-4.0</ele><time>2026-04-05T15:53:22.043Z</time></trkpt><trkpt lat="44.88850686477062" lon="12.103114369065164"><ele>-4.0</ele><time>2026-04-05T15:53:23.043Z</time></trkpt><trkpt lat="44.88850492135796" lon="12.102840557403477"><ele>-4.0</ele><time>2026-04-05T15:53:24.043Z</time></trkpt><trkpt lat="44.88850528628526" lon="12.102564157970626"><ele>-4.0</ele><time>2026-04-05T15:53:25.043Z</time></trkpt><trkpt lat="44.888502713185936" lon="12.102282430536073"><ele>-4.0</ele><time>2026-04-05T15:53:26.043Z</time></trkpt><trkpt lat="44.88850182041301" lon="12.102004766813558"><ele>-3.6666666666666665</ele><time>2026-04-05T15:53:27.043Z</time></trkpt><trkpt lat="44.88850066829105" lon="12.101730034620967"><ele>-3.333333333333333</ele><time>2026-04-05T15:53:28.043Z</time></trkpt><trkpt lat="44.88849892397543" lon="12.101454564301381"><ele>-3.0</ele><time>2026-04-05T15:53:29.043Z</time></trkpt><trkpt lat="44.88849687429366" lon="12.101175497281725"><ele>-3.0</ele><time>2026-04-05T15:53:30.043Z</time></trkpt><trkpt lat="44.88849601338687" lon="12.100900058288378"><ele>-3.0</ele><time>2026-04-05T15:53:31.043Z</time></trkpt><trkpt lat="44.888492212980246" lon="12.100627144902449"><ele>-3.0</ele><time>2026-04-05T15:53:32.043Z</time></trkpt><trkpt lat="44.88849166092455" lon="12.100351439748426"><ele>-3.333333333333333</ele><time>2026-04-05T15:53:33.043Z</time></trkpt><trkpt lat="44.88849135158502" lon="12.100074512533578"><ele>-3.6666666666666665</ele><time>2026-04-05T15:53:34.043Z</time></trkpt><trkpt lat="44.88849111999581" lon="12.099795348666426"><ele>-4.0</ele><time>2026-04-05T15:53:35.043Z</time></trkpt><trkpt lat="44.88848889077754" lon="12.099515540226081"><ele>-4.0</ele><time>2026-04-05T15:53:36.043Z</time></trkpt><trkpt lat="44.888487827005584" lon="12.099231944061525"><ele>-4.0</ele><time>2026-04-05T15:53:37.043Z</time></trkpt><trkpt lat="44.88848412807011" lon="12.098948197376272"><ele>-4.0</ele><time>2026-04-05T15:53:38.043Z</time></trkpt><trkpt lat="44.88847968829123" lon="12.098671749576512"><ele>-4.0</ele><time>2026-04-05T15:53:39.043Z</time></trkpt><trkpt lat="44.8884785178395" lon="12.098396999777528"><ele>-4.0</ele><time>2026-04-05T15:53:40.043Z</time></trkpt><trkpt lat="44.88847434561085" lon="12.0981289691097"><ele>-4.0</ele><time>2026-04-05T15:53:41.043Z</time></trkpt><trkpt lat="44.88846958732861" lon="12.097873666667825"><ele>-4.0</ele><time>2026-04-05T15:53:42.043Z</time></trkpt><trkpt lat="44.88846721469515" lon="12.097634168524792"><ele>-4.0</ele><time>2026-04-05T15:53:43.043Z</time></trkpt><trkpt lat="44.888467489818105" lon="12.097403480232137"><ele>-4.0</ele><time>2026-04-05T15:53:44.043Z</time></trkpt><trkpt lat="44.888467379220394" lon="12.097185833573704"><ele>-4.0</ele><time>2026-04-05T15:53:45.043Z</time></trkpt><trkpt lat="44.88846832860388" lon="12.096974860313578"><ele>-4.0</ele><time>2026-04-05T15:53:46.043Z</time></trkpt><trkpt lat="44.88846787645724" lon="12.096760959540665"><ele>-4.0</ele><time>2026-04-05T15:53:47.043Z</time></trkpt><trkpt lat="44.88846664389152" lon="12.096542511379832"><ele>-4.0</ele><time>2026-04-05T15:53:48.043Z</time></trkpt><trkpt lat="44.888467453195496" lon="12.096323733141531"><ele>-4.0</ele><time>2026-04-05T15:53:49.043Z</time></trkpt><trkpt lat="44.88846751079613" lon="12.096110392474037"><ele>-4.0</ele><time>2026-04-05T15:53:50.043Z</time></trkpt><trkpt lat="44.88846426294967" lon="12.095903706628599"><ele>-3.5</ele><time>2026-04-05T15:53:51.043Z</time></trkpt><trkpt lat="44.88845897987797" lon="12.095702308394586"><ele>-3.0</ele><time>2026-04-05T15:53:52.043Z</time></trkpt><trkpt lat="44.88845795509896" lon="12.09551413821706"><ele>-2.5</ele><time>2026-04-05T15:53:53.043Z</time></trkpt><trkpt lat="44.88845582991544" lon="12.095337669764362"><ele>-2.0</ele><time>2026-04-05T15:53:54.043Z</time></trkpt><trkpt lat="44.88845224979978" lon="12.09518155036215"><ele>-2.0</ele><time>2026-04-05T15:53:55.043Z</time></trkpt><trkpt lat="44.88846794491663" lon="12.095043608242278"><ele>-2.0</ele><time>2026-04-05T15:53:56.043Z</time></trkpt><trkpt lat="44.888469132948025" lon="12.094917841456972"><ele>-2.0</ele><time>2026-04-05T15:53:57.043Z</time></trkpt><trkpt lat="44.88847009204626" lon="12.094816310110536"><ele>-2.0</ele><time>2026-04-05T15:53:58.043Z</time></trkpt><trkpt lat="44.888471206433856" lon="12.09464212945115"><ele>-2.0</ele><time>2026-04-05T15:54:00.043Z</time></trkpt><trkpt lat="44.88847175073611" lon="12.094524626619163"><ele>-2.0</ele><time>2026-04-05T15:54:01.043Z</time></trkpt><trkpt lat="44.88847231160204" lon="12.094375784186456"><ele>-2.0</ele><time>2026-04-05T15:54:02.043Z</time></trkpt><trkpt lat="44.888472954759024" lon="12.094210091165282"><ele>-2.0</ele><time>2026-04-05T15:54:03.043Z</time></trkpt><trkpt lat="44.88847354712557" lon="12.094023857928697"><ele>-2.0</ele><time>2026-04-05T15:54:04.043Z</time></trkpt><trkpt lat="44.88845873429157" lon="12.093833231889164"><ele>-2.0</ele><time>2026-04-05T15:54:05.043Z</time></trkpt><trkpt lat="44.888464036611175" lon="12.093644378335451"><ele>-2.0</ele><time>2026-04-05T15:54:06.043Z</time></trkpt><trkpt lat="44.888463310225475" lon="12.09343743942084"><ele>-2.0</ele><time>2026-04-05T15:54:07.043Z</time></trkpt><trkpt lat="44.88845678764031" lon="12.093220035434959"><ele>-2.0</ele><time>2026-04-05T15:54:08.043Z</time></trkpt><trkpt lat="44.88845786172467" lon="12.093030099396263"><ele>-2.0</ele><time>2026-04-05T15:54:09.043Z</time></trkpt><trkpt lat="44.88846962529542" lon="12.092862272234882"><ele>-2.0</ele><time>2026-04-05T15:54:10.043Z</time></trkpt><trkpt lat="44.888509995733926" lon="12.09271511805688"><ele>-2.0</ele><time>2026-04-05T15:54:11.043Z</time></trkpt><trkpt lat="44.88857453463616" lon="12.092603950637972"><ele>-2.0</ele><time>2026-04-05T15:54:12.043Z</time></trkpt><trkpt lat="44.888660810326556" lon="12.09251869107328"><ele>-2.0</ele><time>2026-04-05T15:54:13.043Z</time></trkpt><trkpt lat="44.88872615014978" lon="12.092420189962718"><ele>-1.9999999999999998</ele><time>2026-04-05T15:54:14.043Z</time></trkpt><trkpt lat="44.88876245404244" lon="12.092308903399989"><ele>-2.0</ele><time>2026-04-05T15:54:15.044Z</time></trkpt><trkpt lat="44.88875324247456" lon="12.092180739028363"><ele>-2.0</ele><time>2026-04-05T15:54:16.044Z</time></trkpt><trkpt lat="44.88870874324604" lon="12.092079164336196"><ele>-2.0</ele><time>2026-04-05T15:54:17.044Z</time></trkpt><trkpt lat="44.88864243523936" lon="12.092027623170702"><ele>-1.9999999999999998</ele><time>2026-04-05T15:54:18.044Z</time></trkpt><trkpt lat="44.888562146319416" lon="12.092024115200005"><ele>-2.0</ele><time>2026-04-05T15:54:19.044Z</time></trkpt><trkpt lat="44.888478488105775" lon="12.092062304092977"><ele>-2.0</ele><time>2026-04-05T15:54:20.044Z</time></trkpt><trkpt lat="44.888407571875085" lon="12.092151161956846"><ele>-2.0</ele><time>2026-04-05T15:54:21.044Z</time></trkpt><trkpt lat="44.888331505391356" lon="12.092239700977926"><ele>-2.0</ele><time>2026-04-05T15:54:22.044Z</time></trkpt><trkpt lat="44.888234988312874" lon="12.092294415606414"><ele>-2.0</ele><time>2026-04-05T15:54:23.044Z</time></trkpt><trkpt lat="44.88812411572422" lon="12.092309144537358"><ele>-2.0</ele><time>2026-04-05T15:54:24.044Z</time></trkpt><trkpt lat="44.887991859600675" lon="12.092291484769746"><ele>-2.0</ele><time>2026-04-05T15:54:25.044Z</time></trkpt><trkpt lat="44.887858658611215" lon="12.092281387424155"><ele>-2.0</ele><time>2026-04-05T15:54:26.044Z</time></trkpt><trkpt lat="44.88772633251569" lon="12.092266306518862"><ele>-2.0</ele><time>2026-04-05T15:54:27.044Z</time></trkpt><trkpt lat="44.887585384090976" lon="12.092266022710373"><ele>-2.0</ele><time>2026-04-05T15:54:28.044Z</time></trkpt><trkpt lat="44.887433333544465" lon="12.092268529755486"><ele>-1.5</ele><time>2026-04-05T15:54:29.044Z</time></trkpt><trkpt lat="44.887285404268646" lon="12.092284745253748"><ele>-1.0</ele><time>2026-04-05T15:54:30.044Z</time></trkpt><trkpt lat="44.88713966344708" lon="12.092315741981526"><ele>-0.5</ele><time>2026-04-05T15:54:31.044Z</time></trkpt><trkpt lat="44.886995701304144" lon="12.092360272286674"><ele>0.0</ele><time>2026-04-05T15:54:32.044Z</time></trkpt><trkpt lat="44.886849312711206" lon="12.092420623949069"><ele>-0.3333333333333333</ele><time>2026-04-05T15:54:33.044Z</time></trkpt><trkpt lat="44.88670269353569" lon="12.09248292067852"><ele>-0.6666666666666666</ele><time>2026-04-05T15:54:34.044Z</time></trkpt><trkpt lat="44.88655590203955" lon="12.092552826085539"><ele>-1.0</ele><time>2026-04-05T15:54:35.044Z</time></trkpt><trkpt lat="44.88641230254637" lon="12.092636456435438"><ele>-1.0</ele><time>2026-04-05T15:54:36.044Z</time></trkpt><trkpt lat="44.886264003897615" lon="12.092734475181466"><ele>-1.0</ele><time>2026-04-05T15:54:37.044Z</time></trkpt><trkpt lat="44.88611472520943" lon="12.092841415297485"><ele>-1.0</ele><time>2026-04-05T15:54:38.044Z</time></trkpt><trkpt lat="44.88595940224854" lon="12.092951562399243"><ele>-1.6666666666666665</ele><time>2026-04-05T15:54:39.044Z</time></trkpt><trkpt lat="44.885800864548614" lon="12.093065184815144"><ele>-2.3333333333333335</ele><time>2026-04-05T15:54:40.044Z</time></trkpt><trkpt lat="44.88563591254382" lon="12.093185438733741"><ele>-3.0</ele><time>2026-04-05T15:54:41.044Z</time></trkpt><trkpt lat="44.885472304243166" lon="12.093311329193387"><ele>-3.0</ele><time>2026-04-05T15:54:42.044Z</time></trkpt><trkpt lat="44.885321537836234" lon="12.093436552410754"><ele>-3.0</ele><time>2026-04-05T15:54:43.044Z</time></trkpt><trkpt lat="44.88518361937191" lon="12.093559567985485"><ele>-3.0</ele><time>2026-04-05T15:54:44.044Z</time></trkpt><trkpt lat="44.88506394629775" lon="12.093693337412152"><ele>-2.6666666666666665</ele><time>2026-04-05T15:54:45.044Z</time></trkpt><trkpt lat="44.884943517810704" lon="12.093823022182823"><ele>-2.333333333333333</ele><time>2026-04-05T15:54:46.044Z</time></trkpt><trkpt lat="44.88481503415064" lon="12.093941958336083"><ele>-2.0</ele><time>2026-04-05T15:54:47.044Z</time></trkpt><trkpt lat="44.884681579549735" lon="12.094057264135055"><ele>-2.0</ele><time>2026-04-05T15:54:48.043Z</time></trkpt><trkpt lat="44.88453977490177" lon="12.094174360276424"><ele>-2.0</ele><time>2026-04-05T15:54:49.043Z</time></trkpt><trkpt lat="44.8843948274428" lon="12.094279370621255"><ele>-2.0</ele><time>2026-04-05T15:54:50.044Z</time></trkpt><trkpt lat="44.884246559275184" lon="12.094372605333573"><ele>-2.0</ele><time>2026-04-05T15:54:51.043Z</time></trkpt><trkpt lat="44.88409055112309" lon="12.094449343052673"><ele>-2.0</ele><time>2026-04-05T15:54:52.043Z</time></trkpt><trkpt lat="44.88393023491588" lon="12.09450750040353"><ele>-2.0</ele><time>2026-04-05T15:54:53.044Z</time></trkpt><trkpt lat="44.88376493370487" lon="12.094541782323237"><ele>-2.0</ele><time>2026-04-05T15:54:54.044Z</time></trkpt><trkpt lat="44.883591831258066" lon="12.094553469454162"><ele>-2.0</ele><time>2026-04-05T15:54:55.044Z</time></trkpt><trkpt lat="44.883412530411825" lon="12.09453727054287"><ele>-2.0</ele><time>2026-04-05T15:54:56.044Z</time></trkpt><trkpt lat="44.883232220980204" lon="12.094496763165697"><ele>-2.0</ele><time>2026-04-05T15:54:57.044Z</time></trkpt><trkpt lat="44.88304724675859" lon="12.094434297944158"><ele>-2.0</ele><time>2026-04-05T15:54:58.044Z</time></trkpt><trkpt lat="44.882868099638834" lon="12.094351434377128"><ele>-2.0</ele><time>2026-04-05T15:54:59.044Z</time></trkpt><trkpt lat="44.88269833414085" lon="12.094241331142303"><ele>-2.0</ele><time>2026-04-05T15:55:00.045Z</time></trkpt><trkpt lat="44.882540094301476" lon="12.094104540648862"><ele>-2.0</ele><time>2026-04-05T15:55:01.045Z</time></trkpt><trkpt lat="44.88238750839127" lon="12.093942293278893"><ele>-2.0</ele><time>2026-04-05T15:55:02.045Z</time></trkpt><trkpt lat="44.882242007511614" lon="12.093770368866995"><ele>-2.6666666666666665</ele><time>2026-04-05T15:55:03.045Z</time></trkpt><trkpt lat="44.88210391269861" lon="12.093585219824858"><ele>-3.333333333333333</ele><time>2026-04-05T15:55:04.045Z</time></trkpt><trkpt lat="44.88196735088267" lon="12.093389009228414"><ele>-4.0</ele><time>2026-04-05T15:55:05.045Z</time></trkpt><trkpt lat="44.88184171897636" lon="12.093177520813569"><ele>-4.0</ele><time>2026-04-05T15:55:06.045Z</time></trkpt><trkpt lat="44.88173266220495" lon="12.092942742625501"><ele>-4.0</ele><time>2026-04-05T15:55:07.045Z</time></trkpt><trkpt lat="44.88163245375432" lon="12.092689388122201"><ele>-4.0</ele><time>2026-04-05T15:55:08.045Z</time></trkpt><trkpt lat="44.88154820057294" lon="12.092423159552672"><ele>-3.6666666666666665</ele><time>2026-04-05T15:55:09.045Z</time></trkpt><trkpt lat="44.88147795625988" lon="12.092153400634977"><ele>-3.333333333333333</ele><time>2026-04-05T15:55:10.045Z</time></trkpt><trkpt lat="44.88142297813524" lon="12.091881064569032"><ele>-3.0</ele><time>2026-04-05T15:55:11.045Z</time></trkpt><trkpt lat="44.88137926707574" lon="12.091602940807261"><ele>-3.0</ele><time>2026-04-05T15:55:12.045Z</time></trkpt><trkpt lat="44.88134155611643" lon="12.091321734302905"><ele>-3.0</ele><time>2026-04-05T15:55:13.045Z</time></trkpt><trkpt lat="44.881302988175285" lon="12.091033181062725"><ele>-3.0</ele><time>2026-04-05T15:55:14.045Z</time></trkpt><trkpt lat="44.88126491149317" lon="12.090739704974078"><ele>-3.333333333333333</ele><time>2026-04-05T15:55:15.045Z</time></trkpt><trkpt lat="44.881225446001544" lon="12.090446278090852"><ele>-3.6666666666666665</ele><time>2026-04-05T15:55:16.045Z</time></trkpt><trkpt lat="44.881177710239136" lon="12.09013714853833"><ele>-4.0</ele><time>2026-04-05T15:55:17.045Z</time></trkpt><trkpt lat="44.88112844809595" lon="12.089804746929675"><ele>-4.5</ele><time>2026-04-05T15:55:18.045Z</time></trkpt><trkpt lat="44.881080646899306" lon="12.089454945784293"><ele>-5.0</ele><time>2026-04-05T15:55:19.045Z</time></trkpt><trkpt lat="44.881027763285026" lon="12.08908877447014"><ele>-5.0</ele><time>2026-04-05T15:55:20.045Z</time></trkpt><trkpt lat="44.88097032748877" lon="12.088692054605088"><ele>-5.0</ele><time>2026-04-05T15:55:21.045Z</time></trkpt><trkpt lat="44.88091712664121" lon="12.088301504365784"><ele>-4.0</ele><time>2026-04-05T15:55:22.045Z</time></trkpt><trkpt lat="44.88086770845594" lon="12.087931998325105"><ele>-3.0</ele><time>2026-04-05T15:55:23.045Z</time></trkpt><trkpt lat="44.88080592260666" lon="12.087579016030398"><ele>-3.5</ele><time>2026-04-05T15:55:24.045Z</time></trkpt><trkpt lat="44.88072681904804" lon="12.087238680271636"><ele>-4.0</ele><time>2026-04-05T15:55:25.045Z</time></trkpt><trkpt lat="44.88062271808805" lon="12.086927521020797"><ele>-4.0</ele><time>2026-04-05T15:55:26.045Z</time></trkpt><trkpt lat="44.88049389859169" lon="12.086631488727328"><ele>-4.0</ele><time>2026-04-05T15:55:27.045Z</time></trkpt><trkpt lat="44.880348445395775" lon="12.086341415948635"><ele>-4.0</ele><time>2026-04-05T15:55:28.045Z</time></trkpt><trkpt lat="44.880191396480626" lon="12.086059470327312"><ele>-4.0</ele><time>2026-04-05T15:55:29.045Z</time></trkpt><trkpt lat="44.880014930937655" lon="12.085793530009665"><ele>-4.0</ele><time>2026-04-05T15:55:30.045Z</time></trkpt><trkpt lat="44.87982414192983" lon="12.085539075585007"><ele>-4.0</ele><time>2026-04-05T15:55:31.045Z</time></trkpt><trkpt lat="44.879622969406164" lon="12.085303682768508"><ele>-4.0</ele><time>2026-04-05T15:55:32.045Z</time></trkpt><trkpt lat="44.879407951390604" lon="12.085091636599236"><ele>-4.0</ele><time>2026-04-05T15:55:33.045Z</time></trkpt><trkpt lat="44.87918409850441" lon="12.08491177088815"><ele>-3.0</ele><time>2026-04-05T15:55:34.045Z</time></trkpt><trkpt lat="44.87895381069257" lon="12.084758396319705"><ele>-2.0</ele><time>2026-04-05T15:55:35.045Z</time></trkpt><trkpt lat="44.878717689372856" lon="12.084630163717755"><ele>-2.0</ele><time>2026-04-05T15:55:36.045Z</time></trkpt><trkpt lat="44.87848412664888" lon="12.08450881879855"><ele>-2.0</ele><time>2026-04-05T15:55:37.045Z</time></trkpt><trkpt lat="44.878247151873545" lon="12.084413647746588"><ele>-2.0</ele><time>2026-04-05T15:55:38.045Z</time></trkpt><trkpt lat="44.87800235319837" lon="12.084343678085638"><ele>-2.0</ele><time>2026-04-05T15:55:39.045Z</time></trkpt><trkpt lat="44.877745350393084" lon="12.084301229365822"><ele>-1.5</ele><time>2026-04-05T15:55:40.045Z</time></trkpt><trkpt lat="44.87747746015862" lon="12.084270990860459"><ele>-1.0</ele><time>2026-04-05T15:55:41.045Z</time></trkpt><trkpt lat="44.87722024002851" lon="12.08425110993688"><ele>-1.0</ele><time>2026-04-05T15:55:42.045Z</time></trkpt><trkpt lat="44.87697343529101" lon="12.084237625614369"><ele>-1.0</ele><time>2026-04-05T15:55:43.045Z</time></trkpt><trkpt lat="44.87673016392111" lon="12.084237563699604"><ele>-1.5</ele><time>2026-04-05T15:55:44.045Z</time></trkpt><trkpt lat="44.87649192681779" lon="12.084266856666272"><ele>-2.0</ele><time>2026-04-05T15:55:45.045Z</time></trkpt><trkpt lat="44.8762496659543" lon="12.084307851768168"><ele>-2.0</ele><time>2026-04-05T15:55:46.045Z</time></trkpt><trkpt lat="44.876012284802165" lon="12.08436539818998"><ele>-2.0</ele><time>2026-04-05T15:55:47.045Z</time></trkpt><trkpt lat="44.87578668548129" lon="12.084434337162675"><ele>-2.0</ele><time>2026-04-05T15:55:48.045Z</time></trkpt><trkpt lat="44.87556999054787" lon="12.084509370864202"><ele>-2.0</ele><time>2026-04-05T15:55:49.045Z</time></trkpt><trkpt lat="44.87535715464494" lon="12.084584553144664"><ele>-2.0</ele><time>2026-04-05T15:55:50.045Z</time></trkpt><trkpt lat="44.87514592818489" lon="12.084663368276226"><ele>-2.0</ele><time>2026-04-05T15:55:51.045Z</time></trkpt><trkpt lat="44.87493947630208" lon="12.084743547540306"><ele>-2.0</ele><time>2026-04-05T15:55:52.045Z</time></trkpt><trkpt lat="44.874733202722155" lon="12.084824750402502"><ele>-2.0</ele><time>2026-04-05T15:55:53.045Z</time></trkpt><trkpt lat="44.874529408598725" lon="12.084906731088019"><ele>-2.0</ele><time>2026-04-05T15:55:54.045Z</time></trkpt><trkpt lat="44.87432005404015" lon="12.08499053009088"><ele>-2.0</ele><time>2026-04-05T15:55:55.045Z</time></trkpt><trkpt lat="44.87410450693567" lon="12.085075696415673"><ele>-2.0</ele><time>2026-04-05T15:55:56.045Z</time></trkpt><trkpt lat="44.87387808750551" lon="12.085163673584416"><ele>-2.0</ele><time>2026-04-05T15:55:57.045Z</time></trkpt><trkpt lat="44.87365329068492" lon="12.085252004128904"><ele>-2.0</ele><time>2026-04-05T15:55:58.045Z</time></trkpt><trkpt lat="44.873433521541685" lon="12.08533757733091"><ele>-2.0</ele><time>2026-04-05T15:55:59.045Z</time></trkpt><trkpt lat="44.873220167152546" lon="12.085413805975787"><ele>-2.0</ele><time>2026-04-05T15:56:00.045Z</time></trkpt><trkpt lat="44.87300768442148" lon="12.085487958127352"><ele>-2.0</ele><time>2026-04-05T15:56:01.045Z</time></trkpt><trkpt lat="44.87278653580058" lon="12.08555194434208"><ele>-2.5</ele><time>2026-04-05T15:56:02.045Z</time></trkpt><trkpt lat="44.87255415422691" lon="12.085602995722645"><ele>-3.0</ele><time>2026-04-05T15:56:03.045Z</time></trkpt><trkpt lat="44.872304500324944" lon="12.085633954194224"><ele>-3.0</ele><time>2026-04-05T15:56:04.045Z</time></trkpt><trkpt lat="44.87207116658046" lon="12.085647131142702"><ele>-3.0</ele><time>2026-04-05T15:56:05.045Z</time></trkpt><trkpt lat="44.87185680373447" lon="12.0856459140515"><ele>-3.0</ele><time>2026-04-05T15:56:06.045Z</time></trkpt><trkpt lat="44.87164962598993" lon="12.085634603232906"><ele>-2.6666666666666665</ele><time>2026-04-05T15:56:07.045Z</time></trkpt><trkpt lat="44.871452481257734" lon="12.085610705145445"><ele>-2.333333333333333</ele><time>2026-04-05T15:56:08.045Z</time></trkpt><trkpt lat="44.87126607554412" lon="12.085574905264023"><ele>-2.0</ele><time>2026-04-05T15:56:09.045Z</time></trkpt><trkpt lat="44.87108570986986" lon="12.08553443999036"><ele>-1.6666666666666665</ele><time>2026-04-05T15:56:10.045Z</time></trkpt><trkpt lat="44.870904161256696" lon="12.085487580860681"><ele>-1.3333333333333333</ele><time>2026-04-05T15:56:11.045Z</time></trkpt><trkpt lat="44.8707216893415" lon="12.08541943772836"><ele>-1.0</ele><time>2026-04-05T15:56:12.045Z</time></trkpt><trkpt lat="44.87054653706612" lon="12.085339368846162"><ele>-1.0</ele><time>2026-04-05T15:56:13.045Z</time></trkpt><trkpt lat="44.87038476366432" lon="12.085256910470871"><ele>-1.0</ele><time>2026-04-05T15:56:14.045Z</time></trkpt><trkpt lat="44.87023799811497" lon="12.085181141560899"><ele>-1.0</ele><time>2026-04-05T15:56:15.045Z</time></trkpt><trkpt lat="44.87009810319483" lon="12.085099830904486"><ele>-0.75</ele><time>2026-04-05T15:56:16.045Z</time></trkpt><trkpt lat="44.86996839640803" lon="12.085033677028797"><ele>-0.5</ele><time>2026-04-05T15:56:17.045Z</time></trkpt><trkpt lat="44.86984302091306" lon="12.084970415505909"><ele>-0.25</ele><time>2026-04-05T15:56:18.045Z</time></trkpt><trkpt lat="44.869710977336844" lon="12.084903816280898"><ele>0.0</ele><time>2026-04-05T15:56:19.045Z</time></trkpt><trkpt lat="44.869580838079486" lon="12.084813885579761"><ele>0.0</ele><time>2026-04-05T15:56:20.045Z</time></trkpt><trkpt lat="44.8694426837389" lon="12.084738323598229"><ele>0.0</ele><time>2026-04-05T15:56:21.045Z</time></trkpt><trkpt lat="44.869298599248395" lon="12.084682467803962"><ele>0.0</ele><time>2026-04-05T15:56:22.045Z</time></trkpt><trkpt lat="44.869162108354665" lon="12.084605654176592"><ele>0.0</ele><time>2026-04-05T15:56:23.045Z</time></trkpt><trkpt lat="44.86903390823053" lon="12.08453186813829"><ele>-0.2</ele><time>2026-04-05T15:56:24.045Z</time></trkpt><trkpt lat="44.8689118666041" lon="12.084461550844422"><ele>-0.4</ele><time>2026-04-05T15:56:25.045Z</time></trkpt><trkpt lat="44.86880517863095" lon="12.084401947053662"><ele>-0.6000000000000001</ele><time>2026-04-05T15:56:26.045Z</time></trkpt><trkpt lat="44.86871354011697" lon="12.084346850162055"><ele>-0.8</ele><time>2026-04-05T15:56:27.045Z</time></trkpt><trkpt lat="44.86863850300514" lon="12.084300533718613"><ele>-1.0</ele><time>2026-04-05T15:56:28.045Z</time></trkpt><trkpt lat="44.86854569656879" lon="12.084244023105414"><ele>-1.0</ele><time>2026-04-05T15:56:30.045Z</time></trkpt><trkpt lat="44.8684543203566" lon="12.084433778827185"><ele>-1.0</ele><time>2026-04-05T15:56:35.046Z</time></trkpt><trkpt lat="44.8684343229794" lon="12.08459563125173"><ele>-1.0</ele><time>2026-04-05T15:56:37.046Z</time></trkpt><trkpt lat="44.86841044398673" lon="12.084774393020504"><ele>-1.0</ele><time>2026-04-05T15:56:39.046Z</time></trkpt><trkpt lat="44.86839647620823" lon="12.084888007158785"><ele>-0.8</ele><time>2026-04-05T15:56:40.046Z</time></trkpt><trkpt lat="44.868379910182476" lon="12.085011819320641"><ele>-0.6000000000000001</ele><time>2026-04-05T15:56:41.046Z</time></trkpt><trkpt lat="44.86836162184763" lon="12.08515289948361"><ele>-0.4</ele><time>2026-04-05T15:56:42.046Z</time></trkpt><trkpt lat="44.8683472124825" lon="12.085293935470908"><ele>-0.2</ele><time>2026-04-05T15:56:43.046Z</time></trkpt><trkpt lat="44.86833213800299" lon="12.085442067570193"><ele>0.0</ele><time>2026-04-05T15:56:44.046Z</time></trkpt><trkpt lat="44.86831086721328" lon="12.085595381296772"><ele>0.0</ele><time>2026-04-05T15:56:45.046Z</time></trkpt><trkpt lat="44.868275946789275" lon="12.08573811450656"><ele>0.0</ele><time>2026-04-05T15:56:46.046Z</time></trkpt><trkpt lat="44.86826364677342" lon="12.085887859040927"><ele>0.0</ele><time>2026-04-05T15:56:47.046Z</time></trkpt><trkpt lat="44.868248869820185" lon="12.086036488012557"><ele>0.0</ele><time>2026-04-05T15:56:48.046Z</time></trkpt><trkpt lat="44.8682360920316" lon="12.086187393148478"><ele>0.0</ele><time>2026-04-05T15:56:49.046Z</time></trkpt><trkpt lat="44.86821931999648" lon="12.086341638083384"><ele>-0.75</ele><time>2026-04-05T15:56:50.045Z</time></trkpt><trkpt lat="44.86819976570694" lon="12.086499085754442"><ele>-1.5</ele><time>2026-04-05T15:56:51.045Z</time></trkpt><trkpt lat="44.868180871071225" lon="12.08666020734666"><ele>-2.25</ele><time>2026-04-05T15:56:52.045Z</time></trkpt><trkpt lat="44.86816367440902" lon="12.086826723615744"><ele>-3.0</ele><time>2026-04-05T15:56:53.046Z</time></trkpt><trkpt lat="44.86814570701202" lon="12.086991921270883"><ele>-3.0</ele><time>2026-04-05T15:56:54.046Z</time></trkpt><trkpt lat="44.86812822378981" lon="12.087159113633106"><ele>-3.0</ele><time>2026-04-05T15:56:55.046Z</time></trkpt><trkpt lat="44.86811156298464" lon="12.087324424625457"><ele>-3.0</ele><time>2026-04-05T15:56:56.046Z</time></trkpt><trkpt lat="44.86809759121231" lon="12.087458450555134"><ele>-3.0</ele><time>2026-04-05T15:56:57.046Z</time></trkpt><trkpt lat="44.86808174575155" lon="12.087582742278359"><ele>-3.0</ele><time>2026-04-05T15:56:58.046Z</time></trkpt><trkpt lat="44.86806205542785" lon="12.087683227127268"><ele>-3.0</ele><time>2026-04-05T15:56:59.046Z</time></trkpt><trkpt lat="44.86804599663276" lon="12.087775836537832"><ele>-3.0</ele><time>2026-04-05T15:57:00.045Z</time></trkpt><trkpt lat="44.868028571838025" lon="12.087961565469952"><ele>-3.0</ele><time>2026-04-05T15:57:02.045Z</time></trkpt><trkpt lat="44.868014584784646" lon="12.08808060733491"><ele>-3.0</ele><time>2026-04-05T15:57:03.045Z</time></trkpt><trkpt lat="44.86799909220533" lon="12.088209370107027"><ele>-3.0</ele><time>2026-04-05T15:57:04.045Z</time></trkpt><trkpt lat="44.86798095455933" lon="12.088365536324543"><ele>-3.5</ele><time>2026-04-05T15:57:05.045Z</time></trkpt><trkpt lat="44.8679623224294" lon="12.088528549290341"><ele>-4.0</ele><time>2026-04-05T15:57:06.045Z</time></trkpt><trkpt lat="44.867946656194135" lon="12.088705711226511"><ele>-4.5</ele><time>2026-04-05T15:57:07.045Z</time></trkpt><trkpt lat="44.867929742537456" lon="12.08889577136644"><ele>-5.0</ele><time>2026-04-05T15:57:08.045Z</time></trkpt><trkpt lat="44.86791281500918" lon="12.089089741724663"><ele>-5.25</ele><time>2026-04-05T15:57:09.045Z</time></trkpt><trkpt lat="44.867894681678756" lon="12.089287394450034"><ele>-5.5</ele><time>2026-04-05T15:57:10.046Z</time></trkpt><trkpt lat="44.86787576160482" lon="12.089476364217887"><ele>-5.75</ele><time>2026-04-05T15:57:11.046Z</time></trkpt><trkpt lat="44.86785514962005" lon="12.08967253426796"><ele>-6.0</ele><time>2026-04-05T15:57:12.046Z</time></trkpt><trkpt lat="44.867833328891685" lon="12.08987378657957"><ele>-5.666666666666667</ele><time>2026-04-05T15:57:13.046Z</time></trkpt><trkpt lat="44.86781116112859" lon="12.090085642694484"><ele>-5.333333333333334</ele><time>2026-04-05T15:57:14.046Z</time></trkpt><trkpt lat="44.867790668578785" lon="12.090305943631456"><ele>-5.0</ele><time>2026-04-05T15:57:15.046Z</time></trkpt><trkpt lat="44.86776969954574" lon="12.090529875929699"><ele>-4.666666666666667</ele><time>2026-04-05T15:57:16.046Z</time></trkpt><trkpt lat="44.86774639230841" lon="12.0907697489015"><ele>-4.333333333333333</ele><time>2026-04-05T15:57:17.046Z</time></trkpt><trkpt lat="44.86772087631595" lon="12.091016064066945"><ele>-4.0</ele><time>2026-04-05T15:57:18.046Z</time></trkpt><trkpt lat="44.86769491241471" lon="12.091264122557"><ele>-4.0</ele><time>2026-04-05T15:57:19.046Z</time></trkpt><trkpt lat="44.86767056828522" lon="12.091511826076086"><ele>-4.0</ele><time>2026-04-05T15:57:20.046Z</time></trkpt><trkpt lat="44.86764511608413" lon="12.091756680213908"><ele>-4.0</ele><time>2026-04-05T15:57:21.046Z</time></trkpt><trkpt lat="44.86761802268221" lon="12.092001672833877"><ele>-4.0</ele><time>2026-04-05T15:57:22.046Z</time></trkpt><trkpt lat="44.867593101892844" lon="12.092247185179094"><ele>-4.0</ele><time>2026-04-05T15:57:23.046Z</time></trkpt><trkpt lat="44.86756636240081" lon="12.092489473143017"><ele>-4.0</ele><time>2026-04-05T15:57:24.046Z</time></trkpt><trkpt lat="44.86754300009786" lon="12.092733267928537"><ele>-4.0</ele><time>2026-04-05T15:57:25.046Z</time></trkpt><trkpt lat="44.86751848192629" lon="12.09297267147392"><ele>-4.0</ele><time>2026-04-05T15:57:26.046Z</time></trkpt><trkpt lat="44.86749320856024" lon="12.093219336769785"><ele>-4.0</ele><time>2026-04-05T15:57:27.046Z</time></trkpt><trkpt lat="44.867470901548366" lon="12.093474486141885"><ele>-4.666666666666666</ele><time>2026-04-05T15:57:28.046Z</time></trkpt><trkpt lat="44.867447545671354" lon="12.093728366654096"><ele>-5.333333333333333</ele><time>2026-04-05T15:57:29.046Z</time></trkpt><trkpt lat="44.867419128371566" lon="12.093987499028582"><ele>-6.0</ele><time>2026-04-05T15:57:30.046Z</time></trkpt><trkpt lat="44.86739027741535" lon="12.094250735230354"><ele>-6.0</ele><time>2026-04-05T15:57:31.046Z</time></trkpt><trkpt lat="44.86736121675093" lon="12.094515237967478"><ele>-6.0</ele><time>2026-04-05T15:57:32.046Z</time></trkpt><trkpt lat="44.867335415078664" lon="12.094782047663626"><ele>-6.0</ele><time>2026-04-05T15:57:33.046Z</time></trkpt><trkpt lat="44.867310968941304" lon="12.095046999610402"><ele>-6.0</ele><time>2026-04-05T15:57:34.046Z</time></trkpt><trkpt lat="44.867285705046605" lon="12.095301906260419"><ele>-6.0</ele><time>2026-04-05T15:57:35.046Z</time></trkpt><trkpt lat="44.86726218519167" lon="12.095552631003306"><ele>-6.0</ele><time>2026-04-05T15:57:36.046Z</time></trkpt><trkpt lat="44.86724082406651" lon="12.095803306106653"><ele>-6.0</ele><time>2026-04-05T15:57:37.046Z</time></trkpt><trkpt lat="44.867215160159766" lon="12.096055169361497"><ele>-6.0</ele><time>2026-04-05T15:57:38.046Z</time></trkpt><trkpt lat="44.8671914258851" lon="12.096302952166855"><ele>-6.0</ele><time>2026-04-05T15:57:39.046Z</time></trkpt><trkpt lat="44.86717004577592" lon="12.096549816803089"><ele>-6.0</ele><time>2026-04-05T15:57:40.046Z</time></trkpt><trkpt lat="44.86714988986166" lon="12.096798670166178"><ele>-6.0</ele><time>2026-04-05T15:57:41.046Z</time></trkpt><trkpt lat="44.867108556913394" lon="12.097041600721102"><ele>-6.0</ele><time>2026-04-05T15:57:42.046Z</time></trkpt><trkpt lat="44.86708197366758" lon="12.097292017776923"><ele>-6.0</ele><time>2026-04-05T15:57:43.046Z</time></trkpt><trkpt lat="44.86705589163551" lon="12.097537713671752"><ele>-6.0</ele><time>2026-04-05T15:57:44.046Z</time></trkpt><trkpt lat="44.86702982606462" lon="12.097783253620625"><ele>-6.0</ele><time>2026-04-05T15:57:45.046Z</time></trkpt><trkpt lat="44.86700576404871" lon="12.098032508961095"><ele>-5.666666666666667</ele><time>2026-04-05T15:57:46.046Z</time></trkpt><trkpt lat="44.86698175419979" lon="12.098285455904938"><ele>-5.333333333333334</ele><time>2026-04-05T15:57:47.046Z</time></trkpt><trkpt lat="44.86695593234535" lon="12.098537673208567"><ele>-5.0</ele><time>2026-04-05T15:57:48.046Z</time></trkpt><trkpt lat="44.866927575270836" lon="12.098793389512215"><ele>-5.0</ele><time>2026-04-05T15:57:49.046Z</time></trkpt><trkpt lat="44.86690001469485" lon="12.09904737493446"><ele>-5.0</ele><time>2026-04-05T15:57:50.046Z</time></trkpt><trkpt lat="44.86687614280469" lon="12.099301112512276"><ele>-5.0</ele><time>2026-04-05T15:57:51.046Z</time></trkpt><trkpt lat="44.86685107721455" lon="12.099554928150674"><ele>-5.333333333333334</ele><time>2026-04-05T15:57:52.046Z</time></trkpt><trkpt lat="44.86682510812056" lon="12.09979663004928"><ele>-5.666666666666667</ele><time>2026-04-05T15:57:53.046Z</time></trkpt><trkpt lat="44.86681667254806" lon="12.10002965522579"><ele>-6.0</ele><time>2026-04-05T15:57:54.046Z</time></trkpt><trkpt lat="44.86679234023159" lon="12.100263649576185"><ele>-6.0</ele><time>2026-04-05T15:57:55.046Z</time></trkpt><trkpt lat="44.86676333982447" lon="12.10049500191336"><ele>-6.0</ele><time>2026-04-05T15:57:56.046Z</time></trkpt><trkpt lat="44.866733015256315" lon="12.100718571337916"><ele>-6.0</ele><time>2026-04-05T15:57:57.046Z</time></trkpt><trkpt lat="44.866710402921534" lon="12.10093990771862"><ele>-6.0</ele><time>2026-04-05T15:57:58.046Z</time></trkpt><trkpt lat="44.86668730610929" lon="12.101160603933515"><ele>-6.0</ele><time>2026-04-05T15:57:59.046Z</time></trkpt><trkpt lat="44.866669255775406" lon="12.101375660282308"><ele>-6.0</ele><time>2026-04-05T15:58:00.046Z</time></trkpt><trkpt lat="44.86665170786918" lon="12.10158823114436"><ele>-6.25</ele><time>2026-04-05T15:58:01.046Z</time></trkpt><trkpt lat="44.86663371876467" lon="12.101799931330657"><ele>-6.5</ele><time>2026-04-05T15:58:02.046Z</time></trkpt><trkpt lat="44.86659473550051" lon="12.101991162876168"><ele>-6.75</ele><time>2026-04-05T15:58:03.046Z</time></trkpt><trkpt lat="44.86657462936278" lon="12.10217651712769"><ele>-7.0</ele><time>2026-04-05T15:58:04.046Z</time></trkpt><trkpt lat="44.866573152502035" lon="12.102359190933255"><ele>-6.75</ele><time>2026-04-05T15:58:05.046Z</time></trkpt><trkpt lat="44.86654907708676" lon="12.102526128678493"><ele>-6.5</ele><time>2026-04-05T15:58:06.046Z</time></trkpt><trkpt lat="44.86653265903962" lon="12.102688324384836"><ele>-6.25</ele><time>2026-04-05T15:58:07.046Z</time></trkpt><trkpt lat="44.86651210541537" lon="12.102852728880553"><ele>-6.0</ele><time>2026-04-05T15:58:08.046Z</time></trkpt><trkpt lat="44.86649496764973" lon="12.103022627009553"><ele>-6.0</ele><time>2026-04-05T15:58:09.046Z</time></trkpt><trkpt lat="44.86647729995539" lon="12.103190309349422"><ele>-6.0</ele><time>2026-04-05T15:58:10.046Z</time></trkpt><trkpt lat="44.86646250539168" lon="12.103340536018587"><ele>-6.0</ele><time>2026-04-05T15:58:11.046Z</time></trkpt><trkpt lat="44.86644914078768" lon="12.103484443341834"><ele>-6.0</ele><time>2026-04-05T15:58:12.046Z</time></trkpt><trkpt lat="44.866435959653394" lon="12.10361900042023"><ele>-6.0</ele><time>2026-04-05T15:58:13.046Z</time></trkpt><trkpt lat="44.866422032261575" lon="12.103769570588"><ele>-5.8</ele><time>2026-04-05T15:58:14.046Z</time></trkpt><trkpt lat="44.866410555134244" lon="12.103918915103048"><ele>-5.6</ele><time>2026-04-05T15:58:15.046Z</time></trkpt><trkpt lat="44.86640783595127" lon="12.104074252263448"><ele>-5.4</ele><time>2026-04-05T15:58:16.046Z</time></trkpt><trkpt lat="44.866395294994284" lon="12.10422501636156"><ele>-5.2</ele><time>2026-04-05T15:58:17.046Z</time></trkpt><trkpt lat="44.8663873067966" lon="12.104377958507195"><ele>-5.0</ele><time>2026-04-05T15:58:18.046Z</time></trkpt><trkpt lat="44.866367205595864" lon="12.104511587592361"><ele>-4.8</ele><time>2026-04-05T15:58:19.046Z</time></trkpt><trkpt lat="44.866368494453226" lon="12.104655127167621"><ele>-4.6</ele><time>2026-04-05T15:58:20.046Z</time></trkpt><trkpt lat="44.86635465276072" lon="12.104792883303901"><ele>-4.4</ele><time>2026-04-05T15:58:21.046Z</time></trkpt><trkpt lat="44.86633914474538" lon="12.104947219950985"><ele>-4.2</ele><time>2026-04-05T15:58:22.046Z</time></trkpt><trkpt lat="44.86632143664751" lon="12.105123452047179"><ele>-4.0</ele><time>2026-04-05T15:58:23.046Z</time></trkpt><trkpt lat="44.86630232362362" lon="12.105313665959347"><ele>-4.0</ele><time>2026-04-05T15:58:24.046Z</time></trkpt><trkpt lat="44.86628491104626" lon="12.105486957104626"><ele>-4.0</ele><time>2026-04-05T15:58:25.046Z</time></trkpt><trkpt lat="44.86626856861354" lon="12.105649598061204"><ele>-4.0</ele><time>2026-04-05T15:58:26.046Z</time></trkpt><trkpt lat="44.86625245237372" lon="12.105807507849223"><ele>-4.0</ele><time>2026-04-05T15:58:27.046Z</time></trkpt><trkpt lat="44.86623652862294" lon="12.105958329490363"><ele>-4.2</ele><time>2026-04-05T15:58:28.046Z</time></trkpt><trkpt lat="44.86621871227721" lon="12.10610184346161"><ele>-4.4</ele><time>2026-04-05T15:58:29.046Z</time></trkpt><trkpt lat="44.86621411114918" lon="12.106241399891628"><ele>-4.6</ele><time>2026-04-05T15:58:30.046Z</time></trkpt><trkpt lat="44.8662093031261" lon="12.106372907648957"><ele>-4.8</ele><time>2026-04-05T15:58:31.046Z</time></trkpt><trkpt lat="44.86620475092366" lon="12.106497154278374"><ele>-5.0</ele><time>2026-04-05T15:58:32.046Z</time></trkpt><trkpt lat="44.86620042459373" lon="12.106609126233337"><ele>-5.0</ele><time>2026-04-05T15:58:33.046Z</time></trkpt><trkpt lat="44.86617476976561" lon="12.106702680168588"><ele>-5.0</ele><time>2026-04-05T15:58:34.046Z</time></trkpt><trkpt lat="44.86617525780825" lon="12.106843382437003"><ele>-5.0</ele><time>2026-04-05T15:58:36.046Z</time></trkpt><trkpt lat="44.86615261716323" lon="12.106927136158992"><ele>-5.0</ele><time>2026-04-05T15:58:38.046Z</time></trkpt><trkpt lat="44.866142733362324" lon="12.10706330502134"><ele>-5.0</ele><time>2026-04-05T15:59:09.047Z</time></trkpt><trkpt lat="44.86613263566523" lon="12.107195752830327"><ele>-5.0</ele><time>2026-04-05T15:59:11.047Z</time></trkpt><trkpt lat="44.866125976485655" lon="12.107330487063852"><ele>-4.857142857142857</ele><time>2026-04-05T15:59:13.047Z</time></trkpt><trkpt lat="44.866112879796034" lon="12.107496005307585"><ele>-4.714285714285714</ele><time>2026-04-05T15:59:15.047Z</time></trkpt><trkpt lat="44.86610503981897" lon="12.107585979308348"><ele>-4.571428571428571</ele><time>2026-04-05T15:59:16.048Z</time></trkpt><trkpt lat="44.866094514484445" lon="12.10767756738377"><ele>-4.428571428571429</ele><time>2026-04-05T15:59:17.048Z</time></trkpt><trkpt lat="44.86608362866984" lon="12.107768836226255"><ele>-4.285714285714286</ele><time>2026-04-05T15:59:18.048Z</time></trkpt><trkpt lat="44.86607517936096" lon="12.107857775793345"><ele>-4.142857142857142</ele><time>2026-04-05T15:59:19.048Z</time></trkpt><trkpt lat="44.86606694564985" lon="12.107948982234259"><ele>-4.0</ele><time>2026-04-05T15:59:20.048Z</time></trkpt><trkpt lat="44.86605238519663" lon="12.108123288634884"><ele>-3.833333333333333</ele><time>2026-04-05T15:59:22.048Z</time></trkpt><trkpt lat="44.86603162824893" lon="12.108296103681125"><ele>-3.6666666666666665</ele><time>2026-04-05T15:59:24.048Z</time></trkpt><trkpt lat="44.866025986536734" lon="12.108388860477177"><ele>-3.5</ele><time>2026-04-05T15:59:25.048Z</time></trkpt><trkpt lat="44.86600723609454" lon="12.1084786268788"><ele>-3.333333333333333</ele><time>2026-04-05T15:59:26.048Z</time></trkpt><trkpt lat="44.86601694633702" lon="12.108566682818635"><ele>-3.1666666666666665</ele><time>2026-04-05T15:59:27.048Z</time></trkpt><trkpt lat="44.865989871507146" lon="12.108705960140862"><ele>-3.0</ele><time>2026-04-05T15:59:29.048Z</time></trkpt><trkpt lat="44.865974637597844" lon="12.108822988478357"><ele>-3.0</ele><time>2026-04-05T15:59:31.048Z</time></trkpt><trkpt lat="44.865955054212385" lon="12.108920365152052"><ele>-3.0</ele><time>2026-04-05T15:59:33.048Z</time></trkpt><trkpt lat="44.865993919056216" lon="12.108772168914866"><ele>-3.0</ele><time>2026-04-05T15:59:48.048Z</time></trkpt><trkpt lat="44.86599633040821" lon="12.108618148663748"><ele>-3.0</ele><time>2026-04-05T15:59:49.048Z</time></trkpt><trkpt lat="44.86600694699794" lon="12.108504541962501"><ele>-3.0</ele><time>2026-04-05T15:59:50.048Z</time></trkpt><trkpt lat="44.86602269190818" lon="12.108395553822032"><ele>-3.0</ele><time>2026-04-05T15:59:51.048Z</time></trkpt><trkpt lat="44.86601710277114" lon="12.108293357544797"><ele>-3.0</ele><time>2026-04-05T15:59:52.048Z</time></trkpt><trkpt lat="44.86602320735698" lon="12.108178732976086"><ele>-3.0</ele><time>2026-04-05T15:59:53.048Z</time></trkpt><trkpt lat="44.86604052849739" lon="12.108053047968195"><ele>-3.0</ele><time>2026-04-05T15:59:54.048Z</time></trkpt><trkpt lat="44.86607368464627" lon="12.107928874597045"><ele>-3.0</ele><time>2026-04-05T15:59:55.048Z</time></trkpt><trkpt lat="44.86608707781298" lon="12.107804205596182"><ele>-3.0</ele><time>2026-04-05T15:59:56.048Z</time></trkpt><trkpt lat="44.86609648216254" lon="12.107673930589643"><ele>-3.2</ele><time>2026-04-05T15:59:57.048Z</time></trkpt><trkpt lat="44.86611169007316" lon="12.107545530825822"><ele>-3.4</ele><time>2026-04-05T15:59:58.048Z</time></trkpt><trkpt lat="44.8660926303742" lon="12.10741058725671"><ele>-3.6000000000000005</ele><time>2026-04-05T15:59:59.048Z</time></trkpt><trkpt lat="44.86612850660275" lon="12.107293356916394"><ele>-3.8000000000000003</ele><time>2026-04-05T16:00:00.048Z</time></trkpt><trkpt lat="44.866125391639116" lon="12.107151617492947"><ele>-4.0</ele><time>2026-04-05T16:00:01.048Z</time></trkpt><trkpt lat="44.866144374538834" lon="12.107008829363663"><ele>-4.25</ele><time>2026-04-05T16:00:02.048Z</time></trkpt><trkpt lat="44.86615988486007" lon="12.106856680177817"><ele>-4.5</ele><time>2026-04-05T16:00:03.048Z</time></trkpt><trkpt lat="44.86618430572825" lon="12.106700310929781"><ele>-4.75</ele><time>2026-04-05T16:00:04.048Z</time></trkpt><trkpt lat="44.86618169950183" lon="12.106526444616138"><ele>-5.0</ele><time>2026-04-05T16:00:05.048Z</time></trkpt><trkpt lat="44.86619419250435" lon="12.106354327356431"><ele>-5.0</ele><time>2026-04-05T16:00:06.048Z</time></trkpt><trkpt lat="44.866228922770254" lon="12.106187610825177"><ele>-5.0</ele><time>2026-04-05T16:00:07.048Z</time></trkpt><trkpt lat="44.866248661439116" lon="12.106026715730746"><ele>-5.0</ele><time>2026-04-05T16:00:08.048Z</time></trkpt><trkpt lat="44.86626813108171" lon="12.10586563196755"><ele>-5.0</ele><time>2026-04-05T16:00:09.048Z</time></trkpt><trkpt lat="44.86628711485398" lon="12.10569405099684"><ele>-4.75</ele><time>2026-04-05T16:00:10.048Z</time></trkpt><trkpt lat="44.86630919835603" lon="12.105515288833184"><ele>-4.5</ele><time>2026-04-05T16:00:11.048Z</time></trkpt><trkpt lat="44.86632848808106" lon="12.105342323239588"><ele>-4.25</ele><time>2026-04-05T16:00:12.048Z</time></trkpt><trkpt lat="44.86634794033667" lon="12.105164696538985"><ele>-4.0</ele><time>2026-04-05T16:00:13.048Z</time></trkpt><trkpt lat="44.86635305825607" lon="12.104976038525303"><ele>-4.0</ele><time>2026-04-05T16:00:14.048Z</time></trkpt><trkpt lat="44.86638578349211" lon="12.10478822079689"><ele>-4.0</ele><time>2026-04-05T16:00:15.048Z</time></trkpt><trkpt lat="44.86640071776023" lon="12.104598970019017"><ele>-4.0</ele><time>2026-04-05T16:00:16.048Z</time></trkpt><trkpt lat="44.86641339388214" lon="12.104412308580423"><ele>-4.0</ele><time>2026-04-05T16:00:17.048Z</time></trkpt><trkpt lat="44.866418482263036" lon="12.104233078554682"><ele>-4.2</ele><time>2026-04-05T16:00:18.048Z</time></trkpt><trkpt lat="44.866421155966144" lon="12.104069034657057"><ele>-4.4</ele><time>2026-04-05T16:00:19.048Z</time></trkpt><trkpt lat="44.86643114364238" lon="12.10392130383572"><ele>-4.6</ele><time>2026-04-05T16:00:20.048Z</time></trkpt><trkpt lat="44.86644711278492" lon="12.10377098797048"><ele>-4.8</ele><time>2026-04-05T16:00:21.048Z</time></trkpt><trkpt lat="44.86646138228296" lon="12.103607422695992"><ele>-5.0</ele><time>2026-04-05T16:00:22.048Z</time></trkpt><trkpt lat="44.86647856492556" lon="12.103436112972878"><ele>-5.0</ele><time>2026-04-05T16:00:23.048Z</time></trkpt><trkpt lat="44.86649668075038" lon="12.103262472465442"><ele>-5.0</ele><time>2026-04-05T16:00:24.048Z</time></trkpt><trkpt lat="44.866531106168175" lon="12.10308582136892"><ele>-5.0</ele><time>2026-04-05T16:00:25.048Z</time></trkpt><trkpt lat="44.86654813352527" lon="12.102900304364011"><ele>-5.0</ele><time>2026-04-05T16:00:26.048Z</time></trkpt><trkpt lat="44.866565182957956" lon="12.10271372417306"><ele>-5.25</ele><time>2026-04-05T16:00:27.048Z</time></trkpt><trkpt lat="44.86658157698045" lon="12.10252526496071"><ele>-5.5</ele><time>2026-04-05T16:00:28.048Z</time></trkpt><trkpt lat="44.86659764618092" lon="12.102338800474572"><ele>-5.75</ele><time>2026-04-05T16:00:29.048Z</time></trkpt><trkpt lat="44.866616792135254" lon="12.10215004289949"><ele>-6.0</ele><time>2026-04-05T16:00:30.048Z</time></trkpt><trkpt lat="44.86663927656392" lon="12.101965119756738"><ele>-6.0</ele><time>2026-04-05T16:00:31.048Z</time></trkpt><trkpt lat="44.866663417975296" lon="12.10177775056314"><ele>-6.0</ele><time>2026-04-05T16:00:32.048Z</time></trkpt><trkpt lat="44.86668131079709" lon="12.101586331714746"><ele>-6.0</ele><time>2026-04-05T16:00:33.048Z</time></trkpt><trkpt lat="44.866702871796846" lon="12.101383237286191"><ele>-6.0</ele><time>2026-04-05T16:00:34.048Z</time></trkpt><trkpt lat="44.86672040730392" lon="12.101176625906541"><ele>-6.0</ele><time>2026-04-05T16:00:35.048Z</time></trkpt><trkpt lat="44.86674206070548" lon="12.100970191893861"><ele>-6.0</ele><time>2026-04-05T16:00:36.048Z</time></trkpt><trkpt lat="44.8667644941957" lon="12.100760509991233"><ele>-6.0</ele><time>2026-04-05T16:00:37.048Z</time></trkpt><trkpt lat="44.86678262335615" lon="12.100537889214886"><ele>-6.0</ele><time>2026-04-05T16:00:38.048Z</time></trkpt><trkpt lat="44.8668060181132" lon="12.1003258362176"><ele>-6.0</ele><time>2026-04-05T16:00:39.048Z</time></trkpt><trkpt lat="44.8668287583977" lon="12.100114793040232"><ele>-6.0</ele><time>2026-04-05T16:00:40.048Z</time></trkpt><trkpt lat="44.86685097238159" lon="12.099899312146777"><ele>-6.0</ele><time>2026-04-05T16:00:41.048Z</time></trkpt><trkpt lat="44.86687496164102" lon="12.099684584352728"><ele>-6.0</ele><time>2026-04-05T16:00:42.048Z</time></trkpt><trkpt lat="44.866894847260724" lon="12.099469977359668"><ele>-6.0</ele><time>2026-04-05T16:00:43.048Z</time></trkpt><trkpt lat="44.8669175235224" lon="12.099249990693037"><ele>-5.666666666666667</ele><time>2026-04-05T16:00:44.048Z</time></trkpt><trkpt lat="44.86693965149747" lon="12.099020137813454"><ele>-5.333333333333334</ele><time>2026-04-05T16:00:45.048Z</time></trkpt><trkpt lat="44.866963039064274" lon="12.0987779445547"><ele>-5.0</ele><time>2026-04-05T16:00:46.048Z</time></trkpt><trkpt lat="44.866986686984426" lon="12.09854217922835"><ele>-5.0</ele><time>2026-04-05T16:00:47.048Z</time></trkpt><trkpt lat="44.86701015259364" lon="12.098311000416368"><ele>-5.0</ele><time>2026-04-05T16:00:48.048Z</time></trkpt><trkpt lat="44.86703568554727" lon="12.098086730028523"><ele>-5.0</ele><time>2026-04-05T16:00:49.048Z</time></trkpt><trkpt lat="44.86705948326148" lon="12.097858723511713"><ele>-5.333333333333334</ele><time>2026-04-05T16:00:50.049Z</time></trkpt><trkpt lat="44.86708321718166" lon="12.097630381853053"><ele>-5.666666666666667</ele><time>2026-04-05T16:00:51.049Z</time></trkpt><trkpt lat="44.86710706534907" lon="12.097398454899817"><ele>-6.0</ele><time>2026-04-05T16:00:52.049Z</time></trkpt><trkpt lat="44.867129127920094" lon="12.097165489714202"><ele>-6.0</ele><time>2026-04-05T16:00:53.049Z</time></trkpt><trkpt lat="44.86715190027765" lon="12.096932297808742"><ele>-6.0</ele><time>2026-04-05T16:00:54.049Z</time></trkpt><trkpt lat="44.867177733883494" lon="12.096702903285347"><ele>-6.0</ele><time>2026-04-05T16:00:55.049Z</time></trkpt><trkpt lat="44.86719878449676" lon="12.096479798432705"><ele>-6.0</ele><time>2026-04-05T16:00:56.049Z</time></trkpt><trkpt lat="44.86722194325842" lon="12.09625664299748"><ele>-6.0</ele><time>2026-04-05T16:00:57.049Z</time></trkpt><trkpt lat="44.867246025706905" lon="12.096022197619531"><ele>-6.0</ele><time>2026-04-05T16:00:58.049Z</time></trkpt><trkpt lat="44.86727168642641" lon="12.0957766038058"><ele>-5.333333333333333</ele><time>2026-04-05T16:00:59.049Z</time></trkpt><trkpt lat="44.86729639361182" lon="12.09553157325961"><ele>-4.666666666666666</ele><time>2026-04-05T16:01:00.049Z</time></trkpt><trkpt lat="44.86732068387359" lon="12.09528736215645"><ele>-4.0</ele><time>2026-04-05T16:01:01.048Z</time></trkpt><trkpt lat="44.867342631961016" lon="12.09504882948165"><ele>-4.666666666666666</ele><time>2026-04-05T16:01:02.049Z</time></trkpt><trkpt lat="44.86736564703368" lon="12.09481100697806"><ele>-5.333333333333333</ele><time>2026-04-05T16:01:03.049Z</time></trkpt><trkpt lat="44.867392429556126" lon="12.094566342062551"><ele>-6.0</ele><time>2026-04-05T16:01:04.048Z</time></trkpt><trkpt lat="44.86741604327125" lon="12.094323193957278"><ele>-6.333333333333334</ele><time>2026-04-05T16:01:05.049Z</time></trkpt><trkpt lat="44.867441535748604" lon="12.094084025614656"><ele>-6.666666666666667</ele><time>2026-04-05T16:01:06.049Z</time></trkpt><trkpt lat="44.86746567526661" lon="12.093844887138669"><ele>-7.0</ele><time>2026-04-05T16:01:07.049Z</time></trkpt><trkpt lat="44.867493088464016" lon="12.093605291280436"><ele>-7.0</ele><time>2026-04-05T16:01:08.048Z</time></trkpt><trkpt lat="44.867519262260544" lon="12.093364977067491"><ele>-7.0</ele><time>2026-04-05T16:01:09.048Z</time></trkpt><trkpt lat="44.86754276384618" lon="12.093119595355311"><ele>-7.0</ele><time>2026-04-05T16:01:10.049Z</time></trkpt><trkpt lat="44.867566425796795" lon="12.092874169812763"><ele>-6.333333333333334</ele><time>2026-04-05T16:01:11.048Z</time></trkpt><trkpt lat="44.86759000571357" lon="12.092628278157855"><ele>-5.666666666666667</ele><time>2026-04-05T16:01:12.048Z</time></trkpt><trkpt lat="44.86761328312675" lon="12.09238603621012"><ele>-5.0</ele><time>2026-04-05T16:01:13.049Z</time></trkpt><trkpt lat="44.86763792792" lon="12.092145409525068"><ele>-5.0</ele><time>2026-04-05T16:01:14.049Z</time></trkpt><trkpt lat="44.867665091061106" lon="12.091900183032166"><ele>-5.0</ele><time>2026-04-05T16:01:15.049Z</time></trkpt><trkpt lat="44.86768780733298" lon="12.091655775231532"><ele>-5.0</ele><time>2026-04-05T16:01:16.049Z</time></trkpt><trkpt lat="44.86771435747134" lon="12.091413376997608"><ele>-5.0</ele><time>2026-04-05T16:01:17.049Z</time></trkpt><trkpt lat="44.86774129176662" lon="12.091165579715584"><ele>-5.0</ele><time>2026-04-05T16:01:18.049Z</time></trkpt><trkpt lat="44.86776775496361" lon="12.090922199579579"><ele>-5.0</ele><time>2026-04-05T16:01:19.049Z</time></trkpt><trkpt lat="44.867792461775124" lon="12.090695548265902"><ele>-5.0</ele><time>2026-04-05T16:01:20.049Z</time></trkpt><trkpt lat="44.86781183517147" lon="12.09048675590986"><ele>-5.0</ele><time>2026-04-05T16:01:21.049Z</time></trkpt><trkpt lat="44.867830885045684" lon="12.090296273867875"><ele>-5.0</ele><time>2026-04-05T16:01:22.049Z</time></trkpt><trkpt lat="44.86784522023607" lon="12.090129918186928"><ele>-5.0</ele><time>2026-04-05T16:01:23.049Z</time></trkpt><trkpt lat="44.86785921640673" lon="12.089978275136152"><ele>-5.166666666666667</ele><time>2026-04-05T16:01:24.049Z</time></trkpt><trkpt lat="44.86787294023247" lon="12.089853448838753"><ele>-5.333333333333334</ele><time>2026-04-05T16:01:25.049Z</time></trkpt><trkpt lat="44.86788570336088" lon="12.08975023959839"><ele>-5.5</ele><time>2026-04-05T16:01:26.049Z</time></trkpt><trkpt lat="44.86789632371794" lon="12.089608583648332"><ele>-5.666666666666667</ele><time>2026-04-05T16:01:28.049Z</time></trkpt><trkpt lat="44.867906858377495" lon="12.089481078695746"><ele>-5.833333333333333</ele><time>2026-04-05T16:01:39.04Z</time></trkpt><trkpt lat="44.86791442173227" lon="12.089392046046301"><ele>-6.0</ele><time>2026-04-05T16:01:40.037Z</time></trkpt><trkpt lat="44.86792870708073" lon="12.089248308859856"><ele>-5.75</ele><time>2026-04-05T16:01:41.035Z</time></trkpt><trkpt lat="44.86794445842808" lon="12.089082918962408"><ele>-5.5</ele><time>2026-04-05T16:01:42.033Z</time></trkpt><trkpt lat="44.867962400701934" lon="12.088908251925389"><ele>-5.25</ele><time>2026-04-05T16:01:43.032Z</time></trkpt><trkpt lat="44.86798561831075" lon="12.088734652583513"><ele>-5.0</ele><time>2026-04-05T16:01:44.03Z</time></trkpt><trkpt lat="44.868004687104474" lon="12.088541711666215"><ele>-5.0</ele><time>2026-04-05T16:01:45.028Z</time></trkpt><trkpt lat="44.86803058136675" lon="12.088340719999309"><ele>-5.0</ele><time>2026-04-05T16:01:46.027Z</time></trkpt><trkpt lat="44.868053124179156" lon="12.088131228882832"><ele>-5.0</ele><time>2026-04-05T16:01:47.025Z</time></trkpt><trkpt lat="44.868072627585256" lon="12.087915272787995"><ele>-5.0</ele><time>2026-04-05T16:01:48.024Z</time></trkpt><trkpt lat="44.868095153100924" lon="12.087705240100995"><ele>-4.5</ele><time>2026-04-05T16:01:49.023Z</time></trkpt><trkpt lat="44.86811376675753" lon="12.087506141499523"><ele>-4.0</ele><time>2026-04-05T16:01:50.022Z</time></trkpt><trkpt lat="44.86813402637482" lon="12.087311941760689"><ele>-3.5</ele><time>2026-04-05T16:01:51.021Z</time></trkpt><trkpt lat="44.8681548067658" lon="12.087126530344875"><ele>-3.0</ele><time>2026-04-05T16:01:52.02Z</time></trkpt><trkpt lat="44.868174085918234" lon="12.08694784857305"><ele>-3.0</ele><time>2026-04-05T16:01:53.019Z</time></trkpt><trkpt lat="44.86819006173656" lon="12.086763130364888"><ele>-3.0</ele><time>2026-04-05T16:01:54.018Z</time></trkpt><trkpt lat="44.868207437968174" lon="12.086561383084579"><ele>-3.0</ele><time>2026-04-05T16:01:55.017Z</time></trkpt><trkpt lat="44.86823376673003" lon="12.086346489823375"><ele>-3.0</ele><time>2026-04-05T16:01:56.016Z</time></trkpt><trkpt lat="44.86825988250948" lon="12.08614442010109"><ele>-3.25</ele><time>2026-04-05T16:01:57.015Z</time></trkpt><trkpt lat="44.868281175144425" lon="12.085950261328522"><ele>-3.5</ele><time>2026-04-05T16:01:58.015Z</time></trkpt><trkpt lat="44.86830537172826" lon="12.085758944011012"><ele>-3.75</ele><time>2026-04-05T16:01:59.014Z</time></trkpt><trkpt lat="44.868335287355286" lon="12.085563550876504"><ele>-4.0</ele><time>2026-04-05T16:02:00.013Z</time></trkpt><trkpt lat="44.86836524926972" lon="12.085378008287586"><ele>-3.25</ele><time>2026-04-05T16:02:01.013Z</time></trkpt><trkpt lat="44.86838582748096" lon="12.085197549929413"><ele>-2.5</ele><time>2026-04-05T16:02:02.012Z</time></trkpt><trkpt lat="44.86840500348981" lon="12.085028513367584"><ele>-1.75</ele><time>2026-04-05T16:02:03.012Z</time></trkpt><trkpt lat="44.868421109740936" lon="12.084875754339564"><ele>-1.0</ele><time>2026-04-05T16:02:04.011Z</time></trkpt><trkpt lat="44.86843858485857" lon="12.084735505494386"><ele>-1.0</ele><time>2026-04-05T16:02:05.011Z</time></trkpt><trkpt lat="44.868463076935996" lon="12.084615794120753"><ele>-1.0</ele><time>2026-04-05T16:02:06.01Z</time></trkpt><trkpt lat="44.86848047210709" lon="12.08450426572748"><ele>-1.0</ele><time>2026-04-05T16:02:07.01Z</time></trkpt><trkpt lat="44.868498261343255" lon="12.08440917948571"><ele>-1.0</ele><time>2026-04-05T16:02:08.01Z</time></trkpt><trkpt lat="44.8685214119607" lon="12.084308955051375"><ele>-1.0</ele><time>2026-04-05T16:02:10.009Z</time></trkpt><trkpt lat="44.868421408852825" lon="12.084158840811813"><ele>-1.0</ele><time>2026-04-05T16:02:14.008Z</time></trkpt><trkpt lat="44.868318460463215" lon="12.08411183882359"><ele>-1.0</ele><time>2026-04-05T16:02:15.008Z</time></trkpt><trkpt lat="44.8682082271931" lon="12.08405612626637"><ele>-1.0</ele><time>2026-04-05T16:02:16.008Z</time></trkpt><trkpt lat="44.86809848713859" lon="12.08399836164475"><ele>-1.0</ele><time>2026-04-05T16:02:17.007Z</time></trkpt><trkpt lat="44.86797401556249" lon="12.08393434281212"><ele>-1.6666666666666665</ele><time>2026-04-05T16:02:18.007Z</time></trkpt><trkpt lat="44.86783536192515" lon="12.083856803664723"><ele>-2.3333333333333335</ele><time>2026-04-05T16:02:19.007Z</time></trkpt><trkpt lat="44.86768643601359" lon="12.083775607380653"><ele>-3.0</ele><time>2026-04-05T16:02:20.007Z</time></trkpt><trkpt lat="44.86753087558638" lon="12.083696959473116"><ele>-3.0</ele><time>2026-04-05T16:02:21.007Z</time></trkpt><trkpt lat="44.86736991455467" lon="12.083617243904703"><ele>-3.0</ele><time>2026-04-05T16:02:22.006Z</time></trkpt><trkpt lat="44.867197761329244" lon="12.08353136336257"><ele>-3.0</ele><time>2026-04-05T16:02:23.006Z</time></trkpt><trkpt lat="44.867017414191054" lon="12.083462531176865"><ele>-3.0</ele><time>2026-04-05T16:02:24.006Z</time></trkpt><trkpt lat="44.86682682153721" lon="12.083414806259084"><ele>-3.0</ele><time>2026-04-05T16:02:25.006Z</time></trkpt><trkpt lat="44.86663188533396" lon="12.083374067068485"><ele>-3.0</ele><time>2026-04-05T16:02:26.006Z</time></trkpt><trkpt lat="44.86644051025392" lon="12.08333373740657"><ele>-2.6666666666666665</ele><time>2026-04-05T16:02:27.006Z</time></trkpt><trkpt lat="44.86624889071799" lon="12.083299241412975"><ele>-2.333333333333333</ele><time>2026-04-05T16:02:28.006Z</time></trkpt><trkpt lat="44.86605748163525" lon="12.083264138091524"><ele>-2.0</ele><time>2026-04-05T16:02:29.006Z</time></trkpt><trkpt lat="44.865864638340334" lon="12.08322393522645"><ele>-2.0</ele><time>2026-04-05T16:02:30.006Z</time></trkpt><trkpt lat="44.865666165636114" lon="12.083187636912253"><ele>-2.0</ele><time>2026-04-05T16:02:31.005Z</time></trkpt><trkpt lat="44.865465865120065" lon="12.083153052044086"><ele>-2.0</ele><time>2026-04-05T16:02:32.005Z</time></trkpt><trkpt lat="44.86526548285154" lon="12.083117085329107"><ele>-1.3333333333333333</ele><time>2026-04-05T16:02:33.005Z</time></trkpt><trkpt lat="44.8650664202981" lon="12.083081725326773"><ele>-0.6666666666666666</ele><time>2026-04-05T16:02:34.005Z</time></trkpt><trkpt lat="44.86487278826105" lon="12.083050077308707"><ele>0.0</ele><time>2026-04-05T16:02:35.005Z</time></trkpt><trkpt lat="44.86468289353862" lon="12.083022341241135"><ele>0.0</ele><time>2026-04-05T16:02:36.005Z</time></trkpt><trkpt lat="44.86449537251587" lon="12.083002879020107"><ele>0.0</ele><time>2026-04-05T16:02:37.005Z</time></trkpt><trkpt lat="44.8642970461342" lon="12.083008728862355"><ele>0.0</ele><time>2026-04-05T16:02:38.005Z</time></trkpt><trkpt lat="44.86409847665468" lon="12.083047942912238"><ele>0.0</ele><time>2026-04-05T16:02:39.005Z</time></trkpt><trkpt lat="44.86390083709869" lon="12.083113040794878"><ele>0.0</ele><time>2026-04-05T16:02:40.005Z</time></trkpt><trkpt lat="44.86371586570644" lon="12.083196229262526"><ele>0.0</ele><time>2026-04-05T16:02:41.005Z</time></trkpt><trkpt lat="44.863536398509424" lon="12.083294923048474"><ele>-0.3333333333333333</ele><time>2026-04-05T16:02:42.005Z</time></trkpt><trkpt lat="44.86335970949525" lon="12.083389686026779"><ele>-0.6666666666666666</ele><time>2026-04-05T16:02:43.005Z</time></trkpt><trkpt lat="44.86318809125624" lon="12.083482079950086"><ele>-1.0</ele><time>2026-04-05T16:02:44.005Z</time></trkpt><trkpt lat="44.86302260086284" lon="12.083574314147203"><ele>-1.0</ele><time>2026-04-05T16:02:45.005Z</time></trkpt><trkpt lat="44.86286551439723" lon="12.083657395024293"><ele>-1.0</ele><time>2026-04-05T16:02:46.005Z</time></trkpt><trkpt lat="44.86271327409544" lon="12.083737271479787"><ele>-1.0</ele><time>2026-04-05T16:02:47.005Z</time></trkpt><trkpt lat="44.86256523320056" lon="12.083811937470157"><ele>-0.6666666666666666</ele><time>2026-04-05T16:02:48.005Z</time></trkpt><trkpt lat="44.862410590262165" lon="12.083897488368223"><ele>-0.3333333333333333</ele><time>2026-04-05T16:02:49.005Z</time></trkpt><trkpt lat="44.86225915733708" lon="12.083979101559777"><ele>0.0</ele><time>2026-04-05T16:02:50.005Z</time></trkpt><trkpt lat="44.86210751806779" lon="12.084055705414288"><ele>0.0</ele><time>2026-04-05T16:02:51.005Z</time></trkpt><trkpt lat="44.86195642751203" lon="12.08413642417243"><ele>0.0</ele><time>2026-04-05T16:02:52.004Z</time></trkpt><trkpt lat="44.86180266836293" lon="12.084217971112542"><ele>0.0</ele><time>2026-04-05T16:02:53.004Z</time></trkpt><trkpt lat="44.861651061274856" lon="12.084296840211918"><ele>0.0</ele><time>2026-04-05T16:02:54.004Z</time></trkpt><trkpt lat="44.86150368708211" lon="12.0843755910406"><ele>0.0</ele><time>2026-04-05T16:02:55.004Z</time></trkpt><trkpt lat="44.86135724723615" lon="12.084455101613036"><ele>0.0</ele><time>2026-04-05T16:02:56.004Z</time></trkpt><trkpt lat="44.86120769057481" lon="12.084535329537387"><ele>0.0</ele><time>2026-04-05T16:02:57.004Z</time></trkpt><trkpt lat="44.861058878501964" lon="12.084618449312984"><ele>0.0</ele><time>2026-04-05T16:02:58.004Z</time></trkpt><trkpt lat="44.86090943763874" lon="12.084700431681656"><ele>0.0</ele><time>2026-04-05T16:02:59.004Z</time></trkpt><trkpt lat="44.860756110198466" lon="12.084773426733795"><ele>-0.6666666666666666</ele><time>2026-04-05T16:03:00.004Z</time></trkpt><trkpt lat="44.86059735838649" lon="12.084828459065726"><ele>-1.3333333333333333</ele><time>2026-04-05T16:03:01.004Z</time></trkpt><trkpt lat="44.86043734442602" lon="12.084885552049329"><ele>-2.0</ele><time>2026-04-05T16:03:02.004Z</time></trkpt><trkpt lat="44.86027859259416" lon="12.084938685195262"><ele>-1.6666666666666665</ele><time>2026-04-05T16:03:03.004Z</time></trkpt><trkpt lat="44.860126035788056" lon="12.08498910078566"><ele>-1.3333333333333333</ele><time>2026-04-05T16:03:04.004Z</time></trkpt><trkpt lat="44.85997795673035" lon="12.085034842274677"><ele>-1.0</ele><time>2026-04-05T16:03:05.004Z</time></trkpt><trkpt lat="44.859829073827115" lon="12.085073254303532"><ele>-1.0</ele><time>2026-04-05T16:03:06.004Z</time></trkpt><trkpt lat="44.85968510572137" lon="12.085114006113242"><ele>-1.0</ele><time>2026-04-05T16:03:07.004Z</time></trkpt><trkpt lat="44.85955752746615" lon="12.08515525608667"><ele>-1.0</ele><time>2026-04-05T16:03:08.005Z</time></trkpt><trkpt lat="44.85943724027444" lon="12.08518771069954"><ele>-1.0</ele><time>2026-04-05T16:03:09.005Z</time></trkpt><trkpt lat="44.85931463873897" lon="12.085218483269786"><ele>-1.25</ele><time>2026-04-05T16:03:10.004Z</time></trkpt><trkpt lat="44.85918946732278" lon="12.085243605899604"><ele>-1.5</ele><time>2026-04-05T16:03:11.004Z</time></trkpt><trkpt lat="44.85906588345737" lon="12.085269300691943"><ele>-1.75</ele><time>2026-04-05T16:03:12.004Z</time></trkpt><trkpt lat="44.85894559653759" lon="12.085287503845034"><ele>-2.0</ele><time>2026-04-05T16:03:13.004Z</time></trkpt><trkpt lat="44.85884357011341" lon="12.085299577458674"><ele>-2.0</ele><time>2026-04-05T16:03:14.004Z</time></trkpt><trkpt lat="44.85874275264892" lon="12.08530776155414"><ele>-2.0</ele><time>2026-04-05T16:03:15.004Z</time></trkpt><trkpt lat="44.85865234055809" lon="12.08532823020689"><ele>-2.0</ele><time>2026-04-05T16:03:16.004Z</time></trkpt><trkpt lat="44.858544887723816" lon="12.085401376213202"><ele>-2.0</ele><time>2026-04-05T16:03:17.004Z</time></trkpt><trkpt lat="44.858415224045615" lon="12.08547950078957"><ele>-2.333333333333333</ele><time>2026-04-05T16:03:18.004Z</time></trkpt><trkpt lat="44.85827834631582" lon="12.08553204185427"><ele>-2.6666666666666665</ele><time>2026-04-05T16:03:19.005Z</time></trkpt><trkpt lat="44.85812638485642" lon="12.085565091497115"><ele>-3.0</ele><time>2026-04-05T16:03:20.004Z</time></trkpt><trkpt lat="44.85795741874072" lon="12.085621765686687"><ele>-3.0</ele><time>2026-04-05T16:03:21.004Z</time></trkpt><trkpt lat="44.85778120509774" lon="12.085694813007022"><ele>-3.0</ele><time>2026-04-05T16:03:22.004Z</time></trkpt><trkpt lat="44.85759312951086" lon="12.085789663655504"><ele>-3.0</ele><time>2026-04-05T16:03:23.004Z</time></trkpt><trkpt lat="44.857398158052305" lon="12.085889834323984"><ele>-2.3333333333333335</ele><time>2026-04-05T16:03:24.004Z</time></trkpt><trkpt lat="44.85720085505992" lon="12.085991476947958"><ele>-1.6666666666666665</ele><time>2026-04-05T16:03:25.004Z</time></trkpt><trkpt lat="44.857007735640906" lon="12.086087659596153"><ele>-1.0</ele><time>2026-04-05T16:03:26.004Z</time></trkpt><trkpt lat="44.85681680333366" lon="12.086190854966167"><ele>-1.0</ele><time>2026-04-05T16:03:27.004Z</time></trkpt><trkpt lat="44.85662789867025" lon="12.08631189279117"><ele>-1.0</ele><time>2026-04-05T16:03:28.004Z</time></trkpt><trkpt lat="44.8564443067198" lon="12.086465324206976"><ele>-1.0</ele><time>2026-04-05T16:03:29.004Z</time></trkpt><trkpt lat="44.856265715891524" lon="12.086652245585954"><ele>-1.0</ele><time>2026-04-05T16:03:30.004Z</time></trkpt><trkpt lat="44.85609076692367" lon="12.08685469452431"><ele>-1.0</ele><time>2026-04-05T16:03:31.004Z</time></trkpt><trkpt lat="44.85591786583875" lon="12.087070353067636"><ele>-1.0</ele><time>2026-04-05T16:03:32.004Z</time></trkpt><trkpt lat="44.85575047051797" lon="12.087295536888206"><ele>-1.0</ele><time>2026-04-05T16:03:33.004Z</time></trkpt><trkpt lat="44.85558521879813" lon="12.08751599787654"><ele>-1.0</ele><time>2026-04-05T16:03:34.004Z</time></trkpt><trkpt lat="44.85542263434684" lon="12.087731960171208"><ele>-1.0</ele><time>2026-04-05T16:03:35.004Z</time></trkpt><trkpt lat="44.85526981393613" lon="12.087953252154835"><ele>-1.0</ele><time>2026-04-05T16:03:36.004Z</time></trkpt><trkpt lat="44.855123981506026" lon="12.08818916811601"><ele>-1.0</ele><time>2026-04-05T16:03:37.004Z</time></trkpt><trkpt lat="44.85498565604402" lon="12.088438585528706"><ele>-1.0</ele><time>2026-04-05T16:03:38.004Z</time></trkpt><trkpt lat="44.8548614100622" lon="12.088703106392217"><ele>-1.0</ele><time>2026-04-05T16:03:39.004Z</time></trkpt><trkpt lat="44.85475357127787" lon="12.088990792519887"><ele>-1.5</ele><time>2026-04-05T16:03:40.004Z</time></trkpt><trkpt lat="44.85467968290382" lon="12.089325512005725"><ele>-2.0</ele><time>2026-04-05T16:03:41.004Z</time></trkpt><trkpt lat="44.85459206524186" lon="12.08964544690451"><ele>-1.0</ele><time>2026-04-05T16:03:42.004Z</time></trkpt><trkpt lat="44.85449793316736" lon="12.089964669822619"><ele>0.0</ele><time>2026-04-05T16:03:43.004Z</time></trkpt><trkpt lat="44.85440119006875" lon="12.0902767950754"><ele>0.0</ele><time>2026-04-05T16:03:44.004Z</time></trkpt><trkpt lat="44.85430321461031" lon="12.090584204454041"><ele>0.0</ele><time>2026-04-05T16:03:45.004Z</time></trkpt><trkpt lat="44.85420383561528" lon="12.090886785507335"><ele>-0.5</ele><time>2026-04-05T16:03:46.004Z</time></trkpt><trkpt lat="44.85409782438395" lon="12.091175036567854"><ele>-1.0</ele><time>2026-04-05T16:03:47.004Z</time></trkpt><trkpt lat="44.853987809381145" lon="12.091457277582617"><ele>-1.6666666666666665</ele><time>2026-04-05T16:03:48.004Z</time></trkpt><trkpt lat="44.85387951331173" lon="12.091731088528379"><ele>-2.3333333333333335</ele><time>2026-04-05T16:03:49.004Z</time></trkpt><trkpt lat="44.8537710331817" lon="12.091998646847035"><ele>-3.0</ele><time>2026-04-05T16:03:50.004Z</time></trkpt><trkpt lat="44.853656078161" lon="12.092254225815957"><ele>-3.333333333333333</ele><time>2026-04-05T16:03:51.004Z</time></trkpt><trkpt lat="44.85355199784207" lon="12.092501854678819"><ele>-3.6666666666666665</ele><time>2026-04-05T16:03:52.004Z</time></trkpt><trkpt lat="44.85342397184709" lon="12.092750986305175"><ele>-4.0</ele><time>2026-04-05T16:03:53.004Z</time></trkpt><trkpt lat="44.85328034714857" lon="12.092994791122065"><ele>-3.0</ele><time>2026-04-05T16:03:54.004Z</time></trkpt><trkpt lat="44.85311779732752" lon="12.093241950108592"><ele>-2.0</ele><time>2026-04-05T16:03:55.004Z</time></trkpt><trkpt lat="44.85294274174788" lon="12.093493821762031"><ele>-2.0</ele><time>2026-04-05T16:03:56.004Z</time></trkpt><trkpt lat="44.85276187320051" lon="12.093761678609352"><ele>-2.0</ele><time>2026-04-05T16:03:57.004Z</time></trkpt><trkpt lat="44.85257094874134" lon="12.094038616152993"><ele>-1.5</ele><time>2026-04-05T16:03:58.004Z</time></trkpt><trkpt lat="44.852380002423885" lon="12.09431167515899"><ele>-1.0</ele><time>2026-04-05T16:03:59.004Z</time></trkpt><trkpt lat="44.85219645418168" lon="12.094581336922703"><ele>-1.0</ele><time>2026-04-05T16:04:00.004Z</time></trkpt><trkpt lat="44.85201556550553" lon="12.09485192409864"><ele>-1.0</ele><time>2026-04-05T16:04:01.004Z</time></trkpt><trkpt lat="44.85183229816821" lon="12.095103429921663"><ele>0.0</ele><time>2026-04-05T16:04:02.004Z</time></trkpt><trkpt lat="44.85166193925162" lon="12.09535913653613"><ele>1.0</ele><time>2026-04-05T16:04:03.004Z</time></trkpt><trkpt lat="44.85149406398463" lon="12.095606736038395"><ele>0.0</ele><time>2026-04-05T16:04:04.004Z</time></trkpt><trkpt lat="44.85132991861405" lon="12.095843717215798"><ele>-1.0</ele><time>2026-04-05T16:04:05.004Z</time></trkpt><trkpt lat="44.85115980945582" lon="12.09607344485855"><ele>-1.0</ele><time>2026-04-05T16:04:06.004Z</time></trkpt><trkpt lat="44.850971896878384" lon="12.096280641457062"><ele>-1.0</ele><time>2026-04-05T16:04:07.004Z</time></trkpt><trkpt lat="44.85076771170319" lon="12.096474408750714"><ele>-0.5</ele><time>2026-04-05T16:04:08.004Z</time></trkpt><trkpt lat="44.850545914318886" lon="12.096647658793344"><ele>0.0</ele><time>2026-04-05T16:04:09.004Z</time></trkpt><trkpt lat="44.85031737795002" lon="12.096809237312879"><ele>0.0</ele><time>2026-04-05T16:04:10.004Z</time></trkpt><trkpt lat="44.85009678066749" lon="12.096968064901388"><ele>0.0</ele><time>2026-04-05T16:04:11.004Z</time></trkpt><trkpt lat="44.849878384137554" lon="12.097132121840923"><ele>0.0</ele><time>2026-04-05T16:04:12.004Z</time></trkpt><trkpt lat="44.84965835276726" lon="12.097300773651584"><ele>0.0</ele><time>2026-04-05T16:04:13.004Z</time></trkpt><trkpt lat="44.84942985597515" lon="12.097474651672645"><ele>-0.5</ele><time>2026-04-05T16:04:14.004Z</time></trkpt><trkpt lat="44.84920200642667" lon="12.097654550248965"><ele>-1.0</ele><time>2026-04-05T16:04:15.004Z</time></trkpt><trkpt lat="44.84897095960124" lon="12.097848496839696"><ele>-1.0</ele><time>2026-04-05T16:04:16.004Z</time></trkpt><trkpt lat="44.84874327660229" lon="12.098059428489176"><ele>-1.0</ele><time>2026-04-05T16:04:17.004Z</time></trkpt><trkpt lat="44.84851892341135" lon="12.098293965747732"><ele>-1.0</ele><time>2026-04-05T16:04:18.004Z</time></trkpt><trkpt lat="44.848302840327065" lon="12.098556871582975"><ele>-1.0</ele><time>2026-04-05T16:04:19.004Z</time></trkpt><trkpt lat="44.84810503279674" lon="12.098829734466836"><ele>-1.0</ele><time>2026-04-05T16:04:20.004Z</time></trkpt><trkpt lat="44.84792125867259" lon="12.099098126244252"><ele>-1.0</ele><time>2026-04-05T16:04:21.004Z</time></trkpt><trkpt lat="44.84775389268966" lon="12.099381168286367"><ele>-1.0</ele><time>2026-04-05T16:04:22.004Z</time></trkpt><trkpt lat="44.847600782126925" lon="12.099668422199457"><ele>-1.0</ele><time>2026-04-05T16:04:23.004Z</time></trkpt><trkpt lat="44.847466037688" lon="12.099955297428814"><ele>-1.0</ele><time>2026-04-05T16:04:24.004Z</time></trkpt><trkpt lat="44.84735842182894" lon="12.100231306312843"><ele>-1.0</ele><time>2026-04-05T16:04:25.004Z</time></trkpt><trkpt lat="44.847281424053776" lon="12.100497515728243"><ele>-1.0</ele><time>2026-04-05T16:04:26.004Z</time></trkpt><trkpt lat="44.84723813835878" lon="12.100752348684837"><ele>-1.3333333333333333</ele><time>2026-04-05T16:04:27.004Z</time></trkpt><trkpt lat="44.847222615947345" lon="12.10101018103116"><ele>-1.6666666666666665</ele><time>2026-04-05T16:04:28.004Z</time></trkpt><trkpt lat="44.84723293691295" lon="12.101285246659817"><ele>-2.0</ele><time>2026-04-05T16:04:29.004Z</time></trkpt><trkpt lat="44.84726995365617" lon="12.101574118193303"><ele>-2.0</ele><time>2026-04-05T16:04:30.004Z</time></trkpt><trkpt lat="44.8473261187978" lon="12.10186696373437"><ele>-2.0</ele><time>2026-04-05T16:04:31.004Z</time></trkpt><trkpt lat="44.847405888859555" lon="12.102158137122492"><ele>-2.0</ele><time>2026-04-05T16:04:32.004Z</time></trkpt><trkpt lat="44.84748805348932" lon="12.102454653391181"><ele>-2.0</ele><time>2026-04-05T16:04:33.004Z</time></trkpt><trkpt lat="44.8475938056027" lon="12.102754070339053"><ele>-2.0</ele><time>2026-04-05T16:04:34.004Z</time></trkpt><trkpt lat="44.847699612110965" lon="12.103055040891075"><ele>-1.5</ele><time>2026-04-05T16:04:35.004Z</time></trkpt><trkpt lat="44.847806363042444" lon="12.103347639310995"><ele>-1.0</ele><time>2026-04-05T16:04:36.004Z</time></trkpt><trkpt lat="44.84791336234397" lon="12.103633123380499"><ele>-1.0</ele><time>2026-04-05T16:04:37.004Z</time></trkpt><trkpt lat="44.84802378989969" lon="12.103914668438799"><ele>-1.0</ele><time>2026-04-05T16:04:38.004Z</time></trkpt><trkpt lat="44.84813173871744" lon="12.104197997755984"><ele>-2.0</ele><time>2026-04-05T16:04:39.004Z</time></trkpt><trkpt lat="44.848230915508275" lon="12.104488571712391"><ele>-3.0</ele><time>2026-04-05T16:04:40.004Z</time></trkpt><trkpt lat="44.84829562980564" lon="12.10480210316332"><ele>-2.5</ele><time>2026-04-05T16:04:41.004Z</time></trkpt><trkpt lat="44.84836351228394" lon="12.10511920149"><ele>-2.0</ele><time>2026-04-05T16:04:42.004Z</time></trkpt><trkpt lat="44.84842013636265" lon="12.105443916833364"><ele>-2.5</ele><time>2026-04-05T16:04:43.004Z</time></trkpt><trkpt lat="44.84845477366199" lon="12.105779941577644"><ele>-3.0</ele><time>2026-04-05T16:04:44.004Z</time></trkpt><trkpt lat="44.84846652302884" lon="12.106103502467064"><ele>-3.0</ele><time>2026-04-05T16:04:45.004Z</time></trkpt><trkpt lat="44.848464763617606" lon="12.106412280020082"><ele>-3.0</ele><time>2026-04-05T16:04:46.004Z</time></trkpt><trkpt lat="44.84845665923151" lon="12.106693384887738"><ele>-3.0</ele><time>2026-04-05T16:04:47.004Z</time></trkpt><trkpt lat="44.84843814813937" lon="12.106959162051284"><ele>-2.3333333333333335</ele><time>2026-04-05T16:04:48.004Z</time></trkpt><trkpt lat="44.84840018594667" lon="12.107205256555053"><ele>-1.6666666666666665</ele><time>2026-04-05T16:04:49.004Z</time></trkpt><trkpt lat="44.84828993196068" lon="12.107399488067216"><ele>-1.0</ele><time>2026-04-05T16:04:50.004Z</time></trkpt><trkpt lat="44.848159467336245" lon="12.107597501692991"><ele>-0.6666666666666666</ele><time>2026-04-05T16:04:51.004Z</time></trkpt><trkpt lat="44.84800524256996" lon="12.107800854245532"><ele>-0.3333333333333333</ele><time>2026-04-05T16:04:52.004Z</time></trkpt><trkpt lat="44.847835275906476" lon="12.108004068317918"><ele>0.0</ele><time>2026-04-05T16:04:53.004Z</time></trkpt><trkpt lat="44.84768349169963" lon="12.108196678847747"><ele>0.0</ele><time>2026-04-05T16:04:54.004Z</time></trkpt><trkpt lat="44.847524126569105" lon="12.108350415475986"><ele>0.0</ele><time>2026-04-05T16:04:55.004Z</time></trkpt><trkpt lat="44.847367576540506" lon="12.108484976875122"><ele>0.0</ele><time>2026-04-05T16:04:56.004Z</time></trkpt><trkpt lat="44.84720671186838" lon="12.108600657395073"><ele>0.0</ele><time>2026-04-05T16:04:57.004Z</time></trkpt><trkpt lat="44.847041896734325" lon="12.108696037083506"><ele>0.0</ele><time>2026-04-05T16:04:58.004Z</time></trkpt><trkpt lat="44.84688521148853" lon="12.108783273377954"><ele>0.0</ele><time>2026-04-05T16:04:59.004Z</time></trkpt><trkpt lat="44.84672895481466" lon="12.108844277495328"><ele>0.3333333333333333</ele><time>2026-04-05T16:05:00.004Z</time></trkpt><trkpt lat="44.846573189622305" lon="12.10889035109489"><ele>0.6666666666666666</ele><time>2026-04-05T16:05:01.004Z</time></trkpt><trkpt lat="44.84641854313198" lon="12.108921628688858"><ele>1.0</ele><time>2026-04-05T16:05:02.004Z</time></trkpt><trkpt lat="44.846262723181695" lon="12.108946058651359"><ele>1.0</ele><time>2026-04-05T16:05:03.004Z</time></trkpt><trkpt lat="44.84609749882739" lon="12.108963038928866"><ele>1.0</ele><time>2026-04-05T16:05:04.004Z</time></trkpt><trkpt lat="44.8459366737189" lon="12.108981304707893"><ele>1.0</ele><time>2026-04-05T16:05:05.004Z</time></trkpt><trkpt lat="44.84577597609039" lon="12.108984976496922"><ele>0.3333333333333333</ele><time>2026-04-05T16:05:06.004Z</time></trkpt><trkpt lat="44.84560796593987" lon="12.108969988175806"><ele>-0.3333333333333333</ele><time>2026-04-05T16:05:07.004Z</time></trkpt><trkpt lat="44.8454366732652" lon="12.108947268862066"><ele>-1.0</ele><time>2026-04-05T16:05:08.004Z</time></trkpt><trkpt lat="44.84526183606576" lon="12.108902262133682"><ele>-1.0</ele><time>2026-04-05T16:05:09.004Z</time></trkpt><trkpt lat="44.84507793581111" lon="12.108839461498697"><ele>-1.0</ele><time>2026-04-05T16:05:10.004Z</time></trkpt><trkpt lat="44.844890091961915" lon="12.108779508913976"><ele>-1.0</ele><time>2026-04-05T16:05:11.004Z</time></trkpt><trkpt lat="44.84470136357695" lon="12.108705558880498"><ele>-1.0</ele><time>2026-04-05T16:05:12.004Z</time></trkpt><trkpt lat="44.844513143864276" lon="12.108626569242436"><ele>-1.0</ele><time>2026-04-05T16:05:13.004Z</time></trkpt><trkpt lat="44.84432587311599" lon="12.108543150323673"><ele>-1.0</ele><time>2026-04-05T16:05:14.004Z</time></trkpt><trkpt lat="44.844139341068136" lon="12.10846754026562"><ele>-1.3333333333333333</ele><time>2026-04-05T16:05:15.004Z</time></trkpt><trkpt lat="44.84395242531895" lon="12.108387170194014"><ele>-1.6666666666666665</ele><time>2026-04-05T16:05:16.004Z</time></trkpt><trkpt lat="44.84377139324312" lon="12.108305835532244"><ele>-2.0</ele><time>2026-04-05T16:05:17.004Z</time></trkpt><trkpt lat="44.84359560995027" lon="12.108222173766093"><ele>-1.3333333333333333</ele><time>2026-04-05T16:05:18.004Z</time></trkpt><trkpt lat="44.84342121816877" lon="12.10813544314903"><ele>-0.6666666666666666</ele><time>2026-04-05T16:05:19.005Z</time></trkpt><trkpt lat="44.84323664775866" lon="12.108054246313335"><ele>0.0</ele><time>2026-04-05T16:05:20.004Z</time></trkpt><trkpt lat="44.84305068472635" lon="12.107982093998945"><ele>0.0</ele><time>2026-04-05T16:05:21.004Z</time></trkpt><trkpt lat="44.84286715355609" lon="12.107920277559378"><ele>0.0</ele><time>2026-04-05T16:05:22.004Z</time></trkpt><trkpt lat="44.842684287782276" lon="12.107866973433632"><ele>0.0</ele><time>2026-04-05T16:05:23.004Z</time></trkpt><trkpt lat="44.84250329247001" lon="12.107825027705726"><ele>0.3333333333333333</ele><time>2026-04-05T16:05:24.004Z</time></trkpt><trkpt lat="44.842324330776634" lon="12.10779084653069"><ele>0.6666666666666666</ele><time>2026-04-05T16:05:25.004Z</time></trkpt><trkpt lat="44.84215118187654" lon="12.107749671136597"><ele>1.0</ele><time>2026-04-05T16:05:26.004Z</time></trkpt><trkpt lat="44.84199236825657" lon="12.107712471786119"><ele>1.0</ele><time>2026-04-05T16:05:27.004Z</time></trkpt><trkpt lat="44.84183636436282" lon="12.107684095128782"><ele>1.0</ele><time>2026-04-05T16:05:28.004Z</time></trkpt><trkpt lat="44.84168774168979" lon="12.10765759253882"><ele>1.0</ele><time>2026-04-05T16:05:29.004Z</time></trkpt><trkpt lat="44.84154651709057" lon="12.107636298327483"><ele>1.0</ele><time>2026-04-05T16:05:30.004Z</time></trkpt><trkpt lat="44.841419144745885" lon="12.107616520762427"><ele>0.8</ele><time>2026-04-05T16:05:31.004Z</time></trkpt><trkpt lat="44.8413014396575" lon="12.107605640114086"><ele>0.6000000000000001</ele><time>2026-04-05T16:05:32.004Z</time></trkpt><trkpt lat="44.84119186162219" lon="12.107591919713315"><ele>0.4</ele><time>2026-04-05T16:05:33.004Z</time></trkpt><trkpt lat="44.84108380736003" lon="12.107587883834961"><ele>0.2</ele><time>2026-04-05T16:05:34.004Z</time></trkpt><trkpt lat="44.84097779467269" lon="12.107584149546426"><ele>0.0</ele><time>2026-04-05T16:05:35.004Z</time></trkpt><trkpt lat="44.84087328266649" lon="12.10758316006011"><ele>0.0</ele><time>2026-04-05T16:05:36.004Z</time></trkpt><trkpt lat="44.840781713632516" lon="12.107580209916472"><ele>0.0</ele><time>2026-04-05T16:05:37.004Z</time></trkpt><trkpt lat="44.840698804797604" lon="12.107576580652538"><ele>0.0</ele><time>2026-04-05T16:05:38.004Z</time></trkpt><trkpt lat="44.84061619725845" lon="12.107577104155618"><ele>0.0</ele><time>2026-04-05T16:05:39.004Z</time></trkpt><trkpt lat="44.84053892218134" lon="12.107578753883821"><ele>0.0</ele><time>2026-04-05T16:05:40.004Z</time></trkpt><trkpt lat="44.84046394996178" lon="12.107574585205308"><ele>0.0</ele><time>2026-04-05T16:05:41.004Z</time></trkpt><trkpt lat="44.840395425500056" lon="12.10757715488642"><ele>0.0</ele><time>2026-04-05T16:05:42.004Z</time></trkpt><trkpt lat="44.840294248732484" lon="12.10758619359762"><ele>0.0</ele><time>2026-04-05T16:05:44.004Z</time></trkpt><trkpt lat="44.840325160091375" lon="12.107712048877417"><ele>0.0</ele><time>2026-04-05T16:05:45.004Z</time></trkpt><trkpt lat="44.84028985634996" lon="12.107841349913038"><ele>0.0</ele><time>2026-04-05T16:05:46.004Z</time></trkpt><trkpt lat="44.84024270816924" lon="12.107970041216618"><ele>0.0</ele><time>2026-04-05T16:05:47.004Z</time></trkpt><trkpt lat="44.84021818063944" lon="12.108138066164079"><ele>0.0</ele><time>2026-04-05T16:05:48.004Z</time></trkpt><trkpt lat="44.84019384732224" lon="12.108309513970164"><ele>0.0</ele><time>2026-04-05T16:05:49.004Z</time></trkpt><trkpt lat="44.84017590729851" lon="12.108499473419538"><ele>0.0</ele><time>2026-04-05T16:05:50.004Z</time></trkpt><trkpt lat="44.84016568299056" lon="12.108696130536128"><ele>0.0</ele><time>2026-04-05T16:05:51.004Z</time></trkpt><trkpt lat="44.84016057529838" lon="12.108902651536344"><ele>-0.25</ele><time>2026-04-05T16:05:52.004Z</time></trkpt><trkpt lat="44.84014936833127" lon="12.109112102040195"><ele>-0.5</ele><time>2026-04-05T16:05:53.004Z</time></trkpt><trkpt lat="44.84014105583118" lon="12.109316279810082"><ele>-0.75</ele><time>2026-04-05T16:05:54.004Z</time></trkpt><trkpt lat="44.84012768648957" lon="12.10951734332591"><ele>-1.0</ele><time>2026-04-05T16:05:55.004Z</time></trkpt><trkpt lat="44.84010611121434" lon="12.109706881780912"><ele>-1.0</ele><time>2026-04-05T16:05:56.004Z</time></trkpt><trkpt lat="44.84006440928971" lon="12.109882810414467"><ele>-1.0</ele><time>2026-04-05T16:05:57.004Z</time></trkpt><trkpt lat="44.83999532561476" lon="12.110022700035676"><ele>-1.0</ele><time>2026-04-05T16:05:58.004Z</time></trkpt><trkpt lat="44.83990340319278" lon="12.110131890374808"><ele>-1.0</ele><time>2026-04-05T16:05:59.004Z</time></trkpt><trkpt lat="44.83978334459798" lon="12.110213131216367"><ele>-1.5</ele><time>2026-04-05T16:06:00.004Z</time></trkpt><trkpt lat="44.83964772992636" lon="12.11025701979703"><ele>-2.0</ele><time>2026-04-05T16:06:01.004Z</time></trkpt><trkpt lat="44.8394999145874" lon="12.110288421946352"><ele>-2.5</ele><time>2026-04-05T16:06:02.004Z</time></trkpt><trkpt lat="44.8393418688455" lon="12.110329973991863"><ele>-3.0</ele><time>2026-04-05T16:06:03.004Z</time></trkpt><trkpt lat="44.83918093102677" lon="12.110371064817869"><ele>-3.0</ele><time>2026-04-05T16:06:04.004Z</time></trkpt><trkpt lat="44.83902856911667" lon="12.110413389372649"><ele>-3.0</ele><time>2026-04-05T16:06:05.004Z</time></trkpt><trkpt lat="44.83887453612469" lon="12.110451414617641"><ele>-3.0</ele><time>2026-04-05T16:06:06.004Z</time></trkpt><trkpt lat="44.83870976948156" lon="12.110501804831246"><ele>-3.0</ele><time>2026-04-05T16:06:07.004Z</time></trkpt><trkpt lat="44.838540102845286" lon="12.110537491496952"><ele>-3.0</ele><time>2026-04-05T16:06:08.004Z</time></trkpt><trkpt lat="44.838365282054575" lon="12.110546352522713"><ele>-3.0</ele><time>2026-04-05T16:06:09.004Z</time></trkpt><trkpt lat="44.838190967626545" lon="12.110529142453752"><ele>-2.3333333333333335</ele><time>2026-04-05T16:06:10.004Z</time></trkpt><trkpt lat="44.83802084405476" lon="12.110509081572816"><ele>-1.6666666666666665</ele><time>2026-04-05T16:06:11.004Z</time></trkpt><trkpt lat="44.837847756339094" lon="12.11047925030931"><ele>-1.0</ele><time>2026-04-05T16:06:12.004Z</time></trkpt><trkpt lat="44.83767796632232" lon="12.110457528653514"><ele>-0.6666666666666666</ele><time>2026-04-05T16:06:13.004Z</time></trkpt><trkpt lat="44.83751543596864" lon="12.11042384122675"><ele>-0.3333333333333333</ele><time>2026-04-05T16:06:14.004Z</time></trkpt><trkpt lat="44.83736944945762" lon="12.110393861077535"><ele>0.0</ele><time>2026-04-05T16:06:15.004Z</time></trkpt><trkpt lat="44.83722618321158" lon="12.110390141457463"><ele>0.0</ele><time>2026-04-05T16:06:16.004Z</time></trkpt><trkpt lat="44.837083977140004" lon="12.110406874020793"><ele>0.0</ele><time>2026-04-05T16:06:17.004Z</time></trkpt><trkpt lat="44.83694079710287" lon="12.11041755652349"><ele>0.0</ele><time>2026-04-05T16:06:18.004Z</time></trkpt><trkpt lat="44.83679880221972" lon="12.110414724076415"><ele>0.0</ele><time>2026-04-05T16:06:19.004Z</time></trkpt><trkpt lat="44.836670256218426" lon="12.110425811502383"><ele>-0.25</ele><time>2026-04-05T16:06:20.004Z</time></trkpt><trkpt lat="44.83654614402122" lon="12.110453884264729"><ele>-0.5</ele><time>2026-04-05T16:06:21.004Z</time></trkpt><trkpt lat="44.836415197808506" lon="12.110462562791877"><ele>-0.75</ele><time>2026-04-05T16:06:22.004Z</time></trkpt><trkpt lat="44.83628282283156" lon="12.110508942623948"><ele>-1.0</ele><time>2026-04-05T16:06:23.004Z</time></trkpt><trkpt lat="44.83616377428806" lon="12.110566211502425"><ele>-1.0</ele><time>2026-04-05T16:06:24.004Z</time></trkpt><trkpt lat="44.836037814192636" lon="12.11062618044691"><ele>-1.0</ele><time>2026-04-05T16:06:25.004Z</time></trkpt><trkpt lat="44.83590158069112" lon="12.110659724190107"><ele>-1.0</ele><time>2026-04-05T16:06:26.004Z</time></trkpt><trkpt lat="44.835754168495285" lon="12.110732162255408"><ele>-1.0</ele><time>2026-04-05T16:06:27.004Z</time></trkpt><trkpt lat="44.83561293888729" lon="12.11079320459244"><ele>-1.0</ele><time>2026-04-05T16:06:28.004Z</time></trkpt><trkpt lat="44.83548714920514" lon="12.110844833478897"><ele>-1.0</ele><time>2026-04-05T16:06:29.004Z</time></trkpt><trkpt lat="44.83535694977332" lon="12.110879096195175"><ele>-1.0</ele><time>2026-04-05T16:06:30.004Z</time></trkpt><trkpt lat="44.83523593085489" lon="12.110925119273972"><ele>-1.0</ele><time>2026-04-05T16:06:31.004Z</time></trkpt><trkpt lat="44.83511523191935" lon="12.110961343617092"><ele>-1.0</ele><time>2026-04-05T16:06:32.004Z</time></trkpt><trkpt lat="44.83500585531031" lon="12.11099949064335"><ele>-1.0</ele><time>2026-04-05T16:06:33.004Z</time></trkpt><trkpt lat="44.8349094311836" lon="12.11102875906884"><ele>-1.0</ele><time>2026-04-05T16:06:34.004Z</time></trkpt><trkpt lat="44.83480361732795" lon="12.111042779189653"><ele>-1.0</ele><time>2026-04-05T16:06:35.004Z</time></trkpt><trkpt lat="44.83468839758061" lon="12.111045772733084"><ele>-1.0</ele><time>2026-04-05T16:06:36.004Z</time></trkpt><trkpt lat="44.834574053348355" lon="12.111039010172549"><ele>-1.0</ele><time>2026-04-05T16:06:37.004Z</time></trkpt><trkpt lat="44.83445693313747" lon="12.111021414027972"><ele>-1.0</ele><time>2026-04-05T16:06:38.004Z</time></trkpt><trkpt lat="44.83434079762985" lon="12.110985272378171"><ele>-1.0</ele><time>2026-04-05T16:06:39.004Z</time></trkpt><trkpt lat="44.834228523631054" lon="12.11095085906301"><ele>-1.0</ele><time>2026-04-05T16:06:40.004Z</time></trkpt><trkpt lat="44.834117205168404" lon="12.110923148317816"><ele>-1.2000000000000002</ele><time>2026-04-05T16:06:41.004Z</time></trkpt><trkpt lat="44.834004789421364" lon="12.11089388984145"><ele>-1.4000000000000001</ele><time>2026-04-05T16:06:42.004Z</time></trkpt><trkpt lat="44.833898077973124" lon="12.110857447075324"><ele>-1.6</ele><time>2026-04-05T16:06:43.004Z</time></trkpt><trkpt lat="44.83379522304445" lon="12.110819470326819"><ele>-1.8</ele><time>2026-04-05T16:06:44.004Z</time></trkpt><trkpt lat="44.83369178412907" lon="12.11077535751737"><ele>-2.0</ele><time>2026-04-05T16:06:45.004Z</time></trkpt><trkpt lat="44.83359417472242" lon="12.110735177249765"><ele>-2.0</ele><time>2026-04-05T16:06:46.004Z</time></trkpt><trkpt lat="44.83349696572481" lon="12.110706013026808"><ele>-2.0</ele><time>2026-04-05T16:06:47.004Z</time></trkpt><trkpt lat="44.83339506214864" lon="12.110671595346632"><ele>-2.0</ele><time>2026-04-05T16:06:48.004Z</time></trkpt><trkpt lat="44.83330114490126" lon="12.110614509050894"><ele>-2.0</ele><time>2026-04-05T16:06:49.004Z</time></trkpt><trkpt lat="44.83321671740929" lon="12.110564181668876"><ele>-2.0</ele><time>2026-04-05T16:06:50.004Z</time></trkpt><trkpt lat="44.83313046469356" lon="12.110548231158926"><ele>-2.0</ele><time>2026-04-05T16:06:51.004Z</time></trkpt><trkpt lat="44.83303203279837" lon="12.110595224171535"><ele>-2.0</ele><time>2026-04-05T16:06:52.004Z</time></trkpt><trkpt lat="44.83294810330999" lon="12.110685107728964"><ele>-2.0</ele><time>2026-04-05T16:06:53.004Z</time></trkpt><trkpt lat="44.83288734735199" lon="12.110792257053943"><ele>-2.0</ele><time>2026-04-05T16:06:54.004Z</time></trkpt><trkpt lat="44.832860793438" lon="12.110904126541152"><ele>-2.0</ele><time>2026-04-05T16:06:55.004Z</time></trkpt><trkpt lat="44.83284913380845" lon="12.111006262613328"><ele>-2.0</ele><time>2026-04-05T16:06:56.004Z</time></trkpt><trkpt lat="44.83279510600466" lon="12.111139386475942"><ele>-2.0</ele><time>2026-04-05T16:06:58.004Z</time></trkpt><trkpt lat="44.83277166391159" lon="12.111237531070218"><ele>-2.0</ele><time>2026-04-05T16:07:00.004Z</time></trkpt><trkpt lat="44.83276855704659" lon="12.11136294048312"><ele>-2.0</ele><time>2026-04-05T16:07:03.004Z</time></trkpt><trkpt lat="44.83270847331778" lon="12.111497680098772"><ele>-2.0</ele><time>2026-04-05T16:07:05.004Z</time></trkpt><trkpt lat="44.83263439385901" lon="12.11156313612868"><ele>-2.25</ele><time>2026-04-05T16:07:06.004Z</time></trkpt><trkpt lat="44.83258604464167" lon="12.111312346580538"><ele>-2.5</ele><time>2026-04-05T16:07:07.004Z</time></trkpt><trkpt lat="44.832508925196265" lon="12.111205668639695"><ele>-2.75</ele><time>2026-04-05T16:07:08.004Z</time></trkpt><trkpt lat="44.832431844274346" lon="12.111105300718624"><ele>-3.0</ele><time>2026-04-05T16:07:09.004Z</time></trkpt><trkpt lat="44.832362437142265" lon="12.111019741114045"><ele>-3.0</ele><time>2026-04-05T16:07:10.004Z</time></trkpt><trkpt lat="44.83230051159653" lon="12.110941751846447"><ele>-3.0</ele><time>2026-04-05T16:07:11.004Z</time></trkpt><trkpt lat="44.83223617154562" lon="12.110861423894177"><ele>-3.0</ele><time>2026-04-05T16:07:12.004Z</time></trkpt><trkpt lat="44.832165817550454" lon="12.110774078237183"><ele>-3.0</ele><time>2026-04-05T16:07:13.004Z</time></trkpt><trkpt lat="44.83209268572491" lon="12.110690345480641"><ele>-3.0</ele><time>2026-04-05T16:07:14.004Z</time></trkpt><trkpt lat="44.832028074371514" lon="12.11060159422873"><ele>-3.0</ele><time>2026-04-05T16:07:15.004Z</time></trkpt><trkpt lat="44.83196520806784" lon="12.110518269765485"><ele>-2.8333333333333335</ele><time>2026-04-05T16:07:16.004Z</time></trkpt><trkpt lat="44.83190563995282" lon="12.110433514164102"><ele>-2.6666666666666665</ele><time>2026-04-05T16:07:17.004Z</time></trkpt><trkpt lat="44.83184365596703" lon="12.110363663309784"><ele>-2.5</ele><time>2026-04-05T16:07:18.004Z</time></trkpt><trkpt lat="44.83179540980455" lon="12.110275035691625"><ele>-2.333333333333333</ele><time>2026-04-05T16:07:19.005Z</time></trkpt><trkpt lat="44.83172152986623" lon="12.110177336480959"><ele>-2.1666666666666665</ele><time>2026-04-05T16:07:21.004Z</time></trkpt><trkpt lat="44.83166106471384" lon="12.110118827772832"><ele>-2.0</ele><time>2026-04-05T16:07:23.004Z</time></trkpt><trkpt lat="44.83161151161674" lon="12.110049193084164"><ele>-1.8333333333333333</ele><time>2026-04-05T16:07:54.004Z</time></trkpt><trkpt lat="44.83154958475536" lon="12.109961913782652"><ele>-1.6666666666666665</ele><time>2026-04-05T16:07:56.004Z</time></trkpt><trkpt lat="44.83150218508255" lon="12.109881437927417"><ele>-1.5</ele><time>2026-04-05T16:07:57.004Z</time></trkpt><trkpt lat="44.83146599507053" lon="12.109796879896926"><ele>-1.3333333333333333</ele><time>2026-04-05T16:07:58.004Z</time></trkpt><trkpt lat="44.83141088537033" lon="12.10970464635647"><ele>-1.1666666666666665</ele><time>2026-04-05T16:07:59.004Z</time></trkpt><trkpt lat="44.831352187874494" lon="12.10960597329238"><ele>-1.0</ele><time>2026-04-05T16:08:00.004Z</time></trkpt><trkpt lat="44.83129212162972" lon="12.109504704520289"><ele>-1.0</ele><time>2026-04-05T16:08:01.004Z</time></trkpt><trkpt lat="44.83123640223797" lon="12.109403722151852"><ele>-1.0</ele><time>2026-04-05T16:08:02.004Z</time></trkpt><trkpt lat="44.83117716864253" lon="12.10929635013496"><ele>-1.0</ele><time>2026-04-05T16:08:03.004Z</time></trkpt><trkpt lat="44.83111732702661" lon="12.109180882092387"><ele>-1.0</ele><time>2026-04-05T16:08:04.004Z</time></trkpt><trkpt lat="44.83105773658817" lon="12.109063108889123"><ele>-1.0</ele><time>2026-04-05T16:08:05.004Z</time></trkpt><trkpt lat="44.83100039407468" lon="12.108948018020946"><ele>-0.6000000000000001</ele><time>2026-04-05T16:08:06.004Z</time></trkpt><trkpt lat="44.83093875277904" lon="12.108822908472558"><ele>-0.20000000000000007</ele><time>2026-04-05T16:08:07.004Z</time></trkpt><trkpt lat="44.83087720977843" lon="12.108697379954261"><ele>0.20000000000000007</ele><time>2026-04-05T16:08:08.004Z</time></trkpt><trkpt lat="44.83082232792001" lon="12.108585599355482"><ele>0.6000000000000001</ele><time>2026-04-05T16:08:09.004Z</time></trkpt><trkpt lat="44.830767335566094" lon="12.108474756638085"><ele>1.0</ele><time>2026-04-05T16:08:10.004Z</time></trkpt><trkpt lat="44.83071675559471" lon="12.108374036963335"><ele>0.9999999999999999</ele><time>2026-04-05T16:08:11.004Z</time></trkpt><trkpt lat="44.83067454890114" lon="12.108289990982014"><ele>1.0</ele><time>2026-04-05T16:08:12.004Z</time></trkpt><trkpt lat="44.83063361956527" lon="12.108206289890328"><ele>1.0</ele><time>2026-04-05T16:08:13.004Z</time></trkpt><trkpt lat="44.83059856439131" lon="12.108128420857293"><ele>1.0</ele><time>2026-04-05T16:08:14.004Z</time></trkpt><trkpt lat="44.83053011325095" lon="12.108013004034504"><ele>0.9999999999999999</ele><time>2026-04-05T16:08:16.004Z</time></trkpt><trkpt lat="44.830493262369444" lon="12.107877095583458"><ele>1.0</ele><time>2026-04-05T16:08:18.004Z</time></trkpt><trkpt lat="44.830451913086776" lon="12.107781825010893"><ele>1.0</ele><time>2026-04-05T16:08:20.004Z</time></trkpt><trkpt lat="44.83040055211472" lon="12.107696978654541"><ele>1.0</ele><time>2026-04-05T16:08:22.004Z</time></trkpt><trkpt lat="44.83037151786264" lon="12.10761268759592"><ele>1.0</ele><time>2026-04-05T16:08:24.004Z</time></trkpt><trkpt lat="44.830323416296665" lon="12.107534553227428"><ele>1.0</ele><time>2026-04-05T16:08:27.004Z</time></trkpt><trkpt lat="44.830255884675964" lon="12.107423567869324"><ele>1.0</ele><time>2026-04-05T16:08:36.004Z</time></trkpt><trkpt lat="44.83016306141421" lon="12.107299276071878"><ele>0.9999999999999999</ele><time>2026-04-05T16:08:38.004Z</time></trkpt><trkpt lat="44.83009507564578" lon="12.107258063509907"><ele>1.0</ele><time>2026-04-05T16:08:39.004Z</time></trkpt><trkpt lat="44.830032552729804" lon="12.107183696644844"><ele>1.0</ele><time>2026-04-05T16:08:40.004Z</time></trkpt><trkpt lat="44.829972309756826" lon="12.107104672756956"><ele>1.0</ele><time>2026-04-05T16:08:41.004Z</time></trkpt><trkpt lat="44.829910297404865" lon="12.107041485933799"><ele>0.9999999999999999</ele><time>2026-04-05T16:08:42.004Z</time></trkpt><trkpt lat="44.82985287654441" lon="12.106978129439563"><ele>1.0</ele><time>2026-04-05T16:08:43.004Z</time></trkpt><trkpt lat="44.829789764295604" lon="12.106908954445249"><ele>1.0</ele><time>2026-04-05T16:08:44.004Z</time></trkpt><trkpt lat="44.829714355051706" lon="12.106825535253822"><ele>1.0</ele><time>2026-04-05T16:08:45.004Z</time></trkpt><trkpt lat="44.82963239250592" lon="12.106733541894295"><ele>1.0</ele><time>2026-04-05T16:08:46.004Z</time></trkpt><trkpt lat="44.829550588977526" lon="12.106619755873911"><ele>1.0</ele><time>2026-04-05T16:08:47.004Z</time></trkpt><trkpt lat="44.829459751198435" lon="12.106517940806665"><ele>1.0</ele><time>2026-04-05T16:08:48.004Z</time></trkpt><trkpt lat="44.82936087889416" lon="12.106407120288623"><ele>1.0</ele><time>2026-04-05T16:08:49.004Z</time></trkpt><trkpt lat="44.82924949158749" lon="12.106311128188587"><ele>1.0</ele><time>2026-04-05T16:08:50.004Z</time></trkpt><trkpt lat="44.82915756543798" lon="12.106188236092724"><ele>1.0</ele><time>2026-04-05T16:08:51.004Z</time></trkpt><trkpt lat="44.82906731328148" lon="12.106092655404517"><ele>1.0</ele><time>2026-04-05T16:08:52.004Z</time></trkpt><trkpt lat="44.82898816530295" lon="12.106008332500084"><ele>1.0</ele><time>2026-04-05T16:08:53.004Z</time></trkpt><trkpt lat="44.82891267970349" lon="12.1059241024451"><ele>1.0</ele><time>2026-04-05T16:08:54.004Z</time></trkpt><trkpt lat="44.82885149768482" lon="12.105864687786148"><ele>1.0</ele><time>2026-04-05T16:08:55.004Z</time></trkpt><trkpt lat="44.8287803607459" lon="12.105755527300232"><ele>1.0</ele><time>2026-04-05T16:08:57.004Z</time></trkpt><trkpt lat="44.828846964051564" lon="12.105583355308566"><ele>1.0</ele><time>2026-04-05T16:08:59.004Z</time></trkpt><trkpt lat="44.82891043522191" lon="12.105462880216548"><ele>1.0</ele><time>2026-04-05T16:09:00.004Z</time></trkpt><trkpt lat="44.82898248651471" lon="12.105344917985182"><ele>1.0</ele><time>2026-04-05T16:09:01.004Z</time></trkpt><trkpt lat="44.829043159196" lon="12.105185248715184"><ele>1.0</ele><time>2026-04-05T16:09:02.004Z</time></trkpt><trkpt lat="44.82910243707417" lon="12.105012679012942"><ele>1.0</ele><time>2026-04-05T16:09:03.004Z</time></trkpt><trkpt lat="44.829149486003786" lon="12.104847644899667"><ele>1.0</ele><time>2026-04-05T16:09:04.004Z</time></trkpt><trkpt lat="44.82919652008184" lon="12.104673131001366"><ele>1.0</ele><time>2026-04-05T16:09:05.004Z</time></trkpt><trkpt lat="44.829243387165754" lon="12.104497574495078"><ele>1.0</ele><time>2026-04-05T16:09:06.004Z</time></trkpt><trkpt lat="44.82929525117715" lon="12.104331503196901"><ele>1.0</ele><time>2026-04-05T16:09:07.004Z</time></trkpt><trkpt lat="44.82933957430213" lon="12.104163294635718"><ele>1.0</ele><time>2026-04-05T16:09:08.004Z</time></trkpt><trkpt lat="44.82938787647276" lon="12.103979985381308"><ele>1.0</ele><time>2026-04-05T16:09:09.004Z</time></trkpt><trkpt lat="44.82942789390089" lon="12.103796797124284"><ele>1.0</ele><time>2026-04-05T16:09:10.004Z</time></trkpt><trkpt lat="44.82947667954719" lon="12.10360304046604"><ele>1.0</ele><time>2026-04-05T16:09:11.004Z</time></trkpt><trkpt lat="44.82953295393374" lon="12.103398008381406"><ele>1.0</ele><time>2026-04-05T16:09:12.004Z</time></trkpt><trkpt lat="44.82959695826136" lon="12.103197605359254"><ele>1.0</ele><time>2026-04-05T16:09:13.004Z</time></trkpt><trkpt lat="44.82966083045927" lon="12.102980599992422"><ele>1.0</ele><time>2026-04-05T16:09:14.004Z</time></trkpt><trkpt lat="44.82972207135509" lon="12.102759318275286"><ele>1.0</ele><time>2026-04-05T16:09:15.004Z</time></trkpt><trkpt lat="44.82977897467417" lon="12.10254624372526"><ele>1.0</ele><time>2026-04-05T16:09:16.004Z</time></trkpt><trkpt lat="44.82983887968769" lon="12.102320437713686"><ele>1.0</ele><time>2026-04-05T16:09:17.004Z</time></trkpt><trkpt lat="44.82990267625259" lon="12.102098841684716"><ele>1.0</ele><time>2026-04-05T16:09:18.004Z</time></trkpt><trkpt lat="44.82996829204512" lon="12.101868613773219"><ele>1.0</ele><time>2026-04-05T16:09:19.004Z</time></trkpt><trkpt lat="44.830035739634475" lon="12.101642225037715"><ele>1.0</ele><time>2026-04-05T16:09:20.004Z</time></trkpt><trkpt lat="44.83009836715474" lon="12.101408512000567"><ele>1.0</ele><time>2026-04-05T16:09:21.004Z</time></trkpt><trkpt lat="44.8301634662392" lon="12.101174566489806"><ele>1.0</ele><time>2026-04-05T16:09:22.004Z</time></trkpt><trkpt lat="44.83022541288577" lon="12.100943100887603"><ele>1.0</ele><time>2026-04-05T16:09:23.004Z</time></trkpt><trkpt lat="44.83028914355103" lon="12.100706227012799"><ele>1.0</ele><time>2026-04-05T16:09:24.004Z</time></trkpt><trkpt lat="44.83035562132171" lon="12.100476947654792"><ele>1.0</ele><time>2026-04-05T16:09:25.004Z</time></trkpt><trkpt lat="44.83042295054061" lon="12.100239638321394"><ele>1.0</ele><time>2026-04-05T16:09:26.004Z</time></trkpt><trkpt lat="44.83049351631535" lon="12.099994693264541"><ele>0.3333333333333333</ele><time>2026-04-05T16:09:27.004Z</time></trkpt><trkpt lat="44.83056521511826" lon="12.099750568586607"><ele>-0.3333333333333333</ele><time>2026-04-05T16:09:28.004Z</time></trkpt><trkpt lat="44.830640457644016" lon="12.099502187826289"><ele>-1.0</ele><time>2026-04-05T16:09:29.004Z</time></trkpt><trkpt lat="44.830710498700974" lon="12.099251879004651"><ele>-0.6666666666666666</ele><time>2026-04-05T16:09:30.004Z</time></trkpt><trkpt lat="44.83077693721216" lon="12.099011239885009"><ele>-0.3333333333333333</ele><time>2026-04-05T16:09:31.004Z</time></trkpt><trkpt lat="44.830842731619114" lon="12.098774013683347"><ele>0.0</ele><time>2026-04-05T16:09:32.004Z</time></trkpt><trkpt lat="44.83090877782014" lon="12.098544424111392"><ele>0.0</ele><time>2026-04-05T16:09:33.004Z</time></trkpt><trkpt lat="44.83096637222435" lon="12.098312033567742"><ele>0.0</ele><time>2026-04-05T16:09:34.005Z</time></trkpt><trkpt lat="44.831018936211876" lon="12.098094257374191"><ele>0.0</ele><time>2026-04-05T16:09:35.004Z</time></trkpt><trkpt lat="44.83105015949804" lon="12.097896511509319"><ele>0.0</ele><time>2026-04-05T16:09:36.004Z</time></trkpt><trkpt lat="44.831056366372835" lon="12.097713288818788"><ele>0.0</ele><time>2026-04-05T16:09:37.005Z</time></trkpt><trkpt lat="44.83102860933668" lon="12.097539344881975"><ele>0.0</ele><time>2026-04-05T16:09:38.004Z</time></trkpt><trkpt lat="44.830998975436124" lon="12.097370183372748"><ele>0.0</ele><time>2026-04-05T16:09:39.004Z</time></trkpt><trkpt lat="44.831006857219265" lon="12.097193501407109"><ele>0.0</ele><time>2026-04-05T16:09:40.004Z</time></trkpt><trkpt lat="44.83105814891762" lon="12.097024078370245"><ele>0.0</ele><time>2026-04-05T16:09:41.004Z</time></trkpt><trkpt lat="44.83110973182757" lon="12.096871226250315"><ele>0.0</ele><time>2026-04-05T16:09:42.004Z</time></trkpt><trkpt lat="44.831152917312416" lon="12.096728047145046"><ele>0.0</ele><time>2026-04-05T16:09:43.004Z</time></trkpt><trkpt lat="44.831173178727866" lon="12.096579064998489"><ele>-0.2</ele><time>2026-04-05T16:09:44.004Z</time></trkpt><trkpt lat="44.83120155468269" lon="12.0964414946516"><ele>-0.4</ele><time>2026-04-05T16:09:45.004Z</time></trkpt><trkpt lat="44.83122342492681" lon="12.096314156606555"><ele>-0.6000000000000001</ele><time>2026-04-05T16:09:46.004Z</time></trkpt><trkpt lat="44.831227499790465" lon="12.09617782623577"><ele>-0.8</ele><time>2026-04-05T16:09:47.004Z</time></trkpt><trkpt lat="44.831255528406565" lon="12.096064269719545"><ele>-1.0</ele><time>2026-04-05T16:09:48.004Z</time></trkpt><trkpt lat="44.831287560630514" lon="12.095934037146527"><ele>-1.0</ele><time>2026-04-05T16:09:49.004Z</time></trkpt><trkpt lat="44.83133185428732" lon="12.095784154891659"><ele>-1.0</ele><time>2026-04-05T16:09:50.004Z</time></trkpt><trkpt lat="44.831358317655734" lon="12.095627438492825"><ele>-1.0</ele><time>2026-04-05T16:09:51.004Z</time></trkpt><trkpt lat="44.83138409875337" lon="12.09545487852769"><ele>-1.0</ele><time>2026-04-05T16:09:52.004Z</time></trkpt><trkpt lat="44.831409753191735" lon="12.09527956744217"><ele>-0.75</ele><time>2026-04-05T16:09:53.004Z</time></trkpt><trkpt lat="44.83144308786585" lon="12.09509397665505"><ele>-0.5</ele><time>2026-04-05T16:09:54.004Z</time></trkpt><trkpt lat="44.8314737114198" lon="12.094912492918777"><ele>-0.25</ele><time>2026-04-05T16:09:55.004Z</time></trkpt><trkpt lat="44.83150978456974" lon="12.094731686412137"><ele>0.0</ele><time>2026-04-05T16:09:56.004Z</time></trkpt><trkpt lat="44.83154878725607" lon="12.094553873414188"><ele>-0.5</ele><time>2026-04-05T16:09:57.004Z</time></trkpt><trkpt lat="44.83159119029534" lon="12.094379891434498"><ele>-1.0</ele><time>2026-04-05T16:09:58.004Z</time></trkpt><trkpt lat="44.83163188585453" lon="12.094210807264941"><ele>-1.5</ele><time>2026-04-05T16:09:59.004Z</time></trkpt><trkpt lat="44.83167350521146" lon="12.094042431817535"><ele>-2.0</ele><time>2026-04-05T16:10:00.004Z</time></trkpt><trkpt lat="44.83171219920839" lon="12.093872580695638"><ele>-2.0</ele><time>2026-04-05T16:10:01.004Z</time></trkpt><trkpt lat="44.83174786304956" lon="12.09369616699288"><ele>-2.0</ele><time>2026-04-05T16:10:02.004Z</time></trkpt><trkpt lat="44.83177806648948" lon="12.09352364102411"><ele>-2.0</ele><time>2026-04-05T16:10:03.004Z</time></trkpt><trkpt lat="44.83180724373502" lon="12.093348149923832"><ele>-2.0</ele><time>2026-04-05T16:10:04.004Z</time></trkpt><trkpt lat="44.83183231469471" lon="12.093152023972396"><ele>-2.0</ele><time>2026-04-05T16:10:05.004Z</time></trkpt><trkpt lat="44.83187061895024" lon="12.092938524533974"><ele>-2.0</ele><time>2026-04-05T16:10:06.004Z</time></trkpt><trkpt lat="44.83191377460302" lon="12.092713092508527"><ele>-2.0</ele><time>2026-04-05T16:10:07.004Z</time></trkpt><trkpt lat="44.83194341721179" lon="12.09250409977515"><ele>-1.75</ele><time>2026-04-05T16:10:08.004Z</time></trkpt><trkpt lat="44.83197232633121" lon="12.092300278464307"><ele>-1.5</ele><time>2026-04-05T16:10:09.004Z</time></trkpt><trkpt lat="44.83200105443624" lon="12.092096518090932"><ele>-1.25</ele><time>2026-04-05T16:10:10.004Z</time></trkpt><trkpt lat="44.832027935173265" lon="12.09190049924621"><ele>-1.0</ele><time>2026-04-05T16:10:11.004Z</time></trkpt><trkpt lat="44.8320554772444" lon="12.091699657834123"><ele>-1.0</ele><time>2026-04-05T16:10:12.004Z</time></trkpt><trkpt lat="44.83208346730945" lon="12.091495549588949"><ele>-1.0</ele><time>2026-04-05T16:10:13.004Z</time></trkpt><trkpt lat="44.83211246004335" lon="12.091288132057723"><ele>-1.0</ele><time>2026-04-05T16:10:14.004Z</time></trkpt><trkpt lat="44.832139630768935" lon="12.091096566570743"><ele>-1.0</ele><time>2026-04-05T16:10:15.004Z</time></trkpt><trkpt lat="44.83216600799412" lon="12.09092056457338"><ele>-1.0</ele><time>2026-04-05T16:10:16.004Z</time></trkpt><trkpt lat="44.8321944959222" lon="12.090735260614714"><ele>-1.0</ele><time>2026-04-05T16:10:17.004Z</time></trkpt><trkpt lat="44.832225760394806" lon="12.09053853002118"><ele>-1.0</ele><time>2026-04-05T16:10:18.004Z</time></trkpt><trkpt lat="44.832259107910545" lon="12.0903399159763"><ele>-1.0</ele><time>2026-04-05T16:10:19.004Z</time></trkpt><trkpt lat="44.83229283185377" lon="12.090140784406533"><ele>-1.0</ele><time>2026-04-05T16:10:20.004Z</time></trkpt><trkpt lat="44.83232928111309" lon="12.08993575080565"><ele>-1.0</ele><time>2026-04-05T16:10:21.004Z</time></trkpt><trkpt lat="44.832365162437135" lon="12.089733366550165"><ele>-1.0</ele><time>2026-04-05T16:10:22.004Z</time></trkpt><trkpt lat="44.832401495381454" lon="12.089531506779807"><ele>-1.0</ele><time>2026-04-05T16:10:23.004Z</time></trkpt><trkpt lat="44.83243968462112" lon="12.089330723906052"><ele>-1.0</ele><time>2026-04-05T16:10:24.004Z</time></trkpt><trkpt lat="44.83248142152239" lon="12.089133473223832"><ele>-1.0</ele><time>2026-04-05T16:10:25.004Z</time></trkpt><trkpt lat="44.83252514705535" lon="12.088941603537135"><ele>-1.0</ele><time>2026-04-05T16:10:26.004Z</time></trkpt><trkpt lat="44.83257030916615" lon="12.088749544055196"><ele>-1.0</ele><time>2026-04-05T16:10:27.004Z</time></trkpt><trkpt lat="44.83261374583976" lon="12.088553684291517"><ele>-0.75</ele><time>2026-04-05T16:10:28.004Z</time></trkpt><trkpt lat="44.83265622544369" lon="12.088360571867417"><ele>-0.5</ele><time>2026-04-05T16:10:29.004Z</time></trkpt><trkpt lat="44.83269797895026" lon="12.088170760287149"><ele>-0.25</ele><time>2026-04-05T16:10:30.004Z</time></trkpt><trkpt lat="44.83273863589117" lon="12.087982732017913"><ele>0.0</ele><time>2026-04-05T16:10:31.004Z</time></trkpt><trkpt lat="44.83277677786697" lon="12.087800234654797"><ele>-0.5</ele><time>2026-04-05T16:10:32.004Z</time></trkpt><trkpt lat="44.832813940792256" lon="12.087615794944686"><ele>-1.0</ele><time>2026-04-05T16:10:33.004Z</time></trkpt><trkpt lat="44.83283583373102" lon="12.087430203259977"><ele>-1.5</ele><time>2026-04-05T16:10:34.004Z</time></trkpt><trkpt lat="44.832882311563594" lon="12.087255769338057"><ele>-2.0</ele><time>2026-04-05T16:10:35.004Z</time></trkpt><trkpt lat="44.83291905746865" lon="12.087073891004668"><ele>-2.0</ele><time>2026-04-05T16:10:36.004Z</time></trkpt><trkpt lat="44.83294917889134" lon="12.086877378697164"><ele>-2.0</ele><time>2026-04-05T16:10:37.004Z</time></trkpt><trkpt lat="44.832973251692266" lon="12.086688061002912"><ele>-2.0</ele><time>2026-04-05T16:10:38.004Z</time></trkpt><trkpt lat="44.83299461055843" lon="12.086492317625137"><ele>-2.0</ele><time>2026-04-05T16:10:39.004Z</time></trkpt><trkpt lat="44.83301536319427" lon="12.08629068333493"><ele>-2.0</ele><time>2026-04-05T16:10:40.004Z</time></trkpt><trkpt lat="44.83303583189167" lon="12.08608687747291"><ele>-2.0</ele><time>2026-04-05T16:10:41.004Z</time></trkpt><trkpt lat="44.83305411784297" lon="12.08588666631991"><ele>-2.0</ele><time>2026-04-05T16:10:42.004Z</time></trkpt><trkpt lat="44.833073329621314" lon="12.085689685088814"><ele>-2.0</ele><time>2026-04-05T16:10:43.004Z</time></trkpt><trkpt lat="44.83309343094512" lon="12.085494042654126"><ele>-1.75</ele><time>2026-04-05T16:10:44.004Z</time></trkpt><trkpt lat="44.83311372046113" lon="12.085293616000053"><ele>-1.5</ele><time>2026-04-05T16:10:45.004Z</time></trkpt><trkpt lat="44.833138979804964" lon="12.085096979365671"><ele>-1.25</ele><time>2026-04-05T16:10:46.004Z</time></trkpt><trkpt lat="44.833165428896415" lon="12.08490252603355"><ele>-1.0</ele><time>2026-04-05T16:10:47.004Z</time></trkpt><trkpt lat="44.8331879764153" lon="12.084708211984509"><ele>-1.0</ele><time>2026-04-05T16:10:48.004Z</time></trkpt><trkpt lat="44.833211637913415" lon="12.084512831968869"><ele>-1.0</ele><time>2026-04-05T16:10:49.004Z</time></trkpt><trkpt lat="44.833233453353195" lon="12.084317859490389"><ele>-1.0</ele><time>2026-04-05T16:10:50.004Z</time></trkpt><trkpt lat="44.8332517087058" lon="12.084128940505167"><ele>-1.0</ele><time>2026-04-05T16:10:51.004Z</time></trkpt><trkpt lat="44.83327426280245" lon="12.083942026694922"><ele>-1.25</ele><time>2026-04-05T16:10:52.004Z</time></trkpt><trkpt lat="44.83329561908027" lon="12.083747365498226"><ele>-1.5</ele><time>2026-04-05T16:10:53.004Z</time></trkpt><trkpt lat="44.83331694853488" lon="12.083552792714132"><ele>-1.75</ele><time>2026-04-05T16:10:54.004Z</time></trkpt><trkpt lat="44.83333857372546" lon="12.083359445885087"><ele>-2.0</ele><time>2026-04-05T16:10:55.004Z</time></trkpt><trkpt lat="44.833360134986606" lon="12.08317511949418"><ele>-2.25</ele><time>2026-04-05T16:10:56.004Z</time></trkpt><trkpt lat="44.83338016880448" lon="12.082993386003668"><ele>-2.5</ele><time>2026-04-05T16:10:57.004Z</time></trkpt><trkpt lat="44.83340199412567" lon="12.08281672311666"><ele>-2.75</ele><time>2026-04-05T16:10:58.004Z</time></trkpt><trkpt lat="44.83342251751353" lon="12.082629995865796"><ele>-3.0</ele><time>2026-04-05T16:10:59.004Z</time></trkpt><trkpt lat="44.83344294952985" lon="12.08243704737565"><ele>-2.75</ele><time>2026-04-05T16:11:00.004Z</time></trkpt><trkpt lat="44.83346433834987" lon="12.082247728546772"><ele>-2.5</ele><time>2026-04-05T16:11:01.004Z</time></trkpt><trkpt lat="44.833487527969105" lon="12.082056337575517"><ele>-2.25</ele><time>2026-04-05T16:11:02.004Z</time></trkpt><trkpt lat="44.833511135985106" lon="12.081867418793195"><ele>-2.0</ele><time>2026-04-05T16:11:03.004Z</time></trkpt><trkpt lat="44.833532888372595" lon="12.08167622911303"><ele>-1.75</ele><time>2026-04-05T16:11:04.004Z</time></trkpt><trkpt lat="44.833550671616344" lon="12.081482327206729"><ele>-1.5</ele><time>2026-04-05T16:11:05.004Z</time></trkpt><trkpt lat="44.83357181268061" lon="12.081284249394912"><ele>-1.25</ele><time>2026-04-05T16:11:06.004Z</time></trkpt><trkpt lat="44.83358899244043" lon="12.08108313658268"><ele>-1.0</ele><time>2026-04-05T16:11:07.004Z</time></trkpt><trkpt lat="44.83360899778046" lon="12.080877377254842"><ele>-1.0</ele><time>2026-04-05T16:11:08.004Z</time></trkpt><trkpt lat="44.83363389229666" lon="12.080671674469357"><ele>-1.0</ele><time>2026-04-05T16:11:09.004Z</time></trkpt><trkpt lat="44.833655632348716" lon="12.080468582314241"><ele>-1.0</ele><time>2026-04-05T16:11:10.004Z</time></trkpt><trkpt lat="44.83367766788592" lon="12.080268424704768"><ele>-1.0</ele><time>2026-04-05T16:11:11.004Z</time></trkpt><trkpt lat="44.83369399588686" lon="12.080060866884418"><ele>-0.75</ele><time>2026-04-05T16:11:12.004Z</time></trkpt><trkpt lat="44.833713141860024" lon="12.079852238313187"><ele>-0.5</ele><time>2026-04-05T16:11:13.004Z</time></trkpt><trkpt lat="44.833750775475195" lon="12.07965512232305"><ele>-0.25</ele><time>2026-04-05T16:11:14.004Z</time></trkpt><trkpt lat="44.833771612241385" lon="12.079457765003129"><ele>0.0</ele><time>2026-04-05T16:11:15.004Z</time></trkpt><trkpt lat="44.83377815675621" lon="12.079262312761589"><ele>0.0</ele><time>2026-04-05T16:11:16.004Z</time></trkpt><trkpt lat="44.83381233679249" lon="12.079072038758168"><ele>0.0</ele><time>2026-04-05T16:11:17.004Z</time></trkpt><trkpt lat="44.83383229264384" lon="12.07888302511923"><ele>0.0</ele><time>2026-04-05T16:11:18.004Z</time></trkpt><trkpt lat="44.833851501175126" lon="12.07870108977679"><ele>0.0</ele><time>2026-04-05T16:11:19.004Z</time></trkpt><trkpt lat="44.833870342156374" lon="12.078522635732513"><ele>0.0</ele><time>2026-04-05T16:11:20.004Z</time></trkpt><trkpt lat="44.83389045721795" lon="12.078332114106685"><ele>0.0</ele><time>2026-04-05T16:11:21.004Z</time></trkpt><trkpt lat="44.833908044652716" lon="12.078139133858736"><ele>0.0</ele><time>2026-04-05T16:11:22.004Z</time></trkpt><trkpt lat="44.83392785791115" lon="12.077936389848864"><ele>0.0</ele><time>2026-04-05T16:11:23.004Z</time></trkpt><trkpt lat="44.833947111763" lon="12.077733705599602"><ele>-0.25</ele><time>2026-04-05T16:11:24.004Z</time></trkpt><trkpt lat="44.83396534159048" lon="12.077529605800374"><ele>-0.5</ele><time>2026-04-05T16:11:25.004Z</time></trkpt><trkpt lat="44.83399127646849" lon="12.077330359556472"><ele>-0.75</ele><time>2026-04-05T16:11:26.004Z</time></trkpt><trkpt lat="44.83401515117134" lon="12.077131786307786"><ele>-1.0</ele><time>2026-04-05T16:11:27.004Z</time></trkpt><trkpt lat="44.83403581206753" lon="12.0769346602532"><ele>-1.25</ele><time>2026-04-05T16:11:28.004Z</time></trkpt><trkpt lat="44.83405536538357" lon="12.076738965251764"><ele>-1.5</ele><time>2026-04-05T16:11:29.004Z</time></trkpt><trkpt lat="44.83407280416411" lon="12.076536563253047"><ele>-1.75</ele><time>2026-04-05T16:11:30.004Z</time></trkpt><trkpt lat="44.83409475372448" lon="12.076340964187729"><ele>-2.0</ele><time>2026-04-05T16:11:31.004Z</time></trkpt><trkpt lat="44.834112324611404" lon="12.076153889970282"><ele>-2.0</ele><time>2026-04-05T16:11:32.005Z</time></trkpt><trkpt lat="44.83412695157756" lon="12.075968893518288"><ele>-2.0</ele><time>2026-04-05T16:11:33.005Z</time></trkpt><trkpt lat="44.83414492137492" lon="12.075785232177006"><ele>-2.0</ele><time>2026-04-05T16:11:34.004Z</time></trkpt><trkpt lat="44.834172255108264" lon="12.075607143396963"><ele>-2.0</ele><time>2026-04-05T16:11:35.004Z</time></trkpt><trkpt lat="44.834188062689215" lon="12.075432422297373"><ele>-1.8</ele><time>2026-04-05T16:11:36.004Z</time></trkpt><trkpt lat="44.83420297377176" lon="12.075267610183538"><ele>-1.6</ele><time>2026-04-05T16:11:37.004Z</time></trkpt><trkpt lat="44.8342177554894" lon="12.075104227994101"><ele>-1.4000000000000001</ele><time>2026-04-05T16:11:38.004Z</time></trkpt><trkpt lat="44.83423036454119" lon="12.074963010748316"><ele>-1.2000000000000002</ele><time>2026-04-05T16:11:39.004Z</time></trkpt><trkpt lat="44.834243268278335" lon="12.074818069079434"><ele>-1.0</ele><time>2026-04-05T16:11:40.004Z</time></trkpt><trkpt lat="44.834256193112076" lon="12.074672890525623"><ele>-1.0</ele><time>2026-04-05T16:11:41.004Z</time></trkpt><trkpt lat="44.8342684413467" lon="12.07453319821237"><ele>-1.0</ele><time>2026-04-05T16:11:42.004Z</time></trkpt><trkpt lat="44.83417656368014" lon="12.074358288582872"><ele>-1.0</ele><time>2026-04-05T16:11:43.004Z</time></trkpt><trkpt lat="44.83419734283004" lon="12.074199260700306"><ele>-1.0</ele><time>2026-04-05T16:11:44.004Z</time></trkpt><trkpt lat="44.834219523010034" lon="12.074044389536109"><ele>-0.75</ele><time>2026-04-05T16:11:45.004Z</time></trkpt><trkpt lat="44.83424085235069" lon="12.073882586434165"><ele>-0.5</ele><time>2026-04-05T16:11:46.004Z</time></trkpt><trkpt lat="44.83433262479392" lon="12.073723723043589"><ele>-0.25</ele><time>2026-04-05T16:11:47.004Z</time></trkpt><trkpt lat="44.834346467922074" lon="12.073538984031822"><ele>0.0</ele><time>2026-04-05T16:11:48.004Z</time></trkpt><trkpt lat="44.834359595847346" lon="12.073361655136198"><ele>-0.25</ele><time>2026-04-05T16:11:49.004Z</time></trkpt><trkpt lat="44.834358538723535" lon="12.073201147409923"><ele>-0.5</ele><time>2026-04-05T16:11:50.004Z</time></trkpt><trkpt lat="44.83439635321225" lon="12.073021285777322"><ele>-0.75</ele><time>2026-04-05T16:11:51.004Z</time></trkpt><trkpt lat="44.834428294069895" lon="12.072834612855605"><ele>-1.0</ele><time>2026-04-05T16:11:52.004Z</time></trkpt><trkpt lat="44.83442706200787" lon="12.072634626670316"><ele>-1.0</ele><time>2026-04-05T16:11:53.004Z</time></trkpt><trkpt lat="44.8344400031769" lon="12.072434172760374"><ele>-1.0</ele><time>2026-04-05T16:11:54.004Z</time></trkpt><trkpt lat="44.83445144014663" lon="12.07223658740458"><ele>-1.0</ele><time>2026-04-05T16:11:55.004Z</time></trkpt><trkpt lat="44.83446058948846" lon="12.072045398195083"><ele>-1.0</ele><time>2026-04-05T16:11:56.004Z</time></trkpt><trkpt lat="44.834468957726386" lon="12.071854071924601"><ele>-1.0</ele><time>2026-04-05T16:11:57.004Z</time></trkpt><trkpt lat="44.834475494105504" lon="12.071673350272293"><ele>-1.0</ele><time>2026-04-05T16:11:58.004Z</time></trkpt><trkpt lat="44.83447908842987" lon="12.071510335356493"><ele>-1.0</ele><time>2026-04-05T16:11:59.004Z</time></trkpt><trkpt lat="44.83448055010304" lon="12.071352674284261"><ele>-1.0</ele><time>2026-04-05T16:12:00.004Z</time></trkpt><trkpt lat="44.8344785155497" lon="12.07122193528395"><ele>-1.0</ele><time>2026-04-05T16:12:01.004Z</time></trkpt><trkpt lat="44.8344744575964" lon="12.071088369382961"><ele>-0.8333333333333333</ele><time>2026-04-05T16:12:02.004Z</time></trkpt><trkpt lat="44.83446733123833" lon="12.070960566621991"><ele>-0.6666666666666666</ele><time>2026-04-05T16:12:03.004Z</time></trkpt><trkpt lat="44.83445564447216" lon="12.070849928316605"><ele>-0.5</ele><time>2026-04-05T16:12:04.004Z</time></trkpt><trkpt lat="44.83443937321059" lon="12.070756729078067"><ele>-0.3333333333333333</ele><time>2026-04-05T16:12:05.004Z</time></trkpt><trkpt lat="44.834421217743596" lon="12.070659761723947"><ele>-0.16666666666666666</ele><time>2026-04-05T16:12:06.004Z</time></trkpt><trkpt lat="44.834419594537906" lon="12.070526842262298"><ele>0.0</ele><time>2026-04-05T16:12:08.004Z</time></trkpt><trkpt lat="44.83437301231518" lon="12.070439810298147"><ele>-0.4</ele><time>2026-04-05T16:12:11.004Z</time></trkpt><trkpt lat="44.83425640874782" lon="12.070426635938345"><ele>-0.8</ele><time>2026-04-05T16:12:13.004Z</time></trkpt><trkpt lat="44.834186186283574" lon="12.070433326534427"><ele>-1.2000000000000002</ele><time>2026-04-05T16:12:14.004Z</time></trkpt><trkpt lat="44.83408297930119" lon="12.070442789107567"><ele>-1.6</ele><time>2026-04-05T16:12:15.004Z</time></trkpt><trkpt lat="44.8339827329674" lon="12.070454074256608"><ele>-2.0</ele><time>2026-04-05T16:12:16.004Z</time></trkpt><trkpt lat="44.8339030474833" lon="12.070463044783477"><ele>-2.0</ele><time>2026-04-05T16:12:17.004Z</time></trkpt><trkpt lat="44.83381361752308" lon="12.070473749274408"><ele>-2.0</ele><time>2026-04-05T16:12:18.004Z</time></trkpt><trkpt lat="44.833718590404935" lon="12.07048729195307"><ele>-2.0</ele><time>2026-04-05T16:12:19.004Z</time></trkpt><trkpt lat="44.833611427452695" lon="12.070502845581492"><ele>-2.0</ele><time>2026-04-05T16:12:20.004Z</time></trkpt><trkpt lat="44.83350007465704" lon="12.070519420149154"><ele>-2.0</ele><time>2026-04-05T16:12:21.004Z</time></trkpt><trkpt lat="44.83338710632747" lon="12.07053812503934"><ele>-2.8</ele><time>2026-04-05T16:12:22.004Z</time></trkpt><trkpt lat="44.83327762166377" lon="12.070576136835363"><ele>-3.6</ele><time>2026-04-05T16:12:23.004Z</time></trkpt><trkpt lat="44.83317277173589" lon="12.070592930376366"><ele>-4.3999999999999995</ele><time>2026-04-05T16:12:24.004Z</time></trkpt><trkpt lat="44.83307040206785" lon="12.070611499887523"><ele>-5.2</ele><time>2026-04-05T16:12:25.004Z</time></trkpt><trkpt lat="44.83296487182513" lon="12.070619549822771"><ele>-6.0</ele><time>2026-04-05T16:12:26.004Z</time></trkpt><trkpt lat="44.8328573411719" lon="12.070605917004924"><ele>-6.0</ele><time>2026-04-05T16:12:27.004Z</time></trkpt><trkpt lat="44.83277745594963" lon="12.070618031825974"><ele>-6.0</ele><time>2026-04-05T16:12:28.004Z</time></trkpt><trkpt lat="44.832710269918664" lon="12.070629632554645"><ele>-6.0</ele><time>2026-04-05T16:12:29.004Z</time></trkpt><trkpt lat="44.83263922671861" lon="12.070641899285086"><ele>-6.0</ele><time>2026-04-05T16:12:30.004Z</time></trkpt><trkpt lat="44.83256701627536" lon="12.070654512008657"><ele>-6.0</ele><time>2026-04-05T16:12:31.004Z</time></trkpt><trkpt lat="44.832477497434596" lon="12.070669261401488"><ele>-6.0</ele><time>2026-04-05T16:12:32.004Z</time></trkpt><trkpt lat="44.83248482543624" lon="12.070336303464188"><ele>-5.5</ele><time>2026-04-05T16:12:33.004Z</time></trkpt><trkpt lat="44.83245955080901" lon="12.070252064288876"><ele>-5.0</ele><time>2026-04-05T16:12:34.004Z</time></trkpt><trkpt lat="44.83200307272335" lon="12.070782789025614"><ele>-5.0</ele><time>2026-04-05T16:12:36.004Z</time></trkpt><trkpt lat="44.831899543188136" lon="12.070804873134652"><ele>-5.0</ele><time>2026-04-05T16:12:37.004Z</time></trkpt><trkpt lat="44.83179765192585" lon="12.07082772047473"><ele>-5.0</ele><time>2026-04-05T16:12:38.004Z</time></trkpt><trkpt lat="44.83169108983676" lon="12.070846193235422"><ele>-5.0</ele><time>2026-04-05T16:12:39.004Z</time></trkpt><trkpt lat="44.831578127473406" lon="12.070870707693171"><ele>-5.0</ele><time>2026-04-05T16:12:40.004Z</time></trkpt><trkpt lat="44.831465060514994" lon="12.070895918357685"><ele>-4.75</ele><time>2026-04-05T16:12:41.004Z</time></trkpt><trkpt lat="44.83135232226295" lon="12.070896401363363"><ele>-4.5</ele><time>2026-04-05T16:12:42.004Z</time></trkpt><trkpt lat="44.831234771837416" lon="12.070919014047135"><ele>-4.25</ele><time>2026-04-05T16:12:43.004Z</time></trkpt><trkpt lat="44.83111138790494" lon="12.070942306986616"><ele>-4.0</ele><time>2026-04-05T16:12:44.004Z</time></trkpt><trkpt lat="44.83098565707301" lon="12.070966467646633"><ele>-4.25</ele><time>2026-04-05T16:12:45.004Z</time></trkpt><trkpt lat="44.830861895111" lon="12.070992569396475"><ele>-4.5</ele><time>2026-04-05T16:12:46.004Z</time></trkpt><trkpt lat="44.8307353800735" lon="12.071017153893692"><ele>-4.75</ele><time>2026-04-05T16:12:47.004Z</time></trkpt><trkpt lat="44.830613902639804" lon="12.071039317945061"><ele>-5.0</ele><time>2026-04-05T16:12:48.004Z</time></trkpt><trkpt lat="44.83048541990944" lon="12.071065341977897"><ele>-5.0</ele><time>2026-04-05T16:12:49.004Z</time></trkpt><trkpt lat="44.83035300875512" lon="12.071091503538241"><ele>-5.0</ele><time>2026-04-05T16:12:50.004Z</time></trkpt><trkpt lat="44.830215443295295" lon="12.071118368688968"><ele>-5.0</ele><time>2026-04-05T16:12:51.004Z</time></trkpt><trkpt lat="44.83007034409717" lon="12.071144977857085"><ele>-5.0</ele><time>2026-04-05T16:12:52.004Z</time></trkpt><trkpt lat="44.82992192860185" lon="12.071173324476582"><ele>-5.25</ele><time>2026-04-05T16:12:53.004Z</time></trkpt><trkpt lat="44.82977389529531" lon="12.071199608360477"><ele>-5.5</ele><time>2026-04-05T16:12:54.004Z</time></trkpt><trkpt lat="44.82962766159631" lon="12.071226611851937"><ele>-5.75</ele><time>2026-04-05T16:12:55.004Z</time></trkpt><trkpt lat="44.82947686078753" lon="12.071253197384388"><ele>-6.0</ele><time>2026-04-05T16:12:56.004Z</time></trkpt><trkpt lat="44.82932405912792" lon="12.0712815081983"><ele>-6.0</ele><time>2026-04-05T16:12:57.004Z</time></trkpt><trkpt lat="44.82917087996038" lon="12.071308791280195"><ele>-6.0</ele><time>2026-04-05T16:12:58.004Z</time></trkpt><trkpt lat="44.829013164809865" lon="12.071340453711318"><ele>-6.0</ele><time>2026-04-05T16:12:59.004Z</time></trkpt><trkpt lat="44.82886282998505" lon="12.071368694476051"><ele>-6.0</ele><time>2026-04-05T16:13:00.004Z</time></trkpt><trkpt lat="44.82871193512876" lon="12.071397795719577"><ele>-6.0</ele><time>2026-04-05T16:13:01.004Z</time></trkpt><trkpt lat="44.828561712592155" lon="12.07142079574346"><ele>-6.0</ele><time>2026-04-05T16:13:02.004Z</time></trkpt><trkpt lat="44.82841130156806" lon="12.071443807666547"><ele>-5.666666666666667</ele><time>2026-04-05T16:13:03.004Z</time></trkpt><trkpt lat="44.82825552818955" lon="12.07147158154616"><ele>-5.333333333333334</ele><time>2026-04-05T16:13:04.004Z</time></trkpt><trkpt lat="44.82809941541515" lon="12.071497532981137"><ele>-5.0</ele><time>2026-04-05T16:13:05.004Z</time></trkpt><trkpt lat="44.827946524252454" lon="12.071521772310074"><ele>-5.0</ele><time>2026-04-05T16:13:06.004Z</time></trkpt><trkpt lat="44.827792434782886" lon="12.071548221695869"><ele>-5.0</ele><time>2026-04-05T16:13:07.004Z</time></trkpt><trkpt lat="44.82764221074607" lon="12.071575950955374"><ele>-5.0</ele><time>2026-04-05T16:13:08.004Z</time></trkpt><trkpt lat="44.82749074114463" lon="12.071603741926918"><ele>-5.666666666666667</ele><time>2026-04-05T16:13:09.004Z</time></trkpt><trkpt lat="44.827339380610994" lon="12.07162753823254"><ele>-6.333333333333334</ele><time>2026-04-05T16:13:10.004Z</time></trkpt><trkpt lat="44.82718604569478" lon="12.071653736114952"><ele>-7.0</ele><time>2026-04-05T16:13:11.004Z</time></trkpt><trkpt lat="44.82702129170694" lon="12.071682097099957"><ele>-7.0</ele><time>2026-04-05T16:13:12.004Z</time></trkpt><trkpt lat="44.82685627552089" lon="12.071710442024877"><ele>-7.0</ele><time>2026-04-05T16:13:13.004Z</time></trkpt><trkpt lat="44.82669133191362" lon="12.07173738562959"><ele>-7.0</ele><time>2026-04-05T16:13:14.004Z</time></trkpt><trkpt lat="44.82652542658885" lon="12.071766362139469"><ele>-6.0</ele><time>2026-04-05T16:13:15.004Z</time></trkpt><trkpt lat="44.82635919834601" lon="12.071794883116008"><ele>-5.0</ele><time>2026-04-05T16:13:16.004Z</time></trkpt><trkpt lat="44.82618986437753" lon="12.071825980403995"><ele>-4.0</ele><time>2026-04-05T16:13:17.004Z</time></trkpt><trkpt lat="44.82602623369976" lon="12.07185397212107"><ele>-4.333333333333333</ele><time>2026-04-05T16:13:18.004Z</time></trkpt><trkpt lat="44.825860398521456" lon="12.071882028933594"><ele>-4.666666666666667</ele><time>2026-04-05T16:13:19.004Z</time></trkpt><trkpt lat="44.82570019998992" lon="12.071906307575523"><ele>-5.0</ele><time>2026-04-05T16:13:20.004Z</time></trkpt><trkpt lat="44.82553828328887" lon="12.071932539807921"><ele>-5.0</ele><time>2026-04-05T16:13:21.004Z</time></trkpt><trkpt lat="44.82538156167649" lon="12.071961283137394"><ele>-5.0</ele><time>2026-04-05T16:13:22.004Z</time></trkpt><trkpt lat="44.82522417318517" lon="12.071988516298047"><ele>-5.0</ele><time>2026-04-05T16:13:23.004Z</time></trkpt><trkpt lat="44.82507266522931" lon="12.072015760532691"><ele>-5.75</ele><time>2026-04-05T16:13:24.004Z</time></trkpt><trkpt lat="44.824923785317665" lon="12.07204356754251"><ele>-6.5</ele><time>2026-04-05T16:13:25.004Z</time></trkpt><trkpt lat="44.82477548472569" lon="12.072070198848508"><ele>-7.25</ele><time>2026-04-05T16:13:26.004Z</time></trkpt><trkpt lat="44.824631100201074" lon="12.07209356566994"><ele>-8.0</ele><time>2026-04-05T16:13:27.004Z</time></trkpt><trkpt lat="44.82449105916424" lon="12.072115762140529"><ele>-8.0</ele><time>2026-04-05T16:13:28.004Z</time></trkpt><trkpt lat="44.82435920663581" lon="12.072138258885154"><ele>-8.0</ele><time>2026-04-05T16:13:29.004Z</time></trkpt><trkpt lat="44.82423701431092" lon="12.072160799174346"><ele>-8.0</ele><time>2026-04-05T16:13:30.004Z</time></trkpt><trkpt lat="44.82412834952347" lon="12.072183463529786"><ele>-8.0</ele><time>2026-04-05T16:13:31.004Z</time></trkpt><trkpt lat="44.82402786708904" lon="12.07220456534452"><ele>-7.666666666666666</ele><time>2026-04-05T16:13:32.004Z</time></trkpt><trkpt lat="44.82393630507456" lon="12.07222269099402"><ele>-7.333333333333333</ele><time>2026-04-05T16:13:33.004Z</time></trkpt><trkpt lat="44.823851608707464" lon="12.072235604626728"><ele>-7.0</ele><time>2026-04-05T16:13:34.004Z</time></trkpt><trkpt lat="44.82376498310704" lon="12.072248502111838"><ele>-6.666666666666666</ele><time>2026-04-05T16:13:35.004Z</time></trkpt><trkpt lat="44.823679724002425" lon="12.072262679399447"><ele>-6.333333333333333</ele><time>2026-04-05T16:13:36.004Z</time></trkpt><trkpt lat="44.823602992703826" lon="12.072278757475882"><ele>-6.0</ele><time>2026-04-05T16:13:37.004Z</time></trkpt><trkpt lat="44.823537654151515" lon="12.072294254050997"><ele>-5.5</ele><time>2026-04-05T16:13:38.004Z</time></trkpt><trkpt lat="44.82341593124823" lon="12.07229999759133"><ele>-5.0</ele><time>2026-04-05T16:13:40.004Z</time></trkpt><trkpt lat="44.823324386747615" lon="12.0723160117618"><ele>-4.5</ele><time>2026-04-05T16:13:42.004Z</time></trkpt><trkpt lat="44.8232934049182" lon="12.07218669554436"><ele>-4.0</ele><time>2026-04-05T16:13:45.004Z</time></trkpt><trkpt lat="44.82326413317658" lon="12.071989579520713"><ele>-3.9999999999999996</ele><time>2026-04-05T16:13:47.004Z</time></trkpt><trkpt lat="44.823230773562024" lon="12.07185807753301"><ele>-4.0</ele><time>2026-04-05T16:13:48.004Z</time></trkpt><trkpt lat="44.823213640426864" lon="12.071724845066173"><ele>-4.0</ele><time>2026-04-05T16:13:49.004Z</time></trkpt><trkpt lat="44.82318889419819" lon="12.071596161438277"><ele>-4.0</ele><time>2026-04-05T16:13:50.004Z</time></trkpt><trkpt lat="44.82317154253148" lon="12.071483273264375"><ele>-3.9999999999999996</ele><time>2026-04-05T16:13:51.004Z</time></trkpt><trkpt lat="44.823156354642016" lon="12.071377385250656"><ele>-4.0</ele><time>2026-04-05T16:13:52.004Z</time></trkpt><trkpt lat="44.823142699026675" lon="12.071278516132319"><ele>-3.9999999999999996</ele><time>2026-04-05T16:13:53.004Z</time></trkpt><trkpt lat="44.823130551031376" lon="12.071183340644906"><ele>-4.0</ele><time>2026-04-05T16:13:54.004Z</time></trkpt><trkpt lat="44.82311628481875" lon="12.07108103490232"><ele>-4.0</ele><time>2026-04-05T16:13:55.004Z</time></trkpt><trkpt lat="44.823100898655774" lon="12.070969593378825"><ele>-4.0</ele><time>2026-04-05T16:13:56.004Z</time></trkpt><trkpt lat="44.823084999192204" lon="12.07085005953784"><ele>-3.9999999999999996</ele><time>2026-04-05T16:13:57.004Z</time></trkpt><trkpt lat="44.82306611310151" lon="12.070716398239231"><ele>-4.0</ele><time>2026-04-05T16:13:58.004Z</time></trkpt><trkpt lat="44.82304790999699" lon="12.070581794550524"><ele>-4.2</ele><time>2026-04-05T16:13:59.004Z</time></trkpt><trkpt lat="44.82302146662922" lon="12.07043943983271"><ele>-4.4</ele><time>2026-04-05T16:14:00.004Z</time></trkpt><trkpt lat="44.822998412893554" lon="12.070295673267193"><ele>-4.6</ele><time>2026-04-05T16:14:01.004Z</time></trkpt><trkpt lat="44.8229766417577" lon="12.07014069233641"><ele>-4.8</ele><time>2026-04-05T16:14:02.004Z</time></trkpt><trkpt lat="44.822948747185706" lon="12.069982039900934"><ele>-5.0</ele><time>2026-04-05T16:14:03.004Z</time></trkpt><trkpt lat="44.82292178567475" lon="12.069817788096993"><ele>-5.0</ele><time>2026-04-05T16:14:04.004Z</time></trkpt><trkpt lat="44.82289573518712" lon="12.069655555304596"><ele>-5.0</ele><time>2026-04-05T16:14:05.004Z</time></trkpt><trkpt lat="44.8228725240507" lon="12.069489454817937"><ele>-5.0</ele><time>2026-04-05T16:14:06.004Z</time></trkpt><trkpt lat="44.82284762414554" lon="12.069321601260194"><ele>-5.0</ele><time>2026-04-05T16:14:07.004Z</time></trkpt><trkpt lat="44.82282020431707" lon="12.069152264224368"><ele>-5.25</ele><time>2026-04-05T16:14:08.004Z</time></trkpt><trkpt lat="44.82279188090073" lon="12.068979325976972"><ele>-5.5</ele><time>2026-04-05T16:14:09.004Z</time></trkpt><trkpt lat="44.82276252412679" lon="12.068806824015969"><ele>-5.75</ele><time>2026-04-05T16:14:10.004Z</time></trkpt><trkpt lat="44.8227362446872" lon="12.068626559797798"><ele>-6.0</ele><time>2026-04-05T16:14:11.004Z</time></trkpt><trkpt lat="44.822706007721514" lon="12.068436320006908"><ele>-6.0</ele><time>2026-04-05T16:14:12.004Z</time></trkpt><trkpt lat="44.82267388713839" lon="12.068248604840392"><ele>-6.0</ele><time>2026-04-05T16:14:13.004Z</time></trkpt><trkpt lat="44.822648171380386" lon="12.06806433805417"><ele>-6.0</ele><time>2026-04-05T16:14:14.004Z</time></trkpt><trkpt lat="44.82262098015703" lon="12.067876932158468"><ele>-6.0</ele><time>2026-04-05T16:14:15.004Z</time></trkpt><trkpt lat="44.82259117837382" lon="12.067694928760199"><ele>-6.0</ele><time>2026-04-05T16:14:16.004Z</time></trkpt><trkpt lat="44.82256215196367" lon="12.067518855837948"><ele>-6.0</ele><time>2026-04-05T16:14:17.004Z</time></trkpt><trkpt lat="44.822535170493765" lon="12.067343084802598"><ele>-6.0</ele><time>2026-04-05T16:14:18.004Z</time></trkpt><trkpt lat="44.82251265406554" lon="12.067160901334804"><ele>-6.0</ele><time>2026-04-05T16:14:19.004Z</time></trkpt><trkpt lat="44.82248588736171" lon="12.066969523299218"><ele>-5.75</ele><time>2026-04-05T16:14:20.004Z</time></trkpt><trkpt lat="44.82245625639138" lon="12.066769177655647"><ele>-5.5</ele><time>2026-04-05T16:14:21.004Z</time></trkpt><trkpt lat="44.822427850289074" lon="12.066576511930059"><ele>-5.25</ele><time>2026-04-05T16:14:22.004Z</time></trkpt><trkpt lat="44.82239701652151" lon="12.066386971368356"><ele>-5.0</ele><time>2026-04-05T16:14:23.004Z</time></trkpt><trkpt lat="44.82237051841648" lon="12.066203182977267"><ele>-5.25</ele><time>2026-04-05T16:14:24.004Z</time></trkpt><trkpt lat="44.82234238736012" lon="12.066009454225256"><ele>-5.5</ele><time>2026-04-05T16:14:25.004Z</time></trkpt><trkpt lat="44.82231402899248" lon="12.065810988460035"><ele>-5.75</ele><time>2026-04-05T16:14:26.004Z</time></trkpt><trkpt lat="44.82228131769964" lon="12.065608238851478"><ele>-6.0</ele><time>2026-04-05T16:14:27.004Z</time></trkpt><trkpt lat="44.82224850011243" lon="12.065404348496351"><ele>-6.0</ele><time>2026-04-05T16:14:28.004Z</time></trkpt><trkpt lat="44.82221436246947" lon="12.065198869748118"><ele>-6.0</ele><time>2026-04-05T16:14:29.004Z</time></trkpt><trkpt lat="44.82218370022956" lon="12.064990708054411"><ele>-6.0</ele><time>2026-04-05T16:14:30.004Z</time></trkpt><trkpt lat="44.82215093628801" lon="12.064782027213383"><ele>-6.0</ele><time>2026-04-05T16:14:31.004Z</time></trkpt><trkpt lat="44.82211715086013" lon="12.064574061252022"><ele>-6.0</ele><time>2026-04-05T16:14:32.004Z</time></trkpt><trkpt lat="44.82208425566726" lon="12.064371031171431"><ele>-6.0</ele><time>2026-04-05T16:14:33.004Z</time></trkpt><trkpt lat="44.8220518910179" lon="12.064166025699258"><ele>-6.0</ele><time>2026-04-05T16:14:34.004Z</time></trkpt><trkpt lat="44.82202064790107" lon="12.063961048757287"><ele>-6.0</ele><time>2026-04-05T16:14:35.004Z</time></trkpt><trkpt lat="44.821986690757164" lon="12.063757323098525"><ele>-6.0</ele><time>2026-04-05T16:14:36.004Z</time></trkpt><trkpt lat="44.821954560140036" lon="12.063556879241553"><ele>-6.0</ele><time>2026-04-05T16:14:37.004Z</time></trkpt><trkpt lat="44.82192169004809" lon="12.063352669169799"><ele>-6.0</ele><time>2026-04-05T16:14:38.004Z</time></trkpt><trkpt lat="44.821895370772104" lon="12.063150824368101"><ele>-6.0</ele><time>2026-04-05T16:14:39.004Z</time></trkpt><trkpt lat="44.82186400301927" lon="12.06294363069597"><ele>-6.0</ele><time>2026-04-05T16:14:40.004Z</time></trkpt><trkpt lat="44.821831464627415" lon="12.062739821452716"><ele>-6.0</ele><time>2026-04-05T16:14:41.004Z</time></trkpt><trkpt lat="44.8218022455944" lon="12.062534898878557"><ele>-6.0</ele><time>2026-04-05T16:14:42.004Z</time></trkpt><trkpt lat="44.82177548996605" lon="12.062329272048709"><ele>-5.333333333333333</ele><time>2026-04-05T16:14:43.004Z</time></trkpt><trkpt lat="44.821745842153376" lon="12.062122621203601"><ele>-4.666666666666666</ele><time>2026-04-05T16:14:44.004Z</time></trkpt><trkpt lat="44.82171287023174" lon="12.06190812871794"><ele>-4.0</ele><time>2026-04-05T16:14:45.004Z</time></trkpt><trkpt lat="44.82167800359411" lon="12.061692983185687"><ele>-4.333333333333333</ele><time>2026-04-05T16:14:46.004Z</time></trkpt><trkpt lat="44.82164515325166" lon="12.061481952002824"><ele>-4.666666666666667</ele><time>2026-04-05T16:14:47.004Z</time></trkpt><trkpt lat="44.8216172619309" lon="12.061275542755045"><ele>-5.0</ele><time>2026-04-05T16:14:48.004Z</time></trkpt><trkpt lat="44.82158548684289" lon="12.061054179813972"><ele>-5.0</ele><time>2026-04-05T16:14:49.004Z</time></trkpt><trkpt lat="44.82154779837003" lon="12.06081644509049"><ele>-5.0</ele><time>2026-04-05T16:14:50.004Z</time></trkpt><trkpt lat="44.821509891400765" lon="12.060568084076769"><ele>-5.0</ele><time>2026-04-05T16:14:51.004Z</time></trkpt><trkpt lat="44.82147263357819" lon="12.060319486181273"><ele>-5.0</ele><time>2026-04-05T16:14:52.004Z</time></trkpt><trkpt lat="44.82143866753467" lon="12.060079612903278"><ele>-5.0</ele><time>2026-04-05T16:14:53.004Z</time></trkpt><trkpt lat="44.82140350993411" lon="12.05984261814098"><ele>-5.0</ele><time>2026-04-05T16:14:54.004Z</time></trkpt><trkpt lat="44.82136702938551" lon="12.059601128006411"><ele>-5.0</ele><time>2026-04-05T16:14:55.004Z</time></trkpt><trkpt lat="44.82132771714636" lon="12.059354978854268"><ele>-5.0</ele><time>2026-04-05T16:14:56.004Z</time></trkpt><trkpt lat="44.82128923074015" lon="12.059105252326752"><ele>-5.0</ele><time>2026-04-05T16:14:57.004Z</time></trkpt><trkpt lat="44.82125160006601" lon="12.058848673957069"><ele>-5.0</ele><time>2026-04-05T16:14:58.004Z</time></trkpt><trkpt lat="44.82120970117698" lon="12.058589219203705"><ele>-5.0</ele><time>2026-04-05T16:14:59.004Z</time></trkpt><trkpt lat="44.821169473384145" lon="12.058326219126503"><ele>-5.0</ele><time>2026-04-05T16:15:00.004Z</time></trkpt><trkpt lat="44.82113016099395" lon="12.058067371630516"><ele>-5.666666666666667</ele><time>2026-04-05T16:15:01.004Z</time></trkpt><trkpt lat="44.82109150673472" lon="12.057807506502646"><ele>-6.333333333333334</ele><time>2026-04-05T16:15:02.004Z</time></trkpt><trkpt lat="44.82104887996904" lon="12.057540623279863"><ele>-7.0</ele><time>2026-04-05T16:15:03.004Z</time></trkpt><trkpt lat="44.821005278136504" lon="12.05727206034409"><ele>-7.0</ele><time>2026-04-05T16:15:04.004Z</time></trkpt><trkpt lat="44.820963485621355" lon="12.057002710531757"><ele>-7.0</ele><time>2026-04-05T16:15:05.004Z</time></trkpt><trkpt lat="44.82092173649511" lon="12.056727780896011"><ele>-7.0</ele><time>2026-04-05T16:15:06.004Z</time></trkpt><trkpt lat="44.82087900711103" lon="12.056455680275947"><ele>-7.0</ele><time>2026-04-05T16:15:07.004Z</time></trkpt><trkpt lat="44.8208354299265" lon="12.056180325342678"><ele>-7.0</ele><time>2026-04-05T16:15:08.004Z</time></trkpt><trkpt lat="44.82079198867497" lon="12.055900949108358"><ele>-7.0</ele><time>2026-04-05T16:15:09.004Z</time></trkpt><trkpt lat="44.82075061631152" lon="12.055630290575989"><ele>-7.0</ele><time>2026-04-05T16:15:10.004Z</time></trkpt><trkpt lat="44.82070769644112" lon="12.055356763550039"><ele>-7.0</ele><time>2026-04-05T16:15:11.004Z</time></trkpt><trkpt lat="44.82066398958382" lon="12.055078919618978"><ele>-7.0</ele><time>2026-04-05T16:15:12.004Z</time></trkpt><trkpt lat="44.82062114338795" lon="12.054799256286504"><ele>-7.0</ele><time>2026-04-05T16:15:13.004Z</time></trkpt><trkpt lat="44.82057738632548" lon="12.05452004789623"><ele>-7.0</ele><time>2026-04-05T16:15:14.004Z</time></trkpt><trkpt lat="44.820531980342146" lon="12.054238301326473"><ele>-7.0</ele><time>2026-04-05T16:15:15.004Z</time></trkpt><trkpt lat="44.82048645240103" lon="12.053953979773429"><ele>-7.0</ele><time>2026-04-05T16:15:16.004Z</time></trkpt><trkpt lat="44.82044096666926" lon="12.05365816002382"><ele>-7.0</ele><time>2026-04-05T16:15:17.004Z</time></trkpt><trkpt lat="44.82039445128227" lon="12.05335138124619"><ele>-7.0</ele><time>2026-04-05T16:15:18.004Z</time></trkpt><trkpt lat="44.8203493958168" lon="12.05306650182038"><ele>-6.333333333333334</ele><time>2026-04-05T16:15:19.004Z</time></trkpt><trkpt lat="44.820309531869306" lon="12.052802357115407"><ele>-5.666666666666667</ele><time>2026-04-05T16:15:20.004Z</time></trkpt><trkpt lat="44.82027120836377" lon="12.052546068752077"><ele>-5.0</ele><time>2026-04-05T16:15:21.004Z</time></trkpt><trkpt lat="44.82023518923728" lon="12.052310455005578"><ele>-5.0</ele><time>2026-04-05T16:15:22.004Z</time></trkpt><trkpt lat="44.82020511990752" lon="12.052087694956645"><ele>-5.0</ele><time>2026-04-05T16:15:23.004Z</time></trkpt><trkpt lat="44.82015928043672" lon="12.05187993151594"><ele>-5.0</ele><time>2026-04-05T16:15:24.004Z</time></trkpt><trkpt lat="44.820126359671335" lon="12.051662074381131"><ele>-4.666666666666667</ele><time>2026-04-05T16:15:25.004Z</time></trkpt><trkpt lat="44.82009273833349" lon="12.05143958121569"><ele>-4.333333333333333</ele><time>2026-04-05T16:15:26.004Z</time></trkpt><trkpt lat="44.82005932820733" lon="12.05121848582968"><ele>-4.0</ele><time>2026-04-05T16:15:27.004Z</time></trkpt><trkpt lat="44.82004027802955" lon="12.050985592894419"><ele>-4.0</ele><time>2026-04-05T16:15:28.004Z</time></trkpt><trkpt lat="44.82000203355966" lon="12.050756195869521"><ele>-4.0</ele><time>2026-04-05T16:15:29.004Z</time></trkpt><trkpt lat="44.81996721711351" lon="12.050527057638524"><ele>-4.0</ele><time>2026-04-05T16:15:30.004Z</time></trkpt><trkpt lat="44.81993430733464" lon="12.050297663315876"><ele>-4.0</ele><time>2026-04-05T16:15:31.004Z</time></trkpt><trkpt lat="44.81989864211423" lon="12.050068887795417"><ele>-4.0</ele><time>2026-04-05T16:15:32.004Z</time></trkpt><trkpt lat="44.81986274021157" lon="12.049837010155173"><ele>-4.0</ele><time>2026-04-05T16:15:33.004Z</time></trkpt><trkpt lat="44.81982735060281" lon="12.049604122547692"><ele>-4.0</ele><time>2026-04-05T16:15:34.004Z</time></trkpt><trkpt lat="44.81979321304133" lon="12.049371651713503"><ele>-4.0</ele><time>2026-04-05T16:15:35.004Z</time></trkpt><trkpt lat="44.81975527603612" lon="12.049136069266611"><ele>-4.0</ele><time>2026-04-05T16:15:36.004Z</time></trkpt><trkpt lat="44.81971637831439" lon="12.048901417508382"><ele>-4.0</ele><time>2026-04-05T16:15:37.004Z</time></trkpt><trkpt lat="44.81967885401453" lon="12.048672711105835"><ele>-4.0</ele><time>2026-04-05T16:15:38.004Z</time></trkpt><trkpt lat="44.81964054311834" lon="12.04844898738723"><ele>-4.0</ele><time>2026-04-05T16:15:39.004Z</time></trkpt><trkpt lat="44.819602217194806" lon="12.04822728796812"><ele>-4.0</ele><time>2026-04-05T16:15:40.004Z</time></trkpt><trkpt lat="44.8195668477721" lon="12.048009352669526"><ele>-4.0</ele><time>2026-04-05T16:15:41.004Z</time></trkpt><trkpt lat="44.81953472617447" lon="12.047794099465262"><ele>-4.0</ele><time>2026-04-05T16:15:42.004Z</time></trkpt><trkpt lat="44.81950400026342" lon="12.047580097011062"><ele>-3.75</ele><time>2026-04-05T16:15:43.005Z</time></trkpt><trkpt lat="44.81947301041084" lon="12.047370844623218"><ele>-3.5</ele><time>2026-04-05T16:15:44.005Z</time></trkpt><trkpt lat="44.819441683803966" lon="12.047167286006099"><ele>-3.25</ele><time>2026-04-05T16:15:45.005Z</time></trkpt><trkpt lat="44.81940600638784" lon="12.046968302762991"><ele>-3.0</ele><time>2026-04-05T16:15:46.004Z</time></trkpt><trkpt lat="44.8193751715468" lon="12.04678162865679"><ele>-3.0</ele><time>2026-04-05T16:15:47.004Z</time></trkpt><trkpt lat="44.81934778040405" lon="12.046617412646375"><ele>-3.0</ele><time>2026-04-05T16:15:48.004Z</time></trkpt><trkpt lat="44.81932410633819" lon="12.046449020166966"><ele>-3.0</ele><time>2026-04-05T16:15:49.004Z</time></trkpt><trkpt lat="44.81929764616998" lon="12.04626522064562"><ele>-3.0</ele><time>2026-04-05T16:15:50.004Z</time></trkpt><trkpt lat="44.819271187512555" lon="12.046071720745335"><ele>-2.5</ele><time>2026-04-05T16:15:51.004Z</time></trkpt><trkpt lat="44.81924497088073" lon="12.045888297056251"><ele>-2.0</ele><time>2026-04-05T16:15:52.005Z</time></trkpt><trkpt lat="44.81921282209011" lon="12.045712081936546"><ele>-1.5</ele><time>2026-04-05T16:15:53.004Z</time></trkpt><trkpt lat="44.81918754407602" lon="12.045551971184471"><ele>-1.0</ele><time>2026-04-05T16:15:54.004Z</time></trkpt><trkpt lat="44.81916637362813" lon="12.045410633150286"><ele>-0.9999999999999999</ele><time>2026-04-05T16:15:55.004Z</time></trkpt><trkpt lat="44.81914870742081" lon="12.045281964771187"><ele>-1.0</ele><time>2026-04-05T16:15:56.004Z</time></trkpt><trkpt lat="44.81912887676798" lon="12.04518265395586"><ele>-1.0</ele><time>2026-04-05T16:15:57.004Z</time></trkpt><trkpt lat="44.81909069589693" lon="12.045059003924262"><ele>-1.0</ele><time>2026-04-05T16:15:59.004Z</time></trkpt><trkpt lat="44.81904133642487" lon="12.044987411820772"><ele>-0.9999999999999999</ele><time>2026-04-05T16:16:02.004Z</time></trkpt><trkpt lat="44.81897921540462" lon="12.045123393918171"><ele>-1.0</ele><time>2026-04-05T16:16:03.004Z</time></trkpt><trkpt lat="44.81890213873495" lon="12.04505322701843"><ele>-0.9999999999999999</ele><time>2026-04-05T16:16:04.004Z</time></trkpt><trkpt lat="44.81878806981634" lon="12.045105533979623"><ele>-1.0</ele><time>2026-04-05T16:16:06.004Z</time></trkpt><trkpt lat="44.81872196701433" lon="12.045131408507993"><ele>-1.0</ele><time>2026-04-05T16:16:07.004Z</time></trkpt><trkpt lat="44.818654161265826" lon="12.045164813944023"><ele>-1.0</ele><time>2026-04-05T16:16:08.004Z</time></trkpt><trkpt lat="44.81858512605615" lon="12.045191447251984"><ele>-0.9999999999999999</ele><time>2026-04-05T16:16:09.004Z</time></trkpt><trkpt lat="44.81851401634292" lon="12.045211641602913"><ele>-1.0</ele><time>2026-04-05T16:16:10.004Z</time></trkpt><trkpt lat="44.818441941556664" lon="12.045234733150998"><ele>-0.8333333333333333</ele><time>2026-04-05T16:16:11.004Z</time></trkpt><trkpt lat="44.81836722171157" lon="12.045253163765842"><ele>-0.6666666666666666</ele><time>2026-04-05T16:16:12.004Z</time></trkpt><trkpt lat="44.818290550535316" lon="12.045266220753946"><ele>-0.5</ele><time>2026-04-05T16:16:13.004Z</time></trkpt><trkpt lat="44.818212662233286" lon="12.045277400371491"><ele>-0.3333333333333333</ele><time>2026-04-05T16:16:14.004Z</time></trkpt><trkpt lat="44.818138172166975" lon="12.045276760738199"><ele>-0.16666666666666666</ele><time>2026-04-05T16:16:15.004Z</time></trkpt><trkpt lat="44.81806505259219" lon="12.045261006983244"><ele>0.0</ele><time>2026-04-05T16:16:16.004Z</time></trkpt><trkpt lat="44.81798408371691" lon="12.045239085177105"><ele>0.0</ele><time>2026-04-05T16:16:17.004Z</time></trkpt><trkpt lat="44.8179268722529" lon="12.045174216910702"><ele>0.0</ele><time>2026-04-05T16:16:18.004Z</time></trkpt><trkpt lat="44.81784433822267" lon="12.04520234906051"><ele>0.0</ele><time>2026-04-05T16:16:19.004Z</time></trkpt><trkpt lat="44.81778610803566" lon="12.045168506495928"><ele>0.0</ele><time>2026-04-05T16:16:20.004Z</time></trkpt><trkpt lat="44.817792757489826" lon="12.04479901398277"><ele>0.0</ele><time>2026-04-05T16:16:21.004Z</time></trkpt><trkpt lat="44.817751839048825" lon="12.044643376153147"><ele>0.0</ele><time>2026-04-05T16:16:22.004Z</time></trkpt><trkpt lat="44.81771889321751" lon="12.04446968980635"><ele>0.0</ele><time>2026-04-05T16:16:23.004Z</time></trkpt><trkpt lat="44.81739408912591" lon="12.045048097047479"><ele>0.0</ele><time>2026-04-05T16:16:24.004Z</time></trkpt><trkpt lat="44.81730652408561" lon="12.045009223639369"><ele>0.0</ele><time>2026-04-05T16:16:25.004Z</time></trkpt><trkpt lat="44.81721999733391" lon="12.044967427264165"><ele>0.0</ele><time>2026-04-05T16:16:26.004Z</time></trkpt><trkpt lat="44.81713886906986" lon="12.044923384649394"><ele>0.0</ele><time>2026-04-05T16:16:27.004Z</time></trkpt><trkpt lat="44.81705720113069" lon="12.044882728778859"><ele>0.0</ele><time>2026-04-05T16:16:28.004Z</time></trkpt><trkpt lat="44.816980449355945" lon="12.04484342886177"><ele>0.0</ele><time>2026-04-05T16:16:29.004Z</time></trkpt><trkpt lat="44.81689920215337" lon="12.044797778730562"><ele>0.2</ele><time>2026-04-05T16:16:30.004Z</time></trkpt><trkpt lat="44.81681686224149" lon="12.044750009167961"><ele>0.4</ele><time>2026-04-05T16:16:31.004Z</time></trkpt><trkpt lat="44.81672931065053" lon="12.044698225663582"><ele>0.6000000000000001</ele><time>2026-04-05T16:16:32.004Z</time></trkpt><trkpt lat="44.81663343073677" lon="12.044634585151776"><ele>0.8</ele><time>2026-04-05T16:16:33.004Z</time></trkpt><trkpt lat="44.81654593932554" lon="12.04453566092813"><ele>1.0</ele><time>2026-04-05T16:16:34.004Z</time></trkpt><trkpt lat="44.81645225773551" lon="12.044433498142595"><ele>1.0</ele><time>2026-04-05T16:16:35.004Z</time></trkpt><trkpt lat="44.816357694434636" lon="12.044333180054283"><ele>1.0</ele><time>2026-04-05T16:16:36.004Z</time></trkpt><trkpt lat="44.816262947077355" lon="12.044224427527464"><ele>1.0</ele><time>2026-04-05T16:16:37.004Z</time></trkpt><trkpt lat="44.81617242605161" lon="12.044107455080441"><ele>1.0</ele><time>2026-04-05T16:16:38.004Z</time></trkpt><trkpt lat="44.816085580863465" lon="12.043985835105081"><ele>0.75</ele><time>2026-04-05T16:16:39.004Z</time></trkpt><trkpt lat="44.81599726380439" lon="12.043853431766397"><ele>0.5</ele><time>2026-04-05T16:16:40.004Z</time></trkpt><trkpt lat="44.81591217913749" lon="12.043716884024292"><ele>0.25</ele><time>2026-04-05T16:16:41.004Z</time></trkpt><trkpt lat="44.81582823343677" lon="12.04357862823511"><ele>0.0</ele><time>2026-04-05T16:16:42.004Z</time></trkpt><trkpt lat="44.81574678006263" lon="12.043443670959407"><ele>0.0</ele><time>2026-04-05T16:16:43.004Z</time></trkpt><trkpt lat="44.81566422263" lon="12.043303336955747"><ele>0.0</ele><time>2026-04-05T16:16:44.004Z</time></trkpt><trkpt lat="44.81560085579983" lon="12.043126248652378"><ele>0.0</ele><time>2026-04-05T16:16:45.004Z</time></trkpt><trkpt lat="44.81552903266602" lon="12.042938979132705"><ele>0.0</ele><time>2026-04-05T16:16:46.004Z</time></trkpt><trkpt lat="44.81546883886661" lon="12.042709030491894"><ele>0.0</ele><time>2026-04-05T16:16:47.004Z</time></trkpt><trkpt lat="44.81539104211464" lon="12.042523783909596"><ele>0.0</ele><time>2026-04-05T16:16:48.004Z</time></trkpt><trkpt lat="44.81530795659591" lon="12.042339784097958"><ele>0.0</ele><time>2026-04-05T16:16:49.004Z</time></trkpt><trkpt lat="44.81522110510312" lon="12.042168851755967"><ele>-0.3333333333333333</ele><time>2026-04-05T16:16:50.004Z</time></trkpt><trkpt lat="44.815128743685" lon="12.042001280047574"><ele>-0.6666666666666666</ele><time>2026-04-05T16:16:51.004Z</time></trkpt><trkpt lat="44.815025530863394" lon="12.041839216516063"><ele>-1.0</ele><time>2026-04-05T16:16:52.004Z</time></trkpt><trkpt lat="44.81493592289355" lon="12.041657597739423"><ele>-0.6666666666666666</ele><time>2026-04-05T16:16:53.004Z</time></trkpt><trkpt lat="44.814850457292984" lon="12.041478193927444"><ele>-0.3333333333333333</ele><time>2026-04-05T16:16:54.004Z</time></trkpt><trkpt lat="44.814764966713845" lon="12.041290255614463"><ele>0.0</ele><time>2026-04-05T16:16:55.004Z</time></trkpt><trkpt lat="44.81469435823275" lon="12.04109417872213"><ele>0.0</ele><time>2026-04-05T16:16:56.004Z</time></trkpt><trkpt lat="44.81462975287659" lon="12.040894296367387"><ele>0.0</ele><time>2026-04-05T16:16:57.004Z</time></trkpt><trkpt lat="44.814568251736816" lon="12.040693411723845"><ele>0.0</ele><time>2026-04-05T16:16:58.004Z</time></trkpt><trkpt lat="44.8145140321397" lon="12.040497338213779"><ele>0.0</ele><time>2026-04-05T16:16:59.004Z</time></trkpt><trkpt lat="44.814464334512486" lon="12.040294533607412"><ele>0.0</ele><time>2026-04-05T16:17:00.004Z</time></trkpt><trkpt lat="44.81441687188766" lon="12.040092690612667"><ele>0.0</ele><time>2026-04-05T16:17:01.004Z</time></trkpt><trkpt lat="44.81437064797863" lon="12.03988077647734"><ele>-0.6666666666666666</ele><time>2026-04-05T16:17:02.004Z</time></trkpt><trkpt lat="44.81431830830558" lon="12.039660784581367"><ele>-1.3333333333333333</ele><time>2026-04-05T16:17:03.004Z</time></trkpt><trkpt lat="44.814273262470834" lon="12.039431589143542"><ele>-2.0</ele><time>2026-04-05T16:17:04.004Z</time></trkpt><trkpt lat="44.814233526492295" lon="12.039204170146526"><ele>-1.6666666666666665</ele><time>2026-04-05T16:17:05.004Z</time></trkpt><trkpt lat="44.81420061829797" lon="12.03897904312539"><ele>-1.3333333333333333</ele><time>2026-04-05T16:17:06.004Z</time></trkpt><trkpt lat="44.81416627265234" lon="12.03875408849312"><ele>-1.0</ele><time>2026-04-05T16:17:07.004Z</time></trkpt><trkpt lat="44.81412449437174" lon="12.03852629543499"><ele>-1.0</ele><time>2026-04-05T16:17:08.004Z</time></trkpt><trkpt lat="44.81409339130299" lon="12.038291740369845"><ele>-1.0</ele><time>2026-04-05T16:17:09.004Z</time></trkpt><trkpt lat="44.81406109141432" lon="12.038056435329654"><ele>-1.0</ele><time>2026-04-05T16:17:10.004Z</time></trkpt><trkpt lat="44.81403447485461" lon="12.037824668015073"><ele>-1.0</ele><time>2026-04-05T16:17:11.004Z</time></trkpt><trkpt lat="44.81400422455626" lon="12.037588879377308"><ele>-1.0</ele><time>2026-04-05T16:17:12.004Z</time></trkpt><trkpt lat="44.81397913467927" lon="12.037360042883718"><ele>-1.0</ele><time>2026-04-05T16:17:13.004Z</time></trkpt><trkpt lat="44.813955344798764" lon="12.03712770771001"><ele>-1.0</ele><time>2026-04-05T16:17:14.004Z</time></trkpt><trkpt lat="44.81392702793222" lon="12.036897279983135"><ele>-1.0</ele><time>2026-04-05T16:17:15.004Z</time></trkpt><trkpt lat="44.81390209850523" lon="12.036664168673466"><ele>-1.0</ele><time>2026-04-05T16:17:16.004Z</time></trkpt><trkpt lat="44.8138810843186" lon="12.036430938110659"><ele>-1.0</ele><time>2026-04-05T16:17:17.004Z</time></trkpt><trkpt lat="44.81385248170079" lon="12.03619052638907"><ele>-1.0</ele><time>2026-04-05T16:17:18.004Z</time></trkpt><trkpt lat="44.81382055584976" lon="12.035947256799652"><ele>-1.0</ele><time>2026-04-05T16:17:19.004Z</time></trkpt><trkpt lat="44.81379150109649" lon="12.035699529025996"><ele>-1.0</ele><time>2026-04-05T16:17:20.004Z</time></trkpt><trkpt lat="44.81376290745822" lon="12.03545103395983"><ele>-1.0</ele><time>2026-04-05T16:17:21.004Z</time></trkpt><trkpt lat="44.81373442061313" lon="12.035208447138775"><ele>-1.0</ele><time>2026-04-05T16:17:22.004Z</time></trkpt><trkpt lat="44.813708369883656" lon="12.034959150985305"><ele>-0.3333333333333333</ele><time>2026-04-05T16:17:23.004Z</time></trkpt><trkpt lat="44.81368070737502" lon="12.034710506755356"><ele>0.3333333333333333</ele><time>2026-04-05T16:17:24.004Z</time></trkpt><trkpt lat="44.81364999670769" lon="12.034466230997266"><ele>1.0</ele><time>2026-04-05T16:17:25.004Z</time></trkpt><trkpt lat="44.813621045384075" lon="12.034215359814128"><ele>1.0</ele><time>2026-04-05T16:17:26.004Z</time></trkpt><trkpt lat="44.813591763705396" lon="12.03395977666903"><ele>1.0</ele><time>2026-04-05T16:17:27.004Z</time></trkpt><trkpt lat="44.813557709401955" lon="12.033702501923816"><ele>1.0</ele><time>2026-04-05T16:17:28.004Z</time></trkpt><trkpt lat="44.813528272178274" lon="12.03345012239374"><ele>1.3333333333333333</ele><time>2026-04-05T16:17:29.004Z</time></trkpt><trkpt lat="44.813497540090786" lon="12.033194868497318"><ele>1.6666666666666665</ele><time>2026-04-05T16:17:30.004Z</time></trkpt><trkpt lat="44.81346697190166" lon="12.03295285492757"><ele>2.0</ele><time>2026-04-05T16:17:31.004Z</time></trkpt><trkpt lat="44.81344141240134" lon="12.032720476309414"><ele>1.25</ele><time>2026-04-05T16:17:32.004Z</time></trkpt><trkpt lat="44.813421225681125" lon="12.032509570718453"><ele>0.5</ele><time>2026-04-05T16:17:33.004Z</time></trkpt><trkpt lat="44.81340679864281" lon="12.032315372219832"><ele>-0.25</ele><time>2026-04-05T16:17:34.004Z</time></trkpt><trkpt lat="44.813386975736" lon="12.03213169853589"><ele>-1.0</ele><time>2026-04-05T16:17:35.004Z</time></trkpt><trkpt lat="44.81336696329906" lon="12.031959002921283"><ele>-1.0</ele><time>2026-04-05T16:17:36.004Z</time></trkpt><trkpt lat="44.81335433030248" lon="12.031790512399551"><ele>-1.0</ele><time>2026-04-05T16:17:37.004Z</time></trkpt><trkpt lat="44.813341816558605" lon="12.031619686116835"><ele>-1.0</ele><time>2026-04-05T16:17:38.004Z</time></trkpt><trkpt lat="44.81333367828547" lon="12.031452325994316"><ele>-1.0</ele><time>2026-04-05T16:17:39.004Z</time></trkpt><trkpt lat="44.81333158802057" lon="12.031287046599035"><ele>-0.9999999999999999</ele><time>2026-04-05T16:17:40.004Z</time></trkpt><trkpt lat="44.813324691543436" lon="12.031138998901096"><ele>-1.0</ele><time>2026-04-05T16:17:41.004Z</time></trkpt><trkpt lat="44.81332123573841" lon="12.03100468951012"><ele>-1.0</ele><time>2026-04-05T16:17:42.004Z</time></trkpt><trkpt lat="44.813320938657746" lon="12.030881516467554"><ele>-1.0</ele><time>2026-04-05T16:17:43.004Z</time></trkpt><trkpt lat="44.8133190984356" lon="12.03076580455433"><ele>-0.9999999999999999</ele><time>2026-04-05T16:17:44.004Z</time></trkpt><trkpt lat="44.81331530225839" lon="12.030662249051979"><ele>-1.0</ele><time>2026-04-05T16:17:45.004Z</time></trkpt><trkpt lat="44.813312655968524" lon="12.030558588335012"><ele>-0.8571428571428571</ele><time>2026-04-05T16:17:46.004Z</time></trkpt><trkpt lat="44.813304765555785" lon="12.030465901108613"><ele>-0.7142857142857142</ele><time>2026-04-05T16:17:47.004Z</time></trkpt><trkpt lat="44.813299515387385" lon="12.03037629323496"><ele>-0.5714285714285714</ele><time>2026-04-05T16:17:48.004Z</time></trkpt><trkpt lat="44.81329450299574" lon="12.030270430580025"><ele>-0.42857142857142855</ele><time>2026-04-05T16:17:49.005Z</time></trkpt><trkpt lat="44.81329427259271" lon="12.030160550297623"><ele>-0.2857142857142857</ele><time>2026-04-05T16:17:50.004Z</time></trkpt><trkpt lat="44.81329063797082" lon="12.030055045852135"><ele>-0.14285714285714285</ele><time>2026-04-05T16:17:51.004Z</time></trkpt><trkpt lat="44.813297075042804" lon="12.029957211037297"><ele>0.0</ele><time>2026-04-05T16:17:52.004Z</time></trkpt><trkpt lat="44.813297585747755" lon="12.029798193709075"><ele>0.0</ele><time>2026-04-05T16:17:54.004Z</time></trkpt><trkpt lat="44.81330156837329" lon="12.029674266150147"><ele>0.0</ele><time>2026-04-05T16:17:56.004Z</time></trkpt><trkpt lat="44.813299067884756" lon="12.029561154149533"><ele>0.0</ele><time>2026-04-05T16:17:58.005Z</time></trkpt><trkpt lat="44.81330391023202" lon="12.029408573299127"><ele>0.0</ele><time>2026-04-05T16:18:00.004Z</time></trkpt><trkpt lat="44.81330671056221" lon="12.029250769837951"><ele>0.0</ele><time>2026-04-05T16:18:02.004Z</time></trkpt><trkpt lat="44.81332264670057" lon="12.029134828749147"><ele>0.0</ele><time>2026-04-05T16:18:04.004Z</time></trkpt><trkpt lat="44.8132906843741" lon="12.029308153402598"><ele>0.0</ele><time>2026-04-05T16:18:21.004Z</time></trkpt><trkpt lat="44.813270631046024" lon="12.029433684024461"><ele>0.0</ele><time>2026-04-05T16:18:22.004Z</time></trkpt><trkpt lat="44.81327642555129" lon="12.029573059408264"><ele>0.0</ele><time>2026-04-05T16:18:23.004Z</time></trkpt><trkpt lat="44.81327828621005" lon="12.029702782678491"><ele>0.0</ele><time>2026-04-05T16:18:24.004Z</time></trkpt><trkpt lat="44.81328069029997" lon="12.029824799923365"><ele>0.0</ele><time>2026-04-05T16:18:25.004Z</time></trkpt><trkpt lat="44.81327423698546" lon="12.029941397156472"><ele>0.0</ele><time>2026-04-05T16:18:26.004Z</time></trkpt><trkpt lat="44.81327406110958" lon="12.030044428255703"><ele>0.0</ele><time>2026-04-05T16:18:27.004Z</time></trkpt><trkpt lat="44.81327497755347" lon="12.030137767064547"><ele>0.0</ele><time>2026-04-05T16:18:28.004Z</time></trkpt><trkpt lat="44.813277697230475" lon="12.030235823418202"><ele>0.0</ele><time>2026-04-05T16:18:29.004Z</time></trkpt><trkpt lat="44.81327805807016" lon="12.03033296418201"><ele>0.0</ele><time>2026-04-05T16:18:30.004Z</time></trkpt><trkpt lat="44.81329097868663" lon="12.030427693638243"><ele>0.0</ele><time>2026-04-05T16:18:31.004Z</time></trkpt><trkpt lat="44.81329709221158" lon="12.03057397054204"><ele>0.0</ele><time>2026-04-05T16:18:33.004Z</time></trkpt><trkpt lat="44.81325869959465" lon="12.030653683692126"><ele>0.0</ele><time>2026-04-05T16:18:41.004Z</time></trkpt><trkpt lat="44.81331656404188" lon="12.030605141457617"><ele>0.0</ele><time>2026-04-05T16:18:47.004Z</time></trkpt><trkpt lat="44.813306084139626" lon="12.030491507276171"><ele>0.0</ele><time>2026-04-05T16:18:49.004Z</time></trkpt><trkpt lat="44.813292611733736" lon="12.030388257400961"><ele>0.0</ele><time>2026-04-05T16:18:50.004Z</time></trkpt><trkpt lat="44.813282830803" lon="12.030255087297558"><ele>0.0</ele><time>2026-04-05T16:18:51.004Z</time></trkpt><trkpt lat="44.81327841212907" lon="12.030113139050048"><ele>0.0</ele><time>2026-04-05T16:18:52.004Z</time></trkpt><trkpt lat="44.81328393798709" lon="12.029965262537903"><ele>0.0</ele><time>2026-04-05T16:18:53.004Z</time></trkpt><trkpt lat="44.813281513041915" lon="12.029814481616596"><ele>0.0</ele><time>2026-04-05T16:18:54.004Z</time></trkpt><trkpt lat="44.813283221450845" lon="12.02966387866753"><ele>0.0</ele><time>2026-04-05T16:18:54.945Z</time></trkpt><trkpt lat="44.81328444138842" lon="12.029507510004366"><ele>0.0</ele><time>2026-04-05T16:18:55.945Z</time></trkpt><trkpt lat="44.813286849496826" lon="12.029344657132647"><ele>0.0</ele><time>2026-04-05T16:18:56.945Z</time></trkpt><trkpt lat="44.81328931075897" lon="12.02916964361039"><ele>0.0</ele><time>2026-04-05T16:18:57.945Z</time></trkpt><trkpt lat="44.81329284646415" lon="12.028988471052754"><ele>0.0</ele><time>2026-04-05T16:18:58.945Z</time></trkpt><trkpt lat="44.81329942871172" lon="12.028800415642039"><ele>0.0</ele><time>2026-04-05T16:18:59.945Z</time></trkpt><trkpt lat="44.81330289311387" lon="12.028609327950429"><ele>0.0</ele><time>2026-04-05T16:19:00.945Z</time></trkpt><trkpt lat="44.81330667505302" lon="12.028410335855336"><ele>0.0</ele><time>2026-04-05T16:19:01.945Z</time></trkpt><trkpt lat="44.81330963150435" lon="12.028217281829336"><ele>0.0</ele><time>2026-04-05T16:19:02.945Z</time></trkpt><trkpt lat="44.81331033639651" lon="12.028016904685126"><ele>0.0</ele><time>2026-04-05T16:19:03.945Z</time></trkpt><trkpt lat="44.813304193370854" lon="12.027814097699206"><ele>0.0</ele><time>2026-04-05T16:19:04.945Z</time></trkpt><trkpt lat="44.813290585630156" lon="12.027608639453971"><ele>0.0</ele><time>2026-04-05T16:19:05.945Z</time></trkpt><trkpt lat="44.81327647635459" lon="12.027403214406142"><ele>0.0</ele><time>2026-04-05T16:19:06.945Z</time></trkpt><trkpt lat="44.8132564906218" lon="12.02719727524772"><ele>0.0</ele><time>2026-04-05T16:19:07.945Z</time></trkpt><trkpt lat="44.813231247210965" lon="12.026995527565889"><ele>-0.25</ele><time>2026-04-05T16:19:08.945Z</time></trkpt><trkpt lat="44.81320361147416" lon="12.026795257006285"><ele>-0.5</ele><time>2026-04-05T16:19:09.945Z</time></trkpt><trkpt lat="44.813181211320405" lon="12.026596980376699"><ele>-0.75</ele><time>2026-04-05T16:19:10.945Z</time></trkpt><trkpt lat="44.81315983994498" lon="12.026398241576212"><ele>-1.0</ele><time>2026-04-05T16:19:11.945Z</time></trkpt><trkpt lat="44.81313855307596" lon="12.026197035139415"><ele>-1.0</ele><time>2026-04-05T16:19:12.945Z</time></trkpt><trkpt lat="44.81312193977166" lon="12.025999439346684"><ele>-1.0</ele><time>2026-04-05T16:19:13.945Z</time></trkpt><trkpt lat="44.81310552771224" lon="12.025800487380828"><ele>-1.0</ele><time>2026-04-05T16:19:14.945Z</time></trkpt><trkpt lat="44.81308920377205" lon="12.025601329832721"><ele>-1.0</ele><time>2026-04-05T16:19:15.945Z</time></trkpt><trkpt lat="44.81307536249378" lon="12.025397782751908"><ele>-1.0</ele><time>2026-04-05T16:19:16.945Z</time></trkpt><trkpt lat="44.8130586464578" lon="12.025184171944185"><ele>-1.0</ele><time>2026-04-05T16:19:17.945Z</time></trkpt><trkpt lat="44.81303647253982" lon="12.024967459860866"><ele>-1.0</ele><time>2026-04-05T16:19:18.945Z</time></trkpt><trkpt lat="44.813009574299386" lon="12.024752462651835"><ele>-1.0</ele><time>2026-04-05T16:19:19.945Z</time></trkpt><trkpt lat="44.81298591464699" lon="12.02453914526582"><ele>-1.0</ele><time>2026-04-05T16:19:20.945Z</time></trkpt><trkpt lat="44.812964277568234" lon="12.024332340598269"><ele>-1.0</ele><time>2026-04-05T16:19:21.945Z</time></trkpt><trkpt lat="44.81293826326839" lon="12.024125570647804"><ele>-1.0</ele><time>2026-04-05T16:19:22.945Z</time></trkpt><trkpt lat="44.81291917454896" lon="12.023920787444679"><ele>-1.0</ele><time>2026-04-05T16:19:23.945Z</time></trkpt><trkpt lat="44.812901391355005" lon="12.02371561124156"><ele>-1.0</ele><time>2026-04-05T16:19:24.945Z</time></trkpt><trkpt lat="44.81288484731788" lon="12.023509661900064"><ele>-1.0</ele><time>2026-04-05T16:19:25.945Z</time></trkpt><trkpt lat="44.81287282430442" lon="12.023306447351933"><ele>-0.5</ele><time>2026-04-05T16:19:26.945Z</time></trkpt><trkpt lat="44.81286579990459" lon="12.023106834921578"><ele>0.0</ele><time>2026-04-05T16:19:27.945Z</time></trkpt><trkpt lat="44.81286812584797" lon="12.02291909191201"><ele>0.5</ele><time>2026-04-05T16:19:28.945Z</time></trkpt><trkpt lat="44.812878498725865" lon="12.022723389598163"><ele>1.0</ele><time>2026-04-05T16:19:29.945Z</time></trkpt><trkpt lat="44.81291008169551" lon="12.022522863922516"><ele>1.75</ele><time>2026-04-05T16:19:30.945Z</time></trkpt><trkpt lat="44.8129534461614" lon="12.022319235926823"><ele>2.5</ele><time>2026-04-05T16:19:31.945Z</time></trkpt><trkpt lat="44.81298741173485" lon="12.022122885754623"><ele>3.25</ele><time>2026-04-05T16:19:32.945Z</time></trkpt><trkpt lat="44.813023266446855" lon="12.021926963469403"><ele>4.0</ele><time>2026-04-05T16:19:33.945Z</time></trkpt><trkpt lat="44.81306099237827" lon="12.021735002089564"><ele>4.5</ele><time>2026-04-05T16:19:34.945Z</time></trkpt><trkpt lat="44.813090835981164" lon="12.021545963380929"><ele>5.0</ele><time>2026-04-05T16:19:35.945Z</time></trkpt><trkpt lat="44.81310611928458" lon="12.021367267698196"><ele>5.5</ele><time>2026-04-05T16:19:36.945Z</time></trkpt><trkpt lat="44.81310397784473" lon="12.021197872389052"><ele>6.0</ele><time>2026-04-05T16:19:37.945Z</time></trkpt><trkpt lat="44.81306964101255" lon="12.02102723697668"><ele>6.0</ele><time>2026-04-05T16:19:38.945Z</time></trkpt><trkpt lat="44.81301818569073" lon="12.02084678000244"><ele>6.0</ele><time>2026-04-05T16:19:39.945Z</time></trkpt><trkpt lat="44.812955576569756" lon="12.020649258977848"><ele>6.0</ele><time>2026-04-05T16:19:40.945Z</time></trkpt><trkpt lat="44.81289528058691" lon="12.020446822822489"><ele>6.0</ele><time>2026-04-05T16:19:41.945Z</time></trkpt><trkpt lat="44.81283741830028" lon="12.020259392322444"><ele>5.333333333333333</ele><time>2026-04-05T16:19:42.944Z</time></trkpt><trkpt lat="44.812777510887976" lon="12.020057744299793"><ele>4.666666666666666</ele><time>2026-04-05T16:19:43.944Z</time></trkpt><trkpt lat="44.81271480328396" lon="12.019850714098922"><ele>4.0</ele><time>2026-04-05T16:19:44.944Z</time></trkpt><trkpt lat="44.81264667773199" lon="12.019654065627185"><ele>3.75</ele><time>2026-04-05T16:19:45.944Z</time></trkpt><trkpt lat="44.81259320625255" lon="12.019473549217546"><ele>3.5</ele><time>2026-04-05T16:19:46.944Z</time></trkpt><trkpt lat="44.81254577980883" lon="12.0193011733265"><ele>3.25</ele><time>2026-04-05T16:19:47.944Z</time></trkpt><trkpt lat="44.81250074148573" lon="12.019129100822152"><ele>3.0</ele><time>2026-04-05T16:19:48.944Z</time></trkpt><trkpt lat="44.812451498071525" lon="12.01897117580783"><ele>2.75</ele><time>2026-04-05T16:19:49.944Z</time></trkpt><trkpt lat="44.81239605757305" lon="12.01881849208068"><ele>2.5</ele><time>2026-04-05T16:19:50.944Z</time></trkpt><trkpt lat="44.81233745939887" lon="12.018669500042604"><ele>2.25</ele><time>2026-04-05T16:19:51.944Z</time></trkpt><trkpt lat="44.812292540197376" lon="12.018490475883352"><ele>2.0</ele><time>2026-04-05T16:19:52.944Z</time></trkpt><trkpt lat="44.81226547504066" lon="12.018335168361732"><ele>1.5</ele><time>2026-04-05T16:19:53.944Z</time></trkpt><trkpt lat="44.81222867261783" lon="12.018177591056832"><ele>1.0</ele><time>2026-04-05T16:19:54.944Z</time></trkpt><trkpt lat="44.81218303364163" lon="12.018003032114862"><ele>0.5</ele><time>2026-04-05T16:19:55.944Z</time></trkpt><trkpt lat="44.81213403984508" lon="12.01781958754157"><ele>0.0</ele><time>2026-04-05T16:19:56.944Z</time></trkpt><trkpt lat="44.8120817112096" lon="12.017634983086221"><ele>-0.25</ele><time>2026-04-05T16:19:57.944Z</time></trkpt><trkpt lat="44.8120253222479" lon="12.017462312134034"><ele>-0.5</ele><time>2026-04-05T16:19:58.944Z</time></trkpt><trkpt lat="44.81196641513783" lon="12.01730404874556"><ele>-0.75</ele><time>2026-04-05T16:19:59.944Z</time></trkpt><trkpt lat="44.81188123791546" lon="12.01712099185958"><ele>-1.0</ele><time>2026-04-05T16:20:00.944Z</time></trkpt><trkpt lat="44.811787918390785" lon="12.016952154719636"><ele>-1.0</ele><time>2026-04-05T16:20:01.944Z</time></trkpt><trkpt lat="44.8116875847794" lon="12.016792580605905"><ele>-1.0</ele><time>2026-04-05T16:20:02.944Z</time></trkpt><trkpt lat="44.81158635298333" lon="12.01665484479969"><ele>-1.0</ele><time>2026-04-05T16:20:03.945Z</time></trkpt><trkpt lat="44.811505730278014" lon="12.016546168356184"><ele>-1.0</ele><time>2026-04-05T16:20:04.943Z</time></trkpt><trkpt lat="44.81140648475567" lon="12.01640732840699"><ele>-0.8571428571428571</ele><time>2026-04-05T16:20:06.944Z</time></trkpt><trkpt lat="44.81136013881815" lon="12.01634130776998"><ele>-0.7142857142857142</ele><time>2026-04-05T16:20:07.944Z</time></trkpt><trkpt lat="44.81131101698559" lon="12.016271332757762"><ele>-0.5714285714285714</ele><time>2026-04-05T16:20:08.944Z</time></trkpt><trkpt lat="44.81126099943814" lon="12.01620008186832"><ele>-0.42857142857142855</ele><time>2026-04-05T16:20:09.944Z</time></trkpt><trkpt lat="44.811215466599926" lon="12.01613521931817"><ele>-0.2857142857142857</ele><time>2026-04-05T16:20:10.944Z</time></trkpt><trkpt lat="44.81116190457532" lon="12.016064213998455"><ele>-0.14285714285714285</ele><time>2026-04-05T16:20:12.944Z</time></trkpt><trkpt lat="44.811198033735394" lon="12.015978599986958"><ele>0.0</ele><time>2026-04-05T16:20:19.944Z</time></trkpt><trkpt lat="44.81128775384586" lon="12.015874282735536"><ele>0.2</ele><time>2026-04-05T16:20:21.944Z</time></trkpt><trkpt lat="44.81135435668158" lon="12.015801347267987"><ele>0.4</ele><time>2026-04-05T16:20:22.944Z</time></trkpt><trkpt lat="44.81141705055026" lon="12.015716492161292"><ele>0.6000000000000001</ele><time>2026-04-05T16:20:23.944Z</time></trkpt><trkpt lat="44.811493184045304" lon="12.015631573526205"><ele>0.8</ele><time>2026-04-05T16:20:24.944Z</time></trkpt><trkpt lat="44.811570822578844" lon="12.01553569289539"><ele>1.0</ele><time>2026-04-05T16:20:25.944Z</time></trkpt><trkpt lat="44.811661236969115" lon="12.015478952349753"><ele>1.0</ele><time>2026-04-05T16:20:26.944Z</time></trkpt><trkpt lat="44.81175097663745" lon="12.015424439316503"><ele>1.0</ele><time>2026-04-05T16:20:27.944Z</time></trkpt><trkpt lat="44.81177818409356" lon="12.015234295062648"><ele>1.0</ele><time>2026-04-05T16:20:28.944Z</time></trkpt><trkpt lat="44.811849037046834" lon="12.015090765062467"><ele>1.0</ele><time>2026-04-05T16:20:29.944Z</time></trkpt><trkpt lat="44.81191749138441" lon="12.014921861918207"><ele>1.5</ele><time>2026-04-05T16:20:30.944Z</time></trkpt><trkpt lat="44.811980487690995" lon="12.014756726257637"><ele>2.0</ele><time>2026-04-05T16:20:31.944Z</time></trkpt><trkpt lat="44.81204054761447" lon="12.014579338000983"><ele>2.5</ele><time>2026-04-05T16:20:32.944Z</time></trkpt><trkpt lat="44.81208880216416" lon="12.014387843639671"><ele>3.0</ele><time>2026-04-05T16:20:33.944Z</time></trkpt><trkpt lat="44.8121162522514" lon="12.014182449685967"><ele>2.3333333333333335</ele><time>2026-04-05T16:20:34.944Z</time></trkpt><trkpt lat="44.81212778868409" lon="12.013964232463024"><ele>1.6666666666666665</ele><time>2026-04-05T16:20:35.944Z</time></trkpt><trkpt lat="44.81211372061656" lon="12.01373418725359"><ele>1.0</ele><time>2026-04-05T16:20:36.944Z</time></trkpt><trkpt lat="44.81208917426366" lon="12.01348821651547"><ele>1.0</ele><time>2026-04-05T16:20:37.944Z</time></trkpt><trkpt lat="44.81209749913069" lon="12.013247714632085"><ele>1.0</ele><time>2026-04-05T16:20:38.944Z</time></trkpt><trkpt lat="44.81211630923707" lon="12.013012211091386"><ele>1.0</ele><time>2026-04-05T16:20:39.944Z</time></trkpt><trkpt lat="44.8121707245384" lon="12.012769567309677"><ele>1.0</ele><time>2026-04-05T16:20:40.944Z</time></trkpt><trkpt lat="44.81223238218143" lon="12.012531538990077"><ele>1.0</ele><time>2026-04-05T16:20:41.943Z</time></trkpt><trkpt lat="44.8123125984324" lon="12.012290260992517"><ele>1.0</ele><time>2026-04-05T16:20:42.943Z</time></trkpt><trkpt lat="44.812399868775046" lon="12.012044848532888"><ele>1.0</ele><time>2026-04-05T16:20:43.943Z</time></trkpt><trkpt lat="44.81247952588154" lon="12.0117937851342"><ele>1.0</ele><time>2026-04-05T16:20:44.943Z</time></trkpt><trkpt lat="44.81257081499283" lon="12.011542235497439"><ele>1.0</ele><time>2026-04-05T16:20:45.943Z</time></trkpt><trkpt lat="44.812654943043476" lon="12.011284267822477"><ele>0.6666666666666666</ele><time>2026-04-05T16:20:46.943Z</time></trkpt><trkpt lat="44.81274215740894" lon="12.011029728521168"><ele>0.3333333333333333</ele><time>2026-04-05T16:20:47.943Z</time></trkpt><trkpt lat="44.812829271235685" lon="12.01077513079703"><ele>0.0</ele><time>2026-04-05T16:20:48.943Z</time></trkpt><trkpt lat="44.81291215334485" lon="12.010529466265824"><ele>0.0</ele><time>2026-04-05T16:20:49.943Z</time></trkpt><trkpt lat="44.813029548277974" lon="12.010296427460666"><ele>0.0</ele><time>2026-04-05T16:20:50.943Z</time></trkpt><trkpt lat="44.81317139578898" lon="12.010051332412337"><ele>0.0</ele><time>2026-04-05T16:20:51.943Z</time></trkpt><trkpt lat="44.81334187698445" lon="12.00985463390045"><ele>0.0</ele><time>2026-04-05T16:20:52.943Z</time></trkpt><trkpt lat="44.813525447239336" lon="12.009656717515748"><ele>0.0</ele><time>2026-04-05T16:20:53.943Z</time></trkpt><trkpt lat="44.8137082652501" lon="12.00946001314623"><ele>0.0</ele><time>2026-04-05T16:20:54.943Z</time></trkpt><trkpt lat="44.81390139545265" lon="12.009265851027006"><ele>0.0</ele><time>2026-04-05T16:20:55.943Z</time></trkpt><trkpt lat="44.814088073467374" lon="12.009072838358481"><ele>0.0</ele><time>2026-04-05T16:20:56.943Z</time></trkpt><trkpt lat="44.81427553785932" lon="12.00888393789328"><ele>0.0</ele><time>2026-04-05T16:20:57.943Z</time></trkpt><trkpt lat="44.81445481951711" lon="12.008685551484602"><ele>0.0</ele><time>2026-04-05T16:20:58.943Z</time></trkpt><trkpt lat="44.81462907137169" lon="12.008470643150876"><ele>0.0</ele><time>2026-04-05T16:20:59.943Z</time></trkpt><trkpt lat="44.814787141297934" lon="12.008222348217132"><ele>0.0</ele><time>2026-04-05T16:21:00.943Z</time></trkpt><trkpt lat="44.8149287320516" lon="12.00795334815247"><ele>0.0</ele><time>2026-04-05T16:21:01.943Z</time></trkpt><trkpt lat="44.8150539041316" lon="12.007675798074589"><ele>-1.0</ele><time>2026-04-05T16:21:02.943Z</time></trkpt><trkpt lat="44.81516444681566" lon="12.007388977875745"><ele>-2.0</ele><time>2026-04-05T16:21:03.943Z</time></trkpt><trkpt lat="44.81526015003038" lon="12.007082821084838"><ele>-2.0</ele><time>2026-04-05T16:21:04.943Z</time></trkpt><trkpt lat="44.81536618873104" lon="12.006783274085842"><ele>-2.0</ele><time>2026-04-05T16:21:05.943Z</time></trkpt><trkpt lat="44.815469630311235" lon="12.006472834143507"><ele>-1.5</ele><time>2026-04-05T16:21:06.943Z</time></trkpt><trkpt lat="44.81557114300392" lon="12.006161799477939"><ele>-1.0</ele><time>2026-04-05T16:21:07.943Z</time></trkpt><trkpt lat="44.81567097184161" lon="12.005848720096646"><ele>0.5</ele><time>2026-04-05T16:21:08.943Z</time></trkpt><trkpt lat="44.81575757562794" lon="12.005532596027605"><ele>2.0</ele><time>2026-04-05T16:21:09.943Z</time></trkpt><trkpt lat="44.81583639375358" lon="12.00521832331735"><ele>2.0</ele><time>2026-04-05T16:21:10.943Z</time></trkpt><trkpt lat="44.81589667008681" lon="12.00490487160465"><ele>2.0</ele><time>2026-04-05T16:21:11.943Z</time></trkpt><trkpt lat="44.81596329225783" lon="12.00458773313406"><ele>0.5</ele><time>2026-04-05T16:21:12.943Z</time></trkpt><trkpt lat="44.8160176577467" lon="12.00426489642011"><ele>-1.0</ele><time>2026-04-05T16:21:13.943Z</time></trkpt><trkpt lat="44.81607356574621" lon="12.003949688152712"><ele>-1.0</ele><time>2026-04-05T16:21:14.943Z</time></trkpt><trkpt lat="44.81612798206656" lon="12.003626328143104"><ele>-1.0</ele><time>2026-04-05T16:21:15.943Z</time></trkpt><trkpt lat="44.816174905705125" lon="12.003304443826512"><ele>-0.5</ele><time>2026-04-05T16:21:16.943Z</time></trkpt><trkpt lat="44.816229416076794" lon="12.002989419434927"><ele>0.0</ele><time>2026-04-05T16:21:17.943Z</time></trkpt><trkpt lat="44.81627721689325" lon="12.00267702535224"><ele>-0.3333333333333333</ele><time>2026-04-05T16:21:18.943Z</time></trkpt><trkpt lat="44.81632781339962" lon="12.002377827205969"><ele>-0.6666666666666666</ele><time>2026-04-05T16:21:19.943Z</time></trkpt><trkpt lat="44.816375338611614" lon="12.002085755600131"><ele>-1.0</ele><time>2026-04-05T16:21:20.943Z</time></trkpt><trkpt lat="44.81642502912791" lon="12.001796599507678"><ele>0.0</ele><time>2026-04-05T16:21:21.943Z</time></trkpt><trkpt lat="44.81647452731214" lon="12.001505025852873"><ele>1.0</ele><time>2026-04-05T16:21:22.943Z</time></trkpt><trkpt lat="44.81652260391502" lon="12.00122308257338"><ele>2.0</ele><time>2026-04-05T16:21:23.943Z</time></trkpt><trkpt lat="44.81656880653775" lon="12.000941279070181"><ele>2.333333333333333</ele><time>2026-04-05T16:21:24.943Z</time></trkpt><trkpt lat="44.816611116839496" lon="12.000674451187338"><ele>2.6666666666666665</ele><time>2026-04-05T16:21:25.943Z</time></trkpt><trkpt lat="44.816655966384296" lon="12.000425672458654"><ele>3.0</ele><time>2026-04-05T16:21:26.943Z</time></trkpt><trkpt lat="44.81670114781097" lon="12.000197894198827"><ele>3.0</ele><time>2026-04-05T16:21:27.943Z</time></trkpt><trkpt lat="44.81673346483504" lon="11.999981500647758"><ele>3.0</ele><time>2026-04-05T16:21:28.943Z</time></trkpt><trkpt lat="44.816768279327356" lon="11.999768853601894"><ele>3.0</ele><time>2026-04-05T16:21:29.943Z</time></trkpt><trkpt lat="44.81680036520099" lon="11.999556574728215"><ele>2.6666666666666665</ele><time>2026-04-05T16:21:30.943Z</time></trkpt><trkpt lat="44.81683513655111" lon="11.999331502199434"><ele>2.333333333333333</ele><time>2026-04-05T16:21:31.943Z</time></trkpt><trkpt lat="44.816809014203656" lon="11.999105654826538"><ele>2.0</ele><time>2026-04-05T16:21:32.943Z</time></trkpt><trkpt lat="44.816790091557024" lon="11.998867258443745"><ele>2.0</ele><time>2026-04-05T16:21:33.943Z</time></trkpt><trkpt lat="44.81676751777806" lon="11.998614054453109"><ele>2.0</ele><time>2026-04-05T16:21:34.943Z</time></trkpt><trkpt lat="44.816744123553015" lon="11.998354815791274"><ele>2.0</ele><time>2026-04-05T16:21:35.943Z</time></trkpt><trkpt lat="44.8167135215727" lon="11.998080551768037"><ele>1.6666666666666665</ele><time>2026-04-05T16:21:36.943Z</time></trkpt><trkpt lat="44.81667520492794" lon="11.99780221492894"><ele>1.3333333333333333</ele><time>2026-04-05T16:21:37.942Z</time></trkpt><trkpt lat="44.81662676402735" lon="11.997512037937224"><ele>1.0</ele><time>2026-04-05T16:21:38.942Z</time></trkpt><trkpt lat="44.81657264315174" lon="11.997198408373034"><ele>1.0</ele><time>2026-04-05T16:21:39.942Z</time></trkpt><trkpt lat="44.81651471040308" lon="11.99688004544618"><ele>1.0</ele><time>2026-04-05T16:21:40.942Z</time></trkpt><trkpt lat="44.81644764617817" lon="11.996559774104707"><ele>0.5</ele><time>2026-04-05T16:21:41.942Z</time></trkpt><trkpt lat="44.81635938779763" lon="11.996236067565517"><ele>0.0</ele><time>2026-04-05T16:21:42.942Z</time></trkpt><trkpt lat="44.81625108702366" lon="11.995904593285402"><ele>-1.0</ele><time>2026-04-05T16:21:43.942Z</time></trkpt><trkpt lat="44.81610957496264" lon="11.995564279848859"><ele>-2.0</ele><time>2026-04-05T16:21:44.942Z</time></trkpt><trkpt lat="44.815988722292104" lon="11.995216762826015"><ele>-0.5</ele><time>2026-04-05T16:21:45.942Z</time></trkpt><trkpt lat="44.815868149609" lon="11.994890627665642"><ele>1.0</ele><time>2026-04-05T16:21:46.942Z</time></trkpt><trkpt lat="44.81575135756985" lon="11.99456899665037"><ele>1.0</ele><time>2026-04-05T16:21:47.942Z</time></trkpt><trkpt lat="44.81563921996575" lon="11.994254850176583"><ele>1.0</ele><time>2026-04-05T16:21:48.942Z</time></trkpt><trkpt lat="44.815525556934155" lon="11.993960680581326"><ele>0.0</ele><time>2026-04-05T16:21:49.942Z</time></trkpt><trkpt lat="44.81538112846167" lon="11.993662728317412"><ele>-1.0</ele><time>2026-04-05T16:21:50.942Z</time></trkpt><trkpt lat="44.81521682244228" lon="11.993363364073451"><ele>-0.5</ele><time>2026-04-05T16:21:51.942Z</time></trkpt><trkpt lat="44.815050054912" lon="11.993052565437145"><ele>0.0</ele><time>2026-04-05T16:21:52.942Z</time></trkpt><trkpt lat="44.814903540269704" lon="11.992751004793297"><ele>-0.5</ele><time>2026-04-05T16:21:53.942Z</time></trkpt><trkpt lat="44.81477246615308" lon="11.992476996485664"><ele>-1.0</ele><time>2026-04-05T16:21:54.942Z</time></trkpt><trkpt lat="44.81464887705151" lon="11.992222890057096"><ele>-1.0</ele><time>2026-04-05T16:21:55.942Z</time></trkpt><trkpt lat="44.814527606121025" lon="11.99198535590767"><ele>-1.0</ele><time>2026-04-05T16:21:56.942Z</time></trkpt><trkpt lat="44.81439738276216" lon="11.991768408096"><ele>-1.0</ele><time>2026-04-05T16:21:57.942Z</time></trkpt><trkpt lat="44.81425538124744" lon="11.991562985277989"><ele>-1.0</ele><time>2026-04-05T16:21:58.942Z</time></trkpt><trkpt lat="44.814115002574404" lon="11.991387869398023"><ele>-1.0</ele><time>2026-04-05T16:21:59.942Z</time></trkpt><trkpt lat="44.81397195383494" lon="11.991254598017518"><ele>-1.0</ele><time>2026-04-05T16:22:00.942Z</time></trkpt><trkpt lat="44.81383240244121" lon="11.991151025181209"><ele>-1.0</ele><time>2026-04-05T16:22:01.942Z</time></trkpt><trkpt lat="44.81370714209226" lon="11.99104991273068"><ele>-1.0</ele><time>2026-04-05T16:22:02.942Z</time></trkpt><trkpt lat="44.81360809720873" lon="11.99089904904387"><ele>-1.0</ele><time>2026-04-05T16:22:03.942Z</time></trkpt><trkpt lat="44.81353992092758" lon="11.990694047469159"><ele>-1.0</ele><time>2026-04-05T16:22:04.943Z</time></trkpt><trkpt lat="44.81349395829299" lon="11.990478036616453"><ele>-1.0</ele><time>2026-04-05T16:22:05.943Z</time></trkpt><trkpt lat="44.81344751086184" lon="11.990275083700384"><ele>-1.0</ele><time>2026-04-05T16:22:06.942Z</time></trkpt><trkpt lat="44.81339743379364" lon="11.990087075511779"><ele>-1.25</ele><time>2026-04-05T16:22:07.942Z</time></trkpt><trkpt lat="44.81334180503333" lon="11.98991095585469"><ele>-1.5</ele><time>2026-04-05T16:22:08.942Z</time></trkpt><trkpt lat="44.81328775864663" lon="11.989741562091748"><ele>-1.75</ele><time>2026-04-05T16:22:09.942Z</time></trkpt><trkpt lat="44.81323801389565" lon="11.989582830510551"><ele>-2.0</ele><time>2026-04-05T16:22:10.942Z</time></trkpt><trkpt lat="44.81318931164031" lon="11.989426454546809"><ele>-2.0</ele><time>2026-04-05T16:22:11.942Z</time></trkpt><trkpt lat="44.813138602814256" lon="11.989276905158532"><ele>-2.0</ele><time>2026-04-05T16:22:12.942Z</time></trkpt><trkpt lat="44.81309769794601" lon="11.989142672315865"><ele>-2.0</ele><time>2026-04-05T16:22:13.942Z</time></trkpt><trkpt lat="44.81305767027565" lon="11.989028362574805"><ele>-2.0</ele><time>2026-04-05T16:22:14.942Z</time></trkpt><trkpt lat="44.813031072513596" lon="11.988935993311419"><ele>-2.0</ele><time>2026-04-05T16:22:15.942Z</time></trkpt><trkpt lat="44.81300945782348" lon="11.98882442841945"><ele>-1.9999999999999998</ele><time>2026-04-05T16:22:17.942Z</time></trkpt><trkpt lat="44.813039135122054" lon="11.988687204517733"><ele>-2.0</ele><time>2026-04-05T16:22:21.942Z</time></trkpt><trkpt lat="44.81308479248826" lon="11.98861843990635"><ele>-2.0</ele><time>2026-04-05T16:22:36.941Z</time></trkpt><trkpt lat="44.813117924623185" lon="11.988536065032248"><ele>-2.0</ele><time>2026-04-05T16:22:37.941Z</time></trkpt><trkpt lat="44.81315952139119" lon="11.988436998610219"><ele>-1.9999999999999998</ele><time>2026-04-05T16:22:38.941Z</time></trkpt><trkpt lat="44.81320942696375" lon="11.988319465614419"><ele>-2.0</ele><time>2026-04-05T16:22:39.941Z</time></trkpt><trkpt lat="44.81326583448515" lon="11.988204590078425"><ele>-1.9999999999999998</ele><time>2026-04-05T16:22:40.941Z</time></trkpt><trkpt lat="44.81330703506661" lon="11.988077833962386"><ele>-2.0</ele><time>2026-04-05T16:22:41.941Z</time></trkpt><trkpt lat="44.81334433690716" lon="11.987965886212642"><ele>-2.0</ele><time>2026-04-05T16:22:42.941Z</time></trkpt><trkpt lat="44.81335040044588" lon="11.98784993247242"><ele>-2.0</ele><time>2026-04-05T16:22:43.941Z</time></trkpt><trkpt lat="44.81334909843804" lon="11.98773727020126"><ele>-1.9999999999999998</ele><time>2026-04-05T16:22:44.941Z</time></trkpt><trkpt lat="44.81334214615724" lon="11.987619374370476"><ele>-2.0</ele><time>2026-04-05T16:22:45.941Z</time></trkpt><trkpt lat="44.81332701436134" lon="11.98748793818074"><ele>-1.8</ele><time>2026-04-05T16:22:46.941Z</time></trkpt><trkpt lat="44.813316179810435" lon="11.987349199296766"><ele>-1.6</ele><time>2026-04-05T16:22:47.941Z</time></trkpt><trkpt lat="44.81330443615547" lon="11.987189113883062"><ele>-1.4000000000000001</ele><time>2026-04-05T16:22:48.941Z</time></trkpt><trkpt lat="44.81329616147033" lon="11.987030482498355"><ele>-1.2000000000000002</ele><time>2026-04-05T16:22:49.941Z</time></trkpt><trkpt lat="44.81328735674341" lon="11.986867846032432"><ele>-1.0</ele><time>2026-04-05T16:22:50.941Z</time></trkpt><trkpt lat="44.813281241053744" lon="11.986709479205121"><ele>-1.0</ele><time>2026-04-05T16:22:51.941Z</time></trkpt><trkpt lat="44.81326687307881" lon="11.986539070441825"><ele>-1.0</ele><time>2026-04-05T16:22:52.941Z</time></trkpt><trkpt lat="44.81325711989571" lon="11.986370567090407"><ele>-1.0</ele><time>2026-04-05T16:22:53.941Z</time></trkpt><trkpt lat="44.81324856238836" lon="11.986199442609022"><ele>-1.0</ele><time>2026-04-05T16:22:54.941Z</time></trkpt><trkpt lat="44.81323788848256" lon="11.986026763188754"><ele>-1.0</ele><time>2026-04-05T16:22:55.941Z</time></trkpt><trkpt lat="44.81323029728105" lon="11.985853234547816"><ele>-1.0</ele><time>2026-04-05T16:22:56.941Z</time></trkpt><trkpt lat="44.81322165150361" lon="11.985676534934942"><ele>-1.0</ele><time>2026-04-05T16:22:57.941Z</time></trkpt><trkpt lat="44.81321169980539" lon="11.985498409004181"><ele>-1.0</ele><time>2026-04-05T16:22:58.941Z</time></trkpt><trkpt lat="44.81319948901725" lon="11.98531324793419"><ele>-1.0</ele><time>2026-04-05T16:22:59.941Z</time></trkpt><trkpt lat="44.813188208544766" lon="11.985124632877948"><ele>-1.0</ele><time>2026-04-05T16:23:00.941Z</time></trkpt><trkpt lat="44.81317772652135" lon="11.984940647007324"><ele>-1.0</ele><time>2026-04-05T16:23:01.941Z</time></trkpt><trkpt lat="44.81316994007312" lon="11.984755708656891"><ele>-1.0</ele><time>2026-04-05T16:23:02.941Z</time></trkpt><trkpt lat="44.81316039951712" lon="11.984572966680197"><ele>-1.25</ele><time>2026-04-05T16:23:03.941Z</time></trkpt><trkpt lat="44.81315483893376" lon="11.984386315270962"><ele>-1.5</ele><time>2026-04-05T16:23:04.941Z</time></trkpt><trkpt lat="44.81314576747313" lon="11.98419988010645"><ele>-1.75</ele><time>2026-04-05T16:23:05.941Z</time></trkpt><trkpt lat="44.81314128294051" lon="11.984015826788392"><ele>-2.0</ele><time>2026-04-05T16:23:06.941Z</time></trkpt><trkpt lat="44.81313834663004" lon="11.983832274569647"><ele>-2.0</ele><time>2026-04-05T16:23:07.941Z</time></trkpt><trkpt lat="44.8131351601828" lon="11.983654370277854"><ele>-2.0</ele><time>2026-04-05T16:23:08.941Z</time></trkpt><trkpt lat="44.813136124458815" lon="11.983481089973235"><ele>-2.0</ele><time>2026-04-05T16:23:09.941Z</time></trkpt><trkpt lat="44.81313647101107" lon="11.983300380528492"><ele>-2.0</ele><time>2026-04-05T16:23:10.941Z</time></trkpt><trkpt lat="44.813135130741564" lon="11.983129561753419"><ele>-2.0</ele><time>2026-04-05T16:23:11.941Z</time></trkpt><trkpt lat="44.81312832546071" lon="11.982970542963347"><ele>-2.0</ele><time>2026-04-05T16:23:12.941Z</time></trkpt><trkpt lat="44.81312166146546" lon="11.982797792410926"><ele>-2.0</ele><time>2026-04-05T16:23:13.941Z</time></trkpt><trkpt lat="44.81311780206194" lon="11.98262445025096"><ele>-2.0</ele><time>2026-04-05T16:23:14.941Z</time></trkpt><trkpt lat="44.81311448150941" lon="11.982448586979348"><ele>-2.0</ele><time>2026-04-05T16:23:15.941Z</time></trkpt><trkpt lat="44.813108578099595" lon="11.982275200301864"><ele>-2.0</ele><time>2026-04-05T16:23:16.941Z</time></trkpt><trkpt lat="44.81310139463341" lon="11.98210591768639"><ele>-2.0</ele><time>2026-04-05T16:23:17.941Z</time></trkpt><trkpt lat="44.813098252017085" lon="11.981940575172306"><ele>-2.0</ele><time>2026-04-05T16:23:18.941Z</time></trkpt><trkpt lat="44.81310225811948" lon="11.981769035498358"><ele>-2.0</ele><time>2026-04-05T16:23:19.941Z</time></trkpt><trkpt lat="44.813114291178785" lon="11.9816008460348"><ele>-2.0</ele><time>2026-04-05T16:23:20.941Z</time></trkpt><trkpt lat="44.813137167878644" lon="11.981433617010984"><ele>-2.0</ele><time>2026-04-05T16:23:21.941Z</time></trkpt><trkpt lat="44.81316974641551" lon="11.981260939647804"><ele>-2.0</ele><time>2026-04-05T16:23:22.941Z</time></trkpt><trkpt lat="44.8131930853951" lon="11.981081051491508"><ele>-2.0</ele><time>2026-04-05T16:23:23.941Z</time></trkpt><trkpt lat="44.813205228061136" lon="11.980903860598286"><ele>-2.0</ele><time>2026-04-05T16:23:24.941Z</time></trkpt><trkpt lat="44.81320030580719" lon="11.980721960215028"><ele>-2.0</ele><time>2026-04-05T16:23:25.941Z</time></trkpt><trkpt lat="44.81319880868046" lon="11.980539669007339"><ele>-2.0</ele><time>2026-04-05T16:23:26.941Z</time></trkpt><trkpt lat="44.81319677025119" lon="11.980358870508292"><ele>-2.0</ele><time>2026-04-05T16:23:27.941Z</time></trkpt><trkpt lat="44.813201461488084" lon="11.98018526245342"><ele>-2.0</ele><time>2026-04-05T16:23:28.94Z</time></trkpt><trkpt lat="44.813216760571805" lon="11.980013716000858"><ele>-2.0</ele><time>2026-04-05T16:23:29.94Z</time></trkpt><trkpt lat="44.813254521448435" lon="11.97985507465151"><ele>-2.0</ele><time>2026-04-05T16:23:30.94Z</time></trkpt><trkpt lat="44.81330696104797" lon="11.979699878516547"><ele>-2.0</ele><time>2026-04-05T16:23:31.94Z</time></trkpt><trkpt lat="44.81335137060583" lon="11.97953217096358"><ele>-2.0</ele><time>2026-04-05T16:23:32.94Z</time></trkpt><trkpt lat="44.81338199467283" lon="11.979346355272144"><ele>-2.0</ele><time>2026-04-05T16:23:33.94Z</time></trkpt><trkpt lat="44.813364756336846" lon="11.979139998112672"><ele>-2.0</ele><time>2026-04-05T16:23:34.94Z</time></trkpt><trkpt lat="44.81335090893375" lon="11.978959125929116"><ele>-2.25</ele><time>2026-04-05T16:23:35.94Z</time></trkpt><trkpt lat="44.81335708626953" lon="11.97884506529515"><ele>-2.5</ele><time>2026-04-05T16:23:36.94Z</time></trkpt><trkpt lat="44.81333799520337" lon="11.978670963394727"><ele>-2.75</ele><time>2026-04-05T16:23:37.94Z</time></trkpt><trkpt lat="44.81331931720696" lon="11.978494947231601"><ele>-3.0</ele><time>2026-04-05T16:23:38.94Z</time></trkpt><trkpt lat="44.81333830848474" lon="11.978326756544012"><ele>-3.75</ele><time>2026-04-05T16:23:39.94Z</time></trkpt><trkpt lat="44.81336177359514" lon="11.978161764341632"><ele>-4.5</ele><time>2026-04-05T16:23:40.94Z</time></trkpt><trkpt lat="44.81338430582376" lon="11.97799760869935"><ele>-5.25</ele><time>2026-04-05T16:23:41.94Z</time></trkpt><trkpt lat="44.81340350003886" lon="11.977835310519785"><ele>-6.0</ele><time>2026-04-05T16:23:42.94Z</time></trkpt><trkpt lat="44.81342399184662" lon="11.977667009058498"><ele>-5.6</ele><time>2026-04-05T16:23:43.94Z</time></trkpt><trkpt lat="44.81344348786614" lon="11.977499504024664"><ele>-5.199999999999999</ele><time>2026-04-05T16:23:44.94Z</time></trkpt><trkpt lat="44.81346225952906" lon="11.977338498101473"><ele>-4.800000000000001</ele><time>2026-04-05T16:23:45.94Z</time></trkpt><trkpt lat="44.81347714783711" lon="11.977187891043707"><ele>-4.4</ele><time>2026-04-05T16:23:46.94Z</time></trkpt><trkpt lat="44.813483351282514" lon="11.97704673736486"><ele>-4.0</ele><time>2026-04-05T16:23:47.94Z</time></trkpt><trkpt lat="44.81345881044717" lon="11.97691779868058"><ele>-3.9999999999999996</ele><time>2026-04-05T16:23:48.94Z</time></trkpt><trkpt lat="44.81345977685156" lon="11.97679344272004"><ele>-4.0</ele><time>2026-04-05T16:23:49.94Z</time></trkpt><trkpt lat="44.81344935932727" lon="11.976686041569904"><ele>-4.0</ele><time>2026-04-05T16:23:50.94Z</time></trkpt><trkpt lat="44.813439596146246" lon="11.976592221617791"><ele>-4.0</ele><time>2026-04-05T16:23:51.94Z</time></trkpt><trkpt lat="44.813423318646244" lon="11.97642477239997"><ele>-3.9999999999999996</ele><time>2026-04-05T16:23:53.94Z</time></trkpt><trkpt lat="44.81340825875053" lon="11.976294315621645"><ele>-4.0</ele><time>2026-04-05T16:23:55.94Z</time></trkpt><trkpt lat="44.81340802794233" lon="11.976175079399265"><ele>-4.2</ele><time>2026-04-05T16:23:58.94Z</time></trkpt><trkpt lat="44.813540401863165" lon="11.976188457335063"><ele>-4.4</ele><time>2026-04-05T16:24:19.94Z</time></trkpt><trkpt lat="44.81361345806631" lon="11.976200988721041"><ele>-4.6</ele><time>2026-04-05T16:24:21.94Z</time></trkpt><trkpt lat="44.81370352107833" lon="11.976239558804219"><ele>-4.8</ele><time>2026-04-05T16:24:23.94Z</time></trkpt><trkpt lat="44.8137992611944" lon="11.97629633937038"><ele>-5.0</ele><time>2026-04-05T16:24:25.94Z</time></trkpt><trkpt lat="44.81391167087717" lon="11.976351305247615"><ele>-5.0</ele><time>2026-04-05T16:24:27.94Z</time></trkpt><trkpt lat="44.81398053281649" lon="11.97640175707307"><ele>-5.0</ele><time>2026-04-05T16:24:29.94Z</time></trkpt><trkpt lat="44.81389432803256" lon="11.97634229457583"><ele>-5.0</ele><time>2026-04-05T16:24:58.939Z</time></trkpt><trkpt lat="44.81379268832833" lon="11.976263145276862"><ele>-5.0</ele><time>2026-04-05T16:25:00.939Z</time></trkpt><trkpt lat="44.813691858440215" lon="11.976209062554682"><ele>-5.0</ele><time>2026-04-05T16:25:02.939Z</time></trkpt><trkpt lat="44.81361037949231" lon="11.976152598038926"><ele>-5.0</ele><time>2026-04-05T16:25:04.939Z</time></trkpt><trkpt lat="44.81353124779091" lon="11.976141656693944"><ele>-5.0</ele><time>2026-04-05T16:25:06.939Z</time></trkpt><trkpt lat="44.81345533018296" lon="11.976167444461456"><ele>-5.0</ele><time>2026-04-05T16:25:08.939Z</time></trkpt><trkpt lat="44.81338276912283" lon="11.97617062942235"><ele>-5.0</ele><time>2026-04-05T16:25:11.939Z</time></trkpt><trkpt lat="44.81336104327249" lon="11.976365147058129"><ele>-5.0</ele><time>2026-04-05T16:25:12.939Z</time></trkpt><trkpt lat="44.81337774159919" lon="11.976541367946853"><ele>-5.0</ele><time>2026-04-05T16:25:14.939Z</time></trkpt><trkpt lat="44.81338731654801" lon="11.976648069766677"><ele>-5.0</ele><time>2026-04-05T16:25:15.939Z</time></trkpt><trkpt lat="44.81339793030561" lon="11.976771047022698"><ele>-5.0</ele><time>2026-04-05T16:25:16.939Z</time></trkpt><trkpt lat="44.81340854117473" lon="11.976916881843447"><ele>-5.0</ele><time>2026-04-05T16:25:17.939Z</time></trkpt><trkpt lat="44.81341822778823" lon="11.977060237797604"><ele>-5.0</ele><time>2026-04-05T16:25:18.939Z</time></trkpt><trkpt lat="44.81343335649375" lon="11.977203626454433"><ele>-4.8</ele><time>2026-04-05T16:25:19.939Z</time></trkpt><trkpt lat="44.81340767676894" lon="11.977346062989211"><ele>-4.6</ele><time>2026-04-05T16:25:20.939Z</time></trkpt><trkpt lat="44.81339366513836" lon="11.977496536050925"><ele>-4.4</ele><time>2026-04-05T16:25:21.939Z</time></trkpt><trkpt lat="44.81338415307412" lon="11.977650861010186"><ele>-4.2</ele><time>2026-04-05T16:25:22.939Z</time></trkpt><trkpt lat="44.813369080873564" lon="11.977808427183957"><ele>-4.0</ele><time>2026-04-05T16:25:23.939Z</time></trkpt><trkpt lat="44.813351439088876" lon="11.97795250576981"><ele>-3.8000000000000003</ele><time>2026-04-05T16:25:24.939Z</time></trkpt><trkpt lat="44.81332951801044" lon="11.978096300883081"><ele>-3.6000000000000005</ele><time>2026-04-05T16:25:25.939Z</time></trkpt><trkpt lat="44.81331808385496" lon="11.978234521425115"><ele>-3.4</ele><time>2026-04-05T16:25:26.939Z</time></trkpt><trkpt lat="44.81330196480876" lon="11.978362227234665"><ele>-3.2</ele><time>2026-04-05T16:25:27.939Z</time></trkpt><trkpt lat="44.81328921771198" lon="11.978491126782101"><ele>-3.0</ele><time>2026-04-05T16:25:28.939Z</time></trkpt><trkpt lat="44.81328675192727" lon="11.978632562737877"><ele>-3.0</ele><time>2026-04-05T16:25:29.939Z</time></trkpt><trkpt lat="44.81327814504181" lon="11.978769304411188"><ele>-3.0</ele><time>2026-04-05T16:25:30.939Z</time></trkpt><trkpt lat="44.81329937493727" lon="11.978913321719656"><ele>-3.0</ele><time>2026-04-05T16:25:31.939Z</time></trkpt><trkpt lat="44.81331579034475" lon="11.979075818271893"><ele>-3.0</ele><time>2026-04-05T16:25:32.939Z</time></trkpt><trkpt lat="44.81332840111761" lon="11.979221909310443"><ele>-3.0</ele><time>2026-04-05T16:25:33.938Z</time></trkpt><trkpt lat="44.81333114669286" lon="11.979372676485585"><ele>-2.75</ele><time>2026-04-05T16:25:34.938Z</time></trkpt><trkpt lat="44.813316470369685" lon="11.979531793649532"><ele>-2.5</ele><time>2026-04-05T16:25:35.938Z</time></trkpt><trkpt lat="44.81328063230742" lon="11.979692860522958"><ele>-2.25</ele><time>2026-04-05T16:25:36.938Z</time></trkpt><trkpt lat="44.81323722285022" lon="11.979834729093817"><ele>-2.0</ele><time>2026-04-05T16:25:37.938Z</time></trkpt><trkpt lat="44.813196331697355" lon="11.979982287851673"><ele>-2.4000000000000004</ele><time>2026-04-05T16:25:38.938Z</time></trkpt><trkpt lat="44.813174006964864" lon="11.980134978806143"><ele>-2.8000000000000003</ele><time>2026-04-05T16:25:39.938Z</time></trkpt><trkpt lat="44.81316064672198" lon="11.980288078055633"><ele>-3.2</ele><time>2026-04-05T16:25:40.938Z</time></trkpt><trkpt lat="44.81314221028533" lon="11.98044049579405"><ele>-3.6</ele><time>2026-04-05T16:25:41.938Z</time></trkpt><trkpt lat="44.813148312672965" lon="11.980605104946582"><ele>-4.0</ele><time>2026-04-05T16:25:42.938Z</time></trkpt><trkpt lat="44.81315192415704" lon="11.980770367365995"><ele>-3.5</ele><time>2026-04-05T16:25:43.938Z</time></trkpt><trkpt lat="44.813154444873476" lon="11.980934986758434"><ele>-3.0</ele><time>2026-04-05T16:25:44.938Z</time></trkpt><trkpt lat="44.81314942335951" lon="11.981090417341285"><ele>-2.5</ele><time>2026-04-05T16:25:45.938Z</time></trkpt><trkpt lat="44.813133283058015" lon="11.981248886982172"><ele>-2.0</ele><time>2026-04-05T16:25:46.938Z</time></trkpt><trkpt lat="44.81310507525263" lon="11.981412132796304"><ele>-2.0</ele><time>2026-04-05T16:25:47.938Z</time></trkpt><trkpt lat="44.813073699530754" lon="11.98156664638203"><ele>-2.0</ele><time>2026-04-05T16:25:48.938Z</time></trkpt><trkpt lat="44.813053994047046" lon="11.981728186788091"><ele>-2.0</ele><time>2026-04-05T16:25:49.938Z</time></trkpt><trkpt lat="44.81304749765386" lon="11.981897779044363"><ele>-2.0</ele><time>2026-04-05T16:25:50.938Z</time></trkpt><trkpt lat="44.813049435714895" lon="11.982065620814554"><ele>-2.0</ele><time>2026-04-05T16:25:51.938Z</time></trkpt><trkpt lat="44.813055655932786" lon="11.982238698515603"><ele>-2.0</ele><time>2026-04-05T16:25:52.938Z</time></trkpt><trkpt lat="44.81306201705632" lon="11.982410600566265"><ele>-2.0</ele><time>2026-04-05T16:25:53.938Z</time></trkpt><trkpt lat="44.813070944689926" lon="11.982585123449025"><ele>-2.0</ele><time>2026-04-05T16:25:54.938Z</time></trkpt><trkpt lat="44.81308396930809" lon="11.982769094048088"><ele>-2.0</ele><time>2026-04-05T16:25:55.938Z</time></trkpt><trkpt lat="44.81307269506513" lon="11.98293306302681"><ele>-2.0</ele><time>2026-04-05T16:25:56.938Z</time></trkpt><trkpt lat="44.81307719199964" lon="11.98311508406763"><ele>-2.0</ele><time>2026-04-05T16:25:57.938Z</time></trkpt><trkpt lat="44.81307721665789" lon="11.983297646634393"><ele>-2.0</ele><time>2026-04-05T16:25:58.938Z</time></trkpt><trkpt lat="44.813090509736064" lon="11.983491647196638"><ele>-2.0</ele><time>2026-04-05T16:25:59.938Z</time></trkpt><trkpt lat="44.813098704256724" lon="11.98368970812914"><ele>-2.0</ele><time>2026-04-05T16:26:00.938Z</time></trkpt><trkpt lat="44.813104360886406" lon="11.983898227517031"><ele>-2.0</ele><time>2026-04-05T16:26:01.938Z</time></trkpt><trkpt lat="44.81309485520895" lon="11.984100928849447"><ele>-2.0</ele><time>2026-04-05T16:26:02.938Z</time></trkpt><trkpt lat="44.81310475849287" lon="11.98433018204016"><ele>-2.0</ele><time>2026-04-05T16:26:03.938Z</time></trkpt><trkpt lat="44.81310890375954" lon="11.984507884249943"><ele>-2.0</ele><time>2026-04-05T16:26:04.938Z</time></trkpt><trkpt lat="44.81312005270798" lon="11.98467478768831"><ele>-2.0</ele><time>2026-04-05T16:26:05.938Z</time></trkpt><trkpt lat="44.81312645251358" lon="11.984866285934416"><ele>-2.0</ele><time>2026-04-05T16:26:06.938Z</time></trkpt><trkpt lat="44.813140190677196" lon="11.985062424395984"><ele>-1.75</ele><time>2026-04-05T16:26:07.938Z</time></trkpt><trkpt lat="44.813160335385525" lon="11.9852657273009"><ele>-1.5</ele><time>2026-04-05T16:26:08.938Z</time></trkpt><trkpt lat="44.81317376070362" lon="11.985454063289286"><ele>-1.25</ele><time>2026-04-05T16:26:09.938Z</time></trkpt><trkpt lat="44.813183894456216" lon="11.985649430722594"><ele>-1.0</ele><time>2026-04-05T16:26:10.938Z</time></trkpt><trkpt lat="44.81319220455843" lon="11.985835937063248"><ele>-1.0</ele><time>2026-04-05T16:26:11.938Z</time></trkpt><trkpt lat="44.81320306878281" lon="11.986013839843888"><ele>-1.0</ele><time>2026-04-05T16:26:12.939Z</time></trkpt><trkpt lat="44.81320985698459" lon="11.986192436418067"><ele>-1.0</ele><time>2026-04-05T16:26:13.939Z</time></trkpt><trkpt lat="44.81322072457015" lon="11.986369991969172"><ele>-1.0</ele><time>2026-04-05T16:26:14.938Z</time></trkpt><trkpt lat="44.81322939043354" lon="11.986557245303757"><ele>-1.0</ele><time>2026-04-05T16:26:15.939Z</time></trkpt><trkpt lat="44.81324313607731" lon="11.98673193208367"><ele>-1.0</ele><time>2026-04-05T16:26:16.938Z</time></trkpt><trkpt lat="44.81325652548358" lon="11.986902573680586"><ele>-1.0</ele><time>2026-04-05T16:26:17.938Z</time></trkpt><trkpt lat="44.81326879024063" lon="11.987054705182727"><ele>-1.0</ele><time>2026-04-05T16:26:18.939Z</time></trkpt><trkpt lat="44.81327748732575" lon="11.98719744390468"><ele>-1.0</ele><time>2026-04-05T16:26:19.938Z</time></trkpt><trkpt lat="44.81328928842432" lon="11.987345215776875"><ele>-1.0</ele><time>2026-04-05T16:26:20.938Z</time></trkpt><trkpt lat="44.813300234928356" lon="11.987496687420206"><ele>-1.0</ele><time>2026-04-05T16:26:21.939Z</time></trkpt><trkpt lat="44.8132957364273" lon="11.987632810765742"><ele>-1.0</ele><time>2026-04-05T16:26:22.938Z</time></trkpt><trkpt lat="44.81330548557427" lon="11.98775349339632"><ele>-1.0</ele><time>2026-04-05T16:26:23.938Z</time></trkpt><trkpt lat="44.8133012989148" lon="11.987869630562518"><ele>-1.2000000000000002</ele><time>2026-04-05T16:26:24.938Z</time></trkpt><trkpt lat="44.81328935498332" lon="11.987983808323952"><ele>-1.4000000000000001</ele><time>2026-04-05T16:26:25.937Z</time></trkpt><trkpt lat="44.81326144726118" lon="11.988116750726492"><ele>-1.6</ele><time>2026-04-05T16:26:26.937Z</time></trkpt><trkpt lat="44.81321190164676" lon="11.988248239706452"><ele>-1.8</ele><time>2026-04-05T16:26:27.937Z</time></trkpt><trkpt lat="44.81316110629407" lon="11.988368817886991"><ele>-2.0</ele><time>2026-04-05T16:26:28.937Z</time></trkpt><trkpt lat="44.81311297206974" lon="11.988474337179932"><ele>-2.0</ele><time>2026-04-05T16:26:29.937Z</time></trkpt><trkpt lat="44.813062945543635" lon="11.988552913373377"><ele>-2.0</ele><time>2026-04-05T16:26:30.937Z</time></trkpt><trkpt lat="44.81302084296249" lon="11.988686591176663"><ele>-2.0</ele><time>2026-04-05T16:26:32.937Z</time></trkpt><trkpt lat="44.81291983969881" lon="11.98860764305305"><ele>-2.0</ele><time>2026-04-05T16:26:36.937Z</time></trkpt><trkpt lat="44.812875591970446" lon="11.988429211871825"><ele>-2.0</ele><time>2026-04-05T16:26:38.937Z</time></trkpt><trkpt lat="44.81285630366331" lon="11.988333412225353"><ele>-2.0</ele><time>2026-04-05T16:26:39.937Z</time></trkpt><trkpt lat="44.81281929562115" lon="11.988216243239961"><ele>-2.0</ele><time>2026-04-05T16:26:40.937Z</time></trkpt><trkpt lat="44.81278998671475" lon="11.988095196418776"><ele>-2.0</ele><time>2026-04-05T16:26:41.937Z</time></trkpt><trkpt lat="44.812750250373" lon="11.987962034776789"><ele>-2.0</ele><time>2026-04-05T16:26:42.937Z</time></trkpt><trkpt lat="44.81271866493053" lon="11.987818240642342"><ele>-2.0</ele><time>2026-04-05T16:26:43.937Z</time></trkpt><trkpt lat="44.81268107354999" lon="11.987653365930312"><ele>-1.75</ele><time>2026-04-05T16:26:44.937Z</time></trkpt><trkpt lat="44.81262495354359" lon="11.98746350983954"><ele>-1.5</ele><time>2026-04-05T16:26:45.937Z</time></trkpt><trkpt lat="44.812577013689165" lon="11.987279095092367"><ele>-1.25</ele><time>2026-04-05T16:26:46.937Z</time></trkpt><trkpt lat="44.81250264075175" lon="11.987096297328193"><ele>-1.0</ele><time>2026-04-05T16:26:47.937Z</time></trkpt><trkpt lat="44.81244886710996" lon="11.986893661108846"><ele>-1.0</ele><time>2026-04-05T16:26:48.937Z</time></trkpt><trkpt lat="44.812367602259876" lon="11.986687875171068"><ele>-1.0</ele><time>2026-04-05T16:26:49.937Z</time></trkpt><trkpt lat="44.81229020944558" lon="11.986476218101863"><ele>-1.0</ele><time>2026-04-05T16:26:50.937Z</time></trkpt><trkpt lat="44.812197228196204" lon="11.986275371787096"><ele>-1.0</ele><time>2026-04-05T16:26:51.937Z</time></trkpt><trkpt lat="44.812128547927934" lon="11.986048972505369"><ele>-1.0</ele><time>2026-04-05T16:26:52.937Z</time></trkpt><trkpt lat="44.812045575503035" lon="11.98583474792545"><ele>-1.0</ele><time>2026-04-05T16:26:53.937Z</time></trkpt><trkpt lat="44.811966412258734" lon="11.985641613532087"><ele>-1.0</ele><time>2026-04-05T16:26:54.937Z</time></trkpt><trkpt lat="44.81188119483419" lon="11.985439067702492"><ele>-1.0</ele><time>2026-04-05T16:26:55.937Z</time></trkpt><trkpt lat="44.811785084396185" lon="11.985243655800236"><ele>-1.0</ele><time>2026-04-05T16:26:56.937Z</time></trkpt><trkpt lat="44.811674749180085" lon="11.985062953819922"><ele>-0.3333333333333333</ele><time>2026-04-05T16:26:57.937Z</time></trkpt><trkpt lat="44.81156409141166" lon="11.984891122387802"><ele>0.3333333333333333</ele><time>2026-04-05T16:26:58.937Z</time></trkpt><trkpt lat="44.811447353825706" lon="11.984707047022884"><ele>1.0</ele><time>2026-04-05T16:26:59.937Z</time></trkpt><trkpt lat="44.81134275977038" lon="11.984484338892864"><ele>1.0</ele><time>2026-04-05T16:27:00.937Z</time></trkpt><trkpt lat="44.8112549347879" lon="11.984251783716898"><ele>1.0</ele><time>2026-04-05T16:27:01.937Z</time></trkpt><trkpt lat="44.811172121761395" lon="11.984026880187816"><ele>1.0</ele><time>2026-04-05T16:27:02.937Z</time></trkpt><trkpt lat="44.81106849074575" lon="11.983802993066812"><ele>0.3333333333333333</ele><time>2026-04-05T16:27:03.937Z</time></trkpt><trkpt lat="44.810955105841245" lon="11.983576693594687"><ele>-0.3333333333333333</ele><time>2026-04-05T16:27:04.937Z</time></trkpt><trkpt lat="44.81083396314735" lon="11.983338809056416"><ele>-1.0</ele><time>2026-04-05T16:27:05.937Z</time></trkpt><trkpt lat="44.81071659739855" lon="11.983083624988758"><ele>-1.3333333333333333</ele><time>2026-04-05T16:27:06.937Z</time></trkpt><trkpt lat="44.810594127360474" lon="11.982834976210295"><ele>-1.6666666666666665</ele><time>2026-04-05T16:27:07.937Z</time></trkpt><trkpt lat="44.810465509217956" lon="11.982593217899835"><ele>-2.0</ele><time>2026-04-05T16:27:08.937Z</time></trkpt><trkpt lat="44.810335490666525" lon="11.982363840367311"><ele>-2.0</ele><time>2026-04-05T16:27:09.937Z</time></trkpt><trkpt lat="44.810199585599975" lon="11.98213953494354"><ele>-2.0</ele><time>2026-04-05T16:27:10.937Z</time></trkpt><trkpt lat="44.810059868143554" lon="11.98191251760154"><ele>-2.0</ele><time>2026-04-05T16:27:11.937Z</time></trkpt><trkpt lat="44.80991105256675" lon="11.981691415480134"><ele>-1.6666666666666665</ele><time>2026-04-05T16:27:12.937Z</time></trkpt><trkpt lat="44.80975667281898" lon="11.98147872141039"><ele>-1.3333333333333333</ele><time>2026-04-05T16:27:13.937Z</time></trkpt><trkpt lat="44.80959424111715" lon="11.98126697686162"><ele>-1.0</ele><time>2026-04-05T16:27:14.937Z</time></trkpt><trkpt lat="44.8094355788126" lon="11.981061386366774"><ele>-0.6666666666666666</ele><time>2026-04-05T16:27:15.937Z</time></trkpt><trkpt lat="44.809268399212684" lon="11.98085791642855"><ele>-0.3333333333333333</ele><time>2026-04-05T16:27:16.937Z</time></trkpt><trkpt lat="44.80909995679493" lon="11.980653926498718"><ele>0.0</ele><time>2026-04-05T16:27:17.937Z</time></trkpt><trkpt lat="44.80893246496741" lon="11.980430737769428"><ele>0.0</ele><time>2026-04-05T16:27:18.937Z</time></trkpt><trkpt lat="44.8087714089967" lon="11.980206034050266"><ele>0.0</ele><time>2026-04-05T16:27:19.936Z</time></trkpt><trkpt lat="44.808609393373644" lon="11.979997035263576"><ele>0.0</ele><time>2026-04-05T16:27:20.936Z</time></trkpt><trkpt lat="44.808448855803086" lon="11.979795566680354"><ele>-0.3333333333333333</ele><time>2026-04-05T16:27:21.936Z</time></trkpt><trkpt lat="44.80828805375252" lon="11.979587389317922"><ele>-0.6666666666666666</ele><time>2026-04-05T16:27:22.936Z</time></trkpt><trkpt lat="44.80813496724158" lon="11.97936796753462"><ele>-1.0</ele><time>2026-04-05T16:27:23.936Z</time></trkpt><trkpt lat="44.80798727140797" lon="11.979133559478779"><ele>-2.0</ele><time>2026-04-05T16:27:24.936Z</time></trkpt><trkpt lat="44.80784754035387" lon="11.97888147854137"><ele>-3.0</ele><time>2026-04-05T16:27:25.936Z</time></trkpt><trkpt lat="44.80770541745229" lon="11.978630561478914"><ele>-2.0</ele><time>2026-04-05T16:27:26.936Z</time></trkpt><trkpt lat="44.8075621942972" lon="11.978382510647501"><ele>-1.0</ele><time>2026-04-05T16:27:27.936Z</time></trkpt><trkpt lat="44.807420902680796" lon="11.978122556088627"><ele>-1.0</ele><time>2026-04-05T16:27:28.936Z</time></trkpt><trkpt lat="44.80728426943793" lon="11.977847943703564"><ele>-1.0</ele><time>2026-04-05T16:27:29.936Z</time></trkpt><trkpt lat="44.8071645654144" lon="11.977554237001183"><ele>-1.0</ele><time>2026-04-05T16:27:30.936Z</time></trkpt><trkpt lat="44.80705085802964" lon="11.977256603276526"><ele>-1.0</ele><time>2026-04-05T16:27:31.936Z</time></trkpt><trkpt lat="44.80693702735912" lon="11.97695837075827"><ele>-1.0</ele><time>2026-04-05T16:27:32.936Z</time></trkpt><trkpt lat="44.8068298384578" lon="11.976648977443467"><ele>-1.0</ele><time>2026-04-05T16:27:33.936Z</time></trkpt><trkpt lat="44.80672293366972" lon="11.976338349336975"><ele>-1.0</ele><time>2026-04-05T16:27:34.936Z</time></trkpt><trkpt lat="44.80660504003915" lon="11.97603178849511"><ele>-1.0</ele><time>2026-04-05T16:27:35.936Z</time></trkpt><trkpt lat="44.806471860353355" lon="11.975737797920937"><ele>-1.0</ele><time>2026-04-05T16:27:36.936Z</time></trkpt><trkpt lat="44.80632865004708" lon="11.975455625924148"><ele>-1.0</ele><time>2026-04-05T16:27:37.936Z</time></trkpt><trkpt lat="44.80619024499952" lon="11.97517045988355"><ele>-1.0</ele><time>2026-04-05T16:27:38.936Z</time></trkpt><trkpt lat="44.80604978082198" lon="11.974886231294452"><ele>-1.0</ele><time>2026-04-05T16:27:39.936Z</time></trkpt><trkpt lat="44.805900389189695" lon="11.974607385457164"><ele>-1.0</ele><time>2026-04-05T16:27:40.936Z</time></trkpt><trkpt lat="44.80574032070121" lon="11.974334277231366"><ele>-1.0</ele><time>2026-04-05T16:27:41.936Z</time></trkpt><trkpt lat="44.805577336080916" lon="11.97405650553204"><ele>-1.0</ele><time>2026-04-05T16:27:42.936Z</time></trkpt><trkpt lat="44.80541613525367" lon="11.973778480905048"><ele>-1.0</ele><time>2026-04-05T16:27:43.936Z</time></trkpt><trkpt lat="44.805261894664504" lon="11.973501681823619"><ele>-1.0</ele><time>2026-04-05T16:27:44.936Z</time></trkpt><trkpt lat="44.805111066700114" lon="11.973228467893033"><ele>-1.0</ele><time>2026-04-05T16:27:45.936Z</time></trkpt><trkpt lat="44.80496191667317" lon="11.972970275229633"><ele>-1.0</ele><time>2026-04-05T16:27:46.936Z</time></trkpt><trkpt lat="44.804813420375226" lon="11.972721429334248"><ele>-1.0</ele><time>2026-04-05T16:27:47.936Z</time></trkpt><trkpt lat="44.80465922556542" lon="11.972489154150466"><ele>-1.0</ele><time>2026-04-05T16:27:48.936Z</time></trkpt><trkpt lat="44.80448969707239" lon="11.972272224324753"><ele>-1.0</ele><time>2026-04-05T16:27:49.936Z</time></trkpt><trkpt lat="44.80431213953174" lon="11.972073492609137"><ele>-1.5</ele><time>2026-04-05T16:27:50.936Z</time></trkpt><trkpt lat="44.804130964038656" lon="11.971870785356733"><ele>-2.0</ele><time>2026-04-05T16:27:51.936Z</time></trkpt><trkpt lat="44.803949336529186" lon="11.971675861241176"><ele>-2.5</ele><time>2026-04-05T16:27:52.936Z</time></trkpt><trkpt lat="44.803767369889414" lon="11.971486533380302"><ele>-3.0</ele><time>2026-04-05T16:27:53.936Z</time></trkpt><trkpt lat="44.803573443161774" lon="11.971306104615946"><ele>-1.5</ele><time>2026-04-05T16:27:54.936Z</time></trkpt><trkpt lat="44.80336834653146" lon="11.971135545116748"><ele>0.0</ele><time>2026-04-05T16:27:55.936Z</time></trkpt><trkpt lat="44.8031640257305" lon="11.970974980474654"><ele>-0.6666666666666666</ele><time>2026-04-05T16:27:56.936Z</time></trkpt><trkpt lat="44.80296559815027" lon="11.970824031790931"><ele>-1.3333333333333333</ele><time>2026-04-05T16:27:57.936Z</time></trkpt><trkpt lat="44.802767862136086" lon="11.97069300401436"><ele>-2.0</ele><time>2026-04-05T16:27:58.936Z</time></trkpt><trkpt lat="44.802566504323956" lon="11.970591801310317"><ele>-2.0</ele><time>2026-04-05T16:27:59.936Z</time></trkpt><trkpt lat="44.80236085008991" lon="11.970496155857518"><ele>-2.0</ele><time>2026-04-05T16:28:00.936Z</time></trkpt><trkpt lat="44.80215893998236" lon="11.970405586777515"><ele>-2.0</ele><time>2026-04-05T16:28:01.936Z</time></trkpt><trkpt lat="44.80195967383863" lon="11.97032016450199"><ele>-1.3333333333333333</ele><time>2026-04-05T16:28:02.936Z</time></trkpt><trkpt lat="44.801767126013374" lon="11.970235559743355"><ele>-0.6666666666666666</ele><time>2026-04-05T16:28:03.936Z</time></trkpt><trkpt lat="44.80158305777165" lon="11.9701470258028"><ele>0.0</ele><time>2026-04-05T16:28:04.936Z</time></trkpt><trkpt lat="44.801403325939894" lon="11.970059829447726"><ele>-0.6666666666666666</ele><time>2026-04-05T16:28:05.936Z</time></trkpt><trkpt lat="44.80122489050076" lon="11.96998120020762"><ele>-1.3333333333333333</ele><time>2026-04-05T16:28:06.936Z</time></trkpt><trkpt lat="44.80103860169853" lon="11.969925587485214"><ele>-2.0</ele><time>2026-04-05T16:28:07.936Z</time></trkpt><trkpt lat="44.80084881175933" lon="11.969870480023065"><ele>-2.6666666666666665</ele><time>2026-04-05T16:28:08.936Z</time></trkpt><trkpt lat="44.80065618665679" lon="11.969826592023376"><ele>-3.333333333333333</ele><time>2026-04-05T16:28:09.936Z</time></trkpt><trkpt lat="44.80046276706959" lon="11.969785760169694"><ele>-4.0</ele><time>2026-04-05T16:28:10.936Z</time></trkpt><trkpt lat="44.80027157105075" lon="11.969745013050835"><ele>-3.0</ele><time>2026-04-05T16:28:11.936Z</time></trkpt><trkpt lat="44.80008537742037" lon="11.969705527504015"><ele>-2.0</ele><time>2026-04-05T16:28:12.936Z</time></trkpt><trkpt lat="44.79990351900336" lon="11.969666867173066"><ele>-1.0</ele><time>2026-04-05T16:28:13.936Z</time></trkpt><trkpt lat="44.79973401798662" lon="11.969629892449763"><ele>-1.0</ele><time>2026-04-05T16:28:14.935Z</time></trkpt><trkpt lat="44.79957586003705" lon="11.969594136756964"><ele>-1.0</ele><time>2026-04-05T16:28:15.935Z</time></trkpt><trkpt lat="44.79942484428004" lon="11.969558370076456"><ele>-1.0</ele><time>2026-04-05T16:28:16.935Z</time></trkpt><trkpt lat="44.79928682005851" lon="11.969529486304925"><ele>-0.75</ele><time>2026-04-05T16:28:17.935Z</time></trkpt><trkpt lat="44.799164885244195" lon="11.96951773174175"><ele>-0.5</ele><time>2026-04-05T16:28:18.936Z</time></trkpt><trkpt lat="44.799048161495435" lon="11.969474339844481"><ele>-0.25</ele><time>2026-04-05T16:28:19.937Z</time></trkpt><trkpt lat="44.79894183364576" lon="11.969430727429327"><ele>0.0</ele><time>2026-04-05T16:28:20.937Z</time></trkpt><trkpt lat="44.79884531567423" lon="11.969425910998325"><ele>0.0</ele><time>2026-04-05T16:28:21.936Z</time></trkpt><trkpt lat="44.79877259972129" lon="11.96941368377643"><ele>0.0</ele><time>2026-04-05T16:28:22.937Z</time></trkpt><trkpt lat="44.79866177819735" lon="11.969400313615164"><ele>0.0</ele><time>2026-04-05T16:28:24.936Z</time></trkpt><trkpt lat="44.79870064712871" lon="11.969257686302196"><ele>0.0</ele><time>2026-04-05T16:28:25.936Z</time></trkpt><trkpt lat="44.798779569328914" lon="11.969114081698917"><ele>0.0</ele><time>2026-04-05T16:28:27.936Z</time></trkpt><trkpt lat="44.798829866316694" lon="11.969011361906862"><ele>-0.5</ele><time>2026-04-05T16:28:28.937Z</time></trkpt><trkpt lat="44.798891251924076" lon="11.968885091811114"><ele>-1.0</ele><time>2026-04-05T16:28:29.937Z</time></trkpt><trkpt lat="44.79895525909519" lon="11.968749457336903"><ele>-1.5</ele><time>2026-04-05T16:28:30.936Z</time></trkpt><trkpt lat="44.79902576413266" lon="11.968599720330651"><ele>-2.0</ele><time>2026-04-05T16:28:31.936Z</time></trkpt><trkpt lat="44.799097653423736" lon="11.968445867862494"><ele>-2.0</ele><time>2026-04-05T16:28:32.936Z</time></trkpt><trkpt lat="44.799175713286296" lon="11.968278809568854"><ele>-2.0</ele><time>2026-04-05T16:28:33.936Z</time></trkpt><trkpt lat="44.79925982327343" lon="11.968098803148797"><ele>-2.0</ele><time>2026-04-05T16:28:34.936Z</time></trkpt><trkpt lat="44.799351797971916" lon="11.967901965023586"><ele>-2.0</ele><time>2026-04-05T16:28:35.936Z</time></trkpt><trkpt lat="44.79944573988132" lon="11.967700917281844"><ele>-2.0</ele><time>2026-04-05T16:28:36.936Z</time></trkpt><trkpt lat="44.799547247454214" lon="11.96748425560248"><ele>-2.0</ele><time>2026-04-05T16:28:37.936Z</time></trkpt><trkpt lat="44.7996524108348" lon="11.967259985276277"><ele>-1.0</ele><time>2026-04-05T16:28:38.936Z</time></trkpt><trkpt lat="44.79976308582616" lon="11.967023961008438"><ele>0.0</ele><time>2026-04-05T16:28:39.936Z</time></trkpt><trkpt lat="44.799878233836296" lon="11.966778397646296"><ele>1.0</ele><time>2026-04-05T16:28:40.936Z</time></trkpt><trkpt lat="44.799999137809245" lon="11.966520559114535"><ele>1.3333333333333333</ele><time>2026-04-05T16:28:41.936Z</time></trkpt><trkpt lat="44.8001188714174" lon="11.96626521647362"><ele>1.6666666666666665</ele><time>2026-04-05T16:28:42.936Z</time></trkpt><trkpt lat="44.80024366623812" lon="11.966000361894134"><ele>2.0</ele><time>2026-04-05T16:28:43.936Z</time></trkpt><trkpt lat="44.80037303569428" lon="11.965727564154642"><ele>2.5</ele><time>2026-04-05T16:28:44.936Z</time></trkpt><trkpt lat="44.80050249302236" lon="11.965454581385837"><ele>3.0</ele><time>2026-04-05T16:28:45.936Z</time></trkpt><trkpt lat="44.800634668022404" lon="11.965174704458363"><ele>2.5</ele><time>2026-04-05T16:28:46.936Z</time></trkpt><trkpt lat="44.800771176994445" lon="11.964884403815141"><ele>2.0</ele><time>2026-04-05T16:28:47.936Z</time></trkpt><trkpt lat="44.80090523280385" lon="11.96459827080564"><ele>2.0</ele><time>2026-04-05T16:28:48.936Z</time></trkpt><trkpt lat="44.801036753625304" lon="11.964316602962485"><ele>2.0</ele><time>2026-04-05T16:28:49.936Z</time></trkpt><trkpt lat="44.80116802642508" lon="11.96403661078658"><ele>1.0</ele><time>2026-04-05T16:28:50.936Z</time></trkpt><trkpt lat="44.8012960361865" lon="11.963767896080874"><ele>0.0</ele><time>2026-04-05T16:28:51.936Z</time></trkpt><trkpt lat="44.80143040814057" lon="11.963517616400605"><ele>-0.6666666666666666</ele><time>2026-04-05T16:28:52.936Z</time></trkpt><trkpt lat="44.80158129838998" lon="11.963277089288443"><ele>-1.3333333333333333</ele><time>2026-04-05T16:28:53.936Z</time></trkpt><trkpt lat="44.8017391345348" lon="11.963065611944378"><ele>-2.0</ele><time>2026-04-05T16:28:54.936Z</time></trkpt><trkpt lat="44.801912188341035" lon="11.962883070765155"><ele>-2.0</ele><time>2026-04-05T16:28:55.935Z</time></trkpt><trkpt lat="44.80209762342756" lon="11.962725651854168"><ele>-2.0</ele><time>2026-04-05T16:28:56.935Z</time></trkpt><trkpt lat="44.80230180994931" lon="11.962594845426834"><ele>-2.0</ele><time>2026-04-05T16:28:57.935Z</time></trkpt><trkpt lat="44.80250723887544" lon="11.962469332455543"><ele>-2.333333333333333</ele><time>2026-04-05T16:28:58.935Z</time></trkpt><trkpt lat="44.80271358228731" lon="11.962344290060816"><ele>-2.6666666666666665</ele><time>2026-04-05T16:28:59.935Z</time></trkpt><trkpt lat="44.802918837900634" lon="11.96221990652557"><ele>-3.0</ele><time>2026-04-05T16:29:00.935Z</time></trkpt><trkpt lat="44.80311541995772" lon="11.962100779279893"><ele>-3.0</ele><time>2026-04-05T16:29:01.935Z</time></trkpt><trkpt lat="44.803307777809124" lon="11.961984211630694"><ele>-3.0</ele><time>2026-04-05T16:29:02.935Z</time></trkpt><trkpt lat="44.803487895054396" lon="11.961876873084403"><ele>-3.0</ele><time>2026-04-05T16:29:03.935Z</time></trkpt><trkpt lat="44.803660924557406" lon="11.961788677088645"><ele>-3.666666666666667</ele><time>2026-04-05T16:29:04.935Z</time></trkpt><trkpt lat="44.8038384003698" lon="11.961722052444847"><ele>-4.333333333333334</ele><time>2026-04-05T16:29:05.935Z</time></trkpt><trkpt lat="44.8040199829478" lon="11.961685034358132"><ele>-5.0</ele><time>2026-04-05T16:29:06.935Z</time></trkpt><trkpt lat="44.804210298227126" lon="11.961680175635305"><ele>-4.0</ele><time>2026-04-05T16:29:07.935Z</time></trkpt><trkpt lat="44.80440712872669" lon="11.961678849551358"><ele>-3.0</ele><time>2026-04-05T16:29:08.935Z</time></trkpt><trkpt lat="44.80460494044864" lon="11.96167838946767"><ele>-2.0</ele><time>2026-04-05T16:29:09.935Z</time></trkpt><trkpt lat="44.8048062288564" lon="11.96167350456698"><ele>-2.0</ele><time>2026-04-05T16:29:10.935Z</time></trkpt><trkpt lat="44.80500742621689" lon="11.961658647839267"><ele>-2.0</ele><time>2026-04-05T16:29:11.935Z</time></trkpt><trkpt lat="44.80521042270865" lon="11.961624175186307"><ele>-2.0</ele><time>2026-04-05T16:29:12.935Z</time></trkpt><trkpt lat="44.805408799714414" lon="11.961583048007373"><ele>-2.333333333333333</ele><time>2026-04-05T16:29:13.935Z</time></trkpt><trkpt lat="44.8056059020335" lon="11.961537046686194"><ele>-2.6666666666666665</ele><time>2026-04-05T16:29:14.935Z</time></trkpt><trkpt lat="44.80579413642459" lon="11.961478701186921"><ele>-3.0</ele><time>2026-04-05T16:29:15.935Z</time></trkpt><trkpt lat="44.805972930842046" lon="11.961353079378528"><ele>-3.0</ele><time>2026-04-05T16:29:16.935Z</time></trkpt><trkpt lat="44.806144327616884" lon="11.961202820710055"><ele>-3.0</ele><time>2026-04-05T16:29:17.935Z</time></trkpt><trkpt lat="44.80630400937097" lon="11.961033615361115"><ele>-3.0</ele><time>2026-04-05T16:29:18.935Z</time></trkpt><trkpt lat="44.80647071993459" lon="11.960872752206388"><ele>-2.6666666666666665</ele><time>2026-04-05T16:29:19.935Z</time></trkpt><trkpt lat="44.806655843015726" lon="11.96074492026565"><ele>-2.333333333333333</ele><time>2026-04-05T16:29:20.935Z</time></trkpt><trkpt lat="44.806842737078746" lon="11.960645505545095"><ele>-2.0</ele><time>2026-04-05T16:29:21.935Z</time></trkpt><trkpt lat="44.80703408521759" lon="11.960558677056852"><ele>-2.6666666666666665</ele><time>2026-04-05T16:29:22.935Z</time></trkpt><trkpt lat="44.80722961403441" lon="11.960483861535048"><ele>-3.333333333333333</ele><time>2026-04-05T16:29:23.935Z</time></trkpt><trkpt lat="44.80741889697165" lon="11.960396991770029"><ele>-4.0</ele><time>2026-04-05T16:29:24.935Z</time></trkpt><trkpt lat="44.807603324637284" lon="11.960313435013115"><ele>-3.6666666666666665</ele><time>2026-04-05T16:29:25.935Z</time></trkpt><trkpt lat="44.807780582250686" lon="11.960235794682422"><ele>-3.333333333333333</ele><time>2026-04-05T16:29:26.935Z</time></trkpt><trkpt lat="44.80794905200956" lon="11.960167129075327"><ele>-3.0</ele><time>2026-04-05T16:29:27.935Z</time></trkpt><trkpt lat="44.80810433928943" lon="11.96010021440876"><ele>-3.0</ele><time>2026-04-05T16:29:28.935Z</time></trkpt><trkpt lat="44.80823896350655" lon="11.96004365978426"><ele>-3.0</ele><time>2026-04-05T16:29:29.935Z</time></trkpt><trkpt lat="44.80835597653518" lon="11.959988902643882"><ele>-3.0</ele><time>2026-04-05T16:29:30.935Z</time></trkpt><trkpt lat="44.80846283744097" lon="11.959938761611168"><ele>-3.0</ele><time>2026-04-05T16:29:31.935Z</time></trkpt><trkpt lat="44.80855629070241" lon="11.959880637386872"><ele>-3.0</ele><time>2026-04-05T16:29:32.935Z</time></trkpt><trkpt lat="44.80864680916715" lon="11.95982693821876"><ele>-3.0</ele><time>2026-04-05T16:29:33.935Z</time></trkpt><trkpt lat="44.808708970699634" lon="11.959666440863204"><ele>-3.0</ele><time>2026-04-05T16:29:34.935Z</time></trkpt><trkpt lat="44.80873327255811" lon="11.959477298535736"><ele>-3.0</ele><time>2026-04-05T16:29:35.935Z</time></trkpt><trkpt lat="44.80875461995802" lon="11.959277023985038"><ele>-3.333333333333333</ele><time>2026-04-05T16:29:36.935Z</time></trkpt><trkpt lat="44.80870958574783" lon="11.959038465664422"><ele>-3.6666666666666665</ele><time>2026-04-05T16:29:37.935Z</time></trkpt><trkpt lat="44.80872795312078" lon="11.958813682107875"><ele>-4.0</ele><time>2026-04-05T16:29:38.935Z</time></trkpt><trkpt lat="44.808771794833504" lon="11.958596705199287"><ele>-3.6666666666666665</ele><time>2026-04-05T16:29:39.935Z</time></trkpt><trkpt lat="44.808817052915785" lon="11.958365909025025"><ele>-3.333333333333333</ele><time>2026-04-05T16:29:40.935Z</time></trkpt><trkpt lat="44.808876908774586" lon="11.958120130688696"><ele>-3.0</ele><time>2026-04-05T16:29:41.935Z</time></trkpt><trkpt lat="44.80890392485627" lon="11.957862873865754"><ele>-3.0</ele><time>2026-04-05T16:29:42.935Z</time></trkpt><trkpt lat="44.80892019670334" lon="11.957603570273978"><ele>-3.0</ele><time>2026-04-05T16:29:43.935Z</time></trkpt><trkpt lat="44.808909863733795" lon="11.957328379333616"><ele>-3.0</ele><time>2026-04-05T16:29:44.935Z</time></trkpt><trkpt lat="44.80890479584436" lon="11.957048937570804"><ele>-2.6666666666666665</ele><time>2026-04-05T16:29:45.935Z</time></trkpt><trkpt lat="44.80888849808865" lon="11.956769467491597"><ele>-2.333333333333333</ele><time>2026-04-05T16:29:46.935Z</time></trkpt><trkpt lat="44.8088537509932" lon="11.95650916455465"><ele>-2.0</ele><time>2026-04-05T16:29:47.935Z</time></trkpt><trkpt lat="44.808782986257086" lon="11.956263916455416"><ele>-2.0</ele><time>2026-04-05T16:29:48.935Z</time></trkpt><trkpt lat="44.80868823340447" lon="11.956034718228134"><ele>-2.0</ele><time>2026-04-05T16:29:49.935Z</time></trkpt><trkpt lat="44.80860237648351" lon="11.955829031282198"><ele>-2.0</ele><time>2026-04-05T16:29:50.934Z</time></trkpt><trkpt lat="44.80853192457864" lon="11.95562565833863"><ele>-2.0</ele><time>2026-04-05T16:29:51.934Z</time></trkpt><trkpt lat="44.80848840778913" lon="11.955416225402645"><ele>-2.0</ele><time>2026-04-05T16:29:52.934Z</time></trkpt><trkpt lat="44.80848609945364" lon="11.955200208154928"><ele>-2.0</ele><time>2026-04-05T16:29:53.934Z</time></trkpt><trkpt lat="44.80851391541402" lon="11.954986376912574"><ele>-2.0</ele><time>2026-04-05T16:29:54.934Z</time></trkpt><trkpt lat="44.80855006048225" lon="11.954773959653197"><ele>-2.0</ele><time>2026-04-05T16:29:55.934Z</time></trkpt><trkpt lat="44.80859512493227" lon="11.95456417240794"><ele>-2.0</ele><time>2026-04-05T16:29:56.934Z</time></trkpt><trkpt lat="44.8086657076714" lon="11.954365615868342"><ele>-2.0</ele><time>2026-04-05T16:29:57.934Z</time></trkpt><trkpt lat="44.808767369165196" lon="11.954213250133922"><ele>-2.0</ele><time>2026-04-05T16:29:58.934Z</time></trkpt><trkpt lat="44.80890451244118" lon="11.954101611403436"><ele>-2.0</ele><time>2026-04-05T16:29:59.934Z</time></trkpt><trkpt lat="44.80904724439684" lon="11.95399864709192"><ele>-2.333333333333333</ele><time>2026-04-05T16:30:00.934Z</time></trkpt><trkpt lat="44.80919110468523" lon="11.953892263720745"><ele>-2.6666666666666665</ele><time>2026-04-05T16:30:01.934Z</time></trkpt><trkpt lat="44.809320132240664" lon="11.953763236510694"><ele>-3.0</ele><time>2026-04-05T16:30:02.934Z</time></trkpt><trkpt lat="44.809422143833174" lon="11.953590924008164"><ele>-3.0</ele><time>2026-04-05T16:30:03.934Z</time></trkpt><trkpt lat="44.809493158256934" lon="11.953382624950216"><ele>-3.0</ele><time>2026-04-05T16:30:04.934Z</time></trkpt><trkpt lat="44.809566384292935" lon="11.953164024808643"><ele>-3.0</ele><time>2026-04-05T16:30:05.934Z</time></trkpt><trkpt lat="44.80962768467584" lon="11.952934423287656"><ele>-3.0</ele><time>2026-04-05T16:30:06.934Z</time></trkpt><trkpt lat="44.80966619364773" lon="11.952687415636527"><ele>-3.0</ele><time>2026-04-05T16:30:07.934Z</time></trkpt><trkpt lat="44.80967591142535" lon="11.952436914056005"><ele>-3.0</ele><time>2026-04-05T16:30:08.934Z</time></trkpt><trkpt lat="44.809648796861275" lon="11.952187765987087"><ele>-3.0</ele><time>2026-04-05T16:30:09.934Z</time></trkpt><trkpt lat="44.80958415558801" lon="11.951955971046564"><ele>-3.0</ele><time>2026-04-05T16:30:10.934Z</time></trkpt><trkpt lat="44.80951035381403" lon="11.951727087404356"><ele>-3.0</ele><time>2026-04-05T16:30:11.934Z</time></trkpt><trkpt lat="44.809437543774656" lon="11.951490475175037"><ele>-2.6666666666666665</ele><time>2026-04-05T16:30:12.934Z</time></trkpt><trkpt lat="44.809362956460355" lon="11.951245587380306"><ele>-2.333333333333333</ele><time>2026-04-05T16:30:13.934Z</time></trkpt><trkpt lat="44.80928921115083" lon="11.950997505452296"><ele>-2.0</ele><time>2026-04-05T16:30:14.934Z</time></trkpt><trkpt lat="44.80921638955402" lon="11.950745396737146"><ele>-2.0</ele><time>2026-04-05T16:30:15.934Z</time></trkpt><trkpt lat="44.80914573435421" lon="11.95050734437025"><ele>-2.0</ele><time>2026-04-05T16:30:16.934Z</time></trkpt><trkpt lat="44.80908256425494" lon="11.950289930255563"><ele>-2.0</ele><time>2026-04-05T16:30:17.934Z</time></trkpt><trkpt lat="44.80902924744615" lon="11.95009067340624"><ele>-1.6666666666666665</ele><time>2026-04-05T16:30:18.934Z</time></trkpt><trkpt lat="44.80900065087007" lon="11.949891737244515"><ele>-1.3333333333333333</ele><time>2026-04-05T16:30:19.934Z</time></trkpt><trkpt lat="44.80901487264408" lon="11.949679129754106"><ele>-1.0</ele><time>2026-04-05T16:30:20.934Z</time></trkpt><trkpt lat="44.80906342987391" lon="11.949453975390359"><ele>-1.0</ele><time>2026-04-05T16:30:21.934Z</time></trkpt><trkpt lat="44.80911992439771" lon="11.949210146607856"><ele>-1.0</ele><time>2026-04-05T16:30:22.934Z</time></trkpt><trkpt lat="44.80917359479254" lon="11.948966703214131"><ele>-1.0</ele><time>2026-04-05T16:30:23.934Z</time></trkpt><trkpt lat="44.80922648273225" lon="11.948725949861023"><ele>-1.3333333333333333</ele><time>2026-04-05T16:30:24.935Z</time></trkpt><trkpt lat="44.8092703201371" lon="11.948494881669514"><ele>-1.6666666666666665</ele><time>2026-04-05T16:30:25.935Z</time></trkpt><trkpt lat="44.80931534760305" lon="11.948264722761897"><ele>-2.0</ele><time>2026-04-05T16:30:26.935Z</time></trkpt><trkpt lat="44.80936295409188" lon="11.948053204424163"><ele>-2.25</ele><time>2026-04-05T16:30:27.935Z</time></trkpt><trkpt lat="44.809406416763416" lon="11.947852863810072"><ele>-2.5</ele><time>2026-04-05T16:30:28.935Z</time></trkpt><trkpt lat="44.8094706175073" lon="11.947677737554345"><ele>-2.75</ele><time>2026-04-05T16:30:29.935Z</time></trkpt><trkpt lat="44.80957317347511" lon="11.947522244988901"><ele>-3.0</ele><time>2026-04-05T16:30:30.934Z</time></trkpt><trkpt lat="44.809716055224655" lon="11.947399045583685"><ele>-3.0</ele><time>2026-04-05T16:30:31.934Z</time></trkpt><trkpt lat="44.809883974197085" lon="11.947307487199488"><ele>-3.0</ele><time>2026-04-05T16:30:32.934Z</time></trkpt><trkpt lat="44.81006253835479" lon="11.947223727771995"><ele>-3.0</ele><time>2026-04-05T16:30:33.934Z</time></trkpt><trkpt lat="44.810237336297924" lon="11.947128699064804"><ele>-3.0</ele><time>2026-04-05T16:30:34.934Z</time></trkpt><trkpt lat="44.81040041214719" lon="11.947031301287158"><ele>-3.0</ele><time>2026-04-05T16:30:35.934Z</time></trkpt><trkpt lat="44.810551490275756" lon="11.946914314202054"><ele>-3.0</ele><time>2026-04-05T16:30:36.935Z</time></trkpt><trkpt lat="44.81067901015818" lon="11.946780619640478"><ele>-3.0</ele><time>2026-04-05T16:30:37.935Z</time></trkpt><trkpt lat="44.810793228986945" lon="11.94665253561355"><ele>-3.0</ele><time>2026-04-05T16:30:38.934Z</time></trkpt><trkpt lat="44.810919683049754" lon="11.946565255852864"><ele>-3.0</ele><time>2026-04-05T16:30:39.934Z</time></trkpt><trkpt lat="44.81106309034382" lon="11.946514764738167"><ele>-3.0</ele><time>2026-04-05T16:30:40.934Z</time></trkpt><trkpt lat="44.81121583982394" lon="11.946470677446147"><ele>-3.0</ele><time>2026-04-05T16:30:41.934Z</time></trkpt><trkpt lat="44.8113629977463" lon="11.946425664555843"><ele>-3.0</ele><time>2026-04-05T16:30:42.934Z</time></trkpt><trkpt lat="44.81149953309246" lon="11.946379621110276"><ele>-3.0</ele><time>2026-04-05T16:30:43.934Z</time></trkpt><trkpt lat="44.81162622254489" lon="11.946337418983012"><ele>-3.0</ele><time>2026-04-05T16:30:44.934Z</time></trkpt><trkpt lat="44.81174383755582" lon="11.94629824572998"><ele>-3.0</ele><time>2026-04-05T16:30:45.934Z</time></trkpt><trkpt lat="44.81185553684746" lon="11.946266723660532"><ele>-3.0</ele><time>2026-04-05T16:30:46.934Z</time></trkpt><trkpt lat="44.81195270580364" lon="11.946237469027919"><ele>-3.0</ele><time>2026-04-05T16:30:47.934Z</time></trkpt><trkpt lat="44.812034171006495" lon="11.946197078984612"><ele>-3.0</ele><time>2026-04-05T16:30:48.934Z</time></trkpt><trkpt lat="44.812117546897284" lon="11.946152122991078"><ele>-3.0</ele><time>2026-04-05T16:30:49.934Z</time></trkpt><trkpt lat="44.81218018240049" lon="11.946065212268058"><ele>-3.0</ele><time>2026-04-05T16:30:50.934Z</time></trkpt><trkpt lat="44.8121660456806" lon="11.94588678177339"><ele>-3.0</ele><time>2026-04-05T16:30:51.934Z</time></trkpt><trkpt lat="44.81211298842293" lon="11.94574966859712"><ele>-3.0</ele><time>2026-04-05T16:30:52.934Z</time></trkpt><trkpt lat="44.81205815429826" lon="11.945596890185048"><ele>-3.0</ele><time>2026-04-05T16:30:53.934Z</time></trkpt><trkpt lat="44.81200260730151" lon="11.945431399162029"><ele>-3.0</ele><time>2026-04-05T16:30:54.934Z</time></trkpt><trkpt lat="44.81197869873265" lon="11.945245585613495"><ele>-3.0</ele><time>2026-04-05T16:30:55.934Z</time></trkpt><trkpt lat="44.81199007107845" lon="11.945051260251411"><ele>-3.0</ele><time>2026-04-05T16:30:56.934Z</time></trkpt><trkpt lat="44.81205071198857" lon="11.944864247877746"><ele>-3.0</ele><time>2026-04-05T16:30:57.934Z</time></trkpt><trkpt lat="44.81214247565635" lon="11.944696072055837"><ele>-3.0</ele><time>2026-04-05T16:30:58.934Z</time></trkpt><trkpt lat="44.81222798341891" lon="11.944550628283428"><ele>-3.0</ele><time>2026-04-05T16:30:59.934Z</time></trkpt><trkpt lat="44.81228443792416" lon="11.944379415350227"><ele>-3.0</ele><time>2026-04-05T16:31:00.934Z</time></trkpt><trkpt lat="44.81232456015425" lon="11.944193360655937"><ele>-3.0</ele><time>2026-04-05T16:31:01.934Z</time></trkpt><trkpt lat="44.81233023631885" lon="11.944004165997741"><ele>-3.0</ele><time>2026-04-05T16:31:02.934Z</time></trkpt><trkpt lat="44.81230030688586" lon="11.943820885917427"><ele>-3.0</ele><time>2026-04-05T16:31:03.934Z</time></trkpt><trkpt lat="44.81223947604305" lon="11.943648568825925"><ele>-3.0</ele><time>2026-04-05T16:31:04.934Z</time></trkpt><trkpt lat="44.81216217178825" lon="11.943490824653308"><ele>-3.0</ele><time>2026-04-05T16:31:05.934Z</time></trkpt><trkpt lat="44.812068769539955" lon="11.943336403412571"><ele>-2.75</ele><time>2026-04-05T16:31:06.934Z</time></trkpt><trkpt lat="44.811978562471076" lon="11.943185047540998"><ele>-2.5</ele><time>2026-04-05T16:31:07.934Z</time></trkpt><trkpt lat="44.81188567480398" lon="11.943039653205817"><ele>-2.25</ele><time>2026-04-05T16:31:08.934Z</time></trkpt><trkpt lat="44.81178656734834" lon="11.942898508068629"><ele>-2.0</ele><time>2026-04-05T16:31:09.934Z</time></trkpt><trkpt lat="44.811670580280385" lon="11.942762525110995"><ele>-2.0</ele><time>2026-04-05T16:31:10.934Z</time></trkpt><trkpt lat="44.81154098263715" lon="11.94262582260121"><ele>-2.0</ele><time>2026-04-05T16:31:11.934Z</time></trkpt><trkpt lat="44.81141314432654" lon="11.94245338220359"><ele>-2.0</ele><time>2026-04-05T16:31:12.934Z</time></trkpt><trkpt lat="44.81130539973861" lon="11.942240622859796"><ele>-2.333333333333333</ele><time>2026-04-05T16:31:13.934Z</time></trkpt><trkpt lat="44.811207856616875" lon="11.94201693757129"><ele>-2.6666666666666665</ele><time>2026-04-05T16:31:14.934Z</time></trkpt><trkpt lat="44.81111453731835" lon="11.9418152226403"><ele>-3.0</ele><time>2026-04-05T16:31:15.934Z</time></trkpt><trkpt lat="44.81101983621526" lon="11.941621036171233"><ele>-2.6666666666666665</ele><time>2026-04-05T16:31:16.934Z</time></trkpt><trkpt lat="44.81092387087522" lon="11.941437732128712"><ele>-2.333333333333333</ele><time>2026-04-05T16:31:17.934Z</time></trkpt><trkpt lat="44.810825107639864" lon="11.94124935164171"><ele>-2.0</ele><time>2026-04-05T16:31:18.934Z</time></trkpt><trkpt lat="44.81071902483801" lon="11.941082040213"><ele>-2.0</ele><time>2026-04-05T16:31:19.934Z</time></trkpt><trkpt lat="44.81059816257864" lon="11.940942256279314"><ele>-2.0</ele><time>2026-04-05T16:31:20.934Z</time></trkpt><trkpt lat="44.810470266316784" lon="11.94082324477488"><ele>-2.0</ele><time>2026-04-05T16:31:21.934Z</time></trkpt><trkpt lat="44.810357867482345" lon="11.940690222463749"><ele>-2.0</ele><time>2026-04-05T16:31:22.934Z</time></trkpt><trkpt lat="44.8102716803046" lon="11.94052976768296"><ele>-2.0</ele><time>2026-04-05T16:31:23.934Z</time></trkpt><trkpt lat="44.81023040602204" lon="11.940336856193762"><ele>-2.0</ele><time>2026-04-05T16:31:24.934Z</time></trkpt><trkpt lat="44.810233474415554" lon="11.940123037949885"><ele>-2.0</ele><time>2026-04-05T16:31:25.934Z</time></trkpt><trkpt lat="44.810233609946955" lon="11.939902943221606"><ele>-1.6666666666666665</ele><time>2026-04-05T16:31:26.934Z</time></trkpt><trkpt lat="44.81022347444928" lon="11.939679045352717"><ele>-1.3333333333333333</ele><time>2026-04-05T16:31:27.934Z</time></trkpt><trkpt lat="44.81020237321192" lon="11.939458411812248"><ele>-1.0</ele><time>2026-04-05T16:31:28.934Z</time></trkpt><trkpt lat="44.81017993383621" lon="11.93924066440164"><ele>-0.75</ele><time>2026-04-05T16:31:29.934Z</time></trkpt><trkpt lat="44.81015682091376" lon="11.93902518987799"><ele>-0.5</ele><time>2026-04-05T16:31:30.934Z</time></trkpt><trkpt lat="44.81012939893013" lon="11.938818184028495"><ele>-0.25</ele><time>2026-04-05T16:31:31.934Z</time></trkpt><trkpt lat="44.81008913733981" lon="11.938623114851284"><ele>0.0</ele><time>2026-04-05T16:31:32.934Z</time></trkpt><trkpt lat="44.81001927549599" lon="11.93843392490754"><ele>-0.3333333333333333</ele><time>2026-04-05T16:31:33.933Z</time></trkpt><trkpt lat="44.80992160386313" lon="11.938251383566154"><ele>-0.6666666666666666</ele><time>2026-04-05T16:31:34.933Z</time></trkpt><trkpt lat="44.80983091096214" lon="11.938070128950143"><ele>-1.0</ele><time>2026-04-05T16:31:35.933Z</time></trkpt><trkpt lat="44.80975985810069" lon="11.937894880977233"><ele>-1.0</ele><time>2026-04-05T16:31:36.933Z</time></trkpt><trkpt lat="44.8096986771756" lon="11.937704745643682"><ele>-1.0</ele><time>2026-04-05T16:31:37.933Z</time></trkpt><trkpt lat="44.80964496889855" lon="11.937501642998111"><ele>-1.0</ele><time>2026-04-05T16:31:38.933Z</time></trkpt><trkpt lat="44.80960116824504" lon="11.937277488372823"><ele>-1.0</ele><time>2026-04-05T16:31:39.933Z</time></trkpt><trkpt lat="44.8095709113983" lon="11.93703948426117"><ele>-1.0</ele><time>2026-04-05T16:31:40.933Z</time></trkpt><trkpt lat="44.80956094013468" lon="11.936798638001497"><ele>-1.0</ele><time>2026-04-05T16:31:41.933Z</time></trkpt><trkpt lat="44.80956675789873" lon="11.936551677582953"><ele>-1.3333333333333333</ele><time>2026-04-05T16:31:42.933Z</time></trkpt><trkpt lat="44.80958306864785" lon="11.936304342785768"><ele>-1.6666666666666665</ele><time>2026-04-05T16:31:43.933Z</time></trkpt><trkpt lat="44.80960346022368" lon="11.936058839958928"><ele>-2.0</ele><time>2026-04-05T16:31:44.933Z</time></trkpt><trkpt lat="44.809629312369" lon="11.935817246795084"><ele>-2.333333333333333</ele><time>2026-04-05T16:31:45.933Z</time></trkpt><trkpt lat="44.8096527596283" lon="11.93557930614177"><ele>-2.6666666666666665</ele><time>2026-04-05T16:31:46.933Z</time></trkpt><trkpt lat="44.8096704705873" lon="11.935346570496497"><ele>-3.0</ele><time>2026-04-05T16:31:47.933Z</time></trkpt><trkpt lat="44.80968330193395" lon="11.935109299365445"><ele>-3.0</ele><time>2026-04-05T16:31:48.933Z</time></trkpt><trkpt lat="44.809679379690756" lon="11.93488711911393"><ele>-3.0</ele><time>2026-04-05T16:31:49.933Z</time></trkpt><trkpt lat="44.8096677864641" lon="11.93467507163569"><ele>-3.0</ele><time>2026-04-05T16:31:50.933Z</time></trkpt><trkpt lat="44.80966401603317" lon="11.934473188065121"><ele>-3.0</ele><time>2026-04-05T16:31:51.933Z</time></trkpt><trkpt lat="44.80968133634228" lon="11.9342616926239"><ele>-3.0</ele><time>2026-04-05T16:31:52.933Z</time></trkpt><trkpt lat="44.80971989654877" lon="11.93405532083729"><ele>-3.0</ele><time>2026-04-05T16:31:53.933Z</time></trkpt><trkpt lat="44.809762810398496" lon="11.933862485072838"><ele>-3.0</ele><time>2026-04-05T16:31:54.933Z</time></trkpt><trkpt lat="44.809796073299054" lon="11.933686023040249"><ele>-2.8</ele><time>2026-04-05T16:31:55.933Z</time></trkpt><trkpt lat="44.809801394374134" lon="11.933508118160777"><ele>-2.5999999999999996</ele><time>2026-04-05T16:31:56.933Z</time></trkpt><trkpt lat="44.8098226160934" lon="11.933344741959537"><ele>-2.4000000000000004</ele><time>2026-04-05T16:31:57.933Z</time></trkpt><trkpt lat="44.80983048719278" lon="11.933199996456443"><ele>-2.2</ele><time>2026-04-05T16:31:58.933Z</time></trkpt><trkpt lat="44.809826001660035" lon="11.93308324333024"><ele>-2.0</ele><time>2026-04-05T16:31:59.933Z</time></trkpt><trkpt lat="44.80981792531491" lon="11.932988255070416"><ele>-2.0</ele><time>2026-04-05T16:32:00.933Z</time></trkpt><trkpt lat="44.809721553044966" lon="11.93291544076072"><ele>-2.0</ele><time>2026-04-05T16:32:01.933Z</time></trkpt><trkpt lat="44.80964500061732" lon="11.932831119683758"><ele>-2.0</ele><time>2026-04-05T16:32:02.933Z</time></trkpt><trkpt lat="44.8095814447019" lon="11.93270862663591"><ele>-2.0</ele><time>2026-04-05T16:32:03.933Z</time></trkpt><trkpt lat="44.80952141157517" lon="11.932548326175935"><ele>-2.0</ele><time>2026-04-05T16:32:04.933Z</time></trkpt><trkpt lat="44.809456505764565" lon="11.93235947761317"><ele>-2.0</ele><time>2026-04-05T16:32:05.933Z</time></trkpt><trkpt lat="44.809386488672814" lon="11.932166414113055"><ele>-2.0</ele><time>2026-04-05T16:32:06.933Z</time></trkpt><trkpt lat="44.80931172056394" lon="11.931965263660452"><ele>-2.0</ele><time>2026-04-05T16:32:07.933Z</time></trkpt><trkpt lat="44.809242948711386" lon="11.931767262821285"><ele>-2.0</ele><time>2026-04-05T16:32:08.933Z</time></trkpt><trkpt lat="44.80916965484567" lon="11.931554829253272"><ele>-2.0</ele><time>2026-04-05T16:32:09.933Z</time></trkpt><trkpt lat="44.809090688610695" lon="11.931338684860743"><ele>-2.0</ele><time>2026-04-05T16:32:10.933Z</time></trkpt><trkpt lat="44.8090121454032" lon="11.931128731886286"><ele>-2.0</ele><time>2026-04-05T16:32:11.933Z</time></trkpt><trkpt lat="44.808939746463096" lon="11.930925530530622"><ele>-2.0</ele><time>2026-04-05T16:32:12.933Z</time></trkpt><trkpt lat="44.80886944071375" lon="11.930730085715458"><ele>-2.0</ele><time>2026-04-05T16:32:13.933Z</time></trkpt><trkpt lat="44.80880551310157" lon="11.930545230427796"><ele>-2.0</ele><time>2026-04-05T16:32:14.933Z</time></trkpt><trkpt lat="44.80874741706584" lon="11.930374274014971"><ele>-2.0</ele><time>2026-04-05T16:32:15.933Z</time></trkpt><trkpt lat="44.80869119639678" lon="11.93021631849871"><ele>-2.0</ele><time>2026-04-05T16:32:16.933Z</time></trkpt><trkpt lat="44.808638554907745" lon="11.930069201338284"><ele>-2.0</ele><time>2026-04-05T16:32:17.933Z</time></trkpt><trkpt lat="44.80856341933846" lon="11.929940745265473"><ele>-1.75</ele><time>2026-04-05T16:32:18.933Z</time></trkpt><trkpt lat="44.80845595892859" lon="11.929840128178933"><ele>-1.5</ele><time>2026-04-05T16:32:19.933Z</time></trkpt><trkpt lat="44.80832419230275" lon="11.929785029415655"><ele>-1.25</ele><time>2026-04-05T16:32:20.933Z</time></trkpt><trkpt lat="44.808175258147706" lon="11.929765095629627"><ele>-1.0</ele><time>2026-04-05T16:32:21.933Z</time></trkpt><trkpt lat="44.80802288106809" lon="11.929749613634206"><ele>-1.0</ele><time>2026-04-05T16:32:22.933Z</time></trkpt><trkpt lat="44.80787310322569" lon="11.929741426127372"><ele>-1.0</ele><time>2026-04-05T16:32:23.933Z</time></trkpt><trkpt lat="44.80772914269893" lon="11.929734542284677"><ele>-1.0</ele><time>2026-04-05T16:32:24.933Z</time></trkpt><trkpt lat="44.80759640826847" lon="11.92973438902462"><ele>-1.0</ele><time>2026-04-05T16:32:25.933Z</time></trkpt><trkpt lat="44.80747191523763" lon="11.929724989608548"><ele>-1.25</ele><time>2026-04-05T16:32:26.933Z</time></trkpt><trkpt lat="44.80735749099631" lon="11.929686376471787"><ele>-1.5</ele><time>2026-04-05T16:32:27.933Z</time></trkpt><trkpt lat="44.80724775285237" lon="11.929601486366055"><ele>-1.75</ele><time>2026-04-05T16:32:28.932Z</time></trkpt><trkpt lat="44.80714500682971" lon="11.929474602671831"><ele>-2.0</ele><time>2026-04-05T16:32:29.932Z</time></trkpt><trkpt lat="44.807058529186335" lon="11.929307624864196"><ele>-2.0</ele><time>2026-04-05T16:32:30.933Z</time></trkpt><trkpt lat="44.80699314340471" lon="11.929115561090597"><ele>-2.0</ele><time>2026-04-05T16:32:31.933Z</time></trkpt><trkpt lat="44.80692071711218" lon="11.928929171366699"><ele>-2.0</ele><time>2026-04-05T16:32:32.933Z</time></trkpt><trkpt lat="44.806845475976125" lon="11.928732074653135"><ele>-2.0</ele><time>2026-04-05T16:32:33.932Z</time></trkpt><trkpt lat="44.806763512894385" lon="11.928518911607647"><ele>-2.0</ele><time>2026-04-05T16:32:34.933Z</time></trkpt><trkpt lat="44.80667463484287" lon="11.928295234374527"><ele>-2.0</ele><time>2026-04-05T16:32:35.933Z</time></trkpt><trkpt lat="44.80658641314122" lon="11.928066645179731"><ele>-2.0</ele><time>2026-04-05T16:32:36.932Z</time></trkpt><trkpt lat="44.806497335567954" lon="11.927834987113625"><ele>-2.0</ele><time>2026-04-05T16:32:37.933Z</time></trkpt><trkpt lat="44.80640471405937" lon="11.927599374836186"><ele>-2.0</ele><time>2026-04-05T16:32:38.933Z</time></trkpt><trkpt lat="44.806309379711" lon="11.927360346326873"><ele>-2.0</ele><time>2026-04-05T16:32:39.932Z</time></trkpt><trkpt lat="44.806213911231005" lon="11.927120282602939"><ele>-2.0</ele><time>2026-04-05T16:32:40.932Z</time></trkpt><trkpt lat="44.806116851451016" lon="11.926875918316382"><ele>-2.0</ele><time>2026-04-05T16:32:41.932Z</time></trkpt><trkpt lat="44.80602201330489" lon="11.926633993294379"><ele>-2.0</ele><time>2026-04-05T16:32:42.932Z</time></trkpt><trkpt lat="44.805926259491244" lon="11.926386587585856"><ele>-2.0</ele><time>2026-04-05T16:32:43.932Z</time></trkpt><trkpt lat="44.80582723784221" lon="11.926128937747896"><ele>-2.0</ele><time>2026-04-05T16:32:44.932Z</time></trkpt><trkpt lat="44.80572120761788" lon="11.925860957015848"><ele>-2.0</ele><time>2026-04-05T16:32:45.932Z</time></trkpt><trkpt lat="44.80561472909527" lon="11.925589191474346"><ele>-2.0</ele><time>2026-04-05T16:32:46.932Z</time></trkpt><trkpt lat="44.805504108145186" lon="11.925307535113921"><ele>-2.0</ele><time>2026-04-05T16:32:47.932Z</time></trkpt><trkpt lat="44.80538964174854" lon="11.92501935000251"><ele>-1.5</ele><time>2026-04-05T16:32:48.932Z</time></trkpt><trkpt lat="44.805269349753196" lon="11.924720208656062"><ele>-1.0</ele><time>2026-04-05T16:32:49.932Z</time></trkpt><trkpt lat="44.805143780538984" lon="11.924402492114126"><ele>-1.0</ele><time>2026-04-05T16:32:50.932Z</time></trkpt><trkpt lat="44.80501203660782" lon="11.924062002714795"><ele>-1.0</ele><time>2026-04-05T16:32:51.932Z</time></trkpt><trkpt lat="44.8048680758005" lon="11.923695494307555"><ele>-1.0</ele><time>2026-04-05T16:32:52.932Z</time></trkpt><trkpt lat="44.804723072474275" lon="11.92332227543599"><ele>-1.0</ele><time>2026-04-05T16:32:53.932Z</time></trkpt><trkpt lat="44.80458143733236" lon="11.922957206286503"><ele>-1.0</ele><time>2026-04-05T16:32:54.932Z</time></trkpt><trkpt lat="44.804450631059" lon="11.922618247750364"><ele>-1.0</ele><time>2026-04-05T16:32:55.932Z</time></trkpt><trkpt lat="44.80431258239533" lon="11.922287889658802"><ele>-1.0</ele><time>2026-04-05T16:32:56.932Z</time></trkpt><trkpt lat="44.80415380439118" lon="11.921970006745626"><ele>-1.0</ele><time>2026-04-05T16:32:57.932Z</time></trkpt><trkpt lat="44.80397770453371" lon="11.921664833416918"><ele>-1.0</ele><time>2026-04-05T16:32:58.932Z</time></trkpt><trkpt lat="44.803783815067334" lon="11.921348513385256"><ele>-1.0</ele><time>2026-04-05T16:32:59.932Z</time></trkpt><trkpt lat="44.80358201348064" lon="11.92101529508071"><ele>-2.0</ele><time>2026-04-05T16:33:00.932Z</time></trkpt><trkpt lat="44.8034030027336" lon="11.920725760926892"><ele>-3.0</ele><time>2026-04-05T16:33:01.932Z</time></trkpt><trkpt lat="44.80322970944787" lon="11.920465236878304"><ele>-3.0</ele><time>2026-04-05T16:33:02.932Z</time></trkpt><trkpt lat="44.803060536707626" lon="11.92024075992079"><ele>-3.0</ele><time>2026-04-05T16:33:03.932Z</time></trkpt><trkpt lat="44.8028966525032" lon="11.920031945390615"><ele>-2.5</ele><time>2026-04-05T16:33:04.932Z</time></trkpt><trkpt lat="44.80273808060788" lon="11.919803319088127"><ele>-2.0</ele><time>2026-04-05T16:33:05.932Z</time></trkpt><trkpt lat="44.80260154964131" lon="11.919549531912095"><ele>-1.3333333333333333</ele><time>2026-04-05T16:33:06.932Z</time></trkpt><trkpt lat="44.80248319098083" lon="11.919290910563543"><ele>-0.6666666666666666</ele><time>2026-04-05T16:33:07.932Z</time></trkpt><trkpt lat="44.802379952232506" lon="11.919031650980292"><ele>0.0</ele><time>2026-04-05T16:33:08.932Z</time></trkpt><trkpt lat="44.80230089604114" lon="11.918753016351706"><ele>0.0</ele><time>2026-04-05T16:33:09.932Z</time></trkpt><trkpt lat="44.80225040546245" lon="11.91847861069964"><ele>0.0</ele><time>2026-04-05T16:33:10.932Z</time></trkpt><trkpt lat="44.80222742995819" lon="11.918211218246551"><ele>0.0</ele><time>2026-04-05T16:33:11.932Z</time></trkpt><trkpt lat="44.80222725486088" lon="11.917966392051301"><ele>-0.3333333333333333</ele><time>2026-04-05T16:33:12.931Z</time></trkpt><trkpt lat="44.8022148474584" lon="11.917729365283236"><ele>-0.6666666666666666</ele><time>2026-04-05T16:33:13.931Z</time></trkpt><trkpt lat="44.80217462209322" lon="11.917495238605543"><ele>-1.0</ele><time>2026-04-05T16:33:14.931Z</time></trkpt><trkpt lat="44.80209579038427" lon="11.917266670928703"><ele>-1.0</ele><time>2026-04-05T16:33:15.931Z</time></trkpt><trkpt lat="44.80201241286576" lon="11.917049111935684"><ele>-1.0</ele><time>2026-04-05T16:33:16.931Z</time></trkpt><trkpt lat="44.801931351263214" lon="11.91684153757104"><ele>-1.0</ele><time>2026-04-05T16:33:17.931Z</time></trkpt><trkpt lat="44.80186646093312" lon="11.91660937647052"><ele>-0.6666666666666666</ele><time>2026-04-05T16:33:18.931Z</time></trkpt><trkpt lat="44.801817362491775" lon="11.916367926220653"><ele>-0.3333333333333333</ele><time>2026-04-05T16:33:19.931Z</time></trkpt><trkpt lat="44.80175622870526" lon="11.916134754791084"><ele>0.0</ele><time>2026-04-05T16:33:20.931Z</time></trkpt><trkpt lat="44.80169713999638" lon="11.9159191285846"><ele>-0.5</ele><time>2026-04-05T16:33:21.931Z</time></trkpt><trkpt lat="44.80164980348794" lon="11.915723883607606"><ele>-1.0</ele><time>2026-04-05T16:33:22.931Z</time></trkpt><trkpt lat="44.801601608378675" lon="11.915542976015265"><ele>-1.5</ele><time>2026-04-05T16:33:23.931Z</time></trkpt><trkpt lat="44.80155724525097" lon="11.915357745236289"><ele>-2.0</ele><time>2026-04-05T16:33:24.931Z</time></trkpt><trkpt lat="44.80151540046684" lon="11.915181507603911"><ele>-2.0</ele><time>2026-04-05T16:33:25.931Z</time></trkpt><trkpt lat="44.8014773998285" lon="11.915016507508955"><ele>-2.0</ele><time>2026-04-05T16:33:26.931Z</time></trkpt><trkpt lat="44.80144521938458" lon="11.914854825333585"><ele>-2.0</ele><time>2026-04-05T16:33:27.931Z</time></trkpt><trkpt lat="44.80140759838219" lon="11.91469431507614"><ele>-2.0</ele><time>2026-04-05T16:33:28.931Z</time></trkpt><trkpt lat="44.801369477455474" lon="11.914538915610152"><ele>-2.0</ele><time>2026-04-05T16:33:29.931Z</time></trkpt><trkpt lat="44.80133712173113" lon="11.914400941470394"><ele>-2.0</ele><time>2026-04-05T16:33:30.931Z</time></trkpt><trkpt lat="44.80130561883067" lon="11.914269240200284"><ele>-2.0</ele><time>2026-04-05T16:33:31.931Z</time></trkpt><trkpt lat="44.80127758650467" lon="11.914142624379005"><ele>-2.0</ele><time>2026-04-05T16:33:32.931Z</time></trkpt><trkpt lat="44.80124234869843" lon="11.913987278619924"><ele>-2.0</ele><time>2026-04-05T16:33:33.931Z</time></trkpt><trkpt lat="44.80120380886907" lon="11.913831167283995"><ele>-1.8</ele><time>2026-04-05T16:33:34.931Z</time></trkpt><trkpt lat="44.801157673057986" lon="11.913689776748521"><ele>-1.6</ele><time>2026-04-05T16:33:35.931Z</time></trkpt><trkpt lat="44.801128038943155" lon="11.913544998387538"><ele>-1.4000000000000001</ele><time>2026-04-05T16:33:36.931Z</time></trkpt><trkpt lat="44.80111645375308" lon="11.913391512030424"><ele>-1.2000000000000002</ele><time>2026-04-05T16:33:37.931Z</time></trkpt><trkpt lat="44.801131068733596" lon="11.913242133705493"><ele>-1.0</ele><time>2026-04-05T16:33:38.931Z</time></trkpt><trkpt lat="44.80116964488803" lon="11.913097125423638"><ele>-0.8</ele><time>2026-04-05T16:33:39.931Z</time></trkpt><trkpt lat="44.80122677096293" lon="11.912973570601533"><ele>-0.6000000000000001</ele><time>2026-04-05T16:33:40.931Z</time></trkpt><trkpt lat="44.80130312553824" lon="11.912868110415427"><ele>-0.4</ele><time>2026-04-05T16:33:41.931Z</time></trkpt><trkpt lat="44.80138564424135" lon="11.912766881998675"><ele>-0.2</ele><time>2026-04-05T16:33:42.931Z</time></trkpt><trkpt lat="44.80148648097755" lon="11.912664226335709"><ele>0.0</ele><time>2026-04-05T16:33:43.931Z</time></trkpt><trkpt lat="44.80158758259735" lon="11.912535987583114"><ele>0.0</ele><time>2026-04-05T16:33:44.931Z</time></trkpt><trkpt lat="44.80171259039662" lon="11.912438242295712"><ele>0.0</ele><time>2026-04-05T16:33:45.931Z</time></trkpt><trkpt lat="44.80180722258286" lon="11.912295805994273"><ele>0.0</ele><time>2026-04-05T16:33:46.931Z</time></trkpt><trkpt lat="44.801891219695904" lon="11.912125498606091"><ele>0.0</ele><time>2026-04-05T16:33:47.931Z</time></trkpt><trkpt lat="44.801954646495716" lon="11.911951917531487"><ele>0.0</ele><time>2026-04-05T16:33:48.931Z</time></trkpt><trkpt lat="44.80199620519628" lon="11.91178378785275"><ele>0.0</ele><time>2026-04-05T16:33:49.931Z</time></trkpt><trkpt lat="44.802049544878756" lon="11.911636229671268"><ele>0.0</ele><time>2026-04-05T16:33:50.931Z</time></trkpt><trkpt lat="44.802098611709305" lon="11.911497072298033"><ele>0.0</ele><time>2026-04-05T16:33:51.931Z</time></trkpt><trkpt lat="44.80212209039138" lon="11.911356405793839"><ele>0.0</ele><time>2026-04-05T16:33:52.931Z</time></trkpt><trkpt lat="44.802143762181515" lon="11.911204531326165"><ele>0.0</ele><time>2026-04-05T16:33:53.931Z</time></trkpt><trkpt lat="44.80209028513232" lon="11.911044003322806"><ele>0.0</ele><time>2026-04-05T16:33:54.931Z</time></trkpt><trkpt lat="44.80202888472337" lon="11.910874537829256"><ele>0.0</ele><time>2026-04-05T16:33:55.931Z</time></trkpt><trkpt lat="44.8019561550515" lon="11.910685250627806"><ele>-0.3333333333333333</ele><time>2026-04-05T16:33:56.931Z</time></trkpt><trkpt lat="44.8018895688164" lon="11.910495732177138"><ele>-0.6666666666666666</ele><time>2026-04-05T16:33:57.931Z</time></trkpt><trkpt lat="44.80184666546034" lon="11.91028455726473"><ele>-1.0</ele><time>2026-04-05T16:33:58.931Z</time></trkpt><trkpt lat="44.80182480227715" lon="11.910049159939211"><ele>-1.3333333333333333</ele><time>2026-04-05T16:33:59.931Z</time></trkpt><trkpt lat="44.80181934134235" lon="11.909803866077496"><ele>-1.6666666666666665</ele><time>2026-04-05T16:34:00.931Z</time></trkpt><trkpt lat="44.80181941817291" lon="11.909565092411878"><ele>-2.0</ele><time>2026-04-05T16:34:01.931Z</time></trkpt><trkpt lat="44.80182169567625" lon="11.90932273079334"><ele>-1.3333333333333333</ele><time>2026-04-05T16:34:02.931Z</time></trkpt><trkpt lat="44.80181614261593" lon="11.90910245579011"><ele>-0.6666666666666666</ele><time>2026-04-05T16:34:03.931Z</time></trkpt><trkpt lat="44.80180918591566" lon="11.908895694096962"><ele>0.0</ele><time>2026-04-05T16:34:04.931Z</time></trkpt><trkpt lat="44.80182044040247" lon="11.908687454023509"><ele>-0.3333333333333333</ele><time>2026-04-05T16:34:05.931Z</time></trkpt><trkpt lat="44.801861653418584" lon="11.908482216350075"><ele>-0.6666666666666666</ele><time>2026-04-05T16:34:06.931Z</time></trkpt><trkpt lat="44.80193095116749" lon="11.908287482477968"><ele>-1.0</ele><time>2026-04-05T16:34:07.93Z</time></trkpt><trkpt lat="44.802032457654484" lon="11.90811259370594"><ele>-1.3333333333333333</ele><time>2026-04-05T16:34:08.93Z</time></trkpt><trkpt lat="44.802143290686104" lon="11.907942560673677"><ele>-1.6666666666666665</ele><time>2026-04-05T16:34:09.93Z</time></trkpt><trkpt lat="44.80223195803209" lon="11.907761093546828"><ele>-2.0</ele><time>2026-04-05T16:34:10.93Z</time></trkpt><trkpt lat="44.80228374731612" lon="11.907553710000432"><ele>-2.0</ele><time>2026-04-05T16:34:11.93Z</time></trkpt><trkpt lat="44.80229598265291" lon="11.907342025672508"><ele>-2.0</ele><time>2026-04-05T16:34:12.93Z</time></trkpt><trkpt lat="44.802262842897726" lon="11.907143897907993"><ele>-2.0</ele><time>2026-04-05T16:34:13.93Z</time></trkpt><trkpt lat="44.80219586066982" lon="11.906951251706559"><ele>-2.0</ele><time>2026-04-05T16:34:14.93Z</time></trkpt><trkpt lat="44.802112687005916" lon="11.906744476967281"><ele>-2.0</ele><time>2026-04-05T16:34:15.93Z</time></trkpt><trkpt lat="44.80202907242239" lon="11.906536861652098"><ele>-2.0</ele><time>2026-04-05T16:34:16.93Z</time></trkpt><trkpt lat="44.801941505681896" lon="11.9063187629845"><ele>-2.0</ele><time>2026-04-05T16:34:17.93Z</time></trkpt><trkpt lat="44.801859475696666" lon="11.90610874874274"><ele>-1.3333333333333333</ele><time>2026-04-05T16:34:18.93Z</time></trkpt><trkpt lat="44.801782583069325" lon="11.905901041932772"><ele>-0.6666666666666666</ele><time>2026-04-05T16:34:19.93Z</time></trkpt><trkpt lat="44.80172809206444" lon="11.905684234938395"><ele>0.0</ele><time>2026-04-05T16:34:20.93Z</time></trkpt><trkpt lat="44.801686270062476" lon="11.905465840153648"><ele>0.0</ele><time>2026-04-05T16:34:21.93Z</time></trkpt><trkpt lat="44.80164540642124" lon="11.905254226904281"><ele>0.0</ele><time>2026-04-05T16:34:22.93Z</time></trkpt><trkpt lat="44.801599438610225" lon="11.905061251562406"><ele>0.0</ele><time>2026-04-05T16:34:23.93Z</time></trkpt><trkpt lat="44.80152830918647" lon="11.904899251944688"><ele>0.0</ele><time>2026-04-05T16:34:24.93Z</time></trkpt><trkpt lat="44.80142828237041" lon="11.904749842707563"><ele>-0.25</ele><time>2026-04-05T16:34:25.93Z</time></trkpt><trkpt lat="44.80130399589091" lon="11.90462619523151"><ele>-0.5</ele><time>2026-04-05T16:34:26.93Z</time></trkpt><trkpt lat="44.80116815401934" lon="11.904536865120464"><ele>-0.75</ele><time>2026-04-05T16:34:27.93Z</time></trkpt><trkpt lat="44.80104266924232" lon="11.904464188596041"><ele>-1.0</ele><time>2026-04-05T16:34:28.93Z</time></trkpt><trkpt lat="44.80092767593366" lon="11.904387672186175"><ele>-1.0</ele><time>2026-04-05T16:34:29.93Z</time></trkpt><trkpt lat="44.80082260312216" lon="11.904285393851533"><ele>-1.0</ele><time>2026-04-05T16:34:30.93Z</time></trkpt><trkpt lat="44.80074096269476" lon="11.904151377237694"><ele>-1.0</ele><time>2026-04-05T16:34:31.93Z</time></trkpt><trkpt lat="44.800703225111924" lon="11.903988753832513"><ele>-1.0</ele><time>2026-04-05T16:34:32.93Z</time></trkpt><trkpt lat="44.800707835822664" lon="11.903807091189412"><ele>-1.0</ele><time>2026-04-05T16:34:33.93Z</time></trkpt><trkpt lat="44.80075721270007" lon="11.903616631917588"><ele>-1.0</ele><time>2026-04-05T16:34:34.93Z</time></trkpt><trkpt lat="44.8008250398593" lon="11.903414664556168"><ele>-1.0</ele><time>2026-04-05T16:34:35.931Z</time></trkpt><trkpt lat="44.80089151928076" lon="11.903192215572984"><ele>-1.0</ele><time>2026-04-05T16:34:36.931Z</time></trkpt><trkpt lat="44.800962495182276" lon="11.902959754220161"><ele>-1.0</ele><time>2026-04-05T16:34:37.931Z</time></trkpt><trkpt lat="44.801034685456784" lon="11.902730262977414"><ele>-1.0</ele><time>2026-04-05T16:34:38.931Z</time></trkpt><trkpt lat="44.801105995542855" lon="11.902500221405948"><ele>-0.6666666666666666</ele><time>2026-04-05T16:34:39.93Z</time></trkpt><trkpt lat="44.80116762641155" lon="11.902266174566643"><ele>-0.3333333333333333</ele><time>2026-04-05T16:34:40.93Z</time></trkpt><trkpt lat="44.80120499989107" lon="11.902026333682441"><ele>0.0</ele><time>2026-04-05T16:34:41.931Z</time></trkpt><trkpt lat="44.80121471060836" lon="11.901783681428705"><ele>0.0</ele><time>2026-04-05T16:34:42.93Z</time></trkpt><trkpt lat="44.801182977483904" lon="11.901548346705795"><ele>0.0</ele><time>2026-04-05T16:34:43.93Z</time></trkpt><trkpt lat="44.80114138087586" lon="11.90130535376173"><ele>0.0</ele><time>2026-04-05T16:34:44.931Z</time></trkpt><trkpt lat="44.80109342891598" lon="11.901069400519486"><ele>0.0</ele><time>2026-04-05T16:34:45.931Z</time></trkpt><trkpt lat="44.801044827808994" lon="11.900837582277196"><ele>0.0</ele><time>2026-04-05T16:34:46.931Z</time></trkpt><trkpt lat="44.80100560617374" lon="11.900606406580968"><ele>0.0</ele><time>2026-04-05T16:34:47.93Z</time></trkpt><trkpt lat="44.800968675448196" lon="11.900372931002583"><ele>0.0</ele><time>2026-04-05T16:34:48.93Z</time></trkpt><trkpt lat="44.80093522409616" lon="11.900137116506448"><ele>0.0</ele><time>2026-04-05T16:34:49.93Z</time></trkpt><trkpt lat="44.80090606683013" lon="11.899900536021823"><ele>0.0</ele><time>2026-04-05T16:34:50.93Z</time></trkpt><trkpt lat="44.800879899821034" lon="11.899660324202804"><ele>0.0</ele><time>2026-04-05T16:34:51.93Z</time></trkpt><trkpt lat="44.800861305875344" lon="11.899414181949641"><ele>0.0</ele><time>2026-04-05T16:34:52.93Z</time></trkpt><trkpt lat="44.8008474522003" lon="11.899161016479713"><ele>0.0</ele><time>2026-04-05T16:34:53.93Z</time></trkpt><trkpt lat="44.80084072036235" lon="11.89890506472414"><ele>0.0</ele><time>2026-04-05T16:34:54.93Z</time></trkpt><trkpt lat="44.800837863637135" lon="11.898643965058035"><ele>0.0</ele><time>2026-04-05T16:34:55.93Z</time></trkpt><trkpt lat="44.800818836311045" lon="11.898379193272328"><ele>0.0</ele><time>2026-04-05T16:34:56.93Z</time></trkpt><trkpt lat="44.80078647386332" lon="11.898114362720046"><ele>-0.3333333333333333</ele><time>2026-04-05T16:34:57.93Z</time></trkpt><trkpt lat="44.80074239879836" lon="11.897856624407721"><ele>-0.6666666666666666</ele><time>2026-04-05T16:34:58.93Z</time></trkpt><trkpt lat="44.80069978845924" lon="11.897600291756392"><ele>-1.0</ele><time>2026-04-05T16:34:59.93Z</time></trkpt><trkpt lat="44.8006622234874" lon="11.89734467114476"><ele>-1.0</ele><time>2026-04-05T16:35:00.93Z</time></trkpt><trkpt lat="44.800627158500546" lon="11.897090679660238"><ele>-1.0</ele><time>2026-04-05T16:35:01.93Z</time></trkpt><trkpt lat="44.80060371497513" lon="11.89683436902757"><ele>-1.0</ele><time>2026-04-05T16:35:02.93Z</time></trkpt><trkpt lat="44.80058861505139" lon="11.896582208865281"><ele>-1.0</ele><time>2026-04-05T16:35:03.93Z</time></trkpt><trkpt lat="44.800571472257275" lon="11.896327694596442"><ele>-1.0</ele><time>2026-04-05T16:35:04.93Z</time></trkpt><trkpt lat="44.80055388185298" lon="11.896080353645218"><ele>-1.0</ele><time>2026-04-05T16:35:05.93Z</time></trkpt><trkpt lat="44.8005369118188" lon="11.895847717621299"><ele>-1.0</ele><time>2026-04-05T16:35:06.93Z</time></trkpt><trkpt lat="44.8005260481918" lon="11.895631110022588"><ele>-1.0</ele><time>2026-04-05T16:35:07.93Z</time></trkpt><trkpt lat="44.80052927939038" lon="11.895428649832441"><ele>-1.0</ele><time>2026-04-05T16:35:08.93Z</time></trkpt><trkpt lat="44.800549643808516" lon="11.895241189622402"><ele>-1.0</ele><time>2026-04-05T16:35:09.93Z</time></trkpt><trkpt lat="44.800579583933335" lon="11.895074603382703"><ele>0.0</ele><time>2026-04-05T16:35:10.93Z</time></trkpt><trkpt lat="44.80063146434308" lon="11.894895638384654"><ele>1.0</ele><time>2026-04-05T16:35:11.93Z</time></trkpt><trkpt lat="44.80068749778866" lon="11.894728972282014"><ele>2.0</ele><time>2026-04-05T16:35:12.93Z</time></trkpt><trkpt lat="44.80074785970668" lon="11.894586198293416"><ele>3.0</ele><time>2026-04-05T16:35:13.93Z</time></trkpt><trkpt lat="44.8008104478197" lon="11.894459322776594"><ele>3.0</ele><time>2026-04-05T16:35:14.93Z</time></trkpt><trkpt lat="44.800866169372696" lon="11.894336927656514"><ele>3.0</ele><time>2026-04-05T16:35:15.93Z</time></trkpt><trkpt lat="44.80090822215389" lon="11.894211037493957"><ele>3.0</ele><time>2026-04-05T16:35:16.93Z</time></trkpt><trkpt lat="44.80096895399151" lon="11.894108273418608"><ele>3.0</ele><time>2026-04-05T16:35:17.93Z</time></trkpt><trkpt lat="44.80101583725617" lon="11.893973815965811"><ele>3.0</ele><time>2026-04-05T16:35:18.93Z</time></trkpt><trkpt lat="44.80111877979115" lon="11.89386434690545"><ele>2.0</ele><time>2026-04-05T16:35:19.93Z</time></trkpt><trkpt lat="44.80121871182207" lon="11.893737285002345"><ele>1.0</ele><time>2026-04-05T16:35:20.93Z</time></trkpt><trkpt lat="44.801321851655736" lon="11.893577957420288"><ele>0.0</ele><time>2026-04-05T16:35:21.93Z</time></trkpt><trkpt lat="44.80143825951789" lon="11.893396976030363"><ele>0.0</ele><time>2026-04-05T16:35:22.93Z</time></trkpt><trkpt lat="44.801556305190225" lon="11.893211654619801"><ele>0.0</ele><time>2026-04-05T16:35:23.93Z</time></trkpt><trkpt lat="44.80167845011475" lon="11.89302739144439"><ele>0.0</ele><time>2026-04-05T16:35:24.93Z</time></trkpt><trkpt lat="44.801812315929055" lon="11.892831587474008"><ele>-0.3333333333333333</ele><time>2026-04-05T16:35:25.93Z</time></trkpt><trkpt lat="44.801948862318454" lon="11.89263268560955"><ele>-0.6666666666666666</ele><time>2026-04-05T16:35:26.93Z</time></trkpt><trkpt lat="44.802092773424555" lon="11.892427861572587"><ele>-1.0</ele><time>2026-04-05T16:35:27.929Z</time></trkpt><trkpt lat="44.802248368838896" lon="11.892211468804627"><ele>-1.0</ele><time>2026-04-05T16:35:28.929Z</time></trkpt><trkpt lat="44.802384425639374" lon="11.892025444028361"><ele>-1.0</ele><time>2026-04-05T16:35:29.929Z</time></trkpt><trkpt lat="44.80251503589328" lon="11.891846072619378"><ele>-1.0</ele><time>2026-04-05T16:35:30.929Z</time></trkpt><trkpt lat="44.80263502541448" lon="11.891686294646876"><ele>-0.75</ele><time>2026-04-05T16:35:31.929Z</time></trkpt><trkpt lat="44.8027528221194" lon="11.891546816459236"><ele>-0.5</ele><time>2026-04-05T16:35:32.929Z</time></trkpt><trkpt lat="44.802859489779216" lon="11.891410229821794"><ele>-0.25</ele><time>2026-04-05T16:35:33.929Z</time></trkpt><trkpt lat="44.802955103310666" lon="11.891294046559828"><ele>0.0</ele><time>2026-04-05T16:35:34.929Z</time></trkpt><trkpt lat="44.80304822319871" lon="11.891195542285924"><ele>0.0</ele><time>2026-04-05T16:35:35.929Z</time></trkpt><trkpt lat="44.803147832504465" lon="11.891120199241055"><ele>0.0</ele><time>2026-04-05T16:35:36.929Z</time></trkpt><trkpt lat="44.80325327730449" lon="11.891092845042914"><ele>0.0</ele><time>2026-04-05T16:35:37.929Z</time></trkpt><trkpt lat="44.80337174247059" lon="11.891114740698344"><ele>0.0</ele><time>2026-04-05T16:35:38.929Z</time></trkpt><trkpt lat="44.80348091170751" lon="11.891176501380409"><ele>0.0</ele><time>2026-04-05T16:35:39.929Z</time></trkpt><trkpt lat="44.803557513406666" lon="11.891306860624747"><ele>0.0</ele><time>2026-04-05T16:35:40.929Z</time></trkpt><trkpt lat="44.8036299696996" lon="11.89144898855438"><ele>0.0</ele><time>2026-04-05T16:35:41.929Z</time></trkpt><trkpt lat="44.803710035820465" lon="11.891616460265135"><ele>0.0</ele><time>2026-04-05T16:35:42.929Z</time></trkpt><trkpt lat="44.8037936824705" lon="11.891791519413834"><ele>0.0</ele><time>2026-04-05T16:35:43.929Z</time></trkpt><trkpt lat="44.80388530526327" lon="11.891977606295724"><ele>0.0</ele><time>2026-04-05T16:35:44.929Z</time></trkpt><trkpt lat="44.80397936989387" lon="11.89216865288901"><ele>0.0</ele><time>2026-04-05T16:35:45.929Z</time></trkpt><trkpt lat="44.80407470009038" lon="11.892365464533603"><ele>0.0</ele><time>2026-04-05T16:35:46.929Z</time></trkpt><trkpt lat="44.80416864803573" lon="11.892559641440272"><ele>0.0</ele><time>2026-04-05T16:35:47.929Z</time></trkpt><trkpt lat="44.80426435044569" lon="11.892753090702435"><ele>0.0</ele><time>2026-04-05T16:35:48.929Z</time></trkpt><trkpt lat="44.8043620619633" lon="11.892950601143353"><ele>-0.6666666666666666</ele><time>2026-04-05T16:35:49.929Z</time></trkpt><trkpt lat="44.804462394515085" lon="11.893153410939162"><ele>-1.3333333333333333</ele><time>2026-04-05T16:35:50.929Z</time></trkpt><trkpt lat="44.80456426242722" lon="11.893359322944256"><ele>-2.0</ele><time>2026-04-05T16:35:51.929Z</time></trkpt><trkpt lat="44.8046691662368" lon="11.893571371733836"><ele>-2.0</ele><time>2026-04-05T16:35:52.929Z</time></trkpt><trkpt lat="44.804775486529046" lon="11.893786283464532"><ele>-2.0</ele><time>2026-04-05T16:35:53.929Z</time></trkpt><trkpt lat="44.8048822976856" lon="11.894002187661687"><ele>-2.0</ele><time>2026-04-05T16:35:54.929Z</time></trkpt><trkpt lat="44.80498950903752" lon="11.89421890067059"><ele>-1.6666666666666665</ele><time>2026-04-05T16:35:55.929Z</time></trkpt><trkpt lat="44.80510998924625" lon="11.894422548917728"><ele>-1.3333333333333333</ele><time>2026-04-05T16:35:56.929Z</time></trkpt><trkpt lat="44.80521518972686" lon="11.89463799076589"><ele>-1.0</ele><time>2026-04-05T16:35:57.929Z</time></trkpt><trkpt lat="44.80531863559341" lon="11.894851585090189"><ele>-1.0</ele><time>2026-04-05T16:35:58.929Z</time></trkpt><trkpt lat="44.80542260632831" lon="11.895065580177556"><ele>-1.0</ele><time>2026-04-05T16:35:59.929Z</time></trkpt><trkpt lat="44.80553001719081" lon="11.895278135761373"><ele>-1.0</ele><time>2026-04-05T16:36:00.929Z</time></trkpt><trkpt lat="44.80563632686761" lon="11.895490987570861"><ele>-0.6666666666666666</ele><time>2026-04-05T16:36:01.929Z</time></trkpt><trkpt lat="44.805740433871236" lon="11.895703260473633"><ele>-0.3333333333333333</ele><time>2026-04-05T16:36:02.929Z</time></trkpt><trkpt lat="44.80584245086651" lon="11.895914477631509"><ele>0.0</ele><time>2026-04-05T16:36:03.929Z</time></trkpt><trkpt lat="44.80594723650559" lon="11.896128113892894"><ele>-0.6666666666666666</ele><time>2026-04-05T16:36:04.929Z</time></trkpt><trkpt lat="44.806049872253766" lon="11.8963367890352"><ele>-1.3333333333333333</ele><time>2026-04-05T16:36:05.929Z</time></trkpt><trkpt lat="44.806155586995494" lon="11.89655190155438"><ele>-2.0</ele><time>2026-04-05T16:36:06.929Z</time></trkpt><trkpt lat="44.80624752971004" lon="11.896779775867355"><ele>-2.0</ele><time>2026-04-05T16:36:07.929Z</time></trkpt><trkpt lat="44.80635273828335" lon="11.896995231329138"><ele>-2.0</ele><time>2026-04-05T16:36:08.929Z</time></trkpt><trkpt lat="44.806458267309424" lon="11.897211342742496"><ele>-2.0</ele><time>2026-04-05T16:36:09.929Z</time></trkpt><trkpt lat="44.80656376964186" lon="11.897427420551743"><ele>-2.0</ele><time>2026-04-05T16:36:10.928Z</time></trkpt><trkpt lat="44.80666826207823" lon="11.897641516921812"><ele>-2.0</ele><time>2026-04-05T16:36:11.926Z</time></trkpt><trkpt lat="44.806772887665005" lon="11.897855886363145"><ele>-2.0</ele><time>2026-04-05T16:36:12.925Z</time></trkpt><trkpt lat="44.80687435928078" lon="11.898063793301112"><ele>-2.0</ele><time>2026-04-05T16:36:13.923Z</time></trkpt><trkpt lat="44.80697010064854" lon="11.898259665183842"><ele>-2.0</ele><time>2026-04-05T16:36:14.922Z</time></trkpt><trkpt lat="44.80706090522878" lon="11.898442593114657"><ele>-2.0</ele><time>2026-04-05T16:36:15.92Z</time></trkpt><trkpt lat="44.80716701076802" lon="11.898622799074285"><ele>-1.3333333333333333</ele><time>2026-04-05T16:36:16.919Z</time></trkpt><trkpt lat="44.80729974141311" lon="11.898772877948929"><ele>-0.6666666666666666</ele><time>2026-04-05T16:36:17.918Z</time></trkpt><trkpt lat="44.807435769870416" lon="11.898900735955605"><ele>0.0</ele><time>2026-04-05T16:36:18.917Z</time></trkpt><trkpt lat="44.807565900086324" lon="11.899021266865486"><ele>0.25</ele><time>2026-04-05T16:36:19.916Z</time></trkpt><trkpt lat="44.807685229638466" lon="11.899132558819227"><ele>0.5</ele><time>2026-04-05T16:36:20.915Z</time></trkpt><trkpt lat="44.80779882344026" lon="11.899240482722863"><ele>0.75</ele><time>2026-04-05T16:36:21.914Z</time></trkpt><trkpt lat="44.807904901583875" lon="11.899338638402215"><ele>1.0</ele><time>2026-04-05T16:36:22.913Z</time></trkpt><trkpt lat="44.80800357456025" lon="11.899428587661253"><ele>1.0</ele><time>2026-04-05T16:36:23.913Z</time></trkpt><trkpt lat="44.80810086113613" lon="11.89951802260854"><ele>1.0</ele><time>2026-04-05T16:36:24.912Z</time></trkpt><trkpt lat="44.80820287770392" lon="11.89961324573041"><ele>1.0</ele><time>2026-04-05T16:36:25.911Z</time></trkpt><trkpt lat="44.80830553736232" lon="11.899708828775173"><ele>1.0</ele><time>2026-04-05T16:36:26.911Z</time></trkpt><trkpt lat="44.808418900966764" lon="11.899813621536037"><ele>0.75</ele><time>2026-04-05T16:36:27.91Z</time></trkpt><trkpt lat="44.80853955420919" lon="11.899925152581671"><ele>0.5</ele><time>2026-04-05T16:36:28.909Z</time></trkpt><trkpt lat="44.80866222686741" lon="11.900038773585432"><ele>0.25</ele><time>2026-04-05T16:36:29.909Z</time></trkpt><trkpt lat="44.808783199216954" lon="11.900151440245558"><ele>0.0</ele><time>2026-04-05T16:36:30.908Z</time></trkpt><trkpt lat="44.80890147986443" lon="11.900261599675625"><ele>0.0</ele><time>2026-04-05T16:36:31.908Z</time></trkpt><trkpt lat="44.80902318990423" lon="11.900374952928985"><ele>0.0</ele><time>2026-04-05T16:36:32.907Z</time></trkpt><trkpt lat="44.809145399019066" lon="11.900488662652903"><ele>0.0</ele><time>2026-04-05T16:36:33.907Z</time></trkpt><trkpt lat="44.809270134727484" lon="11.900604416347043"><ele>0.0</ele><time>2026-04-05T16:36:34.907Z</time></trkpt><trkpt lat="44.80939419705285" lon="11.900719545085607"><ele>-0.5</ele><time>2026-04-05T16:36:35.906Z</time></trkpt><trkpt lat="44.80951587449401" lon="11.900832460836673"><ele>-1.0</ele><time>2026-04-05T16:36:36.906Z</time></trkpt><trkpt lat="44.80964072338377" lon="11.900925295530314"><ele>-1.5</ele><time>2026-04-05T16:36:37.906Z</time></trkpt><trkpt lat="44.80975567846637" lon="11.9010334702967"><ele>-2.0</ele><time>2026-04-05T16:36:38.905Z</time></trkpt><trkpt lat="44.80986167985323" lon="11.901132656379902"><ele>-2.0</ele><time>2026-04-05T16:36:39.905Z</time></trkpt><trkpt lat="44.80996261630357" lon="11.901223837985286"><ele>-2.0</ele><time>2026-04-05T16:36:40.905Z</time></trkpt><trkpt lat="44.810044293037336" lon="11.901325683003758"><ele>-2.0</ele><time>2026-04-05T16:36:41.905Z</time></trkpt><trkpt lat="44.8101358243242" lon="11.901397233523092"><ele>-2.0</ele><time>2026-04-05T16:36:42.905Z</time></trkpt><trkpt lat="44.81022560292276" lon="11.901461808404946"><ele>-2.0</ele><time>2026-04-05T16:36:43.905Z</time></trkpt><trkpt lat="44.81031417105548" lon="11.901500411724317"><ele>-1.9999999999999998</ele><time>2026-04-05T16:36:44.904Z</time></trkpt><trkpt lat="44.810408623089714" lon="11.901523844197522"><ele>-2.0</ele><time>2026-04-05T16:36:45.904Z</time></trkpt><trkpt lat="44.81049530387147" lon="11.90152302101967"><ele>-2.0</ele><time>2026-04-05T16:36:46.904Z</time></trkpt><trkpt lat="44.81058299846297" lon="11.90154407773391"><ele>-2.0</ele><time>2026-04-05T16:36:47.904Z</time></trkpt><trkpt lat="44.81066703654121" lon="11.901546898502698"><ele>-1.9999999999999998</ele><time>2026-04-05T16:36:48.904Z</time></trkpt><trkpt lat="44.8107477480005" lon="11.901549607610844"><ele>-2.0</ele><time>2026-04-05T16:36:49.903Z</time></trkpt><trkpt lat="44.81083985036109" lon="11.901264367420135"><ele>-2.0</ele><time>2026-04-05T16:36:50.904Z</time></trkpt><trkpt lat="44.81094188516225" lon="11.901156771968614"><ele>-2.0</ele><time>2026-04-05T16:36:51.903Z</time></trkpt><trkpt lat="44.811054139705995" lon="11.901028914975411"><ele>-2.0</ele><time>2026-04-05T16:36:52.903Z</time></trkpt><trkpt lat="44.81117764388846" lon="11.90088518054496"><ele>-2.0</ele><time>2026-04-05T16:36:53.903Z</time></trkpt><trkpt lat="44.811320172014476" lon="11.900757972926513"><ele>-1.6666666666666665</ele><time>2026-04-05T16:36:54.903Z</time></trkpt><trkpt lat="44.811458990126155" lon="11.900596747294196"><ele>-1.3333333333333333</ele><time>2026-04-05T16:36:55.902Z</time></trkpt><trkpt lat="44.81161311741174" lon="11.900455566380854"><ele>-1.0</ele><time>2026-04-05T16:36:56.902Z</time></trkpt><trkpt lat="44.811754456722824" lon="11.90030486550864"><ele>-1.0</ele><time>2026-04-05T16:36:57.902Z</time></trkpt><trkpt lat="44.81188430035374" lon="11.90015869680115"><ele>-1.0</ele><time>2026-04-05T16:36:58.902Z</time></trkpt><trkpt lat="44.81201515641233" lon="11.900029091945246"><ele>-1.0</ele><time>2026-04-05T16:36:59.902Z</time></trkpt><trkpt lat="44.812167243413434" lon="11.899931907747781"><ele>-0.6666666666666666</ele><time>2026-04-05T16:37:00.902Z</time></trkpt><trkpt lat="44.81233745733305" lon="11.899871492235834"><ele>-0.3333333333333333</ele><time>2026-04-05T16:37:01.902Z</time></trkpt><trkpt lat="44.81252269840393" lon="11.899869229050731"><ele>0.0</ele><time>2026-04-05T16:37:02.902Z</time></trkpt><trkpt lat="44.81270519586894" lon="11.899865372575043"><ele>0.3333333333333333</ele><time>2026-04-05T16:37:03.902Z</time></trkpt><trkpt lat="44.812896268272425" lon="11.899851475623711"><ele>0.6666666666666666</ele><time>2026-04-05T16:37:04.902Z</time></trkpt><trkpt lat="44.81308036550041" lon="11.8998354173394"><ele>1.0</ele><time>2026-04-05T16:37:05.901Z</time></trkpt><trkpt lat="44.81325674010458" lon="11.899820029293789"><ele>1.0</ele><time>2026-04-05T16:37:06.901Z</time></trkpt><trkpt lat="44.81342559741907" lon="11.899813914355047"><ele>1.0</ele><time>2026-04-05T16:37:07.901Z</time></trkpt><trkpt lat="44.81359321229881" lon="11.899812399384578"><ele>1.0</ele><time>2026-04-05T16:37:08.901Z</time></trkpt><trkpt lat="44.8137601506361" lon="11.89980152916241"><ele>1.3333333333333333</ele><time>2026-04-05T16:37:09.901Z</time></trkpt><trkpt lat="44.81392227328579" lon="11.899787493590813"><ele>1.6666666666666665</ele><time>2026-04-05T16:37:10.901Z</time></trkpt><trkpt lat="44.81408559600716" lon="11.899778326185995"><ele>2.0</ele><time>2026-04-05T16:37:11.901Z</time></trkpt><trkpt lat="44.814249608019566" lon="11.899775155692137"><ele>2.333333333333333</ele><time>2026-04-05T16:37:12.901Z</time></trkpt><trkpt lat="44.81441433657378" lon="11.89976783863801"><ele>2.6666666666666665</ele><time>2026-04-05T16:37:13.901Z</time></trkpt><trkpt lat="44.814571168376794" lon="11.899758789241709"><ele>3.0</ele><time>2026-04-05T16:37:14.901Z</time></trkpt><trkpt lat="44.814717959250515" lon="11.899745049330852"><ele>3.0</ele><time>2026-04-05T16:37:15.901Z</time></trkpt><trkpt lat="44.8148543552087" lon="11.899731758533871"><ele>3.0</ele><time>2026-04-05T16:37:16.901Z</time></trkpt><trkpt lat="44.814979138127654" lon="11.899748300450094"><ele>3.0</ele><time>2026-04-05T16:37:17.901Z</time></trkpt><trkpt lat="44.81509212158959" lon="11.899743236980765"><ele>3.0</ele><time>2026-04-05T16:37:18.901Z</time></trkpt><trkpt lat="44.8151919037479" lon="11.899738765139782"><ele>2.8</ele><time>2026-04-05T16:37:19.901Z</time></trkpt><trkpt lat="44.81527960593999" lon="11.89973787018716"><ele>2.5999999999999996</ele><time>2026-04-05T16:37:20.901Z</time></trkpt><trkpt lat="44.81535792994019" lon="11.899755460464979"><ele>2.4000000000000004</ele><time>2026-04-05T16:37:21.901Z</time></trkpt><trkpt lat="44.81541078975504" lon="11.899838583381664"><ele>2.2</ele><time>2026-04-05T16:37:22.901Z</time></trkpt><trkpt lat="44.81550332119001" lon="11.899866484798741"><ele>2.0</ele><time>2026-04-05T16:37:24.9Z</time></trkpt><trkpt lat="44.815633696784566" lon="11.899829779626797"><ele>2.0</ele><time>2026-04-05T16:37:26.9Z</time></trkpt><trkpt lat="44.81568333173864" lon="11.899732708642116"><ele>2.0</ele><time>2026-04-05T16:37:27.9Z</time></trkpt><trkpt lat="44.81564628482513" lon="11.899557750627972"><ele>2.0</ele><time>2026-04-05T16:37:28.9Z</time></trkpt><trkpt lat="44.815730102315655" lon="11.899455836574687"><ele>2.0</ele><time>2026-04-05T16:37:29.9Z</time></trkpt><trkpt lat="44.81582428551332" lon="11.899359789639403"><ele>2.0</ele><time>2026-04-05T16:37:30.9Z</time></trkpt><trkpt lat="44.81592972629229" lon="11.899253331114542"><ele>1.75</ele><time>2026-04-05T16:37:31.9Z</time></trkpt><trkpt lat="44.81604932196888" lon="11.89918717466755"><ele>1.5</ele><time>2026-04-05T16:37:32.9Z</time></trkpt><trkpt lat="44.81615715018585" lon="11.899070412053623"><ele>1.25</ele><time>2026-04-05T16:37:33.9Z</time></trkpt><trkpt lat="44.81627424101605" lon="11.898943619338008"><ele>1.0</ele><time>2026-04-05T16:37:34.9Z</time></trkpt><trkpt lat="44.81640107117021" lon="11.898806280312234"><ele>1.0</ele><time>2026-04-05T16:37:35.9Z</time></trkpt><trkpt lat="44.81651617126859" lon="11.898681643346409"><ele>1.0</ele><time>2026-04-05T16:37:36.9Z</time></trkpt><trkpt lat="44.816619671059016" lon="11.898569567802257"><ele>1.0</ele><time>2026-04-05T16:37:37.9Z</time></trkpt><trkpt lat="44.81671876954578" lon="11.89846225825434"><ele>1.0</ele><time>2026-04-05T16:37:38.9Z</time></trkpt><trkpt lat="44.81681105919028" lon="11.898362321754062"><ele>1.4</ele><time>2026-04-05T16:37:39.9Z</time></trkpt><trkpt lat="44.8168959699091" lon="11.898270375468275"><ele>1.8</ele><time>2026-04-05T16:37:40.9Z</time></trkpt><trkpt lat="44.816983283074094" lon="11.898177725629287"><ele>2.1999999999999997</ele><time>2026-04-05T16:37:41.9Z</time></trkpt><trkpt lat="44.81705673304303" lon="11.898098623993933"><ele>2.6</ele><time>2026-04-05T16:37:42.9Z</time></trkpt><trkpt lat="44.81712689516859" lon="11.898022838500415"><ele>3.0</ele><time>2026-04-05T16:37:43.9Z</time></trkpt><trkpt lat="44.817184315383486" lon="11.89795941626612"><ele>3.0</ele><time>2026-04-05T16:37:44.9Z</time></trkpt><trkpt lat="44.817238004309736" lon="11.89789955900403"><ele>3.0</ele><time>2026-04-05T16:37:45.9Z</time></trkpt><trkpt lat="44.817288398089325" lon="11.897823682993444"><ele>3.0</ele><time>2026-04-05T16:37:46.9Z</time></trkpt><trkpt lat="44.81736447652161" lon="11.897745662922347"><ele>3.0</ele><time>2026-04-05T16:37:48.9Z</time></trkpt><trkpt lat="44.81742748197536" lon="11.897668638574181"><ele>3.0</ele><time>2026-04-05T16:37:50.9Z</time></trkpt><trkpt lat="44.8174985141409" lon="11.897603728235083"><ele>3.0</ele><time>2026-04-05T16:37:52.9Z</time></trkpt><trkpt lat="44.81757942625167" lon="11.897520995332846"><ele>2.8</ele><time>2026-04-05T16:37:54.9Z</time></trkpt><trkpt lat="44.81768828436179" lon="11.897457558393102"><ele>2.5999999999999996</ele><time>2026-04-05T16:37:56.9Z</time></trkpt><trkpt lat="44.817825607031324" lon="11.897438759421869"><ele>2.4000000000000004</ele><time>2026-04-05T16:37:58.899Z</time></trkpt><trkpt lat="44.817894035767864" lon="11.897434270715534"><ele>2.2</ele><time>2026-04-05T16:37:59.899Z</time></trkpt><trkpt lat="44.817967165341386" lon="11.897425420511548"><ele>2.0</ele><time>2026-04-05T16:38:00.899Z</time></trkpt><trkpt lat="44.818035314724256" lon="11.89741608346559"><ele>1.9999999999999998</ele><time>2026-04-05T16:38:01.899Z</time></trkpt><trkpt lat="44.81814750644749" lon="11.897389872995245"><ele>2.0</ele><time>2026-04-05T16:38:03.899Z</time></trkpt><trkpt lat="44.81823679495764" lon="11.897335074137716"><ele>2.0</ele><time>2026-04-05T16:38:05.899Z</time></trkpt><trkpt lat="44.81826133486785" lon="11.897252208802678"><ele>2.0</ele><time>2026-04-05T16:38:07.899Z</time></trkpt><trkpt lat="44.81828374250333" lon="11.897152571494507"><ele>1.9999999999999998</ele><time>2026-04-05T16:38:11.899Z</time></trkpt><trkpt lat="44.81829314116087" lon="11.897055010232673"><ele>2.0</ele><time>2026-04-05T16:38:13.899Z</time></trkpt><trkpt lat="44.81828396443115" lon="11.896904536348684"><ele>2.0</ele><time>2026-04-05T16:38:15.899Z</time></trkpt><trkpt lat="44.81828561756184" lon="11.896783239713386"><ele>2.0</ele><time>2026-04-05T16:38:16.899Z</time></trkpt><trkpt lat="44.81828700839002" lon="11.896657269736902"><ele>2.0</ele><time>2026-04-05T16:38:17.899Z</time></trkpt><trkpt lat="44.81828243758552" lon="11.89652684886403"><ele>2.0</ele><time>2026-04-05T16:38:18.899Z</time></trkpt><trkpt lat="44.8182710318321" lon="11.896387775681445"><ele>2.0</ele><time>2026-04-05T16:38:19.899Z</time></trkpt><trkpt lat="44.8182807370146" lon="11.896203145877633"><ele>1.75</ele><time>2026-04-05T16:38:20.899Z</time></trkpt><trkpt lat="44.818297333650065" lon="11.896008321592191"><ele>1.5</ele><time>2026-04-05T16:38:21.899Z</time></trkpt><trkpt lat="44.81830041049394" lon="11.895813552630624"><ele>1.25</ele><time>2026-04-05T16:38:22.899Z</time></trkpt><trkpt lat="44.81830210920009" lon="11.895618944344655"><ele>1.0</ele><time>2026-04-05T16:38:23.899Z</time></trkpt><trkpt lat="44.818305711725785" lon="11.895424563014982"><ele>1.0</ele><time>2026-04-05T16:38:24.899Z</time></trkpt><trkpt lat="44.81830809021963" lon="11.89523999432755"><ele>1.0</ele><time>2026-04-05T16:38:25.899Z</time></trkpt><trkpt lat="44.8183011465205" lon="11.89505949849588"><ele>1.0</ele><time>2026-04-05T16:38:26.899Z</time></trkpt><trkpt lat="44.818303535118496" lon="11.894883046451008"><ele>1.0</ele><time>2026-04-05T16:38:27.899Z</time></trkpt><trkpt lat="44.81830569653979" lon="11.894704318910321"><ele>1.0</ele><time>2026-04-05T16:38:28.899Z</time></trkpt><trkpt lat="44.818309346818076" lon="11.894526512975766"><ele>1.0</ele><time>2026-04-05T16:38:29.899Z</time></trkpt><trkpt lat="44.81832924740535" lon="11.89433747743002"><ele>1.0</ele><time>2026-04-05T16:38:30.899Z</time></trkpt><trkpt lat="44.81832722304912" lon="11.894128814779764"><ele>1.0</ele><time>2026-04-05T16:38:31.899Z</time></trkpt><trkpt lat="44.81833003100938" lon="11.893915472486919"><ele>1.0</ele><time>2026-04-05T16:38:32.899Z</time></trkpt><trkpt lat="44.81833285112033" lon="11.893725482182338"><ele>1.0</ele><time>2026-04-05T16:38:33.899Z</time></trkpt><trkpt lat="44.81833063947481" lon="11.893546628082367"><ele>1.0</ele><time>2026-04-05T16:38:34.899Z</time></trkpt><trkpt lat="44.818327470778875" lon="11.893382584500522"><ele>1.0</ele><time>2026-04-05T16:38:35.899Z</time></trkpt><trkpt lat="44.81832423820271" lon="11.893230239623437"><ele>0.9999999999999999</ele><time>2026-04-05T16:38:36.899Z</time></trkpt><trkpt lat="44.8183157550401" lon="11.893082108911722"><ele>1.0</ele><time>2026-04-05T16:38:37.898Z</time></trkpt><trkpt lat="44.81831459364332" lon="11.892948866329673"><ele>1.0</ele><time>2026-04-05T16:38:38.898Z</time></trkpt><trkpt lat="44.81832168271757" lon="11.89282270914543"><ele>1.0</ele><time>2026-04-05T16:38:39.898Z</time></trkpt><trkpt lat="44.81832191677487" lon="11.892693372485512"><ele>0.9999999999999999</ele><time>2026-04-05T16:38:40.898Z</time></trkpt><trkpt lat="44.818318997940324" lon="11.892598218622187"><ele>1.0</ele><time>2026-04-05T16:38:41.898Z</time></trkpt><trkpt lat="44.818267956505494" lon="11.89246373551556"><ele>1.1666666666666665</ele><time>2026-04-05T16:38:43.898Z</time></trkpt><trkpt lat="44.818177297230385" lon="11.892421391629435"><ele>1.3333333333333333</ele><time>2026-04-05T16:38:45.898Z</time></trkpt><trkpt lat="44.81811665151457" lon="11.892385864337948"><ele>1.5</ele><time>2026-04-05T16:38:46.899Z</time></trkpt><trkpt lat="44.81804364765885" lon="11.89235450907747"><ele>1.6666666666666665</ele><time>2026-04-05T16:38:47.899Z</time></trkpt><trkpt lat="44.81796827148175" lon="11.892308570800498"><ele>1.8333333333333333</ele><time>2026-04-05T16:38:48.899Z</time></trkpt><trkpt lat="44.817890419591265" lon="11.892254707323014"><ele>2.0</ele><time>2026-04-05T16:38:49.898Z</time></trkpt><trkpt lat="44.81780598447578" lon="11.89218911214506"><ele>1.9999999999999998</ele><time>2026-04-05T16:38:50.898Z</time></trkpt><trkpt lat="44.81772393112549" lon="11.892116865268273"><ele>2.0</ele><time>2026-04-05T16:38:51.898Z</time></trkpt><trkpt lat="44.817645253732415" lon="11.892052288946587"><ele>2.0</ele><time>2026-04-05T16:38:52.899Z</time></trkpt><trkpt lat="44.81757074659542" lon="11.892012870558249"><ele>2.0</ele><time>2026-04-05T16:38:53.898Z</time></trkpt><trkpt lat="44.817515481890844" lon="11.89196343495298"><ele>1.9999999999999998</ele><time>2026-04-05T16:38:54.898Z</time></trkpt><trkpt lat="44.8174312138833" lon="11.891913251594412"><ele>2.0</ele><time>2026-04-05T16:38:56.898Z</time></trkpt><trkpt lat="44.81737774824905" lon="11.891981958195627"><ele>1.75</ele><time>2026-04-05T16:39:06.898Z</time></trkpt><trkpt lat="44.81731125058578" lon="11.89215634832799"><ele>1.5</ele><time>2026-04-05T16:39:08.898Z</time></trkpt><trkpt lat="44.8173063582794" lon="11.892306510398049"><ele>1.25</ele><time>2026-04-05T16:39:09.898Z</time></trkpt><trkpt lat="44.81730048757749" lon="11.89245808107654"><ele>1.0</ele><time>2026-04-05T16:39:10.898Z</time></trkpt><trkpt lat="44.817295090087875" lon="11.892597434481088"><ele>0.9999999999999999</ele><time>2026-04-05T16:39:11.898Z</time></trkpt><trkpt lat="44.81729010674484" lon="11.892726095376345"><ele>1.0</ele><time>2026-04-05T16:39:12.898Z</time></trkpt><trkpt lat="44.8172854105751" lon="11.89284734204339"><ele>1.0</ele><time>2026-04-05T16:39:13.898Z</time></trkpt><trkpt lat="44.81728094337613" lon="11.892962677053035"><ele>1.0</ele><time>2026-04-05T16:39:14.898Z</time></trkpt><trkpt lat="44.81729051569257" lon="11.89308289735173"><ele>0.9999999999999999</ele><time>2026-04-05T16:39:15.898Z</time></trkpt><trkpt lat="44.8172732792685" lon="11.893210203164472"><ele>1.0</ele><time>2026-04-05T16:39:16.898Z</time></trkpt><trkpt lat="44.81726281725737" lon="11.893336178937039"><ele>1.0</ele><time>2026-04-05T16:39:17.898Z</time></trkpt><trkpt lat="44.81724897797559" lon="11.89344879220265"><ele>3.0</ele><time>2026-04-05T16:39:18.898Z</time></trkpt><trkpt lat="44.81724157729627" lon="11.893551489757865"><ele>3.0</ele><time>2026-04-05T16:39:19.898Z</time></trkpt><trkpt lat="44.817225941856435" lon="11.89369883446278"><ele>3.0</ele><time>2026-04-05T16:39:21.898Z</time></trkpt><trkpt lat="44.817232541601115" lon="11.893789857170484"><ele>3.0</ele><time>2026-04-05T16:39:26.898Z</time></trkpt><trkpt lat="44.8172364565141" lon="11.893680805098565"><ele>3.0</ele><time>2026-04-05T16:39:41.897Z</time></trkpt></trkseg></trk></gpx>